<?xml version="1.0" encoding="UTF-8" standalone="no" ?>
<gpx xmlns="http://www.topografix.com/GPX/1/1" xmlns:xsi="http://www.w3.org/2001/XMLSchema-instance" xsi:schemaLocation="http://www.topografix.com/GPX/1/1 http://www.topografix.com/GPX/1/1/gpx.xsd" version="1.1" creator="VisuGPX - https://www.visugpx.com">
  <metadata>
    <name>Marche Erdre-Cens 14,4 km</name>
    <desc><![CDATA[Boucle de 14,4 km au départ de Gesvrines  rives de l'Erdre et du Cens]]></desc>
  </metadata>
  <trk>
    <name><![CDATA[Marche Erdre-Cens 14,4 km_1]]></name>
    <trkseg>
      <trkpt lat="47.26999" lon="-1.55212">
        <ele>29.493408203125</ele>
        <time>2016-11-22T07:43:01.000Z</time>
      </trkpt>
      <trkpt lat="47.26998" lon="-1.55212">
        <ele>29.481658935547</ele>
        <time>2016-11-22T07:43:03.000Z</time>
      </trkpt>
      <trkpt lat="47.26995" lon="-1.5521">
        <ele>29.435831069946</ele>
        <time>2016-11-22T07:43:06.000Z</time>
      </trkpt>
      <trkpt lat="47.26991" lon="-1.55208">
        <ele>29.364700317383</ele>
        <time>2016-11-22T07:43:09.000Z</time>
      </trkpt>
      <trkpt lat="47.26989" lon="-1.55208">
        <ele>29.307250976562</ele>
        <time>2016-11-22T07:43:11.000Z</time>
      </trkpt>
      <trkpt lat="47.26986" lon="-1.55208">
        <ele>29.211090087891</ele>
        <time>2016-11-22T07:43:13.000Z</time>
      </trkpt>
      <trkpt lat="47.26982" lon="-1.5521">
        <ele>29.09130859375</ele>
        <time>2016-11-22T07:43:16.000Z</time>
      </trkpt>
      <trkpt lat="47.26979" lon="-1.55211">
        <ele>28.981231689453</ele>
        <time>2016-11-22T07:43:18.000Z</time>
      </trkpt>
      <trkpt lat="47.26976" lon="-1.55212">
        <ele>28.889556884766</ele>
        <time>2016-11-22T07:43:21.000Z</time>
      </trkpt>
      <trkpt lat="47.26974" lon="-1.55212">
        <ele>28.797607421875</ele>
        <time>2016-11-22T07:43:23.000Z</time>
      </trkpt>
      <trkpt lat="47.26973" lon="-1.55211">
        <ele>28.703460693359</ele>
        <time>2016-11-22T07:43:25.000Z</time>
      </trkpt>
      <trkpt lat="47.2697" lon="-1.55209">
        <ele>28.613830566406</ele>
        <time>2016-11-22T07:43:28.000Z</time>
      </trkpt>
      <trkpt lat="47.26968" lon="-1.55208">
        <ele>28.527618408203</ele>
        <time>2016-11-22T07:43:30.000Z</time>
      </trkpt>
      <trkpt lat="47.26966" lon="-1.55206">
        <ele>28.435546875</ele>
        <time>2016-11-22T07:43:33.000Z</time>
      </trkpt>
      <trkpt lat="47.26964" lon="-1.55202">
        <ele>28.339447021484</ele>
        <time>2016-11-22T07:43:36.000Z</time>
      </trkpt>
      <trkpt lat="47.26964" lon="-1.55201">
        <ele>28.253875732422</ele>
        <time>2016-11-22T07:43:39.000Z</time>
      </trkpt>
      <trkpt lat="47.26962" lon="-1.55195">
        <ele>28.163879394531</ele>
        <time>2016-11-22T07:43:42.000Z</time>
      </trkpt>
      <trkpt lat="47.2696" lon="-1.55189">
        <ele>28.056335449219</ele>
        <time>2016-11-22T07:43:45.000Z</time>
      </trkpt>
      <trkpt lat="47.26959" lon="-1.55184">
        <ele>27.958526611328</ele>
        <time>2016-11-22T07:43:47.000Z</time>
      </trkpt>
      <trkpt lat="47.26958" lon="-1.55178">
        <ele>27.853698730469</ele>
        <time>2016-11-22T07:43:50.000Z</time>
      </trkpt>
      <trkpt lat="47.26957" lon="-1.55172">
        <ele>27.730224609375</ele>
        <time>2016-11-22T07:43:53.000Z</time>
      </trkpt>
      <trkpt lat="47.26957" lon="-1.55169">
        <ele>27.626983642578</ele>
        <time>2016-11-22T07:43:55.000Z</time>
      </trkpt>
      <trkpt lat="47.26955" lon="-1.55163">
        <ele>27.528396606445</ele>
        <time>2016-11-22T07:43:58.000Z</time>
      </trkpt>
      <trkpt lat="47.26952" lon="-1.55158">
        <ele>27.406433105469</ele>
        <time>2016-11-22T07:44:01.000Z</time>
      </trkpt>
      <trkpt lat="47.26951" lon="-1.55154">
        <ele>27.285717010498</ele>
        <time>2016-11-22T07:44:03.000Z</time>
      </trkpt>
      <trkpt lat="47.2695" lon="-1.55148">
        <ele>27.162578582764</ele>
        <time>2016-11-22T07:44:06.000Z</time>
      </trkpt>
      <trkpt lat="47.26949" lon="-1.55144">
        <ele>27.031881332397</ele>
        <time>2016-11-22T07:44:08.000Z</time>
      </trkpt>
      <trkpt lat="47.26949" lon="-1.55139">
        <ele>26.904933929443</ele>
        <time>2016-11-22T07:44:11.000Z</time>
      </trkpt>
      <trkpt lat="47.26948" lon="-1.55134">
        <ele>26.79567527771</ele>
        <time>2016-11-22T07:44:14.000Z</time>
      </trkpt>
      <trkpt lat="47.26947" lon="-1.55131">
        <ele>26.696376800537</ele>
        <time>2016-11-22T07:44:16.000Z</time>
      </trkpt>
      <trkpt lat="47.26945" lon="-1.55125">
        <ele>26.592859268188</ele>
        <time>2016-11-22T07:44:19.000Z</time>
      </trkpt>
      <trkpt lat="47.26945" lon="-1.5512">
        <ele>26.484668731689</ele>
        <time>2016-11-22T07:44:22.000Z</time>
      </trkpt>
      <trkpt lat="47.26945" lon="-1.55114">
        <ele>26.375995635986</ele>
        <time>2016-11-22T07:44:25.000Z</time>
      </trkpt>
      <trkpt lat="47.26943" lon="-1.55108">
        <ele>26.263250350952</ele>
        <time>2016-11-22T07:44:28.000Z</time>
      </trkpt>
      <trkpt lat="47.26942" lon="-1.55104">
        <ele>26.149642944336</ele>
        <time>2016-11-22T07:44:30.000Z</time>
      </trkpt>
      <trkpt lat="47.26942" lon="-1.551">
        <ele>26.051326751709</ele>
        <time>2016-11-22T07:44:32.000Z</time>
      </trkpt>
      <trkpt lat="47.26941" lon="-1.55095">
        <ele>25.952930450439</ele>
        <time>2016-11-22T07:44:35.000Z</time>
      </trkpt>
      <trkpt lat="47.2694" lon="-1.55089">
        <ele>25.852788925171</ele>
        <time>2016-11-22T07:44:38.000Z</time>
      </trkpt>
      <trkpt lat="47.26939" lon="-1.55086">
        <ele>25.763372421265</ele>
        <time>2016-11-22T07:44:40.000Z</time>
      </trkpt>
      <trkpt lat="47.26938" lon="-1.55082">
        <ele>25.674020767212</ele>
        <time>2016-11-22T07:44:42.000Z</time>
      </trkpt>
      <trkpt lat="47.26937" lon="-1.55078">
        <ele>25.586843490601</ele>
        <time>2016-11-22T07:44:44.000Z</time>
      </trkpt>
      <trkpt lat="47.26936" lon="-1.55073">
        <ele>25.498220443726</ele>
        <time>2016-11-22T07:44:47.000Z</time>
      </trkpt>
      <trkpt lat="47.26935" lon="-1.55069">
        <ele>25.420017242432</ele>
        <time>2016-11-22T07:44:49.000Z</time>
      </trkpt>
      <trkpt lat="47.26934" lon="-1.55066">
        <ele>25.347778320312</ele>
        <time>2016-11-22T07:44:51.000Z</time>
      </trkpt>
      <trkpt lat="47.26933" lon="-1.55061">
        <ele>25.269744873047</ele>
        <time>2016-11-22T07:44:54.000Z</time>
      </trkpt>
      <trkpt lat="47.26931" lon="-1.55057">
        <ele>25.191864013672</ele>
        <time>2016-11-22T07:44:56.000Z</time>
      </trkpt>
      <trkpt lat="47.2693" lon="-1.55053">
        <ele>25.118957519531</ele>
        <time>2016-11-22T07:44:59.000Z</time>
      </trkpt>
      <trkpt lat="47.2693" lon="-1.5505">
        <ele>25.051177978516</ele>
        <time>2016-11-22T07:45:01.000Z</time>
      </trkpt>
      <trkpt lat="47.26929" lon="-1.55047">
        <ele>24.980102539062</ele>
        <time>2016-11-22T07:45:04.000Z</time>
      </trkpt>
      <trkpt lat="47.26928" lon="-1.55045">
        <ele>24.920593261719</ele>
        <time>2016-11-22T07:45:06.000Z</time>
      </trkpt>
      <trkpt lat="47.26926" lon="-1.5504">
        <ele>24.853729248047</ele>
        <time>2016-11-22T07:45:09.000Z</time>
      </trkpt>
      <trkpt lat="47.26926" lon="-1.55035">
        <ele>24.787200927734</ele>
        <time>2016-11-22T07:45:12.000Z</time>
      </trkpt>
      <trkpt lat="47.26926" lon="-1.55031">
        <ele>24.719635009766</ele>
        <time>2016-11-22T07:45:14.000Z</time>
      </trkpt>
      <trkpt lat="47.26926" lon="-1.55027">
        <ele>24.65478515625</ele>
        <time>2016-11-22T07:45:16.000Z</time>
      </trkpt>
      <trkpt lat="47.26925" lon="-1.55022">
        <ele>24.587768554688</ele>
        <time>2016-11-22T07:45:18.000Z</time>
      </trkpt>
      <trkpt lat="47.26925" lon="-1.55018">
        <ele>24.527740478516</ele>
        <time>2016-11-22T07:45:20.000Z</time>
      </trkpt>
      <trkpt lat="47.26924" lon="-1.55011">
        <ele>24.464721679688</ele>
        <time>2016-11-22T07:45:23.000Z</time>
      </trkpt>
      <trkpt lat="47.26923" lon="-1.55006">
        <ele>24.393890380859</ele>
        <time>2016-11-22T07:45:26.000Z</time>
      </trkpt>
      <trkpt lat="47.26923" lon="-1.55002">
        <ele>24.320373535156</ele>
        <time>2016-11-22T07:45:28.000Z</time>
      </trkpt>
      <trkpt lat="47.26921" lon="-1.54996">
        <ele>24.260976791382</ele>
        <time>2016-11-22T07:45:31.000Z</time>
      </trkpt>
      <trkpt lat="47.2692" lon="-1.54992">
        <ele>24.229232788086</ele>
        <time>2016-11-22T07:45:33.000Z</time>
      </trkpt>
      <trkpt lat="47.26919" lon="-1.54986">
        <ele>24.244428634644</ele>
        <time>2016-11-22T07:45:36.000Z</time>
      </trkpt>
      <trkpt lat="47.26919" lon="-1.54983">
        <ele>24.292833328247</ele>
        <time>2016-11-22T07:45:38.000Z</time>
      </trkpt>
      <trkpt lat="47.2692" lon="-1.54977">
        <ele>24.382169723511</ele>
        <time>2016-11-22T07:45:41.000Z</time>
      </trkpt>
      <trkpt lat="47.26921" lon="-1.54973">
        <ele>24.496715545654</ele>
        <time>2016-11-22T07:45:44.000Z</time>
      </trkpt>
      <trkpt lat="47.26922" lon="-1.54968">
        <ele>24.617961883545</ele>
        <time>2016-11-22T07:45:46.000Z</time>
      </trkpt>
      <trkpt lat="47.26923" lon="-1.54964">
        <ele>24.734296798706</ele>
        <time>2016-11-22T07:45:48.000Z</time>
      </trkpt>
      <trkpt lat="47.26924" lon="-1.54961">
        <ele>24.854835510254</ele>
        <time>2016-11-22T07:45:50.000Z</time>
      </trkpt>
      <trkpt lat="47.26925" lon="-1.54955">
        <ele>24.975841522217</ele>
        <time>2016-11-22T07:45:53.000Z</time>
      </trkpt>
      <trkpt lat="47.26925" lon="-1.54952">
        <ele>25.085712432861</ele>
        <time>2016-11-22T07:45:55.000Z</time>
      </trkpt>
      <trkpt lat="47.26927" lon="-1.54947">
        <ele>25.201023101807</ele>
        <time>2016-11-22T07:45:58.000Z</time>
      </trkpt>
      <trkpt lat="47.26928" lon="-1.54944">
        <ele>25.31276512146</ele>
        <time>2016-11-22T07:46:00.000Z</time>
      </trkpt>
      <trkpt lat="47.2693" lon="-1.54939">
        <ele>25.4319896698</ele>
        <time>2016-11-22T07:46:03.000Z</time>
      </trkpt>
      <trkpt lat="47.26932" lon="-1.54934">
        <ele>25.549360275269</ele>
        <time>2016-11-22T07:46:06.000Z</time>
      </trkpt>
      <trkpt lat="47.26933" lon="-1.54929">
        <ele>25.677082061768</ele>
        <time>2016-11-22T07:46:09.000Z</time>
      </trkpt>
      <trkpt lat="47.26933" lon="-1.54924">
        <ele>25.798671722412</ele>
        <time>2016-11-22T07:46:12.000Z</time>
      </trkpt>
      <trkpt lat="47.26931" lon="-1.5492">
        <ele>25.912466049194</ele>
        <time>2016-11-22T07:46:14.000Z</time>
      </trkpt>
      <trkpt lat="47.26929" lon="-1.54915">
        <ele>26.010751724243</ele>
        <time>2016-11-22T07:46:17.000Z</time>
      </trkpt>
      <trkpt lat="47.26927" lon="-1.54909">
        <ele>26.091226577759</ele>
        <time>2016-11-22T07:46:20.000Z</time>
      </trkpt>
      <trkpt lat="47.26926" lon="-1.54903">
        <ele>26.15625</ele>
        <time>2016-11-22T07:46:23.000Z</time>
      </trkpt>
      <trkpt lat="47.26925" lon="-1.549">
        <ele>26.207851409912</ele>
        <time>2016-11-22T07:46:25.000Z</time>
      </trkpt>
      <trkpt lat="47.26923" lon="-1.54896">
        <ele>26.254821777344</ele>
        <time>2016-11-22T07:46:28.000Z</time>
      </trkpt>
      <trkpt lat="47.26923" lon="-1.54893">
        <ele>26.294128417969</ele>
        <time>2016-11-22T07:46:30.000Z</time>
      </trkpt>
      <trkpt lat="47.26923" lon="-1.5489">
        <ele>26.330444335938</ele>
        <time>2016-11-22T07:46:32.000Z</time>
      </trkpt>
      <trkpt lat="47.26921" lon="-1.54885">
        <ele>26.366119384766</ele>
        <time>2016-11-22T07:46:35.000Z</time>
      </trkpt>
      <trkpt lat="47.26921" lon="-1.54881">
        <ele>26.401306152344</ele>
        <time>2016-11-22T07:46:37.000Z</time>
      </trkpt>
      <trkpt lat="47.26919" lon="-1.54875">
        <ele>26.441223144531</ele>
        <time>2016-11-22T07:46:40.000Z</time>
      </trkpt>
      <trkpt lat="47.26918" lon="-1.54871">
        <ele>26.482238769531</ele>
        <time>2016-11-22T07:46:42.000Z</time>
      </trkpt>
      <trkpt lat="47.26917" lon="-1.54865">
        <ele>26.527740478516</ele>
        <time>2016-11-22T07:46:45.000Z</time>
      </trkpt>
      <trkpt lat="47.26916" lon="-1.54861">
        <ele>26.571157455444</ele>
        <time>2016-11-22T07:46:47.000Z</time>
      </trkpt>
      <trkpt lat="47.26915" lon="-1.54857">
        <ele>26.615936279297</ele>
        <time>2016-11-22T07:46:49.000Z</time>
      </trkpt>
      <trkpt lat="47.26914" lon="-1.54852">
        <ele>26.662149429321</ele>
        <time>2016-11-22T07:46:52.000Z</time>
      </trkpt>
      <trkpt lat="47.26913" lon="-1.54848">
        <ele>26.712169647217</ele>
        <time>2016-11-22T07:46:54.000Z</time>
      </trkpt>
      <trkpt lat="47.26912" lon="-1.54844">
        <ele>26.76128578186</ele>
        <time>2016-11-22T07:46:57.000Z</time>
      </trkpt>
      <trkpt lat="47.26911" lon="-1.54839">
        <ele>26.813400268555</ele>
        <time>2016-11-22T07:47:00.000Z</time>
      </trkpt>
      <trkpt lat="47.2691" lon="-1.54835">
        <ele>26.867977142334</ele>
        <time>2016-11-22T07:47:03.000Z</time>
      </trkpt>
      <trkpt lat="47.26909" lon="-1.54832">
        <ele>26.924774169922</ele>
        <time>2016-11-22T07:47:05.000Z</time>
      </trkpt>
      <trkpt lat="47.26908" lon="-1.54828">
        <ele>26.999765396118</ele>
        <time>2016-11-22T07:47:07.000Z</time>
      </trkpt>
      <trkpt lat="47.26907" lon="-1.54825">
        <ele>27.087930679321</ele>
        <time>2016-11-22T07:47:09.000Z</time>
      </trkpt>
      <trkpt lat="47.26906" lon="-1.54821">
        <ele>27.187799453735</ele>
        <time>2016-11-22T07:47:11.000Z</time>
      </trkpt>
      <trkpt lat="47.26905" lon="-1.54815">
        <ele>27.315860748291</ele>
        <time>2016-11-22T07:47:14.000Z</time>
      </trkpt>
      <trkpt lat="47.26904" lon="-1.54811">
        <ele>27.45742225647</ele>
        <time>2016-11-22T07:47:17.000Z</time>
      </trkpt>
      <trkpt lat="47.26903" lon="-1.54808">
        <ele>27.594305038452</ele>
        <time>2016-11-22T07:47:19.000Z</time>
      </trkpt>
      <trkpt lat="47.26902" lon="-1.54803">
        <ele>27.736721038818</ele>
        <time>2016-11-22T07:47:21.000Z</time>
      </trkpt>
      <trkpt lat="47.26901" lon="-1.54798">
        <ele>27.891046524048</ele>
        <time>2016-11-22T07:47:23.000Z</time>
      </trkpt>
      <trkpt lat="47.269" lon="-1.54794">
        <ele>28.032052993774</ele>
        <time>2016-11-22T07:47:26.000Z</time>
      </trkpt>
      <trkpt lat="47.26899" lon="-1.54791">
        <ele>28.164546966553</ele>
        <time>2016-11-22T07:47:29.000Z</time>
      </trkpt>
      <trkpt lat="47.26898" lon="-1.54788">
        <ele>28.293539047241</ele>
        <time>2016-11-22T07:47:31.000Z</time>
      </trkpt>
      <trkpt lat="47.26897" lon="-1.54784">
        <ele>28.421213150024</ele>
        <time>2016-11-22T07:47:33.000Z</time>
      </trkpt>
      <trkpt lat="47.26896" lon="-1.54778">
        <ele>28.550067901611</ele>
        <time>2016-11-22T07:47:36.000Z</time>
      </trkpt>
      <trkpt lat="47.26894" lon="-1.54774">
        <ele>28.675891876221</ele>
        <time>2016-11-22T07:47:38.000Z</time>
      </trkpt>
      <trkpt lat="47.26893" lon="-1.54768">
        <ele>28.817407608032</ele>
        <time>2016-11-22T07:47:41.000Z</time>
      </trkpt>
      <trkpt lat="47.26891" lon="-1.54763">
        <ele>28.970453262329</ele>
        <time>2016-11-22T07:47:44.000Z</time>
      </trkpt>
      <trkpt lat="47.26891" lon="-1.54759">
        <ele>29.121652603149</ele>
        <time>2016-11-22T07:47:46.000Z</time>
      </trkpt>
      <trkpt lat="47.2689" lon="-1.54754">
        <ele>29.260900497437</ele>
        <time>2016-11-22T07:47:49.000Z</time>
      </trkpt>
      <trkpt lat="47.26889" lon="-1.54751">
        <ele>29.396282196045</ele>
        <time>2016-11-22T07:47:52.000Z</time>
      </trkpt>
      <trkpt lat="47.26889" lon="-1.54748">
        <ele>29.51167678833</ele>
        <time>2016-11-22T07:47:54.000Z</time>
      </trkpt>
      <trkpt lat="47.26887" lon="-1.54743">
        <ele>29.615604400635</ele>
        <time>2016-11-22T07:47:57.000Z</time>
      </trkpt>
      <trkpt lat="47.26886" lon="-1.54739">
        <ele>29.710819244385</ele>
        <time>2016-11-22T07:47:59.000Z</time>
      </trkpt>
      <trkpt lat="47.26886" lon="-1.54737">
        <ele>29.790716171265</ele>
        <time>2016-11-22T07:48:01.000Z</time>
      </trkpt>
      <trkpt lat="47.26885" lon="-1.54734">
        <ele>29.861902236938</ele>
        <time>2016-11-22T07:48:03.000Z</time>
      </trkpt>
      <trkpt lat="47.26883" lon="-1.54727">
        <ele>29.937393188477</ele>
        <time>2016-11-22T07:48:06.000Z</time>
      </trkpt>
      <trkpt lat="47.26882" lon="-1.54722">
        <ele>30.011026382446</ele>
        <time>2016-11-22T07:48:08.000Z</time>
      </trkpt>
      <trkpt lat="47.26882" lon="-1.54718">
        <ele>30.084447860718</ele>
        <time>2016-11-22T07:48:11.000Z</time>
      </trkpt>
      <trkpt lat="47.26881" lon="-1.54715">
        <ele>30.159658432007</ele>
        <time>2016-11-22T07:48:14.000Z</time>
      </trkpt>
      <trkpt lat="47.26881" lon="-1.5471">
        <ele>30.241567611694</ele>
        <time>2016-11-22T07:48:17.000Z</time>
      </trkpt>
      <trkpt lat="47.2688" lon="-1.54706">
        <ele>30.315601348877</ele>
        <time>2016-11-22T07:48:19.000Z</time>
      </trkpt>
      <trkpt lat="47.2688" lon="-1.54703">
        <ele>30.38369178772</ele>
        <time>2016-11-22T07:48:21.000Z</time>
      </trkpt>
      <trkpt lat="47.26878" lon="-1.54696">
        <ele>30.448780059814</ele>
        <time>2016-11-22T07:48:24.000Z</time>
      </trkpt>
      <trkpt lat="47.26877" lon="-1.54692">
        <ele>30.508754730225</ele>
        <time>2016-11-22T07:48:27.000Z</time>
      </trkpt>
      <trkpt lat="47.26877" lon="-1.54689">
        <ele>30.563278198242</ele>
        <time>2016-11-22T07:48:29.000Z</time>
      </trkpt>
      <trkpt lat="47.26876" lon="-1.54686">
        <ele>30.612319946289</ele>
        <time>2016-11-22T07:48:31.000Z</time>
      </trkpt>
      <trkpt lat="47.26875" lon="-1.54682">
        <ele>30.655832290649</ele>
        <time>2016-11-22T07:48:34.000Z</time>
      </trkpt>
      <trkpt lat="47.26873" lon="-1.54675">
        <ele>30.696578979492</ele>
        <time>2016-11-22T07:48:37.000Z</time>
      </trkpt>
      <trkpt lat="47.26873" lon="-1.54671">
        <ele>30.737731933594</ele>
        <time>2016-11-22T07:48:39.000Z</time>
      </trkpt>
      <trkpt lat="47.26871" lon="-1.54664">
        <ele>30.763244628906</ele>
        <time>2016-11-22T07:48:42.000Z</time>
      </trkpt>
      <trkpt lat="47.26869" lon="-1.5466">
        <ele>30.762584686279</ele>
        <time>2016-11-22T07:48:44.000Z</time>
      </trkpt>
      <trkpt lat="47.26867" lon="-1.54657">
        <ele>30.728652954102</ele>
        <time>2016-11-22T07:48:46.000Z</time>
      </trkpt>
      <trkpt lat="47.26865" lon="-1.54652">
        <ele>30.664373397827</ele>
        <time>2016-11-22T07:48:49.000Z</time>
      </trkpt>
      <trkpt lat="47.26865" lon="-1.54648">
        <ele>30.591318130493</ele>
        <time>2016-11-22T07:48:51.000Z</time>
      </trkpt>
      <trkpt lat="47.26865" lon="-1.54645">
        <ele>30.515289306641</ele>
        <time>2016-11-22T07:48:53.000Z</time>
      </trkpt>
      <trkpt lat="47.26864" lon="-1.54641">
        <ele>30.451751708984</ele>
        <time>2016-11-22T07:48:55.000Z</time>
      </trkpt>
      <trkpt lat="47.26865" lon="-1.54636">
        <ele>30.410120010376</ele>
        <time>2016-11-22T07:48:58.000Z</time>
      </trkpt>
      <trkpt lat="47.26865" lon="-1.54632">
        <ele>30.388454437256</ele>
        <time>2016-11-22T07:49:00.000Z</time>
      </trkpt>
      <trkpt lat="47.26865" lon="-1.54629">
        <ele>30.370126724243</ele>
        <time>2016-11-22T07:49:02.000Z</time>
      </trkpt>
      <trkpt lat="47.26867" lon="-1.54626">
        <ele>30.366535186768</ele>
        <time>2016-11-22T07:49:04.000Z</time>
      </trkpt>
      <trkpt lat="47.26868" lon="-1.54621">
        <ele>30.382648468018</ele>
        <time>2016-11-22T07:49:07.000Z</time>
      </trkpt>
      <trkpt lat="47.26871" lon="-1.54617">
        <ele>30.418880462646</ele>
        <time>2016-11-22T07:49:10.000Z</time>
      </trkpt>
      <trkpt lat="47.26872" lon="-1.54614">
        <ele>30.46178817749</ele>
        <time>2016-11-22T07:49:12.000Z</time>
      </trkpt>
      <trkpt lat="47.26874" lon="-1.5461">
        <ele>30.516483306885</ele>
        <time>2016-11-22T07:49:15.000Z</time>
      </trkpt>
      <trkpt lat="47.26875" lon="-1.54606">
        <ele>30.568027496338</ele>
        <time>2016-11-22T07:49:18.000Z</time>
      </trkpt>
      <trkpt lat="47.26876" lon="-1.54602">
        <ele>30.605892181396</ele>
        <time>2016-11-22T07:49:20.000Z</time>
      </trkpt>
      <trkpt lat="47.26877" lon="-1.54598">
        <ele>30.631586074829</ele>
        <time>2016-11-22T07:49:23.000Z</time>
      </trkpt>
      <trkpt lat="47.26878" lon="-1.54593">
        <ele>30.648141860962</ele>
        <time>2016-11-22T07:49:25.000Z</time>
      </trkpt>
      <trkpt lat="47.26878" lon="-1.54587">
        <ele>30.651071548462</ele>
        <time>2016-11-22T07:49:28.000Z</time>
      </trkpt>
      <trkpt lat="47.26878" lon="-1.54583">
        <ele>30.63911819458</ele>
        <time>2016-11-22T07:49:31.000Z</time>
      </trkpt>
      <trkpt lat="47.26878" lon="-1.54579">
        <ele>30.602640151978</ele>
        <time>2016-11-22T07:49:33.000Z</time>
      </trkpt>
      <trkpt lat="47.26874" lon="-1.54575">
        <ele>30.510000228882</ele>
        <time>2016-11-22T07:49:36.000Z</time>
      </trkpt>
      <trkpt lat="47.26871" lon="-1.54572">
        <ele>30.389156341553</ele>
        <time>2016-11-22T07:49:38.000Z</time>
      </trkpt>
      <trkpt lat="47.26867" lon="-1.5457">
        <ele>30.227962493896</ele>
        <time>2016-11-22T07:49:41.000Z</time>
      </trkpt>
      <trkpt lat="47.26864" lon="-1.54569">
        <ele>30.058898925781</ele>
        <time>2016-11-22T07:49:43.000Z</time>
      </trkpt>
      <trkpt lat="47.26861" lon="-1.54568">
        <ele>29.893686294556</ele>
        <time>2016-11-22T07:49:46.000Z</time>
      </trkpt>
      <trkpt lat="47.26859" lon="-1.54568">
        <ele>29.766870498657</ele>
        <time>2016-11-22T07:49:48.000Z</time>
      </trkpt>
      <trkpt lat="47.26857" lon="-1.54567">
        <ele>29.652582168579</ele>
        <time>2016-11-22T07:49:50.000Z</time>
      </trkpt>
      <trkpt lat="47.26852" lon="-1.54566">
        <ele>29.551334381104</ele>
        <time>2016-11-22T07:49:53.000Z</time>
      </trkpt>
      <trkpt lat="47.26849" lon="-1.54565">
        <ele>29.442865371704</ele>
        <time>2016-11-22T07:49:56.000Z</time>
      </trkpt>
      <trkpt lat="47.26846" lon="-1.54564">
        <ele>29.338464736938</ele>
        <time>2016-11-22T07:49:58.000Z</time>
      </trkpt>
      <trkpt lat="47.26843" lon="-1.54564">
        <ele>29.232646942139</ele>
        <time>2016-11-22T07:50:00.000Z</time>
      </trkpt>
      <trkpt lat="47.26841" lon="-1.54563">
        <ele>29.126201629639</ele>
        <time>2016-11-22T07:50:02.000Z</time>
      </trkpt>
      <trkpt lat="47.26838" lon="-1.54561">
        <ele>29.032073974609</ele>
        <time>2016-11-22T07:50:04.000Z</time>
      </trkpt>
      <trkpt lat="47.26833" lon="-1.54559">
        <ele>28.934896469116</ele>
        <time>2016-11-22T07:50:07.000Z</time>
      </trkpt>
      <trkpt lat="47.26831" lon="-1.54558">
        <ele>28.842565536499</ele>
        <time>2016-11-22T07:50:09.000Z</time>
      </trkpt>
      <trkpt lat="47.26826" lon="-1.54556">
        <ele>28.748931884766</ele>
        <time>2016-11-22T07:50:12.000Z</time>
      </trkpt>
      <trkpt lat="47.26822" lon="-1.54554">
        <ele>28.655431747437</ele>
        <time>2016-11-22T07:50:15.000Z</time>
      </trkpt>
      <trkpt lat="47.26818" lon="-1.54551">
        <ele>28.562480926514</ele>
        <time>2016-11-22T07:50:18.000Z</time>
      </trkpt>
      <trkpt lat="47.26815" lon="-1.54548">
        <ele>28.483367919922</ele>
        <time>2016-11-22T07:50:21.000Z</time>
      </trkpt>
      <trkpt lat="47.26812" lon="-1.54545">
        <ele>28.40348815918</ele>
        <time>2016-11-22T07:50:24.000Z</time>
      </trkpt>
      <trkpt lat="47.26808" lon="-1.54541">
        <ele>28.328842163086</ele>
        <time>2016-11-22T07:50:27.000Z</time>
      </trkpt>
      <trkpt lat="47.26805" lon="-1.54538">
        <ele>28.262676239014</ele>
        <time>2016-11-22T07:50:30.000Z</time>
      </trkpt>
      <trkpt lat="47.26801" lon="-1.54533">
        <ele>28.202007293701</ele>
        <time>2016-11-22T07:50:33.000Z</time>
      </trkpt>
      <trkpt lat="47.26799" lon="-1.54532">
        <ele>28.150798797607</ele>
        <time>2016-11-22T07:50:35.000Z</time>
      </trkpt>
      <trkpt lat="47.26795" lon="-1.5453">
        <ele>28.10605430603</ele>
        <time>2016-11-22T07:50:38.000Z</time>
      </trkpt>
      <trkpt lat="47.26792" lon="-1.54527">
        <ele>28.067600250244</ele>
        <time>2016-11-22T07:50:41.000Z</time>
      </trkpt>
      <trkpt lat="47.2679" lon="-1.54525">
        <ele>28.036203384399</ele>
        <time>2016-11-22T07:50:43.000Z</time>
      </trkpt>
      <trkpt lat="47.26787" lon="-1.54521">
        <ele>28.012002944946</ele>
        <time>2016-11-22T07:50:46.000Z</time>
      </trkpt>
      <trkpt lat="47.26785" lon="-1.54519">
        <ele>27.991622924805</ele>
        <time>2016-11-22T07:50:48.000Z</time>
      </trkpt>
      <trkpt lat="47.26782" lon="-1.54517">
        <ele>27.976343154907</ele>
        <time>2016-11-22T07:50:50.000Z</time>
      </trkpt>
      <trkpt lat="47.26779" lon="-1.54513">
        <ele>27.966037750244</ele>
        <time>2016-11-22T07:50:53.000Z</time>
      </trkpt>
      <trkpt lat="47.26775" lon="-1.54511">
        <ele>27.957529067993</ele>
        <time>2016-11-22T07:50:56.000Z</time>
      </trkpt>
      <trkpt lat="47.26772" lon="-1.5451">
        <ele>27.952220916748</ele>
        <time>2016-11-22T07:50:58.000Z</time>
      </trkpt>
      <trkpt lat="47.26768" lon="-1.54508">
        <ele>27.948040008545</ele>
        <time>2016-11-22T07:51:01.000Z</time>
      </trkpt>
      <trkpt lat="47.26764" lon="-1.54507">
        <ele>27.945835113525</ele>
        <time>2016-11-22T07:51:04.000Z</time>
      </trkpt>
      <trkpt lat="47.26762" lon="-1.54506">
        <ele>27.94476890564</ele>
        <time>2016-11-22T07:51:06.000Z</time>
      </trkpt>
      <trkpt lat="47.26758" lon="-1.54504">
        <ele>27.948490142822</ele>
        <time>2016-11-22T07:51:09.000Z</time>
      </trkpt>
      <trkpt lat="47.26756" lon="-1.545">
        <ele>27.959173202515</ele>
        <time>2016-11-22T07:51:12.000Z</time>
      </trkpt>
      <trkpt lat="47.26755" lon="-1.54496">
        <ele>27.952606201172</ele>
        <time>2016-11-22T07:51:15.000Z</time>
      </trkpt>
      <trkpt lat="47.26754" lon="-1.54493">
        <ele>27.933248519897</ele>
        <time>2016-11-22T07:51:17.000Z</time>
      </trkpt>
      <trkpt lat="47.26752" lon="-1.54491">
        <ele>27.899087905884</ele>
        <time>2016-11-22T07:51:20.000Z</time>
      </trkpt>
      <trkpt lat="47.26749" lon="-1.54486">
        <ele>27.830816268921</ele>
        <time>2016-11-22T07:51:23.000Z</time>
      </trkpt>
      <trkpt lat="47.26746" lon="-1.54482">
        <ele>27.713048934937</ele>
        <time>2016-11-22T07:51:26.000Z</time>
      </trkpt>
      <trkpt lat="47.26743" lon="-1.5448">
        <ele>27.583740234375</ele>
        <time>2016-11-22T07:51:28.000Z</time>
      </trkpt>
      <trkpt lat="47.26741" lon="-1.54477">
        <ele>27.434818267822</ele>
        <time>2016-11-22T07:51:31.000Z</time>
      </trkpt>
      <trkpt lat="47.26737" lon="-1.54475">
        <ele>27.26708984375</ele>
        <time>2016-11-22T07:51:34.000Z</time>
      </trkpt>
      <trkpt lat="47.26735" lon="-1.54475">
        <ele>27.109619140625</ele>
        <time>2016-11-22T07:51:36.000Z</time>
      </trkpt>
      <trkpt lat="47.26731" lon="-1.54474">
        <ele>26.962158203125</ele>
        <time>2016-11-22T07:51:39.000Z</time>
      </trkpt>
      <trkpt lat="47.26728" lon="-1.54473">
        <ele>26.822998046875</ele>
        <time>2016-11-22T07:51:41.000Z</time>
      </trkpt>
      <trkpt lat="47.26726" lon="-1.54472">
        <ele>26.693054199219</ele>
        <time>2016-11-22T07:51:44.000Z</time>
      </trkpt>
      <trkpt lat="47.26723" lon="-1.54471">
        <ele>26.575317382812</ele>
        <time>2016-11-22T07:51:46.000Z</time>
      </trkpt>
      <trkpt lat="47.26719" lon="-1.54469">
        <ele>26.4384765625</ele>
        <time>2016-11-22T07:51:49.000Z</time>
      </trkpt>
      <trkpt lat="47.26716" lon="-1.54468">
        <ele>26.303833007812</ele>
        <time>2016-11-22T07:51:52.000Z</time>
      </trkpt>
      <trkpt lat="47.26713" lon="-1.54467">
        <ele>26.166259765625</ele>
        <time>2016-11-22T07:51:54.000Z</time>
      </trkpt>
      <trkpt lat="47.26709" lon="-1.54465">
        <ele>26.008239746094</ele>
        <time>2016-11-22T07:51:57.000Z</time>
      </trkpt>
      <trkpt lat="47.26704" lon="-1.54463">
        <ele>25.830017089844</ele>
        <time>2016-11-22T07:52:00.000Z</time>
      </trkpt>
      <trkpt lat="47.267" lon="-1.54462">
        <ele>25.65869140625</ele>
        <time>2016-11-22T07:52:03.000Z</time>
      </trkpt>
      <trkpt lat="47.26696" lon="-1.54461">
        <ele>25.483581542969</ele>
        <time>2016-11-22T07:52:06.000Z</time>
      </trkpt>
      <trkpt lat="47.26694" lon="-1.5446">
        <ele>25.314758300781</ele>
        <time>2016-11-22T07:52:08.000Z</time>
      </trkpt>
      <trkpt lat="47.26693" lon="-1.5446">
        <ele>25.176635742188</ele>
        <time>2016-11-22T07:52:10.000Z</time>
      </trkpt>
      <trkpt lat="47.26688" lon="-1.54459">
        <ele>25.045288085938</ele>
        <time>2016-11-22T07:52:13.000Z</time>
      </trkpt>
      <trkpt lat="47.26684" lon="-1.54458">
        <ele>24.912536621094</ele>
        <time>2016-11-22T07:52:16.000Z</time>
      </trkpt>
      <trkpt lat="47.2668" lon="-1.54458">
        <ele>24.78173828125</ele>
        <time>2016-11-22T07:52:18.000Z</time>
      </trkpt>
      <trkpt lat="47.26677" lon="-1.54458">
        <ele>24.645263671875</ele>
        <time>2016-11-22T07:52:20.000Z</time>
      </trkpt>
      <trkpt lat="47.26674" lon="-1.54458">
        <ele>24.504455566406</ele>
        <time>2016-11-22T07:52:22.000Z</time>
      </trkpt>
      <trkpt lat="47.2667" lon="-1.54459">
        <ele>24.366149902344</ele>
        <time>2016-11-22T07:52:25.000Z</time>
      </trkpt>
      <trkpt lat="47.26667" lon="-1.54458">
        <ele>24.246276855469</ele>
        <time>2016-11-22T07:52:27.000Z</time>
      </trkpt>
      <trkpt lat="47.26665" lon="-1.54458">
        <ele>24.143451690674</ele>
        <time>2016-11-22T07:52:29.000Z</time>
      </trkpt>
      <trkpt lat="47.26661" lon="-1.54458">
        <ele>24.049911499023</ele>
        <time>2016-11-22T07:52:32.000Z</time>
      </trkpt>
      <trkpt lat="47.26658" lon="-1.54458">
        <ele>23.964733123779</ele>
        <time>2016-11-22T07:52:34.000Z</time>
      </trkpt>
      <trkpt lat="47.26656" lon="-1.54459">
        <ele>23.904544830322</ele>
        <time>2016-11-22T07:52:36.000Z</time>
      </trkpt>
      <trkpt lat="47.26654" lon="-1.54459">
        <ele>23.853015899658</ele>
        <time>2016-11-22T07:52:38.000Z</time>
      </trkpt>
      <trkpt lat="47.2665" lon="-1.5446">
        <ele>23.806785583496</ele>
        <time>2016-11-22T07:52:41.000Z</time>
      </trkpt>
      <trkpt lat="47.26648" lon="-1.5446">
        <ele>23.767805099487</ele>
        <time>2016-11-22T07:52:43.000Z</time>
      </trkpt>
      <trkpt lat="47.26644" lon="-1.5446">
        <ele>23.727340698242</ele>
        <time>2016-11-22T07:52:46.000Z</time>
      </trkpt>
      <trkpt lat="47.2664" lon="-1.54461">
        <ele>23.680871963501</ele>
        <time>2016-11-22T07:52:49.000Z</time>
      </trkpt>
      <trkpt lat="47.26635" lon="-1.54463">
        <ele>23.629730224609</ele>
        <time>2016-11-22T07:52:52.000Z</time>
      </trkpt>
      <trkpt lat="47.26633" lon="-1.54463">
        <ele>23.58095741272</ele>
        <time>2016-11-22T07:52:54.000Z</time>
      </trkpt>
      <trkpt lat="47.2663" lon="-1.54465">
        <ele>23.534194946289</ele>
        <time>2016-11-22T07:52:57.000Z</time>
      </trkpt>
      <trkpt lat="47.26627" lon="-1.54465">
        <ele>23.488857269287</ele>
        <time>2016-11-22T07:52:59.000Z</time>
      </trkpt>
      <trkpt lat="47.26624" lon="-1.54466">
        <ele>23.447332382202</ele>
        <time>2016-11-22T07:53:02.000Z</time>
      </trkpt>
      <trkpt lat="47.26621" lon="-1.54466">
        <ele>23.405561447144</ele>
        <time>2016-11-22T07:53:04.000Z</time>
      </trkpt>
      <trkpt lat="47.26618" lon="-1.54466">
        <ele>23.36071395874</ele>
        <time>2016-11-22T07:53:06.000Z</time>
      </trkpt>
      <trkpt lat="47.26614" lon="-1.54466">
        <ele>23.305458068848</ele>
        <time>2016-11-22T07:53:09.000Z</time>
      </trkpt>
      <trkpt lat="47.2661" lon="-1.54466">
        <ele>23.243576049805</ele>
        <time>2016-11-22T07:53:12.000Z</time>
      </trkpt>
      <trkpt lat="47.26607" lon="-1.54467">
        <ele>23.182201385498</ele>
        <time>2016-11-22T07:53:14.000Z</time>
      </trkpt>
      <trkpt lat="47.26604" lon="-1.54466">
        <ele>23.119915008545</ele>
        <time>2016-11-22T07:53:16.000Z</time>
      </trkpt>
      <trkpt lat="47.26601" lon="-1.54464">
        <ele>23.046785354614</ele>
        <time>2016-11-22T07:53:19.000Z</time>
      </trkpt>
      <trkpt lat="47.26598" lon="-1.5446">
        <ele>22.965625762939</ele>
        <time>2016-11-22T07:53:22.000Z</time>
      </trkpt>
      <trkpt lat="47.26595" lon="-1.54455">
        <ele>22.877109527588</ele>
        <time>2016-11-22T07:53:25.000Z</time>
      </trkpt>
      <trkpt lat="47.26593" lon="-1.54452">
        <ele>22.784038543701</ele>
        <time>2016-11-22T07:53:27.000Z</time>
      </trkpt>
      <trkpt lat="47.26591" lon="-1.54448">
        <ele>22.683238983154</ele>
        <time>2016-11-22T07:53:30.000Z</time>
      </trkpt>
      <trkpt lat="47.26589" lon="-1.54444">
        <ele>22.587247848511</ele>
        <time>2016-11-22T07:53:33.000Z</time>
      </trkpt>
      <trkpt lat="47.26587" lon="-1.5444">
        <ele>22.499956130981</ele>
        <time>2016-11-22T07:53:35.000Z</time>
      </trkpt>
      <trkpt lat="47.26586" lon="-1.54436">
        <ele>22.422637939453</ele>
        <time>2016-11-22T07:53:37.000Z</time>
      </trkpt>
      <trkpt lat="47.26585" lon="-1.54431">
        <ele>22.343595504761</ele>
        <time>2016-11-22T07:53:40.000Z</time>
      </trkpt>
      <trkpt lat="47.26585" lon="-1.54428">
        <ele>22.274745941162</ele>
        <time>2016-11-22T07:53:42.000Z</time>
      </trkpt>
      <trkpt lat="47.26583" lon="-1.54423">
        <ele>22.208665847778</ele>
        <time>2016-11-22T07:53:45.000Z</time>
      </trkpt>
      <trkpt lat="47.26582" lon="-1.54418">
        <ele>22.143131256104</ele>
        <time>2016-11-22T07:53:48.000Z</time>
      </trkpt>
      <trkpt lat="47.26582" lon="-1.54414">
        <ele>22.080587387085</ele>
        <time>2016-11-22T07:53:50.000Z</time>
      </trkpt>
      <trkpt lat="47.26581" lon="-1.54409">
        <ele>22.020950317383</ele>
        <time>2016-11-22T07:53:53.000Z</time>
      </trkpt>
      <trkpt lat="47.2658" lon="-1.54405">
        <ele>21.962963104248</ele>
        <time>2016-11-22T07:53:55.000Z</time>
      </trkpt>
      <trkpt lat="47.2658" lon="-1.54402">
        <ele>21.909433364868</ele>
        <time>2016-11-22T07:53:57.000Z</time>
      </trkpt>
      <trkpt lat="47.26582" lon="-1.54396">
        <ele>21.857271194458</ele>
        <time>2016-11-22T07:54:00.000Z</time>
      </trkpt>
      <trkpt lat="47.26584" lon="-1.54392">
        <ele>21.80578994751</ele>
        <time>2016-11-22T07:54:03.000Z</time>
      </trkpt>
      <trkpt lat="47.26587" lon="-1.54389">
        <ele>21.764739990234</ele>
        <time>2016-11-22T07:54:06.000Z</time>
      </trkpt>
      <trkpt lat="47.2659" lon="-1.54386">
        <ele>21.729860305786</ele>
        <time>2016-11-22T07:54:09.000Z</time>
      </trkpt>
      <trkpt lat="47.26592" lon="-1.54384">
        <ele>21.70235824585</ele>
        <time>2016-11-22T07:54:11.000Z</time>
      </trkpt>
      <trkpt lat="47.26597" lon="-1.54383">
        <ele>21.691349029541</ele>
        <time>2016-11-22T07:54:14.000Z</time>
      </trkpt>
      <trkpt lat="47.26602" lon="-1.54383">
        <ele>21.696836471558</ele>
        <time>2016-11-22T07:54:17.000Z</time>
      </trkpt>
      <trkpt lat="47.26605" lon="-1.54383">
        <ele>21.706295013428</ele>
        <time>2016-11-22T07:54:19.000Z</time>
      </trkpt>
      <trkpt lat="47.26609" lon="-1.54381">
        <ele>21.719730377197</ele>
        <time>2016-11-22T07:54:21.000Z</time>
      </trkpt>
      <trkpt lat="47.26612" lon="-1.54381">
        <ele>21.737205505371</ele>
        <time>2016-11-22T07:54:23.000Z</time>
      </trkpt>
      <trkpt lat="47.26614" lon="-1.5438">
        <ele>21.752353668213</ele>
        <time>2016-11-22T07:54:25.000Z</time>
      </trkpt>
      <trkpt lat="47.26618" lon="-1.5438">
        <ele>21.764469146729</ele>
        <time>2016-11-22T07:54:28.000Z</time>
      </trkpt>
      <trkpt lat="47.26624" lon="-1.54379">
        <ele>21.777006149292</ele>
        <time>2016-11-22T07:54:31.000Z</time>
      </trkpt>
      <trkpt lat="47.26627" lon="-1.54377">
        <ele>21.784383773804</ele>
        <time>2016-11-22T07:54:34.000Z</time>
      </trkpt>
      <trkpt lat="47.2663" lon="-1.54373">
        <ele>21.779033660889</ele>
        <time>2016-11-22T07:54:37.000Z</time>
      </trkpt>
      <trkpt lat="47.26634" lon="-1.54368">
        <ele>21.758609771729</ele>
        <time>2016-11-22T07:54:40.000Z</time>
      </trkpt>
      <trkpt lat="47.26636" lon="-1.54363">
        <ele>21.716833114624</ele>
        <time>2016-11-22T07:54:43.000Z</time>
      </trkpt>
      <trkpt lat="47.26637" lon="-1.54357">
        <ele>21.649166107178</ele>
        <time>2016-11-22T07:54:46.000Z</time>
      </trkpt>
      <trkpt lat="47.26637" lon="-1.54354">
        <ele>21.570705413818</ele>
        <time>2016-11-22T07:54:48.000Z</time>
      </trkpt>
      <trkpt lat="47.26636" lon="-1.5435">
        <ele>21.486989974976</ele>
        <time>2016-11-22T07:54:50.000Z</time>
      </trkpt>
      <trkpt lat="47.26636" lon="-1.54347">
        <ele>21.406421661377</ele>
        <time>2016-11-22T07:54:52.000Z</time>
      </trkpt>
      <trkpt lat="47.26636" lon="-1.54341">
        <ele>21.321514129639</ele>
        <time>2016-11-22T07:54:55.000Z</time>
      </trkpt>
      <trkpt lat="47.26635" lon="-1.54337">
        <ele>21.243463516235</ele>
        <time>2016-11-22T07:54:57.000Z</time>
      </trkpt>
      <trkpt lat="47.26634" lon="-1.54332">
        <ele>21.157283782959</ele>
        <time>2016-11-22T07:55:00.000Z</time>
      </trkpt>
      <trkpt lat="47.26633" lon="-1.54328">
        <ele>21.074552536011</ele>
        <time>2016-11-22T07:55:02.000Z</time>
      </trkpt>
      <trkpt lat="47.26632" lon="-1.54322">
        <ele>20.976196289062</ele>
        <time>2016-11-22T07:55:05.000Z</time>
      </trkpt>
      <trkpt lat="47.2663" lon="-1.54316">
        <ele>20.871753692627</ele>
        <time>2016-11-22T07:55:08.000Z</time>
      </trkpt>
      <trkpt lat="47.2663" lon="-1.54311">
        <ele>20.760019302368</ele>
        <time>2016-11-22T07:55:10.000Z</time>
      </trkpt>
      <trkpt lat="47.26628" lon="-1.54304">
        <ele>20.638412475586</ele>
        <time>2016-11-22T07:55:13.000Z</time>
      </trkpt>
      <trkpt lat="47.26626" lon="-1.54298">
        <ele>20.494697570801</ele>
        <time>2016-11-22T07:55:16.000Z</time>
      </trkpt>
      <trkpt lat="47.26625" lon="-1.54294">
        <ele>20.350847244263</ele>
        <time>2016-11-22T07:55:18.000Z</time>
      </trkpt>
      <trkpt lat="47.26624" lon="-1.5429">
        <ele>20.209211349487</ele>
        <time>2016-11-22T07:55:20.000Z</time>
      </trkpt>
      <trkpt lat="47.26623" lon="-1.54285">
        <ele>20.060115814209</ele>
        <time>2016-11-22T07:55:23.000Z</time>
      </trkpt>
      <trkpt lat="47.26621" lon="-1.5428">
        <ele>19.910360336304</ele>
        <time>2016-11-22T07:55:26.000Z</time>
      </trkpt>
      <trkpt lat="47.2662" lon="-1.54277">
        <ele>19.773899078369</ele>
        <time>2016-11-22T07:55:28.000Z</time>
      </trkpt>
      <trkpt lat="47.2662" lon="-1.54274">
        <ele>19.64221572876</ele>
        <time>2016-11-22T07:55:30.000Z</time>
      </trkpt>
      <trkpt lat="47.26617" lon="-1.54269">
        <ele>19.49374961853</ele>
        <time>2016-11-22T07:55:33.000Z</time>
      </trkpt>
      <trkpt lat="47.26616" lon="-1.54266">
        <ele>19.344203948975</ele>
        <time>2016-11-22T07:55:35.000Z</time>
      </trkpt>
      <trkpt lat="47.26614" lon="-1.54261">
        <ele>19.18404006958</ele>
        <time>2016-11-22T07:55:38.000Z</time>
      </trkpt>
      <trkpt lat="47.26611" lon="-1.54258">
        <ele>19.002479553223</ele>
        <time>2016-11-22T07:55:40.000Z</time>
      </trkpt>
      <trkpt lat="47.26608" lon="-1.54253">
        <ele>18.782415390015</ele>
        <time>2016-11-22T07:55:43.000Z</time>
      </trkpt>
      <trkpt lat="47.26607" lon="-1.54251">
        <ele>18.577852249146</ele>
        <time>2016-11-22T07:55:45.000Z</time>
      </trkpt>
      <trkpt lat="47.26604" lon="-1.54248">
        <ele>18.375085830688</ele>
        <time>2016-11-22T07:55:47.000Z</time>
      </trkpt>
      <trkpt lat="47.26603" lon="-1.54244">
        <ele>18.203418731689</ele>
        <time>2016-11-22T07:55:49.000Z</time>
      </trkpt>
      <trkpt lat="47.26601" lon="-1.54237">
        <ele>18.046489715576</ele>
        <time>2016-11-22T07:55:52.000Z</time>
      </trkpt>
      <trkpt lat="47.26599" lon="-1.54234">
        <ele>17.929363250732</ele>
        <time>2016-11-22T07:55:54.000Z</time>
      </trkpt>
      <trkpt lat="47.26597" lon="-1.5423">
        <ele>17.80744934082</ele>
        <time>2016-11-22T07:55:57.000Z</time>
      </trkpt>
      <trkpt lat="47.26595" lon="-1.54226">
        <ele>17.691972732544</ele>
        <time>2016-11-22T07:56:00.000Z</time>
      </trkpt>
      <trkpt lat="47.26593" lon="-1.54222">
        <ele>17.564823150635</ele>
        <time>2016-11-22T07:56:02.000Z</time>
      </trkpt>
      <trkpt lat="47.26591" lon="-1.54218">
        <ele>17.42706489563</ele>
        <time>2016-11-22T07:56:05.000Z</time>
      </trkpt>
      <trkpt lat="47.26589" lon="-1.54214">
        <ele>17.281711578369</ele>
        <time>2016-11-22T07:56:08.000Z</time>
      </trkpt>
      <trkpt lat="47.26588" lon="-1.54211">
        <ele>17.139583587646</ele>
        <time>2016-11-22T07:56:10.000Z</time>
      </trkpt>
      <trkpt lat="47.26585" lon="-1.54203">
        <ele>16.963390350342</ele>
        <time>2016-11-22T07:56:13.000Z</time>
      </trkpt>
      <trkpt lat="47.26583" lon="-1.54197">
        <ele>16.772068023682</ele>
        <time>2016-11-22T07:56:16.000Z</time>
      </trkpt>
      <trkpt lat="47.26582" lon="-1.54192">
        <ele>16.60458946228</ele>
        <time>2016-11-22T07:56:19.000Z</time>
      </trkpt>
      <trkpt lat="47.2658" lon="-1.54186">
        <ele>16.441226959229</ele>
        <time>2016-11-22T07:56:22.000Z</time>
      </trkpt>
      <trkpt lat="47.26578" lon="-1.54181">
        <ele>16.28923034668</ele>
        <time>2016-11-22T07:56:24.000Z</time>
      </trkpt>
      <trkpt lat="47.26575" lon="-1.54174">
        <ele>16.162178039551</ele>
        <time>2016-11-22T07:56:27.000Z</time>
      </trkpt>
      <trkpt lat="47.26574" lon="-1.54169">
        <ele>16.052434921265</ele>
        <time>2016-11-22T07:56:29.000Z</time>
      </trkpt>
      <trkpt lat="47.26571" lon="-1.54163">
        <ele>15.925628662109</ele>
        <time>2016-11-22T07:56:32.000Z</time>
      </trkpt>
      <trkpt lat="47.26569" lon="-1.5416">
        <ele>15.800236701965</ele>
        <time>2016-11-22T07:56:34.000Z</time>
      </trkpt>
      <trkpt lat="47.26567" lon="-1.54156">
        <ele>15.667813301086</ele>
        <time>2016-11-22T07:56:36.000Z</time>
      </trkpt>
      <trkpt lat="47.26566" lon="-1.54154">
        <ele>15.55083656311</ele>
        <time>2016-11-22T07:56:38.000Z</time>
      </trkpt>
      <trkpt lat="47.26564" lon="-1.54149">
        <ele>15.427713394165</ele>
        <time>2016-11-22T07:56:41.000Z</time>
      </trkpt>
      <trkpt lat="47.26562" lon="-1.54143">
        <ele>15.297030448914</ele>
        <time>2016-11-22T07:56:44.000Z</time>
      </trkpt>
      <trkpt lat="47.26561" lon="-1.54139">
        <ele>15.158755302429</ele>
        <time>2016-11-22T07:56:47.000Z</time>
      </trkpt>
      <trkpt lat="47.26558" lon="-1.54135">
        <ele>15.006052017212</ele>
        <time>2016-11-22T07:56:50.000Z</time>
      </trkpt>
      <trkpt lat="47.26556" lon="-1.54132">
        <ele>14.841611862183</ele>
        <time>2016-11-22T07:56:52.000Z</time>
      </trkpt>
      <trkpt lat="47.26553" lon="-1.54127">
        <ele>14.661176681519</ele>
        <time>2016-11-22T07:56:55.000Z</time>
      </trkpt>
      <trkpt lat="47.26551" lon="-1.54124">
        <ele>14.487484931946</ele>
        <time>2016-11-22T07:56:57.000Z</time>
      </trkpt>
      <trkpt lat="47.26548" lon="-1.54118">
        <ele>14.287591934204</ele>
        <time>2016-11-22T07:57:00.000Z</time>
      </trkpt>
      <trkpt lat="47.26546" lon="-1.54115">
        <ele>14.094449996948</ele>
        <time>2016-11-22T07:57:02.000Z</time>
      </trkpt>
      <trkpt lat="47.26545" lon="-1.54112">
        <ele>13.896905899048</ele>
        <time>2016-11-22T07:57:04.000Z</time>
      </trkpt>
      <trkpt lat="47.26543" lon="-1.54107">
        <ele>13.688512802124</ele>
        <time>2016-11-22T07:57:07.000Z</time>
      </trkpt>
      <trkpt lat="47.26542" lon="-1.54104">
        <ele>13.483975410461</ele>
        <time>2016-11-22T07:57:09.000Z</time>
      </trkpt>
      <trkpt lat="47.26539" lon="-1.54098">
        <ele>13.272199630737</ele>
        <time>2016-11-22T07:57:12.000Z</time>
      </trkpt>
      <trkpt lat="47.26537" lon="-1.54093">
        <ele>13.035051345825</ele>
        <time>2016-11-22T07:57:15.000Z</time>
      </trkpt>
      <trkpt lat="47.26534" lon="-1.54089">
        <ele>12.775247573853</ele>
        <time>2016-11-22T07:57:18.000Z</time>
      </trkpt>
      <trkpt lat="47.26532" lon="-1.54087">
        <ele>12.537599563599</ele>
        <time>2016-11-22T07:57:20.000Z</time>
      </trkpt>
      <trkpt lat="47.26531" lon="-1.54083">
        <ele>12.284546852112</ele>
        <time>2016-11-22T07:57:23.000Z</time>
      </trkpt>
      <trkpt lat="47.26528" lon="-1.54078">
        <ele>12.016492843628</ele>
        <time>2016-11-22T07:57:26.000Z</time>
      </trkpt>
      <trkpt lat="47.26526" lon="-1.54075">
        <ele>11.760050773621</ele>
        <time>2016-11-22T07:57:28.000Z</time>
      </trkpt>
      <trkpt lat="47.26524" lon="-1.5407">
        <ele>11.490435600281</ele>
        <time>2016-11-22T07:57:31.000Z</time>
      </trkpt>
      <trkpt lat="47.26522" lon="-1.54065">
        <ele>11.19024848938</ele>
        <time>2016-11-22T07:57:34.000Z</time>
      </trkpt>
      <trkpt lat="47.2652" lon="-1.54063">
        <ele>10.890587806702</ele>
        <time>2016-11-22T07:57:36.000Z</time>
      </trkpt>
      <trkpt lat="47.26518" lon="-1.54059">
        <ele>10.608813285828</ele>
        <time>2016-11-22T07:57:39.000Z</time>
      </trkpt>
      <trkpt lat="47.26516" lon="-1.54057">
        <ele>10.330223083496</ele>
        <time>2016-11-22T07:57:41.000Z</time>
      </trkpt>
      <trkpt lat="47.26514" lon="-1.54054">
        <ele>10.067435264587</ele>
        <time>2016-11-22T07:57:44.000Z</time>
      </trkpt>
      <trkpt lat="47.26513" lon="-1.54053">
        <ele>9.8438205718994</ele>
        <time>2016-11-22T07:57:46.000Z</time>
      </trkpt>
      <trkpt lat="47.26511" lon="-1.54048">
        <ele>9.5895090103149</ele>
        <time>2016-11-22T07:57:49.000Z</time>
      </trkpt>
      <trkpt lat="47.2651" lon="-1.54042">
        <ele>9.3288097381592</ele>
        <time>2016-11-22T07:57:52.000Z</time>
      </trkpt>
      <trkpt lat="47.26508" lon="-1.54038">
        <ele>9.0466203689575</ele>
        <time>2016-11-22T07:57:54.000Z</time>
      </trkpt>
      <trkpt lat="47.26506" lon="-1.54035">
        <ele>8.7628450393677</ele>
        <time>2016-11-22T07:57:56.000Z</time>
      </trkpt>
      <trkpt lat="47.26505" lon="-1.54032">
        <ele>8.4535417556763</ele>
        <time>2016-11-22T07:57:59.000Z</time>
      </trkpt>
      <trkpt lat="47.26502" lon="-1.54029">
        <ele>8.1499423980713</ele>
        <time>2016-11-22T07:58:02.000Z</time>
      </trkpt>
      <trkpt lat="47.26502" lon="-1.54027">
        <ele>7.895628452301</ele>
        <time>2016-11-22T07:58:04.000Z</time>
      </trkpt>
      <trkpt lat="47.26502" lon="-1.54024">
        <ele>7.667986869812</ele>
        <time>2016-11-22T07:58:06.000Z</time>
      </trkpt>
      <trkpt lat="47.265" lon="-1.54019">
        <ele>7.4208374023438</ele>
        <time>2016-11-22T07:58:09.000Z</time>
      </trkpt>
      <trkpt lat="47.26499" lon="-1.54016">
        <ele>7.1908288002014</ele>
        <time>2016-11-22T07:58:11.000Z</time>
      </trkpt>
      <trkpt lat="47.26497" lon="-1.54012">
        <ele>6.9951958656311</ele>
        <time>2016-11-22T07:58:14.000Z</time>
      </trkpt>
      <trkpt lat="47.26495" lon="-1.54009">
        <ele>6.7850937843323</ele>
        <time>2016-11-22T07:58:17.000Z</time>
      </trkpt>
      <trkpt lat="47.26493" lon="-1.54005">
        <ele>6.5732040405273</ele>
        <time>2016-11-22T07:58:20.000Z</time>
      </trkpt>
      <trkpt lat="47.26491" lon="-1.54001">
        <ele>6.4048166275024</ele>
        <time>2016-11-22T07:58:22.000Z</time>
      </trkpt>
      <trkpt lat="47.2649" lon="-1.53999">
        <ele>6.2487807273865</ele>
        <time>2016-11-22T07:58:24.000Z</time>
      </trkpt>
      <trkpt lat="47.26485" lon="-1.53996">
        <ele>6.1136026382446</ele>
        <time>2016-11-22T07:58:27.000Z</time>
      </trkpt>
      <trkpt lat="47.26481" lon="-1.53997">
        <ele>6.013174533844</ele>
        <time>2016-11-22T07:58:30.000Z</time>
      </trkpt>
      <trkpt lat="47.26478" lon="-1.53996">
        <ele>5.9487371444702</ele>
        <time>2016-11-22T07:58:32.000Z</time>
      </trkpt>
      <trkpt lat="47.26474" lon="-1.53997">
        <ele>5.9165396690369</ele>
        <time>2016-11-22T07:58:35.000Z</time>
      </trkpt>
      <trkpt lat="47.2647" lon="-1.53998">
        <ele>5.912579536438</ele>
        <time>2016-11-22T07:58:38.000Z</time>
      </trkpt>
      <trkpt lat="47.26466" lon="-1.54">
        <ele>5.9306721687317</ele>
        <time>2016-11-22T07:58:41.000Z</time>
      </trkpt>
      <trkpt lat="47.26464" lon="-1.54001">
        <ele>5.9519271850586</ele>
        <time>2016-11-22T07:58:43.000Z</time>
      </trkpt>
      <trkpt lat="47.26461" lon="-1.54002">
        <ele>5.983832359314</ele>
        <time>2016-11-22T07:58:45.000Z</time>
      </trkpt>
      <trkpt lat="47.26456" lon="-1.54003">
        <ele>6.0263419151306</ele>
        <time>2016-11-22T07:58:48.000Z</time>
      </trkpt>
      <trkpt lat="47.26453" lon="-1.54004">
        <ele>6.06396484375</ele>
        <time>2016-11-22T07:58:50.000Z</time>
      </trkpt>
      <trkpt lat="47.2645" lon="-1.54003">
        <ele>6.0885200500488</ele>
        <time>2016-11-22T07:58:53.000Z</time>
      </trkpt>
      <trkpt lat="47.26447" lon="-1.54003">
        <ele>6.1048097610474</ele>
        <time>2016-11-22T07:58:55.000Z</time>
      </trkpt>
      <trkpt lat="47.26445" lon="-1.54003">
        <ele>6.1126189231873</ele>
        <time>2016-11-22T07:58:57.000Z</time>
      </trkpt>
      <trkpt lat="47.2644" lon="-1.54003">
        <ele>6.1071610450745</ele>
        <time>2016-11-22T07:59:00.000Z</time>
      </trkpt>
      <trkpt lat="47.26437" lon="-1.54003">
        <ele>6.0959415435791</ele>
        <time>2016-11-22T07:59:02.000Z</time>
      </trkpt>
      <trkpt lat="47.26435" lon="-1.54002">
        <ele>6.0836114883423</ele>
        <time>2016-11-22T07:59:04.000Z</time>
      </trkpt>
      <trkpt lat="47.2643" lon="-1.54">
        <ele>6.063934803009</ele>
        <time>2016-11-22T07:59:07.000Z</time>
      </trkpt>
      <trkpt lat="47.26426" lon="-1.53999">
        <ele>6.0361032485962</ele>
        <time>2016-11-22T07:59:10.000Z</time>
      </trkpt>
      <trkpt lat="47.26422" lon="-1.53998">
        <ele>6.0016660690308</ele>
        <time>2016-11-22T07:59:13.000Z</time>
      </trkpt>
      <trkpt lat="47.2642" lon="-1.53996">
        <ele>5.9591856002808</ele>
        <time>2016-11-22T07:59:16.000Z</time>
      </trkpt>
      <trkpt lat="47.26418" lon="-1.53996">
        <ele>5.9238514900208</ele>
        <time>2016-11-22T07:59:18.000Z</time>
      </trkpt>
      <trkpt lat="47.26417" lon="-1.53998">
        <ele>5.909423828125</ele>
        <time>2016-11-22T07:59:20.000Z</time>
      </trkpt>
      <trkpt lat="47.26414" lon="-1.53997">
        <ele>5.918212890625</ele>
        <time>2016-11-22T07:59:23.000Z</time>
      </trkpt>
      <trkpt lat="47.26412" lon="-1.53996">
        <ele>5.9410290718079</ele>
        <time>2016-11-22T07:59:25.000Z</time>
      </trkpt>
      <trkpt lat="47.26408" lon="-1.53996">
        <ele>6.0018749237061</ele>
        <time>2016-11-22T07:59:28.000Z</time>
      </trkpt>
      <trkpt lat="47.26403" lon="-1.53995">
        <ele>6.0882697105408</ele>
        <time>2016-11-22T07:59:31.000Z</time>
      </trkpt>
      <trkpt lat="47.26399" lon="-1.53996">
        <ele>6.1950073242188</ele>
        <time>2016-11-22T07:59:34.000Z</time>
      </trkpt>
      <trkpt lat="47.26397" lon="-1.53994">
        <ele>6.2956237792969</ele>
        <time>2016-11-22T07:59:36.000Z</time>
      </trkpt>
      <trkpt lat="47.26394" lon="-1.53993">
        <ele>6.402099609375</ele>
        <time>2016-11-22T07:59:38.000Z</time>
      </trkpt>
      <trkpt lat="47.2639" lon="-1.53992">
        <ele>6.5027160644531</ele>
        <time>2016-11-22T07:59:40.000Z</time>
      </trkpt>
      <trkpt lat="47.26386" lon="-1.53991">
        <ele>6.5958251953125</ele>
        <time>2016-11-22T07:59:42.000Z</time>
      </trkpt>
      <trkpt lat="47.26381" lon="-1.5399">
        <ele>6.6889343261719</ele>
        <time>2016-11-22T07:59:45.000Z</time>
      </trkpt>
      <trkpt lat="47.26378" lon="-1.5399">
        <ele>6.7933044433594</ele>
        <time>2016-11-22T07:59:47.000Z</time>
      </trkpt>
      <trkpt lat="47.26374" lon="-1.5399">
        <ele>6.9115905761719</ele>
        <time>2016-11-22T07:59:50.000Z</time>
      </trkpt>
      <trkpt lat="47.26372" lon="-1.5399">
        <ele>7.0274047851562</ele>
        <time>2016-11-22T07:59:52.000Z</time>
      </trkpt>
      <trkpt lat="47.26368" lon="-1.53989">
        <ele>7.1443176269531</ele>
        <time>2016-11-22T07:59:55.000Z</time>
      </trkpt>
      <trkpt lat="47.26365" lon="-1.53988">
        <ele>7.24072265625</ele>
        <time>2016-11-22T07:59:57.000Z</time>
      </trkpt>
      <trkpt lat="47.26363" lon="-1.53987">
        <ele>7.3236694335938</ele>
        <time>2016-11-22T07:59:59.000Z</time>
      </trkpt>
      <trkpt lat="47.2636" lon="-1.53985">
        <ele>7.3938903808594</ele>
        <time>2016-11-22T08:00:01.000Z</time>
      </trkpt>
      <trkpt lat="47.26358" lon="-1.53984">
        <ele>7.4485473632812</ele>
        <time>2016-11-22T08:00:03.000Z</time>
      </trkpt>
      <trkpt lat="47.26354" lon="-1.53982">
        <ele>7.4951477050781</ele>
        <time>2016-11-22T08:00:06.000Z</time>
      </trkpt>
      <trkpt lat="47.26352" lon="-1.5398">
        <ele>7.5374450683594</ele>
        <time>2016-11-22T08:00:09.000Z</time>
      </trkpt>
      <trkpt lat="47.26348" lon="-1.53979">
        <ele>7.5935668945312</ele>
        <time>2016-11-22T08:00:12.000Z</time>
      </trkpt>
      <trkpt lat="47.26342" lon="-1.53977">
        <ele>7.6670837402344</ele>
        <time>2016-11-22T08:00:15.000Z</time>
      </trkpt>
      <trkpt lat="47.26339" lon="-1.53976">
        <ele>7.7480163574219</ele>
        <time>2016-11-22T08:00:17.000Z</time>
      </trkpt>
      <trkpt lat="47.26335" lon="-1.53973">
        <ele>7.8243713378906</ele>
        <time>2016-11-22T08:00:20.000Z</time>
      </trkpt>
      <trkpt lat="47.26331" lon="-1.53969">
        <ele>7.9172391891479</ele>
        <time>2016-11-22T08:00:23.000Z</time>
      </trkpt>
      <trkpt lat="47.26328" lon="-1.53967">
        <ele>8.0144863128662</ele>
        <time>2016-11-22T08:00:25.000Z</time>
      </trkpt>
      <trkpt lat="47.26326" lon="-1.53966">
        <ele>8.1019554138184</ele>
        <time>2016-11-22T08:00:27.000Z</time>
      </trkpt>
      <trkpt lat="47.26324" lon="-1.53964">
        <ele>8.1954336166382</ele>
        <time>2016-11-22T08:00:30.000Z</time>
      </trkpt>
      <trkpt lat="47.26321" lon="-1.53962">
        <ele>8.3077707290649</ele>
        <time>2016-11-22T08:00:33.000Z</time>
      </trkpt>
      <trkpt lat="47.26317" lon="-1.5396">
        <ele>8.4340896606445</ele>
        <time>2016-11-22T08:00:36.000Z</time>
      </trkpt>
      <trkpt lat="47.26316" lon="-1.53958">
        <ele>8.5419454574585</ele>
        <time>2016-11-22T08:00:39.000Z</time>
      </trkpt>
      <trkpt lat="47.26313" lon="-1.53956">
        <ele>8.6586713790894</ele>
        <time>2016-11-22T08:00:42.000Z</time>
      </trkpt>
      <trkpt lat="47.26309" lon="-1.53954">
        <ele>8.8010835647583</ele>
        <time>2016-11-22T08:00:45.000Z</time>
      </trkpt>
      <trkpt lat="47.26306" lon="-1.53951">
        <ele>8.9493389129639</ele>
        <time>2016-11-22T08:00:48.000Z</time>
      </trkpt>
      <trkpt lat="47.26304" lon="-1.53948">
        <ele>9.0773115158081</ele>
        <time>2016-11-22T08:00:50.000Z</time>
      </trkpt>
      <trkpt lat="47.263" lon="-1.53946">
        <ele>9.2394638061523</ele>
        <time>2016-11-22T08:00:53.000Z</time>
      </trkpt>
      <trkpt lat="47.26297" lon="-1.53942">
        <ele>9.4054431915283</ele>
        <time>2016-11-22T08:00:56.000Z</time>
      </trkpt>
      <trkpt lat="47.26293" lon="-1.53939">
        <ele>9.5693340301514</ele>
        <time>2016-11-22T08:00:59.000Z</time>
      </trkpt>
      <trkpt lat="47.26291" lon="-1.53936">
        <ele>9.7243709564209</ele>
        <time>2016-11-22T08:01:01.000Z</time>
      </trkpt>
      <trkpt lat="47.26287" lon="-1.53933">
        <ele>9.9106426239014</ele>
        <time>2016-11-22T08:01:04.000Z</time>
      </trkpt>
      <trkpt lat="47.26283" lon="-1.53932">
        <ele>10.109593391418</ele>
        <time>2016-11-22T08:01:07.000Z</time>
      </trkpt>
      <trkpt lat="47.26281" lon="-1.53929">
        <ele>10.30447769165</ele>
        <time>2016-11-22T08:01:09.000Z</time>
      </trkpt>
      <trkpt lat="47.26278" lon="-1.53927">
        <ele>10.483542442322</ele>
        <time>2016-11-22T08:01:11.000Z</time>
      </trkpt>
      <trkpt lat="47.26274" lon="-1.53924">
        <ele>10.692416191101</ele>
        <time>2016-11-22T08:01:14.000Z</time>
      </trkpt>
      <trkpt lat="47.26271" lon="-1.53921">
        <ele>10.901294708252</ele>
        <time>2016-11-22T08:01:17.000Z</time>
      </trkpt>
      <trkpt lat="47.26268" lon="-1.5392">
        <ele>11.093625068665</ele>
        <time>2016-11-22T08:01:19.000Z</time>
      </trkpt>
      <trkpt lat="47.26264" lon="-1.53918">
        <ele>11.325742721558</ele>
        <time>2016-11-22T08:01:22.000Z</time>
      </trkpt>
      <trkpt lat="47.26261" lon="-1.53917">
        <ele>11.576711654663</ele>
        <time>2016-11-22T08:01:24.000Z</time>
      </trkpt>
      <trkpt lat="47.26257" lon="-1.53914">
        <ele>11.805656433105</ele>
        <time>2016-11-22T08:01:27.000Z</time>
      </trkpt>
      <trkpt lat="47.26254" lon="-1.5391">
        <ele>11.964338302612</ele>
        <time>2016-11-22T08:01:30.000Z</time>
      </trkpt>
      <trkpt lat="47.2625" lon="-1.53906">
        <ele>12.094987869263</ele>
        <time>2016-11-22T08:01:33.000Z</time>
      </trkpt>
      <trkpt lat="47.26247" lon="-1.53902">
        <ele>12.120680809021</ele>
        <time>2016-11-22T08:01:36.000Z</time>
      </trkpt>
      <trkpt lat="47.26244" lon="-1.53899">
        <ele>12.09303855896</ele>
        <time>2016-11-22T08:01:38.000Z</time>
      </trkpt>
      <trkpt lat="47.26241" lon="-1.53897">
        <ele>12.036480903625</ele>
        <time>2016-11-22T08:01:41.000Z</time>
      </trkpt>
      <trkpt lat="47.26237" lon="-1.53893">
        <ele>12.00559425354</ele>
        <time>2016-11-22T08:01:44.000Z</time>
      </trkpt>
      <trkpt lat="47.26235" lon="-1.5389">
        <ele>11.936471939087</ele>
        <time>2016-11-22T08:01:46.000Z</time>
      </trkpt>
      <trkpt lat="47.26233" lon="-1.53887">
        <ele>11.875137329102</ele>
        <time>2016-11-22T08:01:48.000Z</time>
      </trkpt>
      <trkpt lat="47.26231" lon="-1.53884">
        <ele>11.790731430054</ele>
        <time>2016-11-22T08:01:51.000Z</time>
      </trkpt>
      <trkpt lat="47.26228" lon="-1.53881">
        <ele>11.681306838989</ele>
        <time>2016-11-22T08:01:54.000Z</time>
      </trkpt>
      <trkpt lat="47.26225" lon="-1.53879">
        <ele>11.564920425415</ele>
        <time>2016-11-22T08:01:57.000Z</time>
      </trkpt>
      <trkpt lat="47.26223" lon="-1.53877">
        <ele>11.469340324402</ele>
        <time>2016-11-22T08:01:59.000Z</time>
      </trkpt>
      <trkpt lat="47.26221" lon="-1.53875">
        <ele>11.384813308716</ele>
        <time>2016-11-22T08:02:01.000Z</time>
      </trkpt>
      <trkpt lat="47.26217" lon="-1.53871">
        <ele>11.299605369568</ele>
        <time>2016-11-22T08:02:04.000Z</time>
      </trkpt>
      <trkpt lat="47.26213" lon="-1.53869">
        <ele>11.246306419373</ele>
        <time>2016-11-22T08:02:07.000Z</time>
      </trkpt>
      <trkpt lat="47.2621" lon="-1.53868">
        <ele>11.191701889038</ele>
        <time>2016-11-22T08:02:09.000Z</time>
      </trkpt>
      <trkpt lat="47.26205" lon="-1.53864">
        <ele>11.116312026978</ele>
        <time>2016-11-22T08:02:12.000Z</time>
      </trkpt>
      <trkpt lat="47.26201" lon="-1.53861">
        <ele>11.038229942322</ele>
        <time>2016-11-22T08:02:15.000Z</time>
      </trkpt>
      <trkpt lat="47.26197" lon="-1.53858">
        <ele>10.963229179382</ele>
        <time>2016-11-22T08:02:18.000Z</time>
      </trkpt>
      <trkpt lat="47.26192" lon="-1.53855">
        <ele>10.843505859375</ele>
        <time>2016-11-22T08:02:21.000Z</time>
      </trkpt>
      <trkpt lat="47.26191" lon="-1.53854">
        <ele>10.725519180298</ele>
        <time>2016-11-22T08:02:23.000Z</time>
      </trkpt>
      <trkpt lat="47.26188" lon="-1.53853">
        <ele>10.653937339783</ele>
        <time>2016-11-22T08:02:26.000Z</time>
      </trkpt>
      <trkpt lat="47.26184" lon="-1.53852">
        <ele>10.607356071472</ele>
        <time>2016-11-22T08:02:28.000Z</time>
      </trkpt>
      <trkpt lat="47.2618" lon="-1.53851">
        <ele>10.592626571655</ele>
        <time>2016-11-22T08:02:30.000Z</time>
      </trkpt>
      <trkpt lat="47.26177" lon="-1.53848">
        <ele>10.568041801453</ele>
        <time>2016-11-22T08:02:33.000Z</time>
      </trkpt>
      <trkpt lat="47.26174" lon="-1.53846">
        <ele>10.522267341614</ele>
        <time>2016-11-22T08:02:35.000Z</time>
      </trkpt>
      <trkpt lat="47.2617" lon="-1.53845">
        <ele>10.496288299561</ele>
        <time>2016-11-22T08:02:38.000Z</time>
      </trkpt>
      <trkpt lat="47.26167" lon="-1.53844">
        <ele>10.446256637573</ele>
        <time>2016-11-22T08:02:40.000Z</time>
      </trkpt>
      <trkpt lat="47.26162" lon="-1.53841">
        <ele>10.284786224365</ele>
        <time>2016-11-22T08:02:43.000Z</time>
      </trkpt>
      <trkpt lat="47.26158" lon="-1.5384">
        <ele>10.091751098633</ele>
        <time>2016-11-22T08:02:46.000Z</time>
      </trkpt>
      <trkpt lat="47.26155" lon="-1.53839">
        <ele>9.8773860931396</ele>
        <time>2016-11-22T08:02:48.000Z</time>
      </trkpt>
      <trkpt lat="47.26153" lon="-1.53839">
        <ele>9.5843687057495</ele>
        <time>2016-11-22T08:02:50.000Z</time>
      </trkpt>
      <trkpt lat="47.26151" lon="-1.53838">
        <ele>9.2775640487671</ele>
        <time>2016-11-22T08:02:52.000Z</time>
      </trkpt>
      <trkpt lat="47.26147" lon="-1.53838">
        <ele>9.0406169891357</ele>
        <time>2016-11-22T08:02:54.000Z</time>
      </trkpt>
      <trkpt lat="47.26144" lon="-1.53838">
        <ele>8.8425817489624</ele>
        <time>2016-11-22T08:02:57.000Z</time>
      </trkpt>
      <trkpt lat="47.26142" lon="-1.53838">
        <ele>8.6616888046265</ele>
        <time>2016-11-22T08:02:59.000Z</time>
      </trkpt>
      <trkpt lat="47.26137" lon="-1.53838">
        <ele>8.4843702316284</ele>
        <time>2016-11-22T08:03:02.000Z</time>
      </trkpt>
      <trkpt lat="47.26133" lon="-1.53837">
        <ele>8.2863922119141</ele>
        <time>2016-11-22T08:03:05.000Z</time>
      </trkpt>
      <trkpt lat="47.26129" lon="-1.53837">
        <ele>8.0710258483887</ele>
        <time>2016-11-22T08:03:08.000Z</time>
      </trkpt>
      <trkpt lat="47.26124" lon="-1.53836">
        <ele>7.8333983421326</ele>
        <time>2016-11-22T08:03:11.000Z</time>
      </trkpt>
      <trkpt lat="47.26122" lon="-1.53836">
        <ele>7.6059775352478</ele>
        <time>2016-11-22T08:03:13.000Z</time>
      </trkpt>
      <trkpt lat="47.26118" lon="-1.53837">
        <ele>7.4090971946716</ele>
        <time>2016-11-22T08:03:16.000Z</time>
      </trkpt>
      <trkpt lat="47.26114" lon="-1.53838">
        <ele>7.2424516677856</ele>
        <time>2016-11-22T08:03:19.000Z</time>
      </trkpt>
      <trkpt lat="47.2611" lon="-1.53839">
        <ele>7.1124143600464</ele>
        <time>2016-11-22T08:03:21.000Z</time>
      </trkpt>
      <trkpt lat="47.26108" lon="-1.5384">
        <ele>7.0407037734985</ele>
        <time>2016-11-22T08:03:23.000Z</time>
      </trkpt>
      <trkpt lat="47.26103" lon="-1.53842">
        <ele>6.9814438819885</ele>
        <time>2016-11-22T08:03:26.000Z</time>
      </trkpt>
      <trkpt lat="47.261" lon="-1.53843">
        <ele>6.9337463378906</ele>
        <time>2016-11-22T08:03:28.000Z</time>
      </trkpt>
      <trkpt lat="47.26096" lon="-1.53844">
        <ele>6.8969106674194</ele>
        <time>2016-11-22T08:03:31.000Z</time>
      </trkpt>
      <trkpt lat="47.26092" lon="-1.53846">
        <ele>6.8753952980042</ele>
        <time>2016-11-22T08:03:34.000Z</time>
      </trkpt>
      <trkpt lat="47.2609" lon="-1.53847">
        <ele>6.8518090248108</ele>
        <time>2016-11-22T08:03:36.000Z</time>
      </trkpt>
      <trkpt lat="47.26086" lon="-1.53847">
        <ele>6.7966041564941</ele>
        <time>2016-11-22T08:03:39.000Z</time>
      </trkpt>
      <trkpt lat="47.26083" lon="-1.53846">
        <ele>6.6855096817017</ele>
        <time>2016-11-22T08:03:41.000Z</time>
      </trkpt>
      <trkpt lat="47.26079" lon="-1.53846">
        <ele>6.5762224197388</ele>
        <time>2016-11-22T08:03:44.000Z</time>
      </trkpt>
      <trkpt lat="47.26074" lon="-1.53845">
        <ele>6.4654340744019</ele>
        <time>2016-11-22T08:03:47.000Z</time>
      </trkpt>
      <trkpt lat="47.26071" lon="-1.53845">
        <ele>6.353138923645</ele>
        <time>2016-11-22T08:03:49.000Z</time>
      </trkpt>
      <trkpt lat="47.26067" lon="-1.53845">
        <ele>6.2737174034119</ele>
        <time>2016-11-22T08:03:52.000Z</time>
      </trkpt>
      <trkpt lat="47.26064" lon="-1.53845">
        <ele>6.2393369674683</ele>
        <time>2016-11-22T08:03:55.000Z</time>
      </trkpt>
      <trkpt lat="47.26061" lon="-1.53844">
        <ele>6.2038078308105</ele>
        <time>2016-11-22T08:03:57.000Z</time>
      </trkpt>
      <trkpt lat="47.26058" lon="-1.53844">
        <ele>6.1644067764282</ele>
        <time>2016-11-22T08:04:00.000Z</time>
      </trkpt>
      <trkpt lat="47.26056" lon="-1.53844">
        <ele>6.1240968704224</ele>
        <time>2016-11-22T08:04:02.000Z</time>
      </trkpt>
      <trkpt lat="47.26053" lon="-1.53843">
        <ele>6.0785818099976</ele>
        <time>2016-11-22T08:04:04.000Z</time>
      </trkpt>
      <trkpt lat="47.26048" lon="-1.53842">
        <ele>6.0180368423462</ele>
        <time>2016-11-22T08:04:07.000Z</time>
      </trkpt>
      <trkpt lat="47.26043" lon="-1.53842">
        <ele>5.9547019004822</ele>
        <time>2016-11-22T08:04:10.000Z</time>
      </trkpt>
      <trkpt lat="47.26038" lon="-1.53841">
        <ele>5.8899664878845</ele>
        <time>2016-11-22T08:04:13.000Z</time>
      </trkpt>
      <trkpt lat="47.26035" lon="-1.53841">
        <ele>5.8259930610657</ele>
        <time>2016-11-22T08:04:15.000Z</time>
      </trkpt>
      <trkpt lat="47.26029" lon="-1.53841">
        <ele>5.7715630531311</ele>
        <time>2016-11-22T08:04:18.000Z</time>
      </trkpt>
      <trkpt lat="47.26025" lon="-1.53841">
        <ele>5.7428984642029</ele>
        <time>2016-11-22T08:04:20.000Z</time>
      </trkpt>
      <trkpt lat="47.26022" lon="-1.53841">
        <ele>5.7292447090149</ele>
        <time>2016-11-22T08:04:22.000Z</time>
      </trkpt>
      <trkpt lat="47.26017" lon="-1.53842">
        <ele>5.7368583679199</ele>
        <time>2016-11-22T08:04:25.000Z</time>
      </trkpt>
      <trkpt lat="47.26013" lon="-1.53843">
        <ele>5.7572493553162</ele>
        <time>2016-11-22T08:04:27.000Z</time>
      </trkpt>
      <trkpt lat="47.26011" lon="-1.53843">
        <ele>5.7853646278381</ele>
        <time>2016-11-22T08:04:29.000Z</time>
      </trkpt>
      <trkpt lat="47.26007" lon="-1.53844">
        <ele>5.8217387199402</ele>
        <time>2016-11-22T08:04:31.000Z</time>
      </trkpt>
      <trkpt lat="47.26004" lon="-1.53845">
        <ele>5.8720731735229</ele>
        <time>2016-11-22T08:04:34.000Z</time>
      </trkpt>
      <trkpt lat="47.26001" lon="-1.53846">
        <ele>5.9279012680054</ele>
        <time>2016-11-22T08:04:36.000Z</time>
      </trkpt>
      <trkpt lat="47.25997" lon="-1.53847">
        <ele>5.9889273643494</ele>
        <time>2016-11-22T08:04:39.000Z</time>
      </trkpt>
      <trkpt lat="47.25995" lon="-1.53848">
        <ele>6.0503869056702</ele>
        <time>2016-11-22T08:04:41.000Z</time>
      </trkpt>
      <trkpt lat="47.25991" lon="-1.5385">
        <ele>6.1157469749451</ele>
        <time>2016-11-22T08:04:44.000Z</time>
      </trkpt>
      <trkpt lat="47.25987" lon="-1.53849">
        <ele>6.1511878967285</ele>
        <time>2016-11-22T08:04:47.000Z</time>
      </trkpt>
      <trkpt lat="47.25984" lon="-1.5385">
        <ele>6.1736946105957</ele>
        <time>2016-11-22T08:04:49.000Z</time>
      </trkpt>
      <trkpt lat="47.2598" lon="-1.53851">
        <ele>6.1861367225647</ele>
        <time>2016-11-22T08:04:51.000Z</time>
      </trkpt>
      <trkpt lat="47.25976" lon="-1.53853">
        <ele>6.2107162475586</ele>
        <time>2016-11-22T08:04:54.000Z</time>
      </trkpt>
      <trkpt lat="47.25974" lon="-1.53856">
        <ele>6.258939743042</ele>
        <time>2016-11-22T08:04:57.000Z</time>
      </trkpt>
      <trkpt lat="47.25972" lon="-1.53858">
        <ele>6.3507733345032</ele>
        <time>2016-11-22T08:04:59.000Z</time>
      </trkpt>
      <trkpt lat="47.25969" lon="-1.5386">
        <ele>6.4592523574829</ele>
        <time>2016-11-22T08:05:01.000Z</time>
      </trkpt>
      <trkpt lat="47.25965" lon="-1.53862">
        <ele>6.5937929153442</ele>
        <time>2016-11-22T08:05:04.000Z</time>
      </trkpt>
      <trkpt lat="47.25962" lon="-1.53863">
        <ele>6.7194533348083</ele>
        <time>2016-11-22T08:05:06.000Z</time>
      </trkpt>
      <trkpt lat="47.2596" lon="-1.53865">
        <ele>6.820164680481</ele>
        <time>2016-11-22T08:05:08.000Z</time>
      </trkpt>
      <trkpt lat="47.25956" lon="-1.53868">
        <ele>6.9224786758423</ele>
        <time>2016-11-22T08:05:11.000Z</time>
      </trkpt>
      <trkpt lat="47.25952" lon="-1.53871">
        <ele>7.0418000221252</ele>
        <time>2016-11-22T08:05:14.000Z</time>
      </trkpt>
      <trkpt lat="47.2595" lon="-1.53873">
        <ele>7.1590399742126</ele>
        <time>2016-11-22T08:05:16.000Z</time>
      </trkpt>
      <trkpt lat="47.25946" lon="-1.53877">
        <ele>7.3081078529358</ele>
        <time>2016-11-22T08:05:19.000Z</time>
      </trkpt>
      <trkpt lat="47.25943" lon="-1.53879">
        <ele>7.4711813926697</ele>
        <time>2016-11-22T08:05:21.000Z</time>
      </trkpt>
      <trkpt lat="47.2594" lon="-1.53883">
        <ele>7.6521234512329</ele>
        <time>2016-11-22T08:05:24.000Z</time>
      </trkpt>
      <trkpt lat="47.25938" lon="-1.53885">
        <ele>7.8098974227905</ele>
        <time>2016-11-22T08:05:26.000Z</time>
      </trkpt>
      <trkpt lat="47.25936" lon="-1.53885">
        <ele>7.9411821365356</ele>
        <time>2016-11-22T08:05:28.000Z</time>
      </trkpt>
      <trkpt lat="47.25932" lon="-1.53886">
        <ele>8.0234479904175</ele>
        <time>2016-11-22T08:05:31.000Z</time>
      </trkpt>
      <trkpt lat="47.25928" lon="-1.53888">
        <ele>8.0908298492432</ele>
        <time>2016-11-22T08:05:34.000Z</time>
      </trkpt>
      <trkpt lat="47.25924" lon="-1.53889">
        <ele>8.1195240020752</ele>
        <time>2016-11-22T08:05:37.000Z</time>
      </trkpt>
      <trkpt lat="47.2592" lon="-1.53892">
        <ele>8.1550216674805</ele>
        <time>2016-11-22T08:05:40.000Z</time>
      </trkpt>
      <trkpt lat="47.25917" lon="-1.53893">
        <ele>8.2007160186768</ele>
        <time>2016-11-22T08:05:42.000Z</time>
      </trkpt>
      <trkpt lat="47.25913" lon="-1.53895">
        <ele>8.253490447998</ele>
        <time>2016-11-22T08:05:45.000Z</time>
      </trkpt>
      <trkpt lat="47.25911" lon="-1.53896">
        <ele>8.2965717315674</ele>
        <time>2016-11-22T08:05:47.000Z</time>
      </trkpt>
      <trkpt lat="47.25908" lon="-1.53898">
        <ele>8.3306427001953</ele>
        <time>2016-11-22T08:05:49.000Z</time>
      </trkpt>
      <trkpt lat="47.25903" lon="-1.539">
        <ele>8.3525419235229</ele>
        <time>2016-11-22T08:05:52.000Z</time>
      </trkpt>
      <trkpt lat="47.25901" lon="-1.53902">
        <ele>8.3693981170654</ele>
        <time>2016-11-22T08:05:54.000Z</time>
      </trkpt>
      <trkpt lat="47.25896" lon="-1.53904">
        <ele>8.3937177658081</ele>
        <time>2016-11-22T08:05:57.000Z</time>
      </trkpt>
      <trkpt lat="47.25893" lon="-1.53907">
        <ele>8.4233798980713</ele>
        <time>2016-11-22T08:06:00.000Z</time>
      </trkpt>
      <trkpt lat="47.25888" lon="-1.5391">
        <ele>8.4616746902466</ele>
        <time>2016-11-22T08:06:03.000Z</time>
      </trkpt>
      <trkpt lat="47.25885" lon="-1.53912">
        <ele>8.4965085983276</ele>
        <time>2016-11-22T08:06:05.000Z</time>
      </trkpt>
      <trkpt lat="47.25883" lon="-1.53913">
        <ele>8.525279045105</ele>
        <time>2016-11-22T08:06:07.000Z</time>
      </trkpt>
      <trkpt lat="47.25879" lon="-1.53916">
        <ele>8.5529155731201</ele>
        <time>2016-11-22T08:06:10.000Z</time>
      </trkpt>
      <trkpt lat="47.25876" lon="-1.53918">
        <ele>8.572021484375</ele>
        <time>2016-11-22T08:06:12.000Z</time>
      </trkpt>
      <trkpt lat="47.25873" lon="-1.5392">
        <ele>8.595817565918</ele>
        <time>2016-11-22T08:06:15.000Z</time>
      </trkpt>
      <trkpt lat="47.25869" lon="-1.53923">
        <ele>8.6275854110718</ele>
        <time>2016-11-22T08:06:18.000Z</time>
      </trkpt>
      <trkpt lat="47.25865" lon="-1.53926">
        <ele>8.6643266677856</ele>
        <time>2016-11-22T08:06:21.000Z</time>
      </trkpt>
      <trkpt lat="47.25863" lon="-1.53927">
        <ele>8.7040205001831</ele>
        <time>2016-11-22T08:06:23.000Z</time>
      </trkpt>
      <trkpt lat="47.25859" lon="-1.5393">
        <ele>8.7587795257568</ele>
        <time>2016-11-22T08:06:26.000Z</time>
      </trkpt>
      <trkpt lat="47.25856" lon="-1.53933">
        <ele>8.8112668991089</ele>
        <time>2016-11-22T08:06:28.000Z</time>
      </trkpt>
      <trkpt lat="47.25852" lon="-1.53935">
        <ele>8.8600969314575</ele>
        <time>2016-11-22T08:06:31.000Z</time>
      </trkpt>
      <trkpt lat="47.25848" lon="-1.53939">
        <ele>8.9335613250732</ele>
        <time>2016-11-22T08:06:34.000Z</time>
      </trkpt>
      <trkpt lat="47.25843" lon="-1.53942">
        <ele>8.9992160797119</ele>
        <time>2016-11-22T08:06:37.000Z</time>
      </trkpt>
      <trkpt lat="47.2584" lon="-1.53943">
        <ele>9.044939994812</ele>
        <time>2016-11-22T08:06:40.000Z</time>
      </trkpt>
      <trkpt lat="47.25838" lon="-1.53943">
        <ele>9.0711622238159</ele>
        <time>2016-11-22T08:06:42.000Z</time>
      </trkpt>
      <trkpt lat="47.25836" lon="-1.53943">
        <ele>9.0711154937744</ele>
        <time>2016-11-22T08:06:45.000Z</time>
      </trkpt>
      <trkpt lat="47.25833" lon="-1.53943">
        <ele>9.0231676101685</ele>
        <time>2016-11-22T08:06:47.000Z</time>
      </trkpt>
      <trkpt lat="47.25828" lon="-1.53944">
        <ele>8.9865283966064</ele>
        <time>2016-11-22T08:06:50.000Z</time>
      </trkpt>
      <trkpt lat="47.25826" lon="-1.53945">
        <ele>8.962251663208</ele>
        <time>2016-11-22T08:06:52.000Z</time>
      </trkpt>
      <trkpt lat="47.25823" lon="-1.53945">
        <ele>8.9567356109619</ele>
        <time>2016-11-22T08:06:54.000Z</time>
      </trkpt>
      <trkpt lat="47.25819" lon="-1.53947">
        <ele>8.9822092056274</ele>
        <time>2016-11-22T08:06:57.000Z</time>
      </trkpt>
      <trkpt lat="47.25815" lon="-1.53949">
        <ele>9.0572204589844</ele>
        <time>2016-11-22T08:07:00.000Z</time>
      </trkpt>
      <trkpt lat="47.25813" lon="-1.5395">
        <ele>9.1333665847778</ele>
        <time>2016-11-22T08:07:02.000Z</time>
      </trkpt>
      <trkpt lat="47.2581" lon="-1.53951">
        <ele>9.2081861495972</ele>
        <time>2016-11-22T08:07:04.000Z</time>
      </trkpt>
      <trkpt lat="47.25805" lon="-1.53952">
        <ele>9.283709526062</ele>
        <time>2016-11-22T08:07:07.000Z</time>
      </trkpt>
      <trkpt lat="47.25802" lon="-1.53955">
        <ele>9.3791790008545</ele>
        <time>2016-11-22T08:07:10.000Z</time>
      </trkpt>
      <trkpt lat="47.258" lon="-1.53956">
        <ele>9.4555740356445</ele>
        <time>2016-11-22T08:07:12.000Z</time>
      </trkpt>
      <trkpt lat="47.25797" lon="-1.53956">
        <ele>9.5153713226318</ele>
        <time>2016-11-22T08:07:14.000Z</time>
      </trkpt>
      <trkpt lat="47.25792" lon="-1.53957">
        <ele>9.5832901000977</ele>
        <time>2016-11-22T08:07:17.000Z</time>
      </trkpt>
      <trkpt lat="47.25791" lon="-1.53959">
        <ele>9.6534099578857</ele>
        <time>2016-11-22T08:07:19.000Z</time>
      </trkpt>
      <trkpt lat="47.25787" lon="-1.5396">
        <ele>9.7066898345947</ele>
        <time>2016-11-22T08:07:22.000Z</time>
      </trkpt>
      <trkpt lat="47.25784" lon="-1.53962">
        <ele>9.7664432525635</ele>
        <time>2016-11-22T08:07:24.000Z</time>
      </trkpt>
      <trkpt lat="47.2578" lon="-1.53964">
        <ele>9.8506307601929</ele>
        <time>2016-11-22T08:07:27.000Z</time>
      </trkpt>
      <trkpt lat="47.25778" lon="-1.53965">
        <ele>9.9312953948975</ele>
        <time>2016-11-22T08:07:29.000Z</time>
      </trkpt>
      <trkpt lat="47.25774" lon="-1.53966">
        <ele>10.008878707886</ele>
        <time>2016-11-22T08:07:32.000Z</time>
      </trkpt>
      <trkpt lat="47.25771" lon="-1.53967">
        <ele>10.080891609192</ele>
        <time>2016-11-22T08:07:35.000Z</time>
      </trkpt>
      <trkpt lat="47.25768" lon="-1.53967">
        <ele>10.13002204895</ele>
        <time>2016-11-22T08:07:37.000Z</time>
      </trkpt>
      <trkpt lat="47.25766" lon="-1.53966">
        <ele>10.140665054321</ele>
        <time>2016-11-22T08:07:40.000Z</time>
      </trkpt>
      <trkpt lat="47.25761" lon="-1.53964">
        <ele>10.100348472595</ele>
        <time>2016-11-22T08:07:43.000Z</time>
      </trkpt>
      <trkpt lat="47.25759" lon="-1.53962">
        <ele>10.020780563354</ele>
        <time>2016-11-22T08:07:45.000Z</time>
      </trkpt>
      <trkpt lat="47.25755" lon="-1.53959">
        <ele>9.891881942749</ele>
        <time>2016-11-22T08:07:48.000Z</time>
      </trkpt>
      <trkpt lat="47.25751" lon="-1.53955">
        <ele>9.7136659622192</ele>
        <time>2016-11-22T08:07:51.000Z</time>
      </trkpt>
      <trkpt lat="47.25747" lon="-1.53952">
        <ele>9.5211658477783</ele>
        <time>2016-11-22T08:07:54.000Z</time>
      </trkpt>
      <trkpt lat="47.25742" lon="-1.53949">
        <ele>9.3334703445435</ele>
        <time>2016-11-22T08:07:57.000Z</time>
      </trkpt>
      <trkpt lat="47.25739" lon="-1.53944">
        <ele>9.1201372146606</ele>
        <time>2016-11-22T08:08:00.000Z</time>
      </trkpt>
      <trkpt lat="47.25736" lon="-1.5394">
        <ele>8.8949871063232</ele>
        <time>2016-11-22T08:08:03.000Z</time>
      </trkpt>
      <trkpt lat="47.25734" lon="-1.53937">
        <ele>8.690523147583</ele>
        <time>2016-11-22T08:08:05.000Z</time>
      </trkpt>
      <trkpt lat="47.25731" lon="-1.53935">
        <ele>8.4877471923828</ele>
        <time>2016-11-22T08:08:08.000Z</time>
      </trkpt>
      <trkpt lat="47.25729" lon="-1.53932">
        <ele>8.286979675293</ele>
        <time>2016-11-22T08:08:10.000Z</time>
      </trkpt>
      <trkpt lat="47.25727" lon="-1.53928">
        <ele>8.0884323120117</ele>
        <time>2016-11-22T08:08:13.000Z</time>
      </trkpt>
      <trkpt lat="47.25724" lon="-1.53924">
        <ele>7.893247127533</ele>
        <time>2016-11-22T08:08:16.000Z</time>
      </trkpt>
      <trkpt lat="47.25721" lon="-1.53922">
        <ele>7.705060005188</ele>
        <time>2016-11-22T08:08:19.000Z</time>
      </trkpt>
      <trkpt lat="47.25718" lon="-1.5392">
        <ele>7.5205726623535</ele>
        <time>2016-11-22T08:08:21.000Z</time>
      </trkpt>
      <trkpt lat="47.25714" lon="-1.53917">
        <ele>7.3358688354492</ele>
        <time>2016-11-22T08:08:24.000Z</time>
      </trkpt>
      <trkpt lat="47.25711" lon="-1.53916">
        <ele>7.1957674026489</ele>
        <time>2016-11-22T08:08:26.000Z</time>
      </trkpt>
      <trkpt lat="47.25708" lon="-1.53917">
        <ele>7.1105470657349</ele>
        <time>2016-11-22T08:08:28.000Z</time>
      </trkpt>
      <trkpt lat="47.25705" lon="-1.53918">
        <ele>7.0599007606506</ele>
        <time>2016-11-22T08:08:30.000Z</time>
      </trkpt>
      <trkpt lat="47.25702" lon="-1.53919">
        <ele>7.0511116981506</ele>
        <time>2016-11-22T08:08:33.000Z</time>
      </trkpt>
      <trkpt lat="47.25699" lon="-1.5392">
        <ele>7.0906953811646</ele>
        <time>2016-11-22T08:08:35.000Z</time>
      </trkpt>
      <trkpt lat="47.25695" lon="-1.5392">
        <ele>7.1443572044373</ele>
        <time>2016-11-22T08:08:38.000Z</time>
      </trkpt>
      <trkpt lat="47.25693" lon="-1.5392">
        <ele>7.1894826889038</ele>
        <time>2016-11-22T08:08:40.000Z</time>
      </trkpt>
      <trkpt lat="47.25689" lon="-1.53922">
        <ele>7.2509298324585</ele>
        <time>2016-11-22T08:08:43.000Z</time>
      </trkpt>
      <trkpt lat="47.25687" lon="-1.53923">
        <ele>7.3118348121643</ele>
        <time>2016-11-22T08:08:45.000Z</time>
      </trkpt>
      <trkpt lat="47.25684" lon="-1.53924">
        <ele>7.3706526756287</ele>
        <time>2016-11-22T08:08:47.000Z</time>
      </trkpt>
      <trkpt lat="47.2568" lon="-1.53925">
        <ele>7.4370775222778</ele>
        <time>2016-11-22T08:08:50.000Z</time>
      </trkpt>
      <trkpt lat="47.25677" lon="-1.53925">
        <ele>7.5074439048767</ele>
        <time>2016-11-22T08:08:53.000Z</time>
      </trkpt>
      <trkpt lat="47.25676" lon="-1.53926">
        <ele>7.5589551925659</ele>
        <time>2016-11-22T08:08:55.000Z</time>
      </trkpt>
      <trkpt lat="47.25672" lon="-1.53929">
        <ele>7.640513420105</ele>
        <time>2016-11-22T08:08:58.000Z</time>
      </trkpt>
      <trkpt lat="47.25669" lon="-1.53931">
        <ele>7.7406396865845</ele>
        <time>2016-11-22T08:09:00.000Z</time>
      </trkpt>
      <trkpt lat="47.25665" lon="-1.53933">
        <ele>7.8476881980896</ele>
        <time>2016-11-22T08:09:03.000Z</time>
      </trkpt>
      <trkpt lat="47.25663" lon="-1.53933">
        <ele>7.9565191268921</ele>
        <time>2016-11-22T08:09:05.000Z</time>
      </trkpt>
      <trkpt lat="47.25659" lon="-1.53933">
        <ele>8.0521717071533</ele>
        <time>2016-11-22T08:09:08.000Z</time>
      </trkpt>
      <trkpt lat="47.25654" lon="-1.53934">
        <ele>8.0934495925903</ele>
        <time>2016-11-22T08:09:10.000Z</time>
      </trkpt>
      <trkpt lat="47.25652" lon="-1.53934">
        <ele>8.099609375</ele>
        <time>2016-11-22T08:09:13.000Z</time>
      </trkpt>
      <trkpt lat="47.25648" lon="-1.53934">
        <ele>8.0830688476562</ele>
        <time>2016-11-22T08:09:16.000Z</time>
      </trkpt>
      <trkpt lat="47.25642" lon="-1.53934">
        <ele>8.0396118164062</ele>
        <time>2016-11-22T08:09:19.000Z</time>
      </trkpt>
      <trkpt lat="47.25636" lon="-1.53936">
        <ele>8.015625</ele>
        <time>2016-11-22T08:09:22.000Z</time>
      </trkpt>
      <trkpt lat="47.25632" lon="-1.53935">
        <ele>7.9816284179688</ele>
        <time>2016-11-22T08:09:25.000Z</time>
      </trkpt>
      <trkpt lat="47.25629" lon="-1.53934">
        <ele>7.9308471679688</ele>
        <time>2016-11-22T08:09:27.000Z</time>
      </trkpt>
      <trkpt lat="47.25624" lon="-1.53934">
        <ele>7.8770141601562</ele>
        <time>2016-11-22T08:09:30.000Z</time>
      </trkpt>
      <trkpt lat="47.25621" lon="-1.53936">
        <ele>7.8660888671875</ele>
        <time>2016-11-22T08:09:32.000Z</time>
      </trkpt>
      <trkpt lat="47.2562" lon="-1.53938">
        <ele>7.8593139648438</ele>
        <time>2016-11-22T08:09:34.000Z</time>
      </trkpt>
      <trkpt lat="47.25616" lon="-1.5394">
        <ele>7.8931884765625</ele>
        <time>2016-11-22T08:09:37.000Z</time>
      </trkpt>
      <trkpt lat="47.25612" lon="-1.53943">
        <ele>7.9827880859375</ele>
        <time>2016-11-22T08:09:40.000Z</time>
      </trkpt>
      <trkpt lat="47.2561" lon="-1.53945">
        <ele>8.1062622070312</ele>
        <time>2016-11-22T08:09:42.000Z</time>
      </trkpt>
      <trkpt lat="47.25608" lon="-1.5395">
        <ele>8.26708984375</ele>
        <time>2016-11-22T08:09:45.000Z</time>
      </trkpt>
      <trkpt lat="47.25606" lon="-1.53952">
        <ele>8.4408569335938</ele>
        <time>2016-11-22T08:09:48.000Z</time>
      </trkpt>
      <trkpt lat="47.25604" lon="-1.53952">
        <ele>8.58251953125</ele>
        <time>2016-11-22T08:09:50.000Z</time>
      </trkpt>
      <trkpt lat="47.25599" lon="-1.53949">
        <ele>8.6408081054688</ele>
        <time>2016-11-22T08:09:53.000Z</time>
      </trkpt>
      <trkpt lat="47.25597" lon="-1.53949">
        <ele>8.6556396484375</ele>
        <time>2016-11-22T08:09:55.000Z</time>
      </trkpt>
      <trkpt lat="47.25593" lon="-1.53949">
        <ele>8.6097412109375</ele>
        <time>2016-11-22T08:09:58.000Z</time>
      </trkpt>
      <trkpt lat="47.2559" lon="-1.53952">
        <ele>8.5689697265625</ele>
        <time>2016-11-22T08:10:01.000Z</time>
      </trkpt>
      <trkpt lat="47.25588" lon="-1.53955">
        <ele>8.5830078125</ele>
        <time>2016-11-22T08:10:03.000Z</time>
      </trkpt>
      <trkpt lat="47.25584" lon="-1.53959">
        <ele>8.688720703125</ele>
        <time>2016-11-22T08:10:06.000Z</time>
      </trkpt>
      <trkpt lat="47.25581" lon="-1.53961">
        <ele>8.8319540023804</ele>
        <time>2016-11-22T08:10:08.000Z</time>
      </trkpt>
      <trkpt lat="47.25577" lon="-1.53965">
        <ele>9.019079208374</ele>
        <time>2016-11-22T08:10:11.000Z</time>
      </trkpt>
      <trkpt lat="47.25574" lon="-1.53967">
        <ele>9.1965761184692</ele>
        <time>2016-11-22T08:10:13.000Z</time>
      </trkpt>
      <trkpt lat="47.25572" lon="-1.53969">
        <ele>9.350793838501</ele>
        <time>2016-11-22T08:10:15.000Z</time>
      </trkpt>
      <trkpt lat="47.2557" lon="-1.53971">
        <ele>9.4848003387451</ele>
        <time>2016-11-22T08:10:17.000Z</time>
      </trkpt>
      <trkpt lat="47.25568" lon="-1.53973">
        <ele>9.614372253418</ele>
        <time>2016-11-22T08:10:19.000Z</time>
      </trkpt>
      <trkpt lat="47.25565" lon="-1.53977">
        <ele>9.7364349365234</ele>
        <time>2016-11-22T08:10:22.000Z</time>
      </trkpt>
      <trkpt lat="47.25562" lon="-1.53978">
        <ele>9.8505725860596</ele>
        <time>2016-11-22T08:10:24.000Z</time>
      </trkpt>
      <trkpt lat="47.25558" lon="-1.5398">
        <ele>9.9532737731934</ele>
        <time>2016-11-22T08:10:27.000Z</time>
      </trkpt>
      <trkpt lat="47.25556" lon="-1.53982">
        <ele>10.039175033569</ele>
        <time>2016-11-22T08:10:29.000Z</time>
      </trkpt>
      <trkpt lat="47.25552" lon="-1.53984">
        <ele>10.117828369141</ele>
        <time>2016-11-22T08:10:32.000Z</time>
      </trkpt>
      <trkpt lat="47.2555" lon="-1.53985">
        <ele>10.168743133545</ele>
        <time>2016-11-22T08:10:34.000Z</time>
      </trkpt>
      <trkpt lat="47.25547" lon="-1.53986">
        <ele>10.207390785217</ele>
        <time>2016-11-22T08:10:36.000Z</time>
      </trkpt>
      <trkpt lat="47.25543" lon="-1.53987">
        <ele>10.232031822205</ele>
        <time>2016-11-22T08:10:39.000Z</time>
      </trkpt>
      <trkpt lat="47.25539" lon="-1.53988">
        <ele>10.247468948364</ele>
        <time>2016-11-22T08:10:42.000Z</time>
      </trkpt>
      <trkpt lat="47.25535" lon="-1.53989">
        <ele>10.248615264893</ele>
        <time>2016-11-22T08:10:45.000Z</time>
      </trkpt>
      <trkpt lat="47.25533" lon="-1.53991">
        <ele>10.249841690063</ele>
        <time>2016-11-22T08:10:47.000Z</time>
      </trkpt>
      <trkpt lat="47.25529" lon="-1.53992">
        <ele>10.246942520142</ele>
        <time>2016-11-22T08:10:49.000Z</time>
      </trkpt>
      <trkpt lat="47.25526" lon="-1.53993">
        <ele>10.244801521301</ele>
        <time>2016-11-22T08:10:52.000Z</time>
      </trkpt>
      <trkpt lat="47.25524" lon="-1.53995">
        <ele>10.253440856934</ele>
        <time>2016-11-22T08:10:54.000Z</time>
      </trkpt>
      <trkpt lat="47.25521" lon="-1.53999">
        <ele>10.293866157532</ele>
        <time>2016-11-22T08:10:57.000Z</time>
      </trkpt>
      <trkpt lat="47.25519" lon="-1.54001">
        <ele>10.34014415741</ele>
        <time>2016-11-22T08:11:00.000Z</time>
      </trkpt>
      <trkpt lat="47.25518" lon="-1.54002">
        <ele>10.38404750824</ele>
        <time>2016-11-22T08:11:02.000Z</time>
      </trkpt>
      <trkpt lat="47.25516" lon="-1.54003">
        <ele>10.420608520508</ele>
        <time>2016-11-22T08:11:04.000Z</time>
      </trkpt>
      <trkpt lat="47.25512" lon="-1.54005">
        <ele>10.43123626709</ele>
        <time>2016-11-22T08:11:07.000Z</time>
      </trkpt>
      <trkpt lat="47.25508" lon="-1.54006">
        <ele>10.392854690552</ele>
        <time>2016-11-22T08:11:10.000Z</time>
      </trkpt>
      <trkpt lat="47.25505" lon="-1.54008">
        <ele>10.32480430603</ele>
        <time>2016-11-22T08:11:13.000Z</time>
      </trkpt>
      <trkpt lat="47.25504" lon="-1.54008">
        <ele>10.254160881042</ele>
        <time>2016-11-22T08:11:15.000Z</time>
      </trkpt>
      <trkpt lat="47.255" lon="-1.54006">
        <ele>10.171368598938</ele>
        <time>2016-11-22T08:11:18.000Z</time>
      </trkpt>
      <trkpt lat="47.25497" lon="-1.54005">
        <ele>10.07185459137</ele>
        <time>2016-11-22T08:11:20.000Z</time>
      </trkpt>
      <trkpt lat="47.25492" lon="-1.54005">
        <ele>9.9367532730103</ele>
        <time>2016-11-22T08:11:23.000Z</time>
      </trkpt>
      <trkpt lat="47.25489" lon="-1.54005">
        <ele>9.7834930419922</ele>
        <time>2016-11-22T08:11:25.000Z</time>
      </trkpt>
      <trkpt lat="47.25486" lon="-1.54006">
        <ele>9.6042385101318</ele>
        <time>2016-11-22T08:11:27.000Z</time>
      </trkpt>
      <trkpt lat="47.25484" lon="-1.54007">
        <ele>9.4207286834717</ele>
        <time>2016-11-22T08:11:29.000Z</time>
      </trkpt>
      <trkpt lat="47.2548" lon="-1.54008">
        <ele>9.2242755889893</ele>
        <time>2016-11-22T08:11:32.000Z</time>
      </trkpt>
      <trkpt lat="47.25475" lon="-1.54009">
        <ele>9.0399799346924</ele>
        <time>2016-11-22T08:11:35.000Z</time>
      </trkpt>
      <trkpt lat="47.25473" lon="-1.54009">
        <ele>8.8649120330811</ele>
        <time>2016-11-22T08:11:37.000Z</time>
      </trkpt>
      <trkpt lat="47.2547" lon="-1.54009">
        <ele>8.6899557113647</ele>
        <time>2016-11-22T08:11:39.000Z</time>
      </trkpt>
      <trkpt lat="47.25465" lon="-1.54009">
        <ele>8.4922609329224</ele>
        <time>2016-11-22T08:11:42.000Z</time>
      </trkpt>
      <trkpt lat="47.25462" lon="-1.54008">
        <ele>8.2935199737549</ele>
        <time>2016-11-22T08:11:45.000Z</time>
      </trkpt>
      <trkpt lat="47.25457" lon="-1.54008">
        <ele>8.0915660858154</ele>
        <time>2016-11-22T08:11:48.000Z</time>
      </trkpt>
      <trkpt lat="47.25455" lon="-1.54008">
        <ele>7.8925681114197</ele>
        <time>2016-11-22T08:11:50.000Z</time>
      </trkpt>
      <trkpt lat="47.25451" lon="-1.54009">
        <ele>7.6867561340332</ele>
        <time>2016-11-22T08:11:53.000Z</time>
      </trkpt>
      <trkpt lat="47.25448" lon="-1.54009">
        <ele>7.5003900527954</ele>
        <time>2016-11-22T08:11:56.000Z</time>
      </trkpt>
      <trkpt lat="47.25444" lon="-1.54009">
        <ele>7.3191976547241</ele>
        <time>2016-11-22T08:11:59.000Z</time>
      </trkpt>
      <trkpt lat="47.25441" lon="-1.5401">
        <ele>7.1539597511292</ele>
        <time>2016-11-22T08:12:02.000Z</time>
      </trkpt>
      <trkpt lat="47.25439" lon="-1.54011">
        <ele>6.9929056167603</ele>
        <time>2016-11-22T08:12:04.000Z</time>
      </trkpt>
      <trkpt lat="47.25435" lon="-1.54012">
        <ele>6.8385515213013</ele>
        <time>2016-11-22T08:12:07.000Z</time>
      </trkpt>
      <trkpt lat="47.25432" lon="-1.54013">
        <ele>6.6888680458069</ele>
        <time>2016-11-22T08:12:09.000Z</time>
      </trkpt>
      <trkpt lat="47.2543" lon="-1.54014">
        <ele>6.5647048950195</ele>
        <time>2016-11-22T08:12:11.000Z</time>
      </trkpt>
      <trkpt lat="47.25425" lon="-1.54015">
        <ele>6.4343132972717</ele>
        <time>2016-11-22T08:12:14.000Z</time>
      </trkpt>
      <trkpt lat="47.25422" lon="-1.54016">
        <ele>6.3016605377197</ele>
        <time>2016-11-22T08:12:16.000Z</time>
      </trkpt>
      <trkpt lat="47.25419" lon="-1.54017">
        <ele>6.1740188598633</ele>
        <time>2016-11-22T08:12:18.000Z</time>
      </trkpt>
      <trkpt lat="47.25414" lon="-1.54017">
        <ele>6.0572714805603</ele>
        <time>2016-11-22T08:12:21.000Z</time>
      </trkpt>
      <trkpt lat="47.2541" lon="-1.54018">
        <ele>5.9646730422974</ele>
        <time>2016-11-22T08:12:24.000Z</time>
      </trkpt>
      <trkpt lat="47.25406" lon="-1.54019">
        <ele>5.9179329872131</ele>
        <time>2016-11-22T08:12:26.000Z</time>
      </trkpt>
      <trkpt lat="47.25402" lon="-1.54019">
        <ele>5.9041538238525</ele>
        <time>2016-11-22T08:12:29.000Z</time>
      </trkpt>
      <trkpt lat="47.25399" lon="-1.5402">
        <ele>5.9221305847168</ele>
        <time>2016-11-22T08:12:31.000Z</time>
      </trkpt>
      <trkpt lat="47.25396" lon="-1.5402">
        <ele>5.959632396698</ele>
        <time>2016-11-22T08:12:34.000Z</time>
      </trkpt>
      <trkpt lat="47.25391" lon="-1.54021">
        <ele>6.0009698867798</ele>
        <time>2016-11-22T08:12:37.000Z</time>
      </trkpt>
      <trkpt lat="47.25387" lon="-1.54022">
        <ele>6.0501437187195</ele>
        <time>2016-11-22T08:12:40.000Z</time>
      </trkpt>
      <trkpt lat="47.25384" lon="-1.54023">
        <ele>6.0977821350098</ele>
        <time>2016-11-22T08:12:42.000Z</time>
      </trkpt>
      <trkpt lat="47.25379" lon="-1.54024">
        <ele>6.1547498703003</ele>
        <time>2016-11-22T08:12:45.000Z</time>
      </trkpt>
      <trkpt lat="47.25375" lon="-1.54025">
        <ele>6.2180738449097</ele>
        <time>2016-11-22T08:12:48.000Z</time>
      </trkpt>
      <trkpt lat="47.25372" lon="-1.54026">
        <ele>6.2877149581909</ele>
        <time>2016-11-22T08:12:50.000Z</time>
      </trkpt>
      <trkpt lat="47.25369" lon="-1.54027">
        <ele>6.3509216308594</ele>
        <time>2016-11-22T08:12:52.000Z</time>
      </trkpt>
      <trkpt lat="47.25366" lon="-1.54027">
        <ele>6.4117002487183</ele>
        <time>2016-11-22T08:12:55.000Z</time>
      </trkpt>
      <trkpt lat="47.25363" lon="-1.54028">
        <ele>6.4636640548706</ele>
        <time>2016-11-22T08:12:58.000Z</time>
      </trkpt>
      <trkpt lat="47.25361" lon="-1.54028">
        <ele>6.5083513259888</ele>
        <time>2016-11-22T08:13:00.000Z</time>
      </trkpt>
      <trkpt lat="47.25358" lon="-1.54028">
        <ele>6.5431113243103</ele>
        <time>2016-11-22T08:13:03.000Z</time>
      </trkpt>
      <trkpt lat="47.25356" lon="-1.54029">
        <ele>6.5796203613281</ele>
        <time>2016-11-22T08:13:05.000Z</time>
      </trkpt>
      <trkpt lat="47.25353" lon="-1.54031">
        <ele>6.6318397521973</ele>
        <time>2016-11-22T08:13:08.000Z</time>
      </trkpt>
      <trkpt lat="47.25351" lon="-1.54031">
        <ele>6.6812086105347</ele>
        <time>2016-11-22T08:13:10.000Z</time>
      </trkpt>
      <trkpt lat="47.25348" lon="-1.54032">
        <ele>6.7324953079224</ele>
        <time>2016-11-22T08:13:13.000Z</time>
      </trkpt>
      <trkpt lat="47.25344" lon="-1.54033">
        <ele>6.799455165863</ele>
        <time>2016-11-22T08:13:16.000Z</time>
      </trkpt>
      <trkpt lat="47.25341" lon="-1.54035">
        <ele>6.8739380836487</ele>
        <time>2016-11-22T08:13:19.000Z</time>
      </trkpt>
      <trkpt lat="47.25339" lon="-1.54035">
        <ele>6.9394698143005</ele>
        <time>2016-11-22T08:13:21.000Z</time>
      </trkpt>
      <trkpt lat="47.25336" lon="-1.54036">
        <ele>7.0129761695862</ele>
        <time>2016-11-22T08:13:23.000Z</time>
      </trkpt>
      <trkpt lat="47.25333" lon="-1.54037">
        <ele>7.094334602356</ele>
        <time>2016-11-22T08:13:26.000Z</time>
      </trkpt>
      <trkpt lat="47.2533" lon="-1.54036">
        <ele>7.1202630996704</ele>
        <time>2016-11-22T08:13:29.000Z</time>
      </trkpt>
      <trkpt lat="47.25328" lon="-1.54035">
        <ele>7.0970511436462</ele>
        <time>2016-11-22T08:13:31.000Z</time>
      </trkpt>
      <trkpt lat="47.25325" lon="-1.54034">
        <ele>7.0357794761658</ele>
        <time>2016-11-22T08:13:33.000Z</time>
      </trkpt>
      <trkpt lat="47.25323" lon="-1.54034">
        <ele>6.9502921104431</ele>
        <time>2016-11-22T08:13:35.000Z</time>
      </trkpt>
      <trkpt lat="47.25319" lon="-1.54035">
        <ele>6.8384947776794</ele>
        <time>2016-11-22T08:13:38.000Z</time>
      </trkpt>
      <trkpt lat="47.25316" lon="-1.54035">
        <ele>6.7489686012268</ele>
        <time>2016-11-22T08:13:40.000Z</time>
      </trkpt>
      <trkpt lat="47.25312" lon="-1.54036">
        <ele>6.6782751083374</ele>
        <time>2016-11-22T08:13:43.000Z</time>
      </trkpt>
      <trkpt lat="47.25308" lon="-1.54037">
        <ele>6.6174025535583</ele>
        <time>2016-11-22T08:13:46.000Z</time>
      </trkpt>
      <trkpt lat="47.25304" lon="-1.54037">
        <ele>6.5457077026367</ele>
        <time>2016-11-22T08:13:49.000Z</time>
      </trkpt>
      <trkpt lat="47.25302" lon="-1.54038">
        <ele>6.4764227867126</ele>
        <time>2016-11-22T08:13:51.000Z</time>
      </trkpt>
      <trkpt lat="47.25299" lon="-1.54038">
        <ele>6.4092011451721</ele>
        <time>2016-11-22T08:13:53.000Z</time>
      </trkpt>
      <trkpt lat="47.25295" lon="-1.5404">
        <ele>6.3461427688599</ele>
        <time>2016-11-22T08:13:56.000Z</time>
      </trkpt>
      <trkpt lat="47.25291" lon="-1.54041">
        <ele>6.2900724411011</ele>
        <time>2016-11-22T08:13:59.000Z</time>
      </trkpt>
      <trkpt lat="47.25289" lon="-1.54043">
        <ele>6.2648973464966</ele>
        <time>2016-11-22T08:14:01.000Z</time>
      </trkpt>
      <trkpt lat="47.25286" lon="-1.54044">
        <ele>6.2405090332031</ele>
        <time>2016-11-22T08:14:03.000Z</time>
      </trkpt>
      <trkpt lat="47.25283" lon="-1.54045">
        <ele>6.2167768478394</ele>
        <time>2016-11-22T08:14:05.000Z</time>
      </trkpt>
      <trkpt lat="47.2528" lon="-1.54045">
        <ele>6.1815867424011</ele>
        <time>2016-11-22T08:14:08.000Z</time>
      </trkpt>
      <trkpt lat="47.25276" lon="-1.54045">
        <ele>6.1323394775391</ele>
        <time>2016-11-22T08:14:11.000Z</time>
      </trkpt>
      <trkpt lat="47.25271" lon="-1.54046">
        <ele>6.0514125823975</ele>
        <time>2016-11-22T08:14:14.000Z</time>
      </trkpt>
      <trkpt lat="47.25267" lon="-1.54045">
        <ele>5.9465508460999</ele>
        <time>2016-11-22T08:14:17.000Z</time>
      </trkpt>
      <trkpt lat="47.25262" lon="-1.54046">
        <ele>5.8299827575684</ele>
        <time>2016-11-22T08:14:20.000Z</time>
      </trkpt>
      <trkpt lat="47.2526" lon="-1.54046">
        <ele>5.7183680534363</ele>
        <time>2016-11-22T08:14:22.000Z</time>
      </trkpt>
      <trkpt lat="47.25256" lon="-1.54046">
        <ele>5.6088418960571</ele>
        <time>2016-11-22T08:14:24.000Z</time>
      </trkpt>
      <trkpt lat="47.25252" lon="-1.54046">
        <ele>5.4995489120483</ele>
        <time>2016-11-22T08:14:27.000Z</time>
      </trkpt>
      <trkpt lat="47.25249" lon="-1.54047">
        <ele>5.407543182373</ele>
        <time>2016-11-22T08:14:29.000Z</time>
      </trkpt>
      <trkpt lat="47.25245" lon="-1.54047">
        <ele>5.3212194442749</ele>
        <time>2016-11-22T08:14:32.000Z</time>
      </trkpt>
      <trkpt lat="47.25241" lon="-1.54048">
        <ele>5.2454876899719</ele>
        <time>2016-11-22T08:14:34.000Z</time>
      </trkpt>
      <trkpt lat="47.25237" lon="-1.5405">
        <ele>5.1834187507629</ele>
        <time>2016-11-22T08:14:37.000Z</time>
      </trkpt>
      <trkpt lat="47.25234" lon="-1.5405">
        <ele>5.1378755569458</ele>
        <time>2016-11-22T08:14:39.000Z</time>
      </trkpt>
      <trkpt lat="47.2523" lon="-1.54052">
        <ele>5.0989656448364</ele>
        <time>2016-11-22T08:14:42.000Z</time>
      </trkpt>
      <trkpt lat="47.25226" lon="-1.54054">
        <ele>5.0746273994446</ele>
        <time>2016-11-22T08:14:44.000Z</time>
      </trkpt>
      <trkpt lat="47.25221" lon="-1.54054">
        <ele>5.0322237014771</ele>
        <time>2016-11-22T08:14:47.000Z</time>
      </trkpt>
      <trkpt lat="47.25218" lon="-1.54054">
        <ele>4.9810390472412</ele>
        <time>2016-11-22T08:14:49.000Z</time>
      </trkpt>
      <trkpt lat="47.25216" lon="-1.54055">
        <ele>4.9325456619263</ele>
        <time>2016-11-22T08:14:51.000Z</time>
      </trkpt>
      <trkpt lat="47.25212" lon="-1.54055">
        <ele>4.8756966590881</ele>
        <time>2016-11-22T08:14:54.000Z</time>
      </trkpt>
      <trkpt lat="47.2521" lon="-1.54056">
        <ele>4.8138394355774</ele>
        <time>2016-11-22T08:14:56.000Z</time>
      </trkpt>
      <trkpt lat="47.25207" lon="-1.54056">
        <ele>4.7552423477173</ele>
        <time>2016-11-22T08:14:59.000Z</time>
      </trkpt>
      <trkpt lat="47.25204" lon="-1.54056">
        <ele>4.6989440917969</ele>
        <time>2016-11-22T08:15:01.000Z</time>
      </trkpt>
      <trkpt lat="47.25202" lon="-1.54057">
        <ele>4.6413550376892</ele>
        <time>2016-11-22T08:15:03.000Z</time>
      </trkpt>
      <trkpt lat="47.25198" lon="-1.54058">
        <ele>4.5897026062012</ele>
        <time>2016-11-22T08:15:06.000Z</time>
      </trkpt>
      <trkpt lat="47.25194" lon="-1.54059">
        <ele>4.5267534255981</ele>
        <time>2016-11-22T08:15:09.000Z</time>
      </trkpt>
      <trkpt lat="47.25191" lon="-1.5406">
        <ele>4.4740037918091</ele>
        <time>2016-11-22T08:15:11.000Z</time>
      </trkpt>
      <trkpt lat="47.25188" lon="-1.54061">
        <ele>4.4172120094299</ele>
        <time>2016-11-22T08:15:14.000Z</time>
      </trkpt>
      <trkpt lat="47.25185" lon="-1.54062">
        <ele>4.35511302948</ele>
        <time>2016-11-22T08:15:16.000Z</time>
      </trkpt>
      <trkpt lat="47.25181" lon="-1.54064">
        <ele>4.2883138656616</ele>
        <time>2016-11-22T08:15:19.000Z</time>
      </trkpt>
      <trkpt lat="47.25177" lon="-1.54067">
        <ele>4.228533744812</ele>
        <time>2016-11-22T08:15:22.000Z</time>
      </trkpt>
      <trkpt lat="47.25174" lon="-1.54069">
        <ele>4.1650557518005</ele>
        <time>2016-11-22T08:15:25.000Z</time>
      </trkpt>
      <trkpt lat="47.25171" lon="-1.5407">
        <ele>4.0984830856323</ele>
        <time>2016-11-22T08:15:28.000Z</time>
      </trkpt>
      <trkpt lat="47.25167" lon="-1.54072">
        <ele>4.0273427963257</ele>
        <time>2016-11-22T08:15:31.000Z</time>
      </trkpt>
      <trkpt lat="47.25163" lon="-1.54074">
        <ele>3.9655106067657</ele>
        <time>2016-11-22T08:15:34.000Z</time>
      </trkpt>
      <trkpt lat="47.25159" lon="-1.54075">
        <ele>3.9075608253479</ele>
        <time>2016-11-22T08:15:37.000Z</time>
      </trkpt>
      <trkpt lat="47.25155" lon="-1.54077">
        <ele>3.8574225902557</ele>
        <time>2016-11-22T08:15:40.000Z</time>
      </trkpt>
      <trkpt lat="47.25153" lon="-1.54078">
        <ele>3.8244540691376</ele>
        <time>2016-11-22T08:15:42.000Z</time>
      </trkpt>
      <trkpt lat="47.25151" lon="-1.5408">
        <ele>3.8051152229309</ele>
        <time>2016-11-22T08:15:44.000Z</time>
      </trkpt>
      <trkpt lat="47.25147" lon="-1.54083">
        <ele>3.788880109787</ele>
        <time>2016-11-22T08:15:47.000Z</time>
      </trkpt>
      <trkpt lat="47.25145" lon="-1.54086">
        <ele>3.8151633739471</ele>
        <time>2016-11-22T08:15:50.000Z</time>
      </trkpt>
      <trkpt lat="47.25143" lon="-1.54087">
        <ele>3.8710067272186</ele>
        <time>2016-11-22T08:15:52.000Z</time>
      </trkpt>
      <trkpt lat="47.2514" lon="-1.5409">
        <ele>3.9635391235352</ele>
        <time>2016-11-22T08:15:55.000Z</time>
      </trkpt>
      <trkpt lat="47.25138" lon="-1.54092">
        <ele>4.0937752723694</ele>
        <time>2016-11-22T08:15:57.000Z</time>
      </trkpt>
      <trkpt lat="47.25137" lon="-1.54095">
        <ele>4.2742099761963</ele>
        <time>2016-11-22T08:15:59.000Z</time>
      </trkpt>
      <trkpt lat="47.25134" lon="-1.54099">
        <ele>4.4793815612793</ele>
        <time>2016-11-22T08:16:02.000Z</time>
      </trkpt>
      <trkpt lat="47.25132" lon="-1.54103">
        <ele>4.7191061973572</ele>
        <time>2016-11-22T08:16:05.000Z</time>
      </trkpt>
      <trkpt lat="47.2513" lon="-1.54105">
        <ele>4.9560379981995</ele>
        <time>2016-11-22T08:16:07.000Z</time>
      </trkpt>
      <trkpt lat="47.25126" lon="-1.54108">
        <ele>5.1849908828735</ele>
        <time>2016-11-22T08:16:10.000Z</time>
      </trkpt>
      <trkpt lat="47.25121" lon="-1.5411">
        <ele>5.3900804519653</ele>
        <time>2016-11-22T08:16:13.000Z</time>
      </trkpt>
      <trkpt lat="47.25118" lon="-1.54113">
        <ele>5.5660285949707</ele>
        <time>2016-11-22T08:16:16.000Z</time>
      </trkpt>
      <trkpt lat="47.25113" lon="-1.54116">
        <ele>5.7028985023499</ele>
        <time>2016-11-22T08:16:19.000Z</time>
      </trkpt>
      <trkpt lat="47.25111" lon="-1.54117">
        <ele>5.8245444297791</ele>
        <time>2016-11-22T08:16:21.000Z</time>
      </trkpt>
      <trkpt lat="47.25107" lon="-1.5412">
        <ele>5.9496641159058</ele>
        <time>2016-11-22T08:16:24.000Z</time>
      </trkpt>
      <trkpt lat="47.25102" lon="-1.54123">
        <ele>6.0715408325195</ele>
        <time>2016-11-22T08:16:27.000Z</time>
      </trkpt>
      <trkpt lat="47.251" lon="-1.54125">
        <ele>6.1768546104431</ele>
        <time>2016-11-22T08:16:29.000Z</time>
      </trkpt>
      <trkpt lat="47.25096" lon="-1.54127">
        <ele>6.2737011909485</ele>
        <time>2016-11-22T08:16:32.000Z</time>
      </trkpt>
      <trkpt lat="47.25093" lon="-1.54129">
        <ele>6.3662714958191</ele>
        <time>2016-11-22T08:16:34.000Z</time>
      </trkpt>
      <trkpt lat="47.25091" lon="-1.5413">
        <ele>6.4413504600525</ele>
        <time>2016-11-22T08:16:36.000Z</time>
      </trkpt>
      <trkpt lat="47.25087" lon="-1.54134">
        <ele>6.5336456298828</ele>
        <time>2016-11-22T08:16:39.000Z</time>
      </trkpt>
      <trkpt lat="47.25084" lon="-1.54137">
        <ele>6.6297073364258</ele>
        <time>2016-11-22T08:16:41.000Z</time>
      </trkpt>
      <trkpt lat="47.2508" lon="-1.5414">
        <ele>6.7450842857361</ele>
        <time>2016-11-22T08:16:44.000Z</time>
      </trkpt>
      <trkpt lat="47.25076" lon="-1.54144">
        <ele>6.8877577781677</ele>
        <time>2016-11-22T08:16:47.000Z</time>
      </trkpt>
      <trkpt lat="47.25073" lon="-1.54146">
        <ele>7.0359420776367</ele>
        <time>2016-11-22T08:16:49.000Z</time>
      </trkpt>
      <trkpt lat="47.25071" lon="-1.54148">
        <ele>7.1655073165894</ele>
        <time>2016-11-22T08:16:51.000Z</time>
      </trkpt>
      <trkpt lat="47.25068" lon="-1.54151">
        <ele>7.312922000885</ele>
        <time>2016-11-22T08:16:54.000Z</time>
      </trkpt>
      <trkpt lat="47.25066" lon="-1.54154">
        <ele>7.4485816955566</ele>
        <time>2016-11-22T08:16:56.000Z</time>
      </trkpt>
      <trkpt lat="47.25064" lon="-1.54157">
        <ele>7.5777254104614</ele>
        <time>2016-11-22T08:16:59.000Z</time>
      </trkpt>
      <trkpt lat="47.25061" lon="-1.5416">
        <ele>7.7206511497498</ele>
        <time>2016-11-22T08:17:02.000Z</time>
      </trkpt>
      <trkpt lat="47.25058" lon="-1.54164">
        <ele>7.8835439682007</ele>
        <time>2016-11-22T08:17:05.000Z</time>
      </trkpt>
      <trkpt lat="47.25054" lon="-1.54169">
        <ele>8.0418338775635</ele>
        <time>2016-11-22T08:17:08.000Z</time>
      </trkpt>
      <trkpt lat="47.25052" lon="-1.54171">
        <ele>8.1959285736084</ele>
        <time>2016-11-22T08:17:10.000Z</time>
      </trkpt>
      <trkpt lat="47.25049" lon="-1.54176">
        <ele>8.3450145721436</ele>
        <time>2016-11-22T08:17:13.000Z</time>
      </trkpt>
      <trkpt lat="47.25047" lon="-1.54179">
        <ele>8.4713668823242</ele>
        <time>2016-11-22T08:17:15.000Z</time>
      </trkpt>
      <trkpt lat="47.25045" lon="-1.54181">
        <ele>8.567328453064</ele>
        <time>2016-11-22T08:17:17.000Z</time>
      </trkpt>
      <trkpt lat="47.25041" lon="-1.54185">
        <ele>8.6426067352295</ele>
        <time>2016-11-22T08:17:20.000Z</time>
      </trkpt>
      <trkpt lat="47.25039" lon="-1.54189">
        <ele>8.7164478302002</ele>
        <time>2016-11-22T08:17:23.000Z</time>
      </trkpt>
      <trkpt lat="47.25036" lon="-1.54193">
        <ele>8.7801113128662</ele>
        <time>2016-11-22T08:17:26.000Z</time>
      </trkpt>
      <trkpt lat="47.25033" lon="-1.54198">
        <ele>8.8421678543091</ele>
        <time>2016-11-22T08:17:29.000Z</time>
      </trkpt>
      <trkpt lat="47.25031" lon="-1.542">
        <ele>8.8949632644653</ele>
        <time>2016-11-22T08:17:31.000Z</time>
      </trkpt>
      <trkpt lat="47.25027" lon="-1.54204">
        <ele>8.9384174346924</ele>
        <time>2016-11-22T08:17:34.000Z</time>
      </trkpt>
      <trkpt lat="47.25024" lon="-1.54208">
        <ele>8.9637880325317</ele>
        <time>2016-11-22T08:17:37.000Z</time>
      </trkpt>
      <trkpt lat="47.2502" lon="-1.54211">
        <ele>8.9647073745728</ele>
        <time>2016-11-22T08:17:40.000Z</time>
      </trkpt>
      <trkpt lat="47.25017" lon="-1.54214">
        <ele>8.9466590881348</ele>
        <time>2016-11-22T08:17:42.000Z</time>
      </trkpt>
      <trkpt lat="47.25013" lon="-1.54218">
        <ele>8.9211759567261</ele>
        <time>2016-11-22T08:17:45.000Z</time>
      </trkpt>
      <trkpt lat="47.2501" lon="-1.54222">
        <ele>8.8799419403076</ele>
        <time>2016-11-22T08:17:48.000Z</time>
      </trkpt>
      <trkpt lat="47.25006" lon="-1.54226">
        <ele>8.8256855010986</ele>
        <time>2016-11-22T08:17:51.000Z</time>
      </trkpt>
      <trkpt lat="47.25003" lon="-1.54228">
        <ele>8.7659702301025</ele>
        <time>2016-11-22T08:17:53.000Z</time>
      </trkpt>
      <trkpt lat="47.25" lon="-1.54231">
        <ele>8.7034797668457</ele>
        <time>2016-11-22T08:17:56.000Z</time>
      </trkpt>
      <trkpt lat="47.24998" lon="-1.54234">
        <ele>8.6554365158081</ele>
        <time>2016-11-22T08:17:58.000Z</time>
      </trkpt>
      <trkpt lat="47.24996" lon="-1.54238">
        <ele>8.6342296600342</ele>
        <time>2016-11-22T08:18:01.000Z</time>
      </trkpt>
      <trkpt lat="47.24994" lon="-1.5424">
        <ele>8.6393232345581</ele>
        <time>2016-11-22T08:18:03.000Z</time>
      </trkpt>
      <trkpt lat="47.24992" lon="-1.54242">
        <ele>8.6636867523193</ele>
        <time>2016-11-22T08:18:05.000Z</time>
      </trkpt>
      <trkpt lat="47.24989" lon="-1.54245">
        <ele>8.7182111740112</ele>
        <time>2016-11-22T08:18:08.000Z</time>
      </trkpt>
      <trkpt lat="47.24986" lon="-1.54249">
        <ele>8.7912044525146</ele>
        <time>2016-11-22T08:18:11.000Z</time>
      </trkpt>
      <trkpt lat="47.24984" lon="-1.54252">
        <ele>8.8717908859253</ele>
        <time>2016-11-22T08:18:13.000Z</time>
      </trkpt>
      <trkpt lat="47.24981" lon="-1.54254">
        <ele>8.9616250991821</ele>
        <time>2016-11-22T08:18:15.000Z</time>
      </trkpt>
      <trkpt lat="47.24978" lon="-1.54259">
        <ele>9.0795650482178</ele>
        <time>2016-11-22T08:18:18.000Z</time>
      </trkpt>
      <trkpt lat="47.24975" lon="-1.54263">
        <ele>9.215916633606</ele>
        <time>2016-11-22T08:18:21.000Z</time>
      </trkpt>
      <trkpt lat="47.24973" lon="-1.54266">
        <ele>9.3488855361938</ele>
        <time>2016-11-22T08:18:23.000Z</time>
      </trkpt>
      <trkpt lat="47.24969" lon="-1.5427">
        <ele>9.4977493286133</ele>
        <time>2016-11-22T08:18:26.000Z</time>
      </trkpt>
      <trkpt lat="47.24966" lon="-1.54275">
        <ele>9.6691818237305</ele>
        <time>2016-11-22T08:18:29.000Z</time>
      </trkpt>
      <trkpt lat="47.24965" lon="-1.54278">
        <ele>9.8334474563599</ele>
        <time>2016-11-22T08:18:31.000Z</time>
      </trkpt>
      <trkpt lat="47.24963" lon="-1.54282">
        <ele>9.9911756515503</ele>
        <time>2016-11-22T08:18:33.000Z</time>
      </trkpt>
      <trkpt lat="47.24962" lon="-1.54287">
        <ele>10.173825263977</ele>
        <time>2016-11-22T08:18:36.000Z</time>
      </trkpt>
      <trkpt lat="47.24961" lon="-1.54292">
        <ele>10.360786437988</ele>
        <time>2016-11-22T08:18:39.000Z</time>
      </trkpt>
      <trkpt lat="47.24959" lon="-1.54297">
        <ele>10.547862052917</ele>
        <time>2016-11-22T08:18:42.000Z</time>
      </trkpt>
      <trkpt lat="47.24957" lon="-1.543">
        <ele>10.737907409668</ele>
        <time>2016-11-22T08:18:44.000Z</time>
      </trkpt>
      <trkpt lat="47.24954" lon="-1.54305">
        <ele>10.947039604187</ele>
        <time>2016-11-22T08:18:47.000Z</time>
      </trkpt>
      <trkpt lat="47.24953" lon="-1.54309">
        <ele>11.139373779297</ele>
        <time>2016-11-22T08:18:49.000Z</time>
      </trkpt>
      <trkpt lat="47.24948" lon="-1.54312">
        <ele>11.326719284058</ele>
        <time>2016-11-22T08:18:52.000Z</time>
      </trkpt>
      <trkpt lat="47.24944" lon="-1.54314">
        <ele>11.497472763062</ele>
        <time>2016-11-22T08:18:55.000Z</time>
      </trkpt>
      <trkpt lat="47.24939" lon="-1.54315">
        <ele>11.65977191925</ele>
        <time>2016-11-22T08:18:57.000Z</time>
      </trkpt>
      <trkpt lat="47.24936" lon="-1.54317">
        <ele>11.796669960022</ele>
        <time>2016-11-22T08:18:59.000Z</time>
      </trkpt>
      <trkpt lat="47.24934" lon="-1.5432">
        <ele>11.931648254395</ele>
        <time>2016-11-22T08:19:01.000Z</time>
      </trkpt>
      <trkpt lat="47.24931" lon="-1.54321">
        <ele>12.050222396851</ele>
        <time>2016-11-22T08:19:03.000Z</time>
      </trkpt>
      <trkpt lat="47.24927" lon="-1.54325">
        <ele>12.185616493225</ele>
        <time>2016-11-22T08:19:06.000Z</time>
      </trkpt>
      <trkpt lat="47.24924" lon="-1.54328">
        <ele>12.337738990784</ele>
        <time>2016-11-22T08:19:09.000Z</time>
      </trkpt>
      <trkpt lat="47.2492" lon="-1.54333">
        <ele>12.520534515381</ele>
        <time>2016-11-22T08:19:12.000Z</time>
      </trkpt>
      <trkpt lat="47.24916" lon="-1.54336">
        <ele>12.715627670288</ele>
        <time>2016-11-22T08:19:14.000Z</time>
      </trkpt>
      <trkpt lat="47.24914" lon="-1.54338">
        <ele>12.857194900513</ele>
        <time>2016-11-22T08:19:16.000Z</time>
      </trkpt>
      <trkpt lat="47.24909" lon="-1.54342">
        <ele>12.906206130981</ele>
        <time>2016-11-22T08:19:19.000Z</time>
      </trkpt>
      <trkpt lat="47.24908" lon="-1.54344">
        <ele>12.923174858093</ele>
        <time>2016-11-22T08:19:21.000Z</time>
      </trkpt>
      <trkpt lat="47.24907" lon="-1.54347">
        <ele>12.881410598755</ele>
        <time>2016-11-22T08:19:24.000Z</time>
      </trkpt>
      <trkpt lat="47.24903" lon="-1.5435">
        <ele>12.778331756592</ele>
        <time>2016-11-22T08:19:27.000Z</time>
      </trkpt>
      <trkpt lat="47.249" lon="-1.54353">
        <ele>12.684749603271</ele>
        <time>2016-11-22T08:19:30.000Z</time>
      </trkpt>
      <trkpt lat="47.24899" lon="-1.54356">
        <ele>12.637413024902</ele>
        <time>2016-11-22T08:19:32.000Z</time>
      </trkpt>
      <trkpt lat="47.24895" lon="-1.54359">
        <ele>12.565224647522</ele>
        <time>2016-11-22T08:19:35.000Z</time>
      </trkpt>
      <trkpt lat="47.24893" lon="-1.54362">
        <ele>12.498379707336</ele>
        <time>2016-11-22T08:19:37.000Z</time>
      </trkpt>
      <trkpt lat="47.2489" lon="-1.54366">
        <ele>12.441823959351</ele>
        <time>2016-11-22T08:19:40.000Z</time>
      </trkpt>
      <trkpt lat="47.24888" lon="-1.5437">
        <ele>12.415302276611</ele>
        <time>2016-11-22T08:19:42.000Z</time>
      </trkpt>
      <trkpt lat="47.24885" lon="-1.54374">
        <ele>12.393606185913</ele>
        <time>2016-11-22T08:19:45.000Z</time>
      </trkpt>
      <trkpt lat="47.24883" lon="-1.54377">
        <ele>12.391260147095</ele>
        <time>2016-11-22T08:19:47.000Z</time>
      </trkpt>
      <trkpt lat="47.2488" lon="-1.54381">
        <ele>12.392568588257</ele>
        <time>2016-11-22T08:19:50.000Z</time>
      </trkpt>
      <trkpt lat="47.24877" lon="-1.54385">
        <ele>12.40034866333</ele>
        <time>2016-11-22T08:19:53.000Z</time>
      </trkpt>
      <trkpt lat="47.24873" lon="-1.54389">
        <ele>12.395522117615</ele>
        <time>2016-11-22T08:19:56.000Z</time>
      </trkpt>
      <trkpt lat="47.24871" lon="-1.54391">
        <ele>12.366889953613</ele>
        <time>2016-11-22T08:19:58.000Z</time>
      </trkpt>
      <trkpt lat="47.24868" lon="-1.54393">
        <ele>12.319604873657</ele>
        <time>2016-11-22T08:20:00.000Z</time>
      </trkpt>
      <trkpt lat="47.24863" lon="-1.54396">
        <ele>12.215352058411</ele>
        <time>2016-11-22T08:20:03.000Z</time>
      </trkpt>
      <trkpt lat="47.24861" lon="-1.54398">
        <ele>12.121030807495</ele>
        <time>2016-11-22T08:20:05.000Z</time>
      </trkpt>
      <trkpt lat="47.24858" lon="-1.54404">
        <ele>12.069746017456</ele>
        <time>2016-11-22T08:20:08.000Z</time>
      </trkpt>
      <trkpt lat="47.24854" lon="-1.54409">
        <ele>12.052398681641</ele>
        <time>2016-11-22T08:20:11.000Z</time>
      </trkpt>
      <trkpt lat="47.24851" lon="-1.54413">
        <ele>12.045301437378</ele>
        <time>2016-11-22T08:20:14.000Z</time>
      </trkpt>
      <trkpt lat="47.24846" lon="-1.54415">
        <ele>12.034944534302</ele>
        <time>2016-11-22T08:20:17.000Z</time>
      </trkpt>
      <trkpt lat="47.24844" lon="-1.54417">
        <ele>12.024459838867</ele>
        <time>2016-11-22T08:20:19.000Z</time>
      </trkpt>
      <trkpt lat="47.24841" lon="-1.54419">
        <ele>11.965587615967</ele>
        <time>2016-11-22T08:20:21.000Z</time>
      </trkpt>
      <trkpt lat="47.24837" lon="-1.54422">
        <ele>11.879240036011</ele>
        <time>2016-11-22T08:20:24.000Z</time>
      </trkpt>
      <trkpt lat="47.24835" lon="-1.54424">
        <ele>11.795684814453</ele>
        <time>2016-11-22T08:20:26.000Z</time>
      </trkpt>
      <trkpt lat="47.24832" lon="-1.54428">
        <ele>11.771036148071</ele>
        <time>2016-11-22T08:20:29.000Z</time>
      </trkpt>
      <trkpt lat="47.24829" lon="-1.54431">
        <ele>11.740774154663</ele>
        <time>2016-11-22T08:20:31.000Z</time>
      </trkpt>
      <trkpt lat="47.24827" lon="-1.54435">
        <ele>11.74045085907</ele>
        <time>2016-11-22T08:20:34.000Z</time>
      </trkpt>
      <trkpt lat="47.24826" lon="-1.54438">
        <ele>11.77773475647</ele>
        <time>2016-11-22T08:20:36.000Z</time>
      </trkpt>
      <trkpt lat="47.24823" lon="-1.54442">
        <ele>11.833068847656</ele>
        <time>2016-11-22T08:20:39.000Z</time>
      </trkpt>
      <trkpt lat="47.24821" lon="-1.54445">
        <ele>11.874087333679</ele>
        <time>2016-11-22T08:20:41.000Z</time>
      </trkpt>
      <trkpt lat="47.24818" lon="-1.54449">
        <ele>11.924763679504</ele>
        <time>2016-11-22T08:20:44.000Z</time>
      </trkpt>
      <trkpt lat="47.24817" lon="-1.54452">
        <ele>11.959945678711</ele>
        <time>2016-11-22T08:20:46.000Z</time>
      </trkpt>
      <trkpt lat="47.24813" lon="-1.54456">
        <ele>11.974267959595</ele>
        <time>2016-11-22T08:20:49.000Z</time>
      </trkpt>
      <trkpt lat="47.2481" lon="-1.54459">
        <ele>11.948081016541</ele>
        <time>2016-11-22T08:20:52.000Z</time>
      </trkpt>
      <trkpt lat="47.24807" lon="-1.54463">
        <ele>11.903426170349</ele>
        <time>2016-11-22T08:20:55.000Z</time>
      </trkpt>
      <trkpt lat="47.24804" lon="-1.54466">
        <ele>11.829155921936</ele>
        <time>2016-11-22T08:20:58.000Z</time>
      </trkpt>
      <trkpt lat="47.248" lon="-1.5447">
        <ele>11.722681999207</ele>
        <time>2016-11-22T08:21:01.000Z</time>
      </trkpt>
      <trkpt lat="47.24796" lon="-1.54473">
        <ele>11.550242424011</ele>
        <time>2016-11-22T08:21:04.000Z</time>
      </trkpt>
      <trkpt lat="47.24791" lon="-1.54475">
        <ele>11.330797195435</ele>
        <time>2016-11-22T08:21:07.000Z</time>
      </trkpt>
      <trkpt lat="47.24789" lon="-1.54476">
        <ele>11.103445053101</ele>
        <time>2016-11-22T08:21:09.000Z</time>
      </trkpt>
      <trkpt lat="47.24786" lon="-1.5448">
        <ele>10.854188919067</ele>
        <time>2016-11-22T08:21:12.000Z</time>
      </trkpt>
      <trkpt lat="47.24784" lon="-1.54482">
        <ele>10.609086990356</ele>
        <time>2016-11-22T08:21:14.000Z</time>
      </trkpt>
      <trkpt lat="47.24782" lon="-1.54484">
        <ele>10.414125442505</ele>
        <time>2016-11-22T08:21:16.000Z</time>
      </trkpt>
      <trkpt lat="47.24778" lon="-1.54489">
        <ele>10.249508857727</ele>
        <time>2016-11-22T08:21:19.000Z</time>
      </trkpt>
      <trkpt lat="47.24778" lon="-1.54492">
        <ele>10.133175849915</ele>
        <time>2016-11-22T08:21:21.000Z</time>
      </trkpt>
      <trkpt lat="47.24778" lon="-1.54496">
        <ele>10.100068092346</ele>
        <time>2016-11-22T08:21:23.000Z</time>
      </trkpt>
      <trkpt lat="47.24776" lon="-1.545">
        <ele>10.095146179199</ele>
        <time>2016-11-22T08:21:26.000Z</time>
      </trkpt>
      <trkpt lat="47.24775" lon="-1.54502">
        <ele>10.083888053894</ele>
        <time>2016-11-22T08:21:28.000Z</time>
      </trkpt>
      <trkpt lat="47.24772" lon="-1.54504">
        <ele>10.065654754639</ele>
        <time>2016-11-22T08:21:31.000Z</time>
      </trkpt>
      <trkpt lat="47.2477" lon="-1.54504">
        <ele>10.007252693176</ele>
        <time>2016-11-22T08:21:33.000Z</time>
      </trkpt>
      <trkpt lat="47.24767" lon="-1.54508">
        <ele>9.856632232666</ele>
        <time>2016-11-22T08:21:36.000Z</time>
      </trkpt>
      <trkpt lat="47.24763" lon="-1.54513">
        <ele>9.6663303375244</ele>
        <time>2016-11-22T08:21:39.000Z</time>
      </trkpt>
      <trkpt lat="47.2476" lon="-1.54516">
        <ele>9.4719877243042</ele>
        <time>2016-11-22T08:21:41.000Z</time>
      </trkpt>
      <trkpt lat="47.24758" lon="-1.54518">
        <ele>9.3001623153687</ele>
        <time>2016-11-22T08:21:43.000Z</time>
      </trkpt>
      <trkpt lat="47.24754" lon="-1.54522">
        <ele>9.1222476959229</ele>
        <time>2016-11-22T08:21:46.000Z</time>
      </trkpt>
      <trkpt lat="47.24752" lon="-1.54524">
        <ele>8.9762163162231</ele>
        <time>2016-11-22T08:21:48.000Z</time>
      </trkpt>
      <trkpt lat="47.2475" lon="-1.54526">
        <ele>8.8435115814209</ele>
        <time>2016-11-22T08:21:50.000Z</time>
      </trkpt>
      <trkpt lat="47.24747" lon="-1.5453">
        <ele>8.7546443939209</ele>
        <time>2016-11-22T08:21:53.000Z</time>
      </trkpt>
      <trkpt lat="47.24745" lon="-1.54532">
        <ele>8.7137689590454</ele>
        <time>2016-11-22T08:21:55.000Z</time>
      </trkpt>
      <trkpt lat="47.24741" lon="-1.54536">
        <ele>8.7371063232422</ele>
        <time>2016-11-22T08:21:58.000Z</time>
      </trkpt>
      <trkpt lat="47.24738" lon="-1.54539">
        <ele>8.7949714660645</ele>
        <time>2016-11-22T08:22:01.000Z</time>
      </trkpt>
      <trkpt lat="47.24734" lon="-1.54541">
        <ele>8.8714427947998</ele>
        <time>2016-11-22T08:22:04.000Z</time>
      </trkpt>
      <trkpt lat="47.24731" lon="-1.54541">
        <ele>8.9142780303955</ele>
        <time>2016-11-22T08:22:06.000Z</time>
      </trkpt>
      <trkpt lat="47.2473" lon="-1.54542">
        <ele>8.9460487365723</ele>
        <time>2016-11-22T08:22:09.000Z</time>
      </trkpt>
      <trkpt lat="47.24726" lon="-1.54546">
        <ele>8.9744806289673</ele>
        <time>2016-11-22T08:22:12.000Z</time>
      </trkpt>
      <trkpt lat="47.24724" lon="-1.54549">
        <ele>8.9948682785034</ele>
        <time>2016-11-22T08:22:15.000Z</time>
      </trkpt>
      <trkpt lat="47.24722" lon="-1.54551">
        <ele>9.0354290008545</ele>
        <time>2016-11-22T08:22:18.000Z</time>
      </trkpt>
      <trkpt lat="47.24719" lon="-1.54554">
        <ele>9.1080322265625</ele>
        <time>2016-11-22T08:22:20.000Z</time>
      </trkpt>
      <trkpt lat="47.24714" lon="-1.54558">
        <ele>9.1816358566284</ele>
        <time>2016-11-22T08:22:23.000Z</time>
      </trkpt>
      <trkpt lat="47.2471" lon="-1.54561">
        <ele>9.2372188568115</ele>
        <time>2016-11-22T08:22:26.000Z</time>
      </trkpt>
      <trkpt lat="47.24705" lon="-1.54563">
        <ele>9.2809982299805</ele>
        <time>2016-11-22T08:22:29.000Z</time>
      </trkpt>
      <trkpt lat="47.24701" lon="-1.54566">
        <ele>9.3144454956055</ele>
        <time>2016-11-22T08:22:32.000Z</time>
      </trkpt>
      <trkpt lat="47.24699" lon="-1.54568">
        <ele>9.3348979949951</ele>
        <time>2016-11-22T08:22:34.000Z</time>
      </trkpt>
      <trkpt lat="47.24695" lon="-1.54571">
        <ele>9.3544616699219</ele>
        <time>2016-11-22T08:22:37.000Z</time>
      </trkpt>
      <trkpt lat="47.24692" lon="-1.54572">
        <ele>9.3457841873169</ele>
        <time>2016-11-22T08:22:39.000Z</time>
      </trkpt>
      <trkpt lat="47.24685" lon="-1.54572">
        <ele>9.2988615036011</ele>
        <time>2016-11-22T08:22:42.000Z</time>
      </trkpt>
      <trkpt lat="47.24682" lon="-1.54572">
        <ele>9.2275342941284</ele>
        <time>2016-11-22T08:22:44.000Z</time>
      </trkpt>
      <trkpt lat="47.24679" lon="-1.54573">
        <ele>9.1437854766846</ele>
        <time>2016-11-22T08:22:46.000Z</time>
      </trkpt>
      <trkpt lat="47.24675" lon="-1.54575">
        <ele>9.0348491668701</ele>
        <time>2016-11-22T08:22:49.000Z</time>
      </trkpt>
      <trkpt lat="47.2467" lon="-1.54576">
        <ele>8.9283313751221</ele>
        <time>2016-11-22T08:22:52.000Z</time>
      </trkpt>
      <trkpt lat="47.24667" lon="-1.54577">
        <ele>8.8553676605225</ele>
        <time>2016-11-22T08:22:54.000Z</time>
      </trkpt>
      <trkpt lat="47.24665" lon="-1.54578">
        <ele>8.8054351806641</ele>
        <time>2016-11-22T08:22:56.000Z</time>
      </trkpt>
      <trkpt lat="47.24661" lon="-1.5458">
        <ele>8.7828550338745</ele>
        <time>2016-11-22T08:22:59.000Z</time>
      </trkpt>
      <trkpt lat="47.24659" lon="-1.54582">
        <ele>8.7964878082275</ele>
        <time>2016-11-22T08:23:01.000Z</time>
      </trkpt>
      <trkpt lat="47.24656" lon="-1.54584">
        <ele>8.8517246246338</ele>
        <time>2016-11-22T08:23:03.000Z</time>
      </trkpt>
      <trkpt lat="47.24653" lon="-1.54587">
        <ele>8.9525604248047</ele>
        <time>2016-11-22T08:23:06.000Z</time>
      </trkpt>
      <trkpt lat="47.24651" lon="-1.5459">
        <ele>9.0768203735352</ele>
        <time>2016-11-22T08:23:08.000Z</time>
      </trkpt>
      <trkpt lat="47.24647" lon="-1.54592">
        <ele>9.2178373336792</ele>
        <time>2016-11-22T08:23:11.000Z</time>
      </trkpt>
      <trkpt lat="47.24644" lon="-1.54594">
        <ele>9.3644199371338</ele>
        <time>2016-11-22T08:23:13.000Z</time>
      </trkpt>
      <trkpt lat="47.2464" lon="-1.54598">
        <ele>9.5406265258789</ele>
        <time>2016-11-22T08:23:16.000Z</time>
      </trkpt>
      <trkpt lat="47.24637" lon="-1.54599">
        <ele>9.7009763717651</ele>
        <time>2016-11-22T08:23:19.000Z</time>
      </trkpt>
      <trkpt lat="47.24633" lon="-1.546">
        <ele>9.8525800704956</ele>
        <time>2016-11-22T08:23:22.000Z</time>
      </trkpt>
      <trkpt lat="47.24629" lon="-1.54601">
        <ele>9.9896364212036</ele>
        <time>2016-11-22T08:23:25.000Z</time>
      </trkpt>
      <trkpt lat="47.24626" lon="-1.54602">
        <ele>10.118263244629</ele>
        <time>2016-11-22T08:23:27.000Z</time>
      </trkpt>
      <trkpt lat="47.24622" lon="-1.54603">
        <ele>10.224222183228</ele>
        <time>2016-11-22T08:23:30.000Z</time>
      </trkpt>
      <trkpt lat="47.24619" lon="-1.54604">
        <ele>10.330083847046</ele>
        <time>2016-11-22T08:23:32.000Z</time>
      </trkpt>
      <trkpt lat="47.24615" lon="-1.54605">
        <ele>10.442265510559</ele>
        <time>2016-11-22T08:23:35.000Z</time>
      </trkpt>
      <trkpt lat="47.24612" lon="-1.54607">
        <ele>10.577541351318</ele>
        <time>2016-11-22T08:23:38.000Z</time>
      </trkpt>
      <trkpt lat="47.24607" lon="-1.5461">
        <ele>10.748311042786</ele>
        <time>2016-11-22T08:23:41.000Z</time>
      </trkpt>
      <trkpt lat="47.24605" lon="-1.54611">
        <ele>10.914373397827</ele>
        <time>2016-11-22T08:23:43.000Z</time>
      </trkpt>
      <trkpt lat="47.24602" lon="-1.5461">
        <ele>11.059984207153</ele>
        <time>2016-11-22T08:23:46.000Z</time>
      </trkpt>
      <trkpt lat="47.24597" lon="-1.5461">
        <ele>11.186928749084</ele>
        <time>2016-11-22T08:23:49.000Z</time>
      </trkpt>
      <trkpt lat="47.24593" lon="-1.5461">
        <ele>11.294187545776</ele>
        <time>2016-11-22T08:23:52.000Z</time>
      </trkpt>
      <trkpt lat="47.2459" lon="-1.54609">
        <ele>11.343906402588</ele>
        <time>2016-11-22T08:23:54.000Z</time>
      </trkpt>
      <trkpt lat="47.24585" lon="-1.54609">
        <ele>11.383895874023</ele>
        <time>2016-11-22T08:23:57.000Z</time>
      </trkpt>
      <trkpt lat="47.24582" lon="-1.5461">
        <ele>11.426383972168</ele>
        <time>2016-11-22T08:23:59.000Z</time>
      </trkpt>
      <trkpt lat="47.24577" lon="-1.54611">
        <ele>11.424385070801</ele>
        <time>2016-11-22T08:24:02.000Z</time>
      </trkpt>
      <trkpt lat="47.24574" lon="-1.54611">
        <ele>11.375257492065</ele>
        <time>2016-11-22T08:24:04.000Z</time>
      </trkpt>
      <trkpt lat="47.24571" lon="-1.54612">
        <ele>11.333856582642</ele>
        <time>2016-11-22T08:24:06.000Z</time>
      </trkpt>
      <trkpt lat="47.24569" lon="-1.54616">
        <ele>11.3206615448</ele>
        <time>2016-11-22T08:24:09.000Z</time>
      </trkpt>
      <trkpt lat="47.24567" lon="-1.54617">
        <ele>11.322901725769</ele>
        <time>2016-11-22T08:24:11.000Z</time>
      </trkpt>
      <trkpt lat="47.24563" lon="-1.54618">
        <ele>11.349264144897</ele>
        <time>2016-11-22T08:24:14.000Z</time>
      </trkpt>
      <trkpt lat="47.24557" lon="-1.5462">
        <ele>11.375078201294</ele>
        <time>2016-11-22T08:24:17.000Z</time>
      </trkpt>
      <trkpt lat="47.24553" lon="-1.54622">
        <ele>11.406324386597</ele>
        <time>2016-11-22T08:24:20.000Z</time>
      </trkpt>
      <trkpt lat="47.24551" lon="-1.54623">
        <ele>11.405026435852</ele>
        <time>2016-11-22T08:24:22.000Z</time>
      </trkpt>
      <trkpt lat="47.24546" lon="-1.54625">
        <ele>11.400288581848</ele>
        <time>2016-11-22T08:24:25.000Z</time>
      </trkpt>
      <trkpt lat="47.24543" lon="-1.54628">
        <ele>11.445957183838</ele>
        <time>2016-11-22T08:24:28.000Z</time>
      </trkpt>
      <trkpt lat="47.2454" lon="-1.5463">
        <ele>11.530101776123</ele>
        <time>2016-11-22T08:24:30.000Z</time>
      </trkpt>
      <trkpt lat="47.24536" lon="-1.54632">
        <ele>11.621497154236</ele>
        <time>2016-11-22T08:24:33.000Z</time>
      </trkpt>
      <trkpt lat="47.24534" lon="-1.54633">
        <ele>11.714184761047</ele>
        <time>2016-11-22T08:24:35.000Z</time>
      </trkpt>
      <trkpt lat="47.2453" lon="-1.54635">
        <ele>11.802174568176</ele>
        <time>2016-11-22T08:24:38.000Z</time>
      </trkpt>
      <trkpt lat="47.24525" lon="-1.54636">
        <ele>11.858190536499</ele>
        <time>2016-11-22T08:24:41.000Z</time>
      </trkpt>
      <trkpt lat="47.2452" lon="-1.54638">
        <ele>11.89772605896</ele>
        <time>2016-11-22T08:24:44.000Z</time>
      </trkpt>
      <trkpt lat="47.24517" lon="-1.54639">
        <ele>11.921895980835</ele>
        <time>2016-11-22T08:24:46.000Z</time>
      </trkpt>
      <trkpt lat="47.24514" lon="-1.5464">
        <ele>11.949270248413</ele>
        <time>2016-11-22T08:24:49.000Z</time>
      </trkpt>
      <trkpt lat="47.2451" lon="-1.54642">
        <ele>11.985048294067</ele>
        <time>2016-11-22T08:24:52.000Z</time>
      </trkpt>
      <trkpt lat="47.24507" lon="-1.54643">
        <ele>12.034009933472</ele>
        <time>2016-11-22T08:24:54.000Z</time>
      </trkpt>
      <trkpt lat="47.24503" lon="-1.54646">
        <ele>12.111755371094</ele>
        <time>2016-11-22T08:24:57.000Z</time>
      </trkpt>
      <trkpt lat="47.245" lon="-1.54648">
        <ele>12.225507736206</ele>
        <time>2016-11-22T08:24:59.000Z</time>
      </trkpt>
      <trkpt lat="47.24497" lon="-1.5465">
        <ele>12.368236541748</ele>
        <time>2016-11-22T08:25:01.000Z</time>
      </trkpt>
      <trkpt lat="47.24492" lon="-1.54653">
        <ele>12.558358192444</ele>
        <time>2016-11-22T08:25:04.000Z</time>
      </trkpt>
      <trkpt lat="47.24487" lon="-1.54655">
        <ele>12.763010025024</ele>
        <time>2016-11-22T08:25:07.000Z</time>
      </trkpt>
      <trkpt lat="47.24482" lon="-1.54657">
        <ele>12.970349311829</ele>
        <time>2016-11-22T08:25:10.000Z</time>
      </trkpt>
      <trkpt lat="47.24479" lon="-1.5466">
        <ele>13.197204589844</ele>
        <time>2016-11-22T08:25:12.000Z</time>
      </trkpt>
      <trkpt lat="47.24476" lon="-1.54663">
        <ele>13.454063415527</ele>
        <time>2016-11-22T08:25:15.000Z</time>
      </trkpt>
      <trkpt lat="47.24473" lon="-1.54666">
        <ele>13.704768180847</ele>
        <time>2016-11-22T08:25:18.000Z</time>
      </trkpt>
      <trkpt lat="47.2447" lon="-1.54669">
        <ele>13.971684455872</ele>
        <time>2016-11-22T08:25:20.000Z</time>
      </trkpt>
      <trkpt lat="47.24468" lon="-1.5467">
        <ele>14.221807479858</ele>
        <time>2016-11-22T08:25:23.000Z</time>
      </trkpt>
      <trkpt lat="47.24467" lon="-1.54671">
        <ele>14.429324150085</ele>
        <time>2016-11-22T08:25:25.000Z</time>
      </trkpt>
      <trkpt lat="47.24465" lon="-1.54673">
        <ele>14.591102600098</ele>
        <time>2016-11-22T08:25:27.000Z</time>
      </trkpt>
      <trkpt lat="47.24462" lon="-1.54675">
        <ele>14.720712661743</ele>
        <time>2016-11-22T08:25:30.000Z</time>
      </trkpt>
      <trkpt lat="47.24457" lon="-1.54678">
        <ele>14.846654891968</ele>
        <time>2016-11-22T08:25:33.000Z</time>
      </trkpt>
      <trkpt lat="47.24452" lon="-1.54681">
        <ele>15.00688457489</ele>
        <time>2016-11-22T08:25:36.000Z</time>
      </trkpt>
      <trkpt lat="47.24448" lon="-1.54683">
        <ele>15.188131332397</ele>
        <time>2016-11-22T08:25:38.000Z</time>
      </trkpt>
      <trkpt lat="47.24446" lon="-1.54684">
        <ele>15.367732048035</ele>
        <time>2016-11-22T08:25:40.000Z</time>
      </trkpt>
      <trkpt lat="47.24442" lon="-1.54687">
        <ele>15.576881408691</ele>
        <time>2016-11-22T08:25:43.000Z</time>
      </trkpt>
      <trkpt lat="47.24437" lon="-1.5469">
        <ele>15.809460639954</ele>
        <time>2016-11-22T08:25:46.000Z</time>
      </trkpt>
      <trkpt lat="47.24433" lon="-1.54693">
        <ele>16.05513381958</ele>
        <time>2016-11-22T08:25:49.000Z</time>
      </trkpt>
      <trkpt lat="47.24429" lon="-1.54696">
        <ele>16.331365585327</ele>
        <time>2016-11-22T08:25:52.000Z</time>
      </trkpt>
      <trkpt lat="47.24425" lon="-1.54698">
        <ele>16.61653137207</ele>
        <time>2016-11-22T08:25:55.000Z</time>
      </trkpt>
      <trkpt lat="47.24422" lon="-1.54699">
        <ele>16.882780075073</ele>
        <time>2016-11-22T08:25:57.000Z</time>
      </trkpt>
      <trkpt lat="47.2442" lon="-1.54702">
        <ele>17.143581390381</ele>
        <time>2016-11-22T08:25:59.000Z</time>
      </trkpt>
      <trkpt lat="47.24415" lon="-1.54704">
        <ele>17.374927520752</ele>
        <time>2016-11-22T08:26:02.000Z</time>
      </trkpt>
      <trkpt lat="47.24412" lon="-1.54706">
        <ele>17.509883880615</ele>
        <time>2016-11-22T08:26:05.000Z</time>
      </trkpt>
      <trkpt lat="47.24409" lon="-1.54707">
        <ele>17.592082977295</ele>
        <time>2016-11-22T08:26:07.000Z</time>
      </trkpt>
      <trkpt lat="47.24405" lon="-1.54711">
        <ele>17.635902404785</ele>
        <time>2016-11-22T08:26:10.000Z</time>
      </trkpt>
      <trkpt lat="47.24401" lon="-1.54714">
        <ele>17.610666275024</ele>
        <time>2016-11-22T08:26:13.000Z</time>
      </trkpt>
      <trkpt lat="47.24397" lon="-1.54717">
        <ele>17.549541473389</ele>
        <time>2016-11-22T08:26:16.000Z</time>
      </trkpt>
      <trkpt lat="47.24394" lon="-1.54719">
        <ele>17.497678756714</ele>
        <time>2016-11-22T08:26:18.000Z</time>
      </trkpt>
      <trkpt lat="47.24391" lon="-1.54721">
        <ele>17.446649551392</ele>
        <time>2016-11-22T08:26:20.000Z</time>
      </trkpt>
      <trkpt lat="47.24388" lon="-1.54722">
        <ele>17.342498779297</ele>
        <time>2016-11-22T08:26:22.000Z</time>
      </trkpt>
      <trkpt lat="47.24386" lon="-1.54723">
        <ele>17.205400466919</ele>
        <time>2016-11-22T08:26:25.000Z</time>
      </trkpt>
      <trkpt lat="47.24382" lon="-1.54725">
        <ele>17.023132324219</ele>
        <time>2016-11-22T08:26:28.000Z</time>
      </trkpt>
      <trkpt lat="47.24378" lon="-1.54728">
        <ele>16.859399795532</ele>
        <time>2016-11-22T08:26:31.000Z</time>
      </trkpt>
      <trkpt lat="47.24375" lon="-1.54732">
        <ele>16.693658828735</ele>
        <time>2016-11-22T08:26:34.000Z</time>
      </trkpt>
      <trkpt lat="47.24372" lon="-1.54734">
        <ele>16.575399398804</ele>
        <time>2016-11-22T08:26:36.000Z</time>
      </trkpt>
      <trkpt lat="47.2437" lon="-1.54735">
        <ele>16.464834213257</ele>
        <time>2016-11-22T08:26:38.000Z</time>
      </trkpt>
      <trkpt lat="47.24366" lon="-1.54738">
        <ele>16.379711151123</ele>
        <time>2016-11-22T08:26:41.000Z</time>
      </trkpt>
      <trkpt lat="47.24363" lon="-1.54741">
        <ele>16.268259048462</ele>
        <time>2016-11-22T08:26:44.000Z</time>
      </trkpt>
      <trkpt lat="47.24361" lon="-1.54743">
        <ele>16.170618057251</ele>
        <time>2016-11-22T08:26:46.000Z</time>
      </trkpt>
      <trkpt lat="47.24357" lon="-1.54745">
        <ele>16.013126373291</ele>
        <time>2016-11-22T08:26:49.000Z</time>
      </trkpt>
      <trkpt lat="47.24355" lon="-1.54747">
        <ele>15.856550216675</ele>
        <time>2016-11-22T08:26:51.000Z</time>
      </trkpt>
      <trkpt lat="47.24352" lon="-1.5475">
        <ele>15.718778610229</ele>
        <time>2016-11-22T08:26:53.000Z</time>
      </trkpt>
      <trkpt lat="47.2435" lon="-1.54753">
        <ele>15.568189620972</ele>
        <time>2016-11-22T08:26:56.000Z</time>
      </trkpt>
      <trkpt lat="47.24349" lon="-1.54756">
        <ele>15.418108940125</ele>
        <time>2016-11-22T08:26:58.000Z</time>
      </trkpt>
      <trkpt lat="47.24345" lon="-1.5476">
        <ele>15.243278503418</ele>
        <time>2016-11-22T08:27:01.000Z</time>
      </trkpt>
      <trkpt lat="47.24341" lon="-1.54765">
        <ele>15.038981437683</ele>
        <time>2016-11-22T08:27:04.000Z</time>
      </trkpt>
      <trkpt lat="47.24339" lon="-1.54769">
        <ele>14.814679145813</ele>
        <time>2016-11-22T08:27:06.000Z</time>
      </trkpt>
      <trkpt lat="47.24337" lon="-1.54772">
        <ele>14.629293441772</ele>
        <time>2016-11-22T08:27:08.000Z</time>
      </trkpt>
      <trkpt lat="47.24335" lon="-1.54777">
        <ele>14.411291122437</ele>
        <time>2016-11-22T08:27:11.000Z</time>
      </trkpt>
      <trkpt lat="47.24333" lon="-1.5478">
        <ele>14.267545700073</ele>
        <time>2016-11-22T08:27:13.000Z</time>
      </trkpt>
      <trkpt lat="47.24331" lon="-1.54785">
        <ele>14.198969841003</ele>
        <time>2016-11-22T08:27:16.000Z</time>
      </trkpt>
      <trkpt lat="47.24329" lon="-1.54788">
        <ele>14.141415596008</ele>
        <time>2016-11-22T08:27:19.000Z</time>
      </trkpt>
      <trkpt lat="47.24327" lon="-1.5479">
        <ele>14.07546710968</ele>
        <time>2016-11-22T08:27:22.000Z</time>
      </trkpt>
      <trkpt lat="47.24324" lon="-1.54792">
        <ele>14.026266098022</ele>
        <time>2016-11-22T08:27:24.000Z</time>
      </trkpt>
      <trkpt lat="47.24319" lon="-1.54794">
        <ele>13.923957824707</ele>
        <time>2016-11-22T08:27:27.000Z</time>
      </trkpt>
      <trkpt lat="47.24316" lon="-1.54795">
        <ele>13.775667190552</ele>
        <time>2016-11-22T08:27:29.000Z</time>
      </trkpt>
      <trkpt lat="47.24313" lon="-1.54797">
        <ele>13.621851921082</ele>
        <time>2016-11-22T08:27:32.000Z</time>
      </trkpt>
      <trkpt lat="47.24309" lon="-1.54799">
        <ele>13.440875053406</ele>
        <time>2016-11-22T08:27:35.000Z</time>
      </trkpt>
      <trkpt lat="47.24306" lon="-1.54801">
        <ele>13.260516166687</ele>
        <time>2016-11-22T08:27:37.000Z</time>
      </trkpt>
      <trkpt lat="47.24302" lon="-1.54803">
        <ele>13.103912353516</ele>
        <time>2016-11-22T08:27:40.000Z</time>
      </trkpt>
      <trkpt lat="47.24299" lon="-1.54805">
        <ele>12.950929641724</ele>
        <time>2016-11-22T08:27:43.000Z</time>
      </trkpt>
      <trkpt lat="47.24295" lon="-1.54806">
        <ele>12.781727790833</ele>
        <time>2016-11-22T08:27:46.000Z</time>
      </trkpt>
      <trkpt lat="47.24292" lon="-1.54807">
        <ele>12.613729476929</ele>
        <time>2016-11-22T08:27:49.000Z</time>
      </trkpt>
      <trkpt lat="47.24287" lon="-1.54809">
        <ele>12.425374984741</ele>
        <time>2016-11-22T08:27:52.000Z</time>
      </trkpt>
      <trkpt lat="47.24284" lon="-1.54811">
        <ele>12.250696182251</ele>
        <time>2016-11-22T08:27:54.000Z</time>
      </trkpt>
      <trkpt lat="47.2428" lon="-1.54812">
        <ele>12.073495864868</ele>
        <time>2016-11-22T08:27:56.000Z</time>
      </trkpt>
      <trkpt lat="47.24277" lon="-1.54814">
        <ele>11.910353660583</ele>
        <time>2016-11-22T08:27:58.000Z</time>
      </trkpt>
      <trkpt lat="47.24273" lon="-1.5482">
        <ele>11.789408683777</ele>
        <time>2016-11-22T08:28:01.000Z</time>
      </trkpt>
      <trkpt lat="47.24271" lon="-1.54826">
        <ele>11.752416610718</ele>
        <time>2016-11-22T08:28:04.000Z</time>
      </trkpt>
      <trkpt lat="47.2427" lon="-1.54832">
        <ele>11.803740501404</ele>
        <time>2016-11-22T08:28:07.000Z</time>
      </trkpt>
      <trkpt lat="47.24269" lon="-1.54837">
        <ele>11.897517204285</ele>
        <time>2016-11-22T08:28:09.000Z</time>
      </trkpt>
      <trkpt lat="47.24269" lon="-1.54841">
        <ele>12.029853820801</ele>
        <time>2016-11-22T08:28:12.000Z</time>
      </trkpt>
      <trkpt lat="47.24271" lon="-1.54848">
        <ele>12.193971633911</ele>
        <time>2016-11-22T08:28:15.000Z</time>
      </trkpt>
      <trkpt lat="47.24271" lon="-1.54855">
        <ele>12.33550453186</ele>
        <time>2016-11-22T08:28:18.000Z</time>
      </trkpt>
      <trkpt lat="47.24272" lon="-1.54861">
        <ele>12.448035240173</ele>
        <time>2016-11-22T08:28:21.000Z</time>
      </trkpt>
      <trkpt lat="47.24273" lon="-1.54867">
        <ele>12.571064949036</ele>
        <time>2016-11-22T08:28:24.000Z</time>
      </trkpt>
      <trkpt lat="47.24273" lon="-1.54871">
        <ele>12.687973022461</ele>
        <time>2016-11-22T08:28:26.000Z</time>
      </trkpt>
      <trkpt lat="47.24274" lon="-1.54877">
        <ele>12.785799980164</ele>
        <time>2016-11-22T08:28:29.000Z</time>
      </trkpt>
      <trkpt lat="47.24276" lon="-1.54883">
        <ele>12.880071640015</ele>
        <time>2016-11-22T08:28:32.000Z</time>
      </trkpt>
      <trkpt lat="47.24276" lon="-1.5489">
        <ele>12.96115398407</ele>
        <time>2016-11-22T08:28:35.000Z</time>
      </trkpt>
      <trkpt lat="47.24277" lon="-1.54893">
        <ele>13.025586128235</ele>
        <time>2016-11-22T08:28:37.000Z</time>
      </trkpt>
      <trkpt lat="47.24279" lon="-1.54899">
        <ele>13.088384628296</ele>
        <time>2016-11-22T08:28:40.000Z</time>
      </trkpt>
      <trkpt lat="47.24281" lon="-1.54905">
        <ele>13.137278556824</ele>
        <time>2016-11-22T08:28:43.000Z</time>
      </trkpt>
      <trkpt lat="47.24282" lon="-1.54908">
        <ele>13.16690826416</ele>
        <time>2016-11-22T08:28:45.000Z</time>
      </trkpt>
      <trkpt lat="47.24284" lon="-1.54914">
        <ele>13.179120063782</ele>
        <time>2016-11-22T08:28:48.000Z</time>
      </trkpt>
      <trkpt lat="47.24286" lon="-1.54917">
        <ele>13.179800033569</ele>
        <time>2016-11-22T08:28:50.000Z</time>
      </trkpt>
      <trkpt lat="47.24288" lon="-1.54921">
        <ele>13.163004875183</ele>
        <time>2016-11-22T08:28:53.000Z</time>
      </trkpt>
      <trkpt lat="47.24291" lon="-1.54925">
        <ele>13.136904716492</ele>
        <time>2016-11-22T08:28:55.000Z</time>
      </trkpt>
      <trkpt lat="47.24293" lon="-1.5493">
        <ele>13.107706069946</ele>
        <time>2016-11-22T08:28:58.000Z</time>
      </trkpt>
      <trkpt lat="47.24296" lon="-1.54935">
        <ele>13.076354980469</ele>
        <time>2016-11-22T08:29:01.000Z</time>
      </trkpt>
      <trkpt lat="47.24298" lon="-1.54938">
        <ele>13.043805122375</ele>
        <time>2016-11-22T08:29:03.000Z</time>
      </trkpt>
      <trkpt lat="47.24301" lon="-1.54942">
        <ele>13.016207695007</ele>
        <time>2016-11-22T08:29:06.000Z</time>
      </trkpt>
      <trkpt lat="47.24303" lon="-1.54946">
        <ele>12.993527412415</ele>
        <time>2016-11-22T08:29:09.000Z</time>
      </trkpt>
      <trkpt lat="47.24305" lon="-1.54951">
        <ele>12.975436210632</ele>
        <time>2016-11-22T08:29:12.000Z</time>
      </trkpt>
      <trkpt lat="47.24306" lon="-1.54957">
        <ele>12.969610214233</ele>
        <time>2016-11-22T08:29:15.000Z</time>
      </trkpt>
      <trkpt lat="47.24307" lon="-1.54963">
        <ele>12.975079536438</ele>
        <time>2016-11-22T08:29:18.000Z</time>
      </trkpt>
      <trkpt lat="47.24308" lon="-1.54968">
        <ele>12.989143371582</ele>
        <time>2016-11-22T08:29:21.000Z</time>
      </trkpt>
      <trkpt lat="47.24309" lon="-1.54972">
        <ele>13.008944511414</ele>
        <time>2016-11-22T08:29:23.000Z</time>
      </trkpt>
      <trkpt lat="47.2431" lon="-1.54979">
        <ele>13.038647651672</ele>
        <time>2016-11-22T08:29:26.000Z</time>
      </trkpt>
      <trkpt lat="47.24309" lon="-1.54986">
        <ele>13.075410842896</ele>
        <time>2016-11-22T08:29:29.000Z</time>
      </trkpt>
      <trkpt lat="47.2431" lon="-1.54991">
        <ele>13.113718032837</ele>
        <time>2016-11-22T08:29:31.000Z</time>
      </trkpt>
      <trkpt lat="47.24311" lon="-1.54997">
        <ele>13.155721664429</ele>
        <time>2016-11-22T08:29:34.000Z</time>
      </trkpt>
      <trkpt lat="47.24311" lon="-1.55001">
        <ele>13.197247505188</ele>
        <time>2016-11-22T08:29:36.000Z</time>
      </trkpt>
      <trkpt lat="47.24311" lon="-1.55006">
        <ele>13.22891998291</ele>
        <time>2016-11-22T08:29:39.000Z</time>
      </trkpt>
      <trkpt lat="47.24311" lon="-1.55011">
        <ele>13.248010635376</ele>
        <time>2016-11-22T08:29:41.000Z</time>
      </trkpt>
      <trkpt lat="47.2431" lon="-1.55017">
        <ele>13.263285636902</ele>
        <time>2016-11-22T08:29:44.000Z</time>
      </trkpt>
      <trkpt lat="47.24308" lon="-1.55023">
        <ele>13.2744140625</ele>
        <time>2016-11-22T08:29:47.000Z</time>
      </trkpt>
      <trkpt lat="47.24308" lon="-1.55028">
        <ele>13.2841796875</ele>
        <time>2016-11-22T08:29:50.000Z</time>
      </trkpt>
      <trkpt lat="47.24307" lon="-1.55032">
        <ele>13.2939453125</ele>
        <time>2016-11-22T08:29:52.000Z</time>
      </trkpt>
      <trkpt lat="47.24307" lon="-1.55039">
        <ele>13.302734375</ele>
        <time>2016-11-22T08:29:55.000Z</time>
      </trkpt>
      <trkpt lat="47.24307" lon="-1.55044">
        <ele>13.3095703125</ele>
        <time>2016-11-22T08:29:57.000Z</time>
      </trkpt>
      <trkpt lat="47.24306" lon="-1.5505">
        <ele>13.3134765625</ele>
        <time>2016-11-22T08:30:00.000Z</time>
      </trkpt>
      <trkpt lat="47.24306" lon="-1.55054">
        <ele>13.31640625</ele>
        <time>2016-11-22T08:30:02.000Z</time>
      </trkpt>
      <trkpt lat="47.24306" lon="-1.5506">
        <ele>13.3203125</ele>
        <time>2016-11-22T08:30:05.000Z</time>
      </trkpt>
      <trkpt lat="47.24305" lon="-1.55065">
        <ele>13.3251953125</ele>
        <time>2016-11-22T08:30:08.000Z</time>
      </trkpt>
      <trkpt lat="47.24305" lon="-1.55071">
        <ele>13.3291015625</ele>
        <time>2016-11-22T08:30:11.000Z</time>
      </trkpt>
      <trkpt lat="47.24305" lon="-1.55075">
        <ele>13.333984375</ele>
        <time>2016-11-22T08:30:13.000Z</time>
      </trkpt>
      <trkpt lat="47.24304" lon="-1.55079">
        <ele>13.33984375</ele>
        <time>2016-11-22T08:30:16.000Z</time>
      </trkpt>
      <trkpt lat="47.24305" lon="-1.55083">
        <ele>13.3427734375</ele>
        <time>2016-11-22T08:30:19.000Z</time>
      </trkpt>
      <trkpt lat="47.24305" lon="-1.55087">
        <ele>13.343905448914</ele>
        <time>2016-11-22T08:30:22.000Z</time>
      </trkpt>
      <trkpt lat="47.24305" lon="-1.55093">
        <ele>13.346670150757</ele>
        <time>2016-11-22T08:30:25.000Z</time>
      </trkpt>
      <trkpt lat="47.24304" lon="-1.55098">
        <ele>13.349370956421</ele>
        <time>2016-11-22T08:30:27.000Z</time>
      </trkpt>
      <trkpt lat="47.24304" lon="-1.55105">
        <ele>13.350878715515</ele>
        <time>2016-11-22T08:30:30.000Z</time>
      </trkpt>
      <trkpt lat="47.24303" lon="-1.55112">
        <ele>13.359135627747</ele>
        <time>2016-11-22T08:30:33.000Z</time>
      </trkpt>
      <trkpt lat="47.24303" lon="-1.55116">
        <ele>13.368970870972</ele>
        <time>2016-11-22T08:30:35.000Z</time>
      </trkpt>
      <trkpt lat="47.24304" lon="-1.55122">
        <ele>13.373723983765</ele>
        <time>2016-11-22T08:30:38.000Z</time>
      </trkpt>
      <trkpt lat="47.24305" lon="-1.55127">
        <ele>13.374583244324</ele>
        <time>2016-11-22T08:30:40.000Z</time>
      </trkpt>
      <trkpt lat="47.24305" lon="-1.55134">
        <ele>13.372507095337</ele>
        <time>2016-11-22T08:30:43.000Z</time>
      </trkpt>
      <trkpt lat="47.24305" lon="-1.55138">
        <ele>13.365850448608</ele>
        <time>2016-11-22T08:30:45.000Z</time>
      </trkpt>
      <trkpt lat="47.24305" lon="-1.55145">
        <ele>13.361918449402</ele>
        <time>2016-11-22T08:30:48.000Z</time>
      </trkpt>
      <trkpt lat="47.24304" lon="-1.55149">
        <ele>13.368372917175</ele>
        <time>2016-11-22T08:30:50.000Z</time>
      </trkpt>
      <trkpt lat="47.24303" lon="-1.55155">
        <ele>13.381248474121</ele>
        <time>2016-11-22T08:30:53.000Z</time>
      </trkpt>
      <trkpt lat="47.24303" lon="-1.55159">
        <ele>13.396980285645</ele>
        <time>2016-11-22T08:30:55.000Z</time>
      </trkpt>
      <trkpt lat="47.24303" lon="-1.55165">
        <ele>13.417364120483</ele>
        <time>2016-11-22T08:30:58.000Z</time>
      </trkpt>
      <trkpt lat="47.24303" lon="-1.55168">
        <ele>13.425203323364</ele>
        <time>2016-11-22T08:31:00.000Z</time>
      </trkpt>
      <trkpt lat="47.24303" lon="-1.55175">
        <ele>13.377645492554</ele>
        <time>2016-11-22T08:31:03.000Z</time>
      </trkpt>
      <trkpt lat="47.24302" lon="-1.55179">
        <ele>13.296132087708</ele>
        <time>2016-11-22T08:31:05.000Z</time>
      </trkpt>
      <trkpt lat="47.24302" lon="-1.55185">
        <ele>13.17632484436</ele>
        <time>2016-11-22T08:31:08.000Z</time>
      </trkpt>
      <trkpt lat="47.24301" lon="-1.55191">
        <ele>13.011129379272</ele>
        <time>2016-11-22T08:31:11.000Z</time>
      </trkpt>
      <trkpt lat="47.243" lon="-1.55196">
        <ele>12.81679725647</ele>
        <time>2016-11-22T08:31:14.000Z</time>
      </trkpt>
      <trkpt lat="47.24299" lon="-1.55202">
        <ele>12.6396484375</ele>
        <time>2016-11-22T08:31:17.000Z</time>
      </trkpt>
      <trkpt lat="47.24299" lon="-1.55205">
        <ele>12.470401763916</ele>
        <time>2016-11-22T08:31:19.000Z</time>
      </trkpt>
      <trkpt lat="47.24299" lon="-1.55208">
        <ele>12.309900283813</ele>
        <time>2016-11-22T08:31:21.000Z</time>
      </trkpt>
      <trkpt lat="47.24297" lon="-1.55213">
        <ele>12.165949821472</ele>
        <time>2016-11-22T08:31:24.000Z</time>
      </trkpt>
      <trkpt lat="47.24296" lon="-1.55219">
        <ele>12.017321586609</ele>
        <time>2016-11-22T08:31:27.000Z</time>
      </trkpt>
      <trkpt lat="47.24295" lon="-1.55223">
        <ele>11.86777305603</ele>
        <time>2016-11-22T08:31:29.000Z</time>
      </trkpt>
      <trkpt lat="47.24294" lon="-1.55229">
        <ele>11.696617126465</ele>
        <time>2016-11-22T08:31:32.000Z</time>
      </trkpt>
      <trkpt lat="47.24294" lon="-1.55236">
        <ele>11.501916885376</ele>
        <time>2016-11-22T08:31:35.000Z</time>
      </trkpt>
      <trkpt lat="47.24293" lon="-1.5524">
        <ele>11.295545578003</ele>
        <time>2016-11-22T08:31:37.000Z</time>
      </trkpt>
      <trkpt lat="47.24293" lon="-1.55247">
        <ele>11.07848072052</ele>
        <time>2016-11-22T08:31:40.000Z</time>
      </trkpt>
      <trkpt lat="47.24293" lon="-1.55253">
        <ele>10.848335266113</ele>
        <time>2016-11-22T08:31:43.000Z</time>
      </trkpt>
      <trkpt lat="47.24292" lon="-1.55259">
        <ele>10.617871284485</ele>
        <time>2016-11-22T08:31:46.000Z</time>
      </trkpt>
      <trkpt lat="47.24291" lon="-1.55265">
        <ele>10.40209197998</ele>
        <time>2016-11-22T08:31:49.000Z</time>
      </trkpt>
      <trkpt lat="47.24292" lon="-1.55268">
        <ele>10.200242996216</ele>
        <time>2016-11-22T08:31:51.000Z</time>
      </trkpt>
      <trkpt lat="47.24292" lon="-1.5527">
        <ele>10.030992507935</ele>
        <time>2016-11-22T08:31:53.000Z</time>
      </trkpt>
      <trkpt lat="47.24292" lon="-1.55275">
        <ele>9.8745861053467</ele>
        <time>2016-11-22T08:31:56.000Z</time>
      </trkpt>
      <trkpt lat="47.24291" lon="-1.5528">
        <ele>9.7250080108643</ele>
        <time>2016-11-22T08:31:59.000Z</time>
      </trkpt>
      <trkpt lat="47.2429" lon="-1.55287">
        <ele>9.5617046356201</ele>
        <time>2016-11-22T08:32:02.000Z</time>
      </trkpt>
      <trkpt lat="47.2429" lon="-1.55293">
        <ele>9.3767414093018</ele>
        <time>2016-11-22T08:32:05.000Z</time>
      </trkpt>
      <trkpt lat="47.24289" lon="-1.55298">
        <ele>9.1774139404297</ele>
        <time>2016-11-22T08:32:07.000Z</time>
      </trkpt>
      <trkpt lat="47.24288" lon="-1.55305">
        <ele>8.9608707427979</ele>
        <time>2016-11-22T08:32:10.000Z</time>
      </trkpt>
      <trkpt lat="47.24287" lon="-1.55312">
        <ele>8.7271070480347</ele>
        <time>2016-11-22T08:32:13.000Z</time>
      </trkpt>
      <trkpt lat="47.24288" lon="-1.5532">
        <ele>8.4865198135376</ele>
        <time>2016-11-22T08:32:16.000Z</time>
      </trkpt>
      <trkpt lat="47.24289" lon="-1.55323">
        <ele>8.2648496627808</ele>
        <time>2016-11-22T08:32:18.000Z</time>
      </trkpt>
      <trkpt lat="47.2429" lon="-1.55328">
        <ele>8.0490999221802</ele>
        <time>2016-11-22T08:32:21.000Z</time>
      </trkpt>
      <trkpt lat="47.24292" lon="-1.55333">
        <ele>7.850456237793</ele>
        <time>2016-11-22T08:32:24.000Z</time>
      </trkpt>
      <trkpt lat="47.24292" lon="-1.55336">
        <ele>7.7093782424927</ele>
        <time>2016-11-22T08:32:26.000Z</time>
      </trkpt>
      <trkpt lat="47.24293" lon="-1.55341">
        <ele>7.6381711959839</ele>
        <time>2016-11-22T08:32:28.000Z</time>
      </trkpt>
      <trkpt lat="47.24292" lon="-1.55347">
        <ele>7.6048111915588</ele>
        <time>2016-11-22T08:32:31.000Z</time>
      </trkpt>
      <trkpt lat="47.24292" lon="-1.55351">
        <ele>7.6097650527954</ele>
        <time>2016-11-22T08:32:34.000Z</time>
      </trkpt>
      <trkpt lat="47.24293" lon="-1.5535">
        <ele>7.6444869041443</ele>
        <time>2016-11-22T08:32:41.000Z</time>
      </trkpt>
      <trkpt lat="47.24295" lon="-1.55349">
        <ele>7.6762914657593</ele>
        <time>2016-11-22T08:32:44.000Z</time>
      </trkpt>
      <trkpt lat="47.24295" lon="-1.55352">
        <ele>7.7017226219177</ele>
        <time>2016-11-22T08:33:34.000Z</time>
      </trkpt>
      <trkpt lat="47.24295" lon="-1.55358">
        <ele>7.72523021698</ele>
        <time>2016-11-22T08:33:36.000Z</time>
      </trkpt>
      <trkpt lat="47.24295" lon="-1.55361">
        <ele>7.7467203140259</ele>
        <time>2016-11-22T08:33:39.000Z</time>
      </trkpt>
      <trkpt lat="47.24295" lon="-1.55363">
        <ele>7.7748031616211</ele>
        <time>2016-11-22T08:33:42.000Z</time>
      </trkpt>
      <trkpt lat="47.24292" lon="-1.55372">
        <ele>7.8283910751343</ele>
        <time>2016-11-22T08:34:07.000Z</time>
      </trkpt>
      <trkpt lat="47.24289" lon="-1.55373">
        <ele>7.885630607605</ele>
        <time>2016-11-22T08:34:10.000Z</time>
      </trkpt>
      <trkpt lat="47.24286" lon="-1.55373">
        <ele>7.9357514381409</ele>
        <time>2016-11-22T08:34:13.000Z</time>
      </trkpt>
      <trkpt lat="47.24281" lon="-1.55371">
        <ele>7.982780456543</ele>
        <time>2016-11-22T08:34:16.000Z</time>
      </trkpt>
      <trkpt lat="47.24278" lon="-1.55369">
        <ele>8.0251293182373</ele>
        <time>2016-11-22T08:34:18.000Z</time>
      </trkpt>
      <trkpt lat="47.24276" lon="-1.55368">
        <ele>8.0371751785278</ele>
        <time>2016-11-22T08:34:20.000Z</time>
      </trkpt>
      <trkpt lat="47.24274" lon="-1.55367">
        <ele>8.0416173934937</ele>
        <time>2016-11-22T08:34:23.000Z</time>
      </trkpt>
      <trkpt lat="47.24272" lon="-1.55369">
        <ele>8.0521106719971</ele>
        <time>2016-11-22T08:34:26.000Z</time>
      </trkpt>
      <trkpt lat="47.24268" lon="-1.55369">
        <ele>8.0676679611206</ele>
        <time>2016-11-22T08:34:29.000Z</time>
      </trkpt>
      <trkpt lat="47.24263" lon="-1.55369">
        <ele>8.0897979736328</ele>
        <time>2016-11-22T08:34:32.000Z</time>
      </trkpt>
      <trkpt lat="47.24261" lon="-1.55369">
        <ele>8.1201391220093</ele>
        <time>2016-11-22T08:34:34.000Z</time>
      </trkpt>
      <trkpt lat="47.24257" lon="-1.5537">
        <ele>8.167254447937</ele>
        <time>2016-11-22T08:34:37.000Z</time>
      </trkpt>
      <trkpt lat="47.24254" lon="-1.55376">
        <ele>8.2431726455688</ele>
        <time>2016-11-22T08:34:40.000Z</time>
      </trkpt>
      <trkpt lat="47.24253" lon="-1.55379">
        <ele>8.3346033096313</ele>
        <time>2016-11-22T08:34:42.000Z</time>
      </trkpt>
      <trkpt lat="47.24252" lon="-1.55383">
        <ele>8.4498815536499</ele>
        <time>2016-11-22T08:34:44.000Z</time>
      </trkpt>
      <trkpt lat="47.2425" lon="-1.55387">
        <ele>8.5955438613892</ele>
        <time>2016-11-22T08:34:47.000Z</time>
      </trkpt>
      <trkpt lat="47.24249" lon="-1.5539">
        <ele>8.7552604675293</ele>
        <time>2016-11-22T08:34:49.000Z</time>
      </trkpt>
      <trkpt lat="47.24249" lon="-1.55394">
        <ele>8.9109163284302</ele>
        <time>2016-11-22T08:34:51.000Z</time>
      </trkpt>
      <trkpt lat="47.24247" lon="-1.554">
        <ele>9.0941667556763</ele>
        <time>2016-11-22T08:34:54.000Z</time>
      </trkpt>
      <trkpt lat="47.24246" lon="-1.55403">
        <ele>9.2760372161865</ele>
        <time>2016-11-22T08:34:56.000Z</time>
      </trkpt>
      <trkpt lat="47.24245" lon="-1.55407">
        <ele>9.4627704620361</ele>
        <time>2016-11-22T08:34:59.000Z</time>
      </trkpt>
      <trkpt lat="47.24244" lon="-1.55413">
        <ele>9.6640405654907</ele>
        <time>2016-11-22T08:35:02.000Z</time>
      </trkpt>
      <trkpt lat="47.24242" lon="-1.55418">
        <ele>9.8706464767456</ele>
        <time>2016-11-22T08:35:05.000Z</time>
      </trkpt>
      <trkpt lat="47.24241" lon="-1.55422">
        <ele>10.035985946655</ele>
        <time>2016-11-22T08:35:07.000Z</time>
      </trkpt>
      <trkpt lat="47.2424" lon="-1.55426">
        <ele>10.184603691101</ele>
        <time>2016-11-22T08:35:09.000Z</time>
      </trkpt>
      <trkpt lat="47.24239" lon="-1.55431">
        <ele>10.303121566772</ele>
        <time>2016-11-22T08:35:12.000Z</time>
      </trkpt>
      <trkpt lat="47.24238" lon="-1.55435">
        <ele>10.384531974792</ele>
        <time>2016-11-22T08:35:14.000Z</time>
      </trkpt>
      <trkpt lat="47.24237" lon="-1.5544">
        <ele>10.435516357422</ele>
        <time>2016-11-22T08:35:16.000Z</time>
      </trkpt>
      <trkpt lat="47.24237" lon="-1.55445">
        <ele>10.487001419067</ele>
        <time>2016-11-22T08:35:19.000Z</time>
      </trkpt>
      <trkpt lat="47.24236" lon="-1.55451">
        <ele>10.542808532715</ele>
        <time>2016-11-22T08:35:22.000Z</time>
      </trkpt>
      <trkpt lat="47.24235" lon="-1.55457">
        <ele>10.598336219788</ele>
        <time>2016-11-22T08:35:25.000Z</time>
      </trkpt>
      <trkpt lat="47.24235" lon="-1.55463">
        <ele>10.649332046509</ele>
        <time>2016-11-22T08:35:28.000Z</time>
      </trkpt>
      <trkpt lat="47.24235" lon="-1.55466">
        <ele>10.697027206421</ele>
        <time>2016-11-22T08:35:30.000Z</time>
      </trkpt>
      <trkpt lat="47.24234" lon="-1.55473">
        <ele>10.743494033813</ele>
        <time>2016-11-22T08:35:33.000Z</time>
      </trkpt>
      <trkpt lat="47.24234" lon="-1.5548">
        <ele>10.780564308167</ele>
        <time>2016-11-22T08:35:36.000Z</time>
      </trkpt>
      <trkpt lat="47.24235" lon="-1.55486">
        <ele>10.810129165649</ele>
        <time>2016-11-22T08:35:39.000Z</time>
      </trkpt>
      <trkpt lat="47.24236" lon="-1.5549">
        <ele>10.828903198242</ele>
        <time>2016-11-22T08:35:41.000Z</time>
      </trkpt>
      <trkpt lat="47.24236" lon="-1.55497">
        <ele>10.846715927124</ele>
        <time>2016-11-22T08:35:44.000Z</time>
      </trkpt>
      <trkpt lat="47.24235" lon="-1.55504">
        <ele>10.872438430786</ele>
        <time>2016-11-22T08:35:47.000Z</time>
      </trkpt>
      <trkpt lat="47.24234" lon="-1.55508">
        <ele>10.902467727661</ele>
        <time>2016-11-22T08:35:49.000Z</time>
      </trkpt>
      <trkpt lat="47.24232" lon="-1.55514">
        <ele>10.968069076538</ele>
        <time>2016-11-22T08:35:52.000Z</time>
      </trkpt>
      <trkpt lat="47.24229" lon="-1.55518">
        <ele>11.070924758911</ele>
        <time>2016-11-22T08:35:54.000Z</time>
      </trkpt>
      <trkpt lat="47.24228" lon="-1.55522">
        <ele>11.190771102905</ele>
        <time>2016-11-22T08:35:57.000Z</time>
      </trkpt>
      <trkpt lat="47.24226" lon="-1.55528">
        <ele>11.316129684448</ele>
        <time>2016-11-22T08:36:00.000Z</time>
      </trkpt>
      <trkpt lat="47.24226" lon="-1.55533">
        <ele>11.43621635437</ele>
        <time>2016-11-22T08:36:03.000Z</time>
      </trkpt>
      <trkpt lat="47.24226" lon="-1.55537">
        <ele>11.527116775513</ele>
        <time>2016-11-22T08:36:05.000Z</time>
      </trkpt>
      <trkpt lat="47.24224" lon="-1.55543">
        <ele>11.604483604431</ele>
        <time>2016-11-22T08:36:08.000Z</time>
      </trkpt>
      <trkpt lat="47.24224" lon="-1.55547">
        <ele>11.666698455811</ele>
        <time>2016-11-22T08:36:10.000Z</time>
      </trkpt>
      <trkpt lat="47.24224" lon="-1.55554">
        <ele>11.711393356323</ele>
        <time>2016-11-22T08:36:13.000Z</time>
      </trkpt>
      <trkpt lat="47.24224" lon="-1.55561">
        <ele>11.756651878357</ele>
        <time>2016-11-22T08:36:16.000Z</time>
      </trkpt>
      <trkpt lat="47.24225" lon="-1.55565">
        <ele>11.791317939758</ele>
        <time>2016-11-22T08:36:18.000Z</time>
      </trkpt>
      <trkpt lat="47.24222" lon="-1.55569">
        <ele>11.834487915039</ele>
        <time>2016-11-22T08:36:21.000Z</time>
      </trkpt>
      <trkpt lat="47.2422" lon="-1.55572">
        <ele>11.885350227356</ele>
        <time>2016-11-22T08:36:23.000Z</time>
      </trkpt>
      <trkpt lat="47.24218" lon="-1.55577">
        <ele>11.952405929565</ele>
        <time>2016-11-22T08:36:26.000Z</time>
      </trkpt>
      <trkpt lat="47.24216" lon="-1.55583">
        <ele>12.034321784973</ele>
        <time>2016-11-22T08:36:29.000Z</time>
      </trkpt>
      <trkpt lat="47.24213" lon="-1.55588">
        <ele>12.142628669739</ele>
        <time>2016-11-22T08:36:32.000Z</time>
      </trkpt>
      <trkpt lat="47.24212" lon="-1.55591">
        <ele>12.236976623535</ele>
        <time>2016-11-22T08:36:34.000Z</time>
      </trkpt>
      <trkpt lat="47.24211" lon="-1.55594">
        <ele>12.325669288635</ele>
        <time>2016-11-22T08:36:36.000Z</time>
      </trkpt>
      <trkpt lat="47.2421" lon="-1.55598">
        <ele>12.406140327454</ele>
        <time>2016-11-22T08:36:39.000Z</time>
      </trkpt>
      <trkpt lat="47.24209" lon="-1.55602">
        <ele>12.472828865051</ele>
        <time>2016-11-22T08:36:41.000Z</time>
      </trkpt>
      <trkpt lat="47.24208" lon="-1.55604">
        <ele>12.524385452271</ele>
        <time>2016-11-22T08:36:43.000Z</time>
      </trkpt>
      <trkpt lat="47.24206" lon="-1.55607">
        <ele>12.585269927979</ele>
        <time>2016-11-22T08:36:46.000Z</time>
      </trkpt>
      <trkpt lat="47.24202" lon="-1.55608">
        <ele>12.661555290222</ele>
        <time>2016-11-22T08:36:49.000Z</time>
      </trkpt>
      <trkpt lat="47.24202" lon="-1.55614">
        <ele>12.730236053467</ele>
        <time>2016-11-22T08:36:52.000Z</time>
      </trkpt>
      <trkpt lat="47.24203" lon="-1.55622">
        <ele>12.792062759399</ele>
        <time>2016-11-22T08:36:55.000Z</time>
      </trkpt>
      <trkpt lat="47.24204" lon="-1.55625">
        <ele>12.843812942505</ele>
        <time>2016-11-22T08:36:57.000Z</time>
      </trkpt>
      <trkpt lat="47.24206" lon="-1.55627">
        <ele>12.867029190063</ele>
        <time>2016-11-22T08:36:59.000Z</time>
      </trkpt>
      <trkpt lat="47.24209" lon="-1.55632">
        <ele>12.849538803101</ele>
        <time>2016-11-22T08:37:02.000Z</time>
      </trkpt>
      <trkpt lat="47.24213" lon="-1.55635">
        <ele>12.810193061829</ele>
        <time>2016-11-22T08:37:04.000Z</time>
      </trkpt>
      <trkpt lat="47.24216" lon="-1.55637">
        <ele>12.755692481995</ele>
        <time>2016-11-22T08:37:07.000Z</time>
      </trkpt>
      <trkpt lat="47.24218" lon="-1.55639">
        <ele>12.69545173645</ele>
        <time>2016-11-22T08:37:09.000Z</time>
      </trkpt>
      <trkpt lat="47.2422" lon="-1.5564">
        <ele>12.632124900818</ele>
        <time>2016-11-22T08:37:11.000Z</time>
      </trkpt>
      <trkpt lat="47.24223" lon="-1.55641">
        <ele>12.570539474487</ele>
        <time>2016-11-22T08:37:14.000Z</time>
      </trkpt>
      <trkpt lat="47.24224" lon="-1.55643">
        <ele>12.517155647278</ele>
        <time>2016-11-22T08:37:17.000Z</time>
      </trkpt>
      <trkpt lat="47.24226" lon="-1.55646">
        <ele>12.47594833374</ele>
        <time>2016-11-22T08:37:19.000Z</time>
      </trkpt>
      <trkpt lat="47.24226" lon="-1.55649">
        <ele>12.442681312561</ele>
        <time>2016-11-22T08:37:21.000Z</time>
      </trkpt>
      <trkpt lat="47.24227" lon="-1.55651">
        <ele>12.419872283936</ele>
        <time>2016-11-22T08:37:23.000Z</time>
      </trkpt>
      <trkpt lat="47.24228" lon="-1.55655">
        <ele>12.415312767029</ele>
        <time>2016-11-22T08:37:25.000Z</time>
      </trkpt>
      <trkpt lat="47.24228" lon="-1.55661">
        <ele>12.426005363464</ele>
        <time>2016-11-22T08:37:28.000Z</time>
      </trkpt>
      <trkpt lat="47.24228" lon="-1.55664">
        <ele>12.446039199829</ele>
        <time>2016-11-22T08:37:30.000Z</time>
      </trkpt>
      <trkpt lat="47.24229" lon="-1.55669">
        <ele>12.464138031006</ele>
        <time>2016-11-22T08:37:32.000Z</time>
      </trkpt>
      <trkpt lat="47.24229" lon="-1.55672">
        <ele>12.472994804382</ele>
        <time>2016-11-22T08:37:34.000Z</time>
      </trkpt>
      <trkpt lat="47.2423" lon="-1.55678">
        <ele>12.462592124939</ele>
        <time>2016-11-22T08:37:37.000Z</time>
      </trkpt>
      <trkpt lat="47.2423" lon="-1.55684">
        <ele>12.429334640503</ele>
        <time>2016-11-22T08:37:40.000Z</time>
      </trkpt>
      <trkpt lat="47.2423" lon="-1.55688">
        <ele>12.382745742798</ele>
        <time>2016-11-22T08:37:42.000Z</time>
      </trkpt>
      <trkpt lat="47.24231" lon="-1.55693">
        <ele>12.324148178101</ele>
        <time>2016-11-22T08:37:45.000Z</time>
      </trkpt>
      <trkpt lat="47.24231" lon="-1.55697">
        <ele>12.265050888062</ele>
        <time>2016-11-22T08:37:47.000Z</time>
      </trkpt>
      <trkpt lat="47.24231" lon="-1.55704">
        <ele>12.207669258118</ele>
        <time>2016-11-22T08:37:50.000Z</time>
      </trkpt>
      <trkpt lat="47.24231" lon="-1.55708">
        <ele>12.153714179993</ele>
        <time>2016-11-22T08:37:52.000Z</time>
      </trkpt>
      <trkpt lat="47.24231" lon="-1.55712">
        <ele>12.096786499023</ele>
        <time>2016-11-22T08:37:55.000Z</time>
      </trkpt>
      <trkpt lat="47.24231" lon="-1.55717">
        <ele>12.04248714447</ele>
        <time>2016-11-22T08:37:58.000Z</time>
      </trkpt>
      <trkpt lat="47.2423" lon="-1.55721">
        <ele>12.00021648407</ele>
        <time>2016-11-22T08:38:00.000Z</time>
      </trkpt>
      <trkpt lat="47.24229" lon="-1.55728">
        <ele>11.980047225952</ele>
        <time>2016-11-22T08:38:03.000Z</time>
      </trkpt>
      <trkpt lat="47.24229" lon="-1.55732">
        <ele>11.965269088745</ele>
        <time>2016-11-22T08:38:05.000Z</time>
      </trkpt>
      <trkpt lat="47.2423" lon="-1.55736">
        <ele>11.934803962708</ele>
        <time>2016-11-22T08:38:08.000Z</time>
      </trkpt>
      <trkpt lat="47.24232" lon="-1.5574">
        <ele>11.868860244751</ele>
        <time>2016-11-22T08:38:11.000Z</time>
      </trkpt>
      <trkpt lat="47.24234" lon="-1.55743">
        <ele>11.76111125946</ele>
        <time>2016-11-22T08:38:13.000Z</time>
      </trkpt>
      <trkpt lat="47.24236" lon="-1.55749">
        <ele>11.597197532654</ele>
        <time>2016-11-22T08:38:16.000Z</time>
      </trkpt>
      <trkpt lat="47.24238" lon="-1.55752">
        <ele>11.400784492493</ele>
        <time>2016-11-22T08:38:18.000Z</time>
      </trkpt>
      <trkpt lat="47.2424" lon="-1.55756">
        <ele>11.201499938965</ele>
        <time>2016-11-22T08:38:20.000Z</time>
      </trkpt>
      <trkpt lat="47.2424" lon="-1.55761">
        <ele>11.040185928345</ele>
        <time>2016-11-22T08:38:22.000Z</time>
      </trkpt>
      <trkpt lat="47.24241" lon="-1.55767">
        <ele>10.902908325195</ele>
        <time>2016-11-22T08:38:25.000Z</time>
      </trkpt>
      <trkpt lat="47.24241" lon="-1.55772">
        <ele>10.811616897583</ele>
        <time>2016-11-22T08:38:28.000Z</time>
      </trkpt>
      <trkpt lat="47.24241" lon="-1.55774">
        <ele>10.765008926392</ele>
        <time>2016-11-22T08:38:30.000Z</time>
      </trkpt>
      <trkpt lat="47.2424" lon="-1.55778">
        <ele>10.75871181488</ele>
        <time>2016-11-22T08:38:32.000Z</time>
      </trkpt>
      <trkpt lat="47.24239" lon="-1.55781">
        <ele>10.779211044312</ele>
        <time>2016-11-22T08:38:34.000Z</time>
      </trkpt>
      <trkpt lat="47.24237" lon="-1.55784">
        <ele>10.832669258118</ele>
        <time>2016-11-22T08:38:36.000Z</time>
      </trkpt>
      <trkpt lat="47.24238" lon="-1.5579">
        <ele>10.87882232666</ele>
        <time>2016-11-22T08:38:39.000Z</time>
      </trkpt>
      <trkpt lat="47.24239" lon="-1.55794">
        <ele>10.905046463013</ele>
        <time>2016-11-22T08:38:41.000Z</time>
      </trkpt>
      <trkpt lat="47.24239" lon="-1.55798">
        <ele>10.905394554138</ele>
        <time>2016-11-22T08:38:43.000Z</time>
      </trkpt>
      <trkpt lat="47.2424" lon="-1.55805">
        <ele>10.872582435608</ele>
        <time>2016-11-22T08:38:46.000Z</time>
      </trkpt>
      <trkpt lat="47.24242" lon="-1.5581">
        <ele>10.801938056946</ele>
        <time>2016-11-22T08:38:48.000Z</time>
      </trkpt>
      <trkpt lat="47.24242" lon="-1.55816">
        <ele>10.732248306274</ele>
        <time>2016-11-22T08:38:51.000Z</time>
      </trkpt>
      <trkpt lat="47.24242" lon="-1.55825">
        <ele>10.674592971802</ele>
        <time>2016-11-22T08:38:54.000Z</time>
      </trkpt>
      <trkpt lat="47.24242" lon="-1.55829">
        <ele>10.623956680298</ele>
        <time>2016-11-22T08:38:56.000Z</time>
      </trkpt>
      <trkpt lat="47.24243" lon="-1.55832">
        <ele>10.581268310547</ele>
        <time>2016-11-22T08:38:58.000Z</time>
      </trkpt>
      <trkpt lat="47.24244" lon="-1.55835">
        <ele>10.547088623047</ele>
        <time>2016-11-22T08:39:00.000Z</time>
      </trkpt>
      <trkpt lat="47.24244" lon="-1.55839">
        <ele>10.509721755981</ele>
        <time>2016-11-22T08:39:02.000Z</time>
      </trkpt>
      <trkpt lat="47.24245" lon="-1.55842">
        <ele>10.469262123108</ele>
        <time>2016-11-22T08:39:04.000Z</time>
      </trkpt>
      <trkpt lat="47.24246" lon="-1.55845">
        <ele>10.412118911743</ele>
        <time>2016-11-22T08:39:06.000Z</time>
      </trkpt>
      <trkpt lat="47.24247" lon="-1.55849">
        <ele>10.349945068359</ele>
        <time>2016-11-22T08:39:08.000Z</time>
      </trkpt>
      <trkpt lat="47.24248" lon="-1.55856">
        <ele>10.287258148193</ele>
        <time>2016-11-22T08:39:11.000Z</time>
      </trkpt>
      <trkpt lat="47.24249" lon="-1.55863">
        <ele>10.229571342468</ele>
        <time>2016-11-22T08:39:14.000Z</time>
      </trkpt>
      <trkpt lat="47.2425" lon="-1.55869">
        <ele>10.153265953064</ele>
        <time>2016-11-22T08:39:17.000Z</time>
      </trkpt>
      <trkpt lat="47.2425" lon="-1.55875">
        <ele>10.100496292114</ele>
        <time>2016-11-22T08:39:20.000Z</time>
      </trkpt>
      <trkpt lat="47.24251" lon="-1.55879">
        <ele>10.078557014465</ele>
        <time>2016-11-22T08:39:23.000Z</time>
      </trkpt>
      <trkpt lat="47.24252" lon="-1.55882">
        <ele>10.081330299377</ele>
        <time>2016-11-22T08:39:26.000Z</time>
      </trkpt>
      <trkpt lat="47.24253" lon="-1.55887">
        <ele>10.096662521362</ele>
        <time>2016-11-22T08:39:28.000Z</time>
      </trkpt>
      <trkpt lat="47.24253" lon="-1.55891">
        <ele>10.13595867157</ele>
        <time>2016-11-22T08:39:30.000Z</time>
      </trkpt>
      <trkpt lat="47.24253" lon="-1.55896">
        <ele>10.175595283508</ele>
        <time>2016-11-22T08:39:32.000Z</time>
      </trkpt>
      <trkpt lat="47.24253" lon="-1.55903">
        <ele>10.209840774536</ele>
        <time>2016-11-22T08:39:35.000Z</time>
      </trkpt>
      <trkpt lat="47.24254" lon="-1.55908">
        <ele>10.238381385803</ele>
        <time>2016-11-22T08:39:38.000Z</time>
      </trkpt>
      <trkpt lat="47.24255" lon="-1.55914">
        <ele>10.281197547913</ele>
        <time>2016-11-22T08:39:41.000Z</time>
      </trkpt>
      <trkpt lat="47.24255" lon="-1.55918">
        <ele>10.34149646759</ele>
        <time>2016-11-22T08:39:43.000Z</time>
      </trkpt>
      <trkpt lat="47.24256" lon="-1.55923">
        <ele>10.47071647644</ele>
        <time>2016-11-22T08:39:46.000Z</time>
      </trkpt>
      <trkpt lat="47.24257" lon="-1.55927">
        <ele>10.649251937866</ele>
        <time>2016-11-22T08:39:48.000Z</time>
      </trkpt>
      <trkpt lat="47.24259" lon="-1.55933">
        <ele>10.900873184204</ele>
        <time>2016-11-22T08:39:51.000Z</time>
      </trkpt>
      <trkpt lat="47.24258" lon="-1.55938">
        <ele>11.187191963196</ele>
        <time>2016-11-22T08:39:53.000Z</time>
      </trkpt>
      <trkpt lat="47.24258" lon="-1.55943">
        <ele>11.499186515808</ele>
        <time>2016-11-22T08:39:55.000Z</time>
      </trkpt>
      <trkpt lat="47.24258" lon="-1.55949">
        <ele>11.809055328369</ele>
        <time>2016-11-22T08:39:58.000Z</time>
      </trkpt>
      <trkpt lat="47.24259" lon="-1.55952">
        <ele>12.087607383728</ele>
        <time>2016-11-22T08:40:00.000Z</time>
      </trkpt>
      <trkpt lat="47.24259" lon="-1.55958">
        <ele>12.354545593262</ele>
        <time>2016-11-22T08:40:03.000Z</time>
      </trkpt>
      <trkpt lat="47.24259" lon="-1.55962">
        <ele>12.605108261108</ele>
        <time>2016-11-22T08:40:05.000Z</time>
      </trkpt>
      <trkpt lat="47.24258" lon="-1.55966">
        <ele>12.852663040161</ele>
        <time>2016-11-22T08:40:07.000Z</time>
      </trkpt>
      <trkpt lat="47.24258" lon="-1.55973">
        <ele>13.108171463013</ele>
        <time>2016-11-22T08:40:10.000Z</time>
      </trkpt>
      <trkpt lat="47.2426" lon="-1.55977">
        <ele>13.379964828491</ele>
        <time>2016-11-22T08:40:12.000Z</time>
      </trkpt>
      <trkpt lat="47.24261" lon="-1.55981">
        <ele>13.630186080933</ele>
        <time>2016-11-22T08:40:14.000Z</time>
      </trkpt>
      <trkpt lat="47.24263" lon="-1.55986">
        <ele>13.907424926758</ele>
        <time>2016-11-22T08:40:17.000Z</time>
      </trkpt>
      <trkpt lat="47.24265" lon="-1.55993">
        <ele>14.218635559082</ele>
        <time>2016-11-22T08:40:20.000Z</time>
      </trkpt>
      <trkpt lat="47.24266" lon="-1.55998">
        <ele>14.499450683594</ele>
        <time>2016-11-22T08:40:22.000Z</time>
      </trkpt>
      <trkpt lat="47.24266" lon="-1.56002">
        <ele>14.769764900208</ele>
        <time>2016-11-22T08:40:24.000Z</time>
      </trkpt>
      <trkpt lat="47.24268" lon="-1.56008">
        <ele>15.028137207031</ele>
        <time>2016-11-22T08:40:27.000Z</time>
      </trkpt>
      <trkpt lat="47.24269" lon="-1.5601">
        <ele>15.23562335968</ele>
        <time>2016-11-22T08:40:29.000Z</time>
      </trkpt>
      <trkpt lat="47.24271" lon="-1.56014">
        <ele>15.388363838196</ele>
        <time>2016-11-22T08:40:31.000Z</time>
      </trkpt>
      <trkpt lat="47.24271" lon="-1.56018">
        <ele>15.51869392395</ele>
        <time>2016-11-22T08:40:33.000Z</time>
      </trkpt>
      <trkpt lat="47.24273" lon="-1.56025">
        <ele>15.643536567688</ele>
        <time>2016-11-22T08:40:36.000Z</time>
      </trkpt>
      <trkpt lat="47.24273" lon="-1.56028">
        <ele>15.750045776367</ele>
        <time>2016-11-22T08:40:38.000Z</time>
      </trkpt>
      <trkpt lat="47.24274" lon="-1.56033">
        <ele>15.860000610352</ele>
        <time>2016-11-22T08:40:40.000Z</time>
      </trkpt>
      <trkpt lat="47.24275" lon="-1.56039">
        <ele>15.972317695618</ele>
        <time>2016-11-22T08:40:43.000Z</time>
      </trkpt>
      <trkpt lat="47.24274" lon="-1.56041">
        <ele>16.082168579102</ele>
        <time>2016-11-22T08:40:45.000Z</time>
      </trkpt>
      <trkpt lat="47.24272" lon="-1.56043">
        <ele>16.18292427063</ele>
        <time>2016-11-22T08:40:47.000Z</time>
      </trkpt>
      <trkpt lat="47.2427" lon="-1.56045">
        <ele>16.28532409668</ele>
        <time>2016-11-22T08:40:49.000Z</time>
      </trkpt>
      <trkpt lat="47.24268" lon="-1.56046">
        <ele>16.38835144043</ele>
        <time>2016-11-22T08:40:51.000Z</time>
      </trkpt>
      <trkpt lat="47.24267" lon="-1.56047">
        <ele>16.487243652344</ele>
        <time>2016-11-22T08:40:53.000Z</time>
      </trkpt>
      <trkpt lat="47.24267" lon="-1.56053">
        <ele>16.596248626709</ele>
        <time>2016-11-22T08:40:56.000Z</time>
      </trkpt>
      <trkpt lat="47.24269" lon="-1.56057">
        <ele>16.687602996826</ele>
        <time>2016-11-22T08:40:59.000Z</time>
      </trkpt>
      <trkpt lat="47.2427" lon="-1.56059">
        <ele>16.767337799072</ele>
        <time>2016-11-22T08:41:01.000Z</time>
      </trkpt>
      <trkpt lat="47.24271" lon="-1.56063">
        <ele>16.840835571289</ele>
        <time>2016-11-22T08:41:04.000Z</time>
      </trkpt>
      <trkpt lat="47.24271" lon="-1.56069">
        <ele>16.9215965271</ele>
        <time>2016-11-22T08:41:07.000Z</time>
      </trkpt>
      <trkpt lat="47.24273" lon="-1.56074">
        <ele>16.981380462646</ele>
        <time>2016-11-22T08:41:10.000Z</time>
      </trkpt>
      <trkpt lat="47.24274" lon="-1.56078">
        <ele>17.037179946899</ele>
        <time>2016-11-22T08:41:12.000Z</time>
      </trkpt>
      <trkpt lat="47.24275" lon="-1.56081">
        <ele>17.086528778076</ele>
        <time>2016-11-22T08:41:15.000Z</time>
      </trkpt>
      <trkpt lat="47.24276" lon="-1.56083">
        <ele>17.119426727295</ele>
        <time>2016-11-22T08:41:17.000Z</time>
      </trkpt>
      <trkpt lat="47.24278" lon="-1.56087">
        <ele>17.144420623779</ele>
        <time>2016-11-22T08:41:19.000Z</time>
      </trkpt>
      <trkpt lat="47.2428" lon="-1.56091">
        <ele>17.181293487549</ele>
        <time>2016-11-22T08:41:22.000Z</time>
      </trkpt>
      <trkpt lat="47.24283" lon="-1.56096">
        <ele>17.230709075928</ele>
        <time>2016-11-22T08:41:25.000Z</time>
      </trkpt>
      <trkpt lat="47.24287" lon="-1.561">
        <ele>17.272521972656</ele>
        <time>2016-11-22T08:41:28.000Z</time>
      </trkpt>
      <trkpt lat="47.2429" lon="-1.56105">
        <ele>17.3271484375</ele>
        <time>2016-11-22T08:41:31.000Z</time>
      </trkpt>
      <trkpt lat="47.24294" lon="-1.56111">
        <ele>17.385192871094</ele>
        <time>2016-11-22T08:41:34.000Z</time>
      </trkpt>
      <trkpt lat="47.24295" lon="-1.56115">
        <ele>17.460357666016</ele>
        <time>2016-11-22T08:41:36.000Z</time>
      </trkpt>
      <trkpt lat="47.24296" lon="-1.56118">
        <ele>17.541931152344</ele>
        <time>2016-11-22T08:41:38.000Z</time>
      </trkpt>
      <trkpt lat="47.24297" lon="-1.5612">
        <ele>17.646362304688</ele>
        <time>2016-11-22T08:41:40.000Z</time>
      </trkpt>
      <trkpt lat="47.24298" lon="-1.56123">
        <ele>17.746002197266</ele>
        <time>2016-11-22T08:41:43.000Z</time>
      </trkpt>
      <trkpt lat="47.24302" lon="-1.56126">
        <ele>17.823883056641</ele>
        <time>2016-11-22T08:41:46.000Z</time>
      </trkpt>
      <trkpt lat="47.24303" lon="-1.56131">
        <ele>17.892639160156</ele>
        <time>2016-11-22T08:41:49.000Z</time>
      </trkpt>
      <trkpt lat="47.24306" lon="-1.56134">
        <ele>17.935668945312</ele>
        <time>2016-11-22T08:41:51.000Z</time>
      </trkpt>
      <trkpt lat="47.2431" lon="-1.56137">
        <ele>17.953704833984</ele>
        <time>2016-11-22T08:41:54.000Z</time>
      </trkpt>
      <trkpt lat="47.24312" lon="-1.5614">
        <ele>17.964202880859</ele>
        <time>2016-11-22T08:41:56.000Z</time>
      </trkpt>
      <trkpt lat="47.24314" lon="-1.56144">
        <ele>17.993286132812</ele>
        <time>2016-11-22T08:41:59.000Z</time>
      </trkpt>
      <trkpt lat="47.24315" lon="-1.56146">
        <ele>18.004333496094</ele>
        <time>2016-11-22T08:42:02.000Z</time>
      </trkpt>
      <trkpt lat="47.24316" lon="-1.56149">
        <ele>18.033569335938</ele>
        <time>2016-11-22T08:42:04.000Z</time>
      </trkpt>
      <trkpt lat="47.24318" lon="-1.56151">
        <ele>18.078521728516</ele>
        <time>2016-11-22T08:42:06.000Z</time>
      </trkpt>
      <trkpt lat="47.24321" lon="-1.56154">
        <ele>18.124694824219</ele>
        <time>2016-11-22T08:42:09.000Z</time>
      </trkpt>
      <trkpt lat="47.24322" lon="-1.56155">
        <ele>18.144287109375</ele>
        <time>2016-11-22T08:42:11.000Z</time>
      </trkpt>
      <trkpt lat="47.24325" lon="-1.56156">
        <ele>18.120544433594</ele>
        <time>2016-11-22T08:42:13.000Z</time>
      </trkpt>
      <trkpt lat="47.24327" lon="-1.5616">
        <ele>18.095703125</ele>
        <time>2016-11-22T08:42:16.000Z</time>
      </trkpt>
      <trkpt lat="47.2433" lon="-1.56163">
        <ele>18.057098388672</ele>
        <time>2016-11-22T08:42:18.000Z</time>
      </trkpt>
      <trkpt lat="47.24333" lon="-1.56166">
        <ele>18.012176513672</ele>
        <time>2016-11-22T08:42:20.000Z</time>
      </trkpt>
      <trkpt lat="47.24336" lon="-1.56169">
        <ele>17.992443084717</ele>
        <time>2016-11-22T08:42:22.000Z</time>
      </trkpt>
      <trkpt lat="47.2434" lon="-1.56174">
        <ele>18.047983169556</ele>
        <time>2016-11-22T08:42:25.000Z</time>
      </trkpt>
      <trkpt lat="47.24342" lon="-1.56177">
        <ele>18.121936798096</ele>
        <time>2016-11-22T08:42:27.000Z</time>
      </trkpt>
      <trkpt lat="47.24347" lon="-1.56182">
        <ele>18.229827880859</ele>
        <time>2016-11-22T08:42:30.000Z</time>
      </trkpt>
      <trkpt lat="47.24348" lon="-1.56185">
        <ele>18.366661071777</ele>
        <time>2016-11-22T08:42:32.000Z</time>
      </trkpt>
      <trkpt lat="47.2435" lon="-1.5619">
        <ele>18.537525177002</ele>
        <time>2016-11-22T08:42:35.000Z</time>
      </trkpt>
      <trkpt lat="47.24352" lon="-1.56194">
        <ele>18.695104598999</ele>
        <time>2016-11-22T08:42:38.000Z</time>
      </trkpt>
      <trkpt lat="47.24353" lon="-1.56198">
        <ele>18.857889175415</ele>
        <time>2016-11-22T08:42:40.000Z</time>
      </trkpt>
      <trkpt lat="47.24357" lon="-1.56202">
        <ele>18.997789382935</ele>
        <time>2016-11-22T08:42:43.000Z</time>
      </trkpt>
      <trkpt lat="47.2436" lon="-1.56203">
        <ele>19.090623855591</ele>
        <time>2016-11-22T08:42:45.000Z</time>
      </trkpt>
      <trkpt lat="47.24364" lon="-1.56208">
        <ele>19.133518218994</ele>
        <time>2016-11-22T08:42:48.000Z</time>
      </trkpt>
      <trkpt lat="47.24366" lon="-1.56211">
        <ele>19.145620346069</ele>
        <time>2016-11-22T08:42:50.000Z</time>
      </trkpt>
      <trkpt lat="47.24369" lon="-1.56216">
        <ele>19.127019882202</ele>
        <time>2016-11-22T08:42:53.000Z</time>
      </trkpt>
      <trkpt lat="47.24371" lon="-1.56219">
        <ele>19.106948852539</ele>
        <time>2016-11-22T08:42:55.000Z</time>
      </trkpt>
      <trkpt lat="47.24374" lon="-1.56222">
        <ele>19.095676422119</ele>
        <time>2016-11-22T08:42:57.000Z</time>
      </trkpt>
      <trkpt lat="47.24377" lon="-1.56225">
        <ele>19.058218002319</ele>
        <time>2016-11-22T08:43:00.000Z</time>
      </trkpt>
      <trkpt lat="47.24379" lon="-1.56228">
        <ele>19.030927658081</ele>
        <time>2016-11-22T08:43:02.000Z</time>
      </trkpt>
      <trkpt lat="47.24381" lon="-1.56235">
        <ele>19.038105010986</ele>
        <time>2016-11-22T08:43:05.000Z</time>
      </trkpt>
      <trkpt lat="47.24382" lon="-1.56241">
        <ele>19.068653106689</ele>
        <time>2016-11-22T08:43:08.000Z</time>
      </trkpt>
      <trkpt lat="47.24383" lon="-1.56248">
        <ele>19.165958404541</ele>
        <time>2016-11-22T08:43:11.000Z</time>
      </trkpt>
      <trkpt lat="47.24383" lon="-1.56253">
        <ele>19.30521774292</ele>
        <time>2016-11-22T08:43:13.000Z</time>
      </trkpt>
      <trkpt lat="47.24384" lon="-1.56256">
        <ele>19.414525985718</ele>
        <time>2016-11-22T08:43:15.000Z</time>
      </trkpt>
      <trkpt lat="47.24384" lon="-1.5626">
        <ele>19.472696304321</ele>
        <time>2016-11-22T08:43:17.000Z</time>
      </trkpt>
      <trkpt lat="47.24384" lon="-1.56265">
        <ele>19.509260177612</ele>
        <time>2016-11-22T08:43:20.000Z</time>
      </trkpt>
      <trkpt lat="47.24383" lon="-1.56271">
        <ele>19.507953643799</ele>
        <time>2016-11-22T08:43:23.000Z</time>
      </trkpt>
      <trkpt lat="47.24382" lon="-1.56273">
        <ele>19.513284683228</ele>
        <time>2016-11-22T08:43:25.000Z</time>
      </trkpt>
      <trkpt lat="47.2438" lon="-1.56278">
        <ele>19.560501098633</ele>
        <time>2016-11-22T08:43:27.000Z</time>
      </trkpt>
      <trkpt lat="47.24379" lon="-1.56284">
        <ele>19.647777557373</ele>
        <time>2016-11-22T08:43:30.000Z</time>
      </trkpt>
      <trkpt lat="47.24378" lon="-1.56288">
        <ele>19.750738143921</ele>
        <time>2016-11-22T08:43:33.000Z</time>
      </trkpt>
      <trkpt lat="47.24377" lon="-1.56292">
        <ele>19.854778289795</ele>
        <time>2016-11-22T08:43:35.000Z</time>
      </trkpt>
      <trkpt lat="47.24377" lon="-1.56298">
        <ele>19.93736076355</ele>
        <time>2016-11-22T08:43:38.000Z</time>
      </trkpt>
      <trkpt lat="47.24376" lon="-1.56301">
        <ele>20.003845214844</ele>
        <time>2016-11-22T08:43:40.000Z</time>
      </trkpt>
      <trkpt lat="47.24376" lon="-1.56305">
        <ele>20.046001434326</ele>
        <time>2016-11-22T08:43:43.000Z</time>
      </trkpt>
      <trkpt lat="47.24375" lon="-1.56308">
        <ele>20.08917427063</ele>
        <time>2016-11-22T08:43:45.000Z</time>
      </trkpt>
      <trkpt lat="47.24374" lon="-1.56312">
        <ele>20.130605697632</ele>
        <time>2016-11-22T08:43:47.000Z</time>
      </trkpt>
      <trkpt lat="47.24374" lon="-1.56319">
        <ele>20.162069320679</ele>
        <time>2016-11-22T08:43:50.000Z</time>
      </trkpt>
      <trkpt lat="47.24373" lon="-1.56325">
        <ele>20.196975708008</ele>
        <time>2016-11-22T08:43:53.000Z</time>
      </trkpt>
      <trkpt lat="47.24371" lon="-1.56333">
        <ele>20.257678985596</ele>
        <time>2016-11-22T08:43:56.000Z</time>
      </trkpt>
      <trkpt lat="47.24369" lon="-1.56342">
        <ele>20.352756500244</ele>
        <time>2016-11-22T08:43:59.000Z</time>
      </trkpt>
      <trkpt lat="47.24368" lon="-1.5635">
        <ele>20.452020645142</ele>
        <time>2016-11-22T08:44:02.000Z</time>
      </trkpt>
      <trkpt lat="47.24368" lon="-1.56355">
        <ele>20.557964324951</ele>
        <time>2016-11-22T08:44:05.000Z</time>
      </trkpt>
      <trkpt lat="47.24369" lon="-1.56359">
        <ele>20.660089492798</ele>
        <time>2016-11-22T08:44:07.000Z</time>
      </trkpt>
      <trkpt lat="47.24369" lon="-1.56363">
        <ele>20.721328735352</ele>
        <time>2016-11-22T08:44:09.000Z</time>
      </trkpt>
      <trkpt lat="47.24371" lon="-1.56367">
        <ele>20.702493667603</ele>
        <time>2016-11-22T08:44:12.000Z</time>
      </trkpt>
      <trkpt lat="47.24373" lon="-1.56372">
        <ele>20.63649559021</ele>
        <time>2016-11-22T08:44:15.000Z</time>
      </trkpt>
      <trkpt lat="47.24374" lon="-1.56375">
        <ele>20.554393768311</ele>
        <time>2016-11-22T08:44:17.000Z</time>
      </trkpt>
      <trkpt lat="47.24373" lon="-1.56381">
        <ele>20.489511489868</ele>
        <time>2016-11-22T08:44:20.000Z</time>
      </trkpt>
      <trkpt lat="47.24372" lon="-1.56388">
        <ele>20.457744598389</ele>
        <time>2016-11-22T08:44:23.000Z</time>
      </trkpt>
      <trkpt lat="47.24372" lon="-1.56391">
        <ele>20.469022750854</ele>
        <time>2016-11-22T08:44:25.000Z</time>
      </trkpt>
      <trkpt lat="47.24371" lon="-1.56396">
        <ele>20.539073944092</ele>
        <time>2016-11-22T08:44:28.000Z</time>
      </trkpt>
      <trkpt lat="47.2437" lon="-1.56402">
        <ele>20.640964508057</ele>
        <time>2016-11-22T08:44:31.000Z</time>
      </trkpt>
      <trkpt lat="47.24369" lon="-1.56408">
        <ele>20.75509262085</ele>
        <time>2016-11-22T08:44:34.000Z</time>
      </trkpt>
      <trkpt lat="47.24367" lon="-1.56414">
        <ele>20.874042510986</ele>
        <time>2016-11-22T08:44:37.000Z</time>
      </trkpt>
      <trkpt lat="47.24365" lon="-1.56421">
        <ele>21.015005111694</ele>
        <time>2016-11-22T08:44:40.000Z</time>
      </trkpt>
      <trkpt lat="47.24363" lon="-1.56425">
        <ele>21.153203964233</ele>
        <time>2016-11-22T08:44:42.000Z</time>
      </trkpt>
      <trkpt lat="47.24362" lon="-1.56428">
        <ele>21.295665740967</ele>
        <time>2016-11-22T08:44:44.000Z</time>
      </trkpt>
      <trkpt lat="47.24361" lon="-1.56431">
        <ele>21.422771453857</ele>
        <time>2016-11-22T08:44:46.000Z</time>
      </trkpt>
      <trkpt lat="47.24358" lon="-1.56436">
        <ele>21.575969696045</ele>
        <time>2016-11-22T08:44:49.000Z</time>
      </trkpt>
      <trkpt lat="47.24355" lon="-1.5644">
        <ele>21.722003936768</ele>
        <time>2016-11-22T08:44:51.000Z</time>
      </trkpt>
      <trkpt lat="47.24352" lon="-1.56446">
        <ele>21.897678375244</ele>
        <time>2016-11-22T08:44:54.000Z</time>
      </trkpt>
      <trkpt lat="47.24351" lon="-1.5645">
        <ele>22.074966430664</ele>
        <time>2016-11-22T08:44:56.000Z</time>
      </trkpt>
      <trkpt lat="47.2435" lon="-1.56453">
        <ele>22.24654006958</ele>
        <time>2016-11-22T08:44:59.000Z</time>
      </trkpt>
      <trkpt lat="47.2435" lon="-1.56459">
        <ele>22.36999130249</ele>
        <time>2016-11-22T08:45:02.000Z</time>
      </trkpt>
      <trkpt lat="47.2435" lon="-1.56464">
        <ele>22.450654983521</ele>
        <time>2016-11-22T08:45:05.000Z</time>
      </trkpt>
      <trkpt lat="47.24351" lon="-1.56469">
        <ele>22.467655181885</ele>
        <time>2016-11-22T08:45:08.000Z</time>
      </trkpt>
      <trkpt lat="47.24353" lon="-1.56472">
        <ele>22.418617248535</ele>
        <time>2016-11-22T08:45:11.000Z</time>
      </trkpt>
      <trkpt lat="47.24355" lon="-1.56477">
        <ele>22.309078216553</ele>
        <time>2016-11-22T08:45:14.000Z</time>
      </trkpt>
      <trkpt lat="47.24355" lon="-1.5648">
        <ele>22.192987442017</ele>
        <time>2016-11-22T08:45:16.000Z</time>
      </trkpt>
      <trkpt lat="47.24354" lon="-1.56487">
        <ele>22.105333328247</ele>
        <time>2016-11-22T08:45:19.000Z</time>
      </trkpt>
      <trkpt lat="47.24353" lon="-1.5649">
        <ele>22.048721313477</ele>
        <time>2016-11-22T08:45:21.000Z</time>
      </trkpt>
      <trkpt lat="47.24352" lon="-1.56494">
        <ele>22.067310333252</ele>
        <time>2016-11-22T08:45:24.000Z</time>
      </trkpt>
      <trkpt lat="47.24351" lon="-1.56497">
        <ele>22.147899627686</ele>
        <time>2016-11-22T08:45:26.000Z</time>
      </trkpt>
      <trkpt lat="47.2435" lon="-1.56499">
        <ele>22.244974136353</ele>
        <time>2016-11-22T08:45:28.000Z</time>
      </trkpt>
      <trkpt lat="47.24348" lon="-1.56505">
        <ele>22.354318618774</ele>
        <time>2016-11-22T08:45:31.000Z</time>
      </trkpt>
      <trkpt lat="47.24347" lon="-1.56508">
        <ele>22.473722457886</ele>
        <time>2016-11-22T08:45:33.000Z</time>
      </trkpt>
      <trkpt lat="47.24343" lon="-1.56513">
        <ele>22.626949310303</ele>
        <time>2016-11-22T08:45:36.000Z</time>
      </trkpt>
      <trkpt lat="47.24341" lon="-1.56515">
        <ele>22.805053710938</ele>
        <time>2016-11-22T08:45:38.000Z</time>
      </trkpt>
      <trkpt lat="47.24339" lon="-1.56519">
        <ele>23.0078125</ele>
        <time>2016-11-22T08:45:40.000Z</time>
      </trkpt>
      <trkpt lat="47.24338" lon="-1.56522">
        <ele>23.2109375</ele>
        <time>2016-11-22T08:45:42.000Z</time>
      </trkpt>
      <trkpt lat="47.24335" lon="-1.56528">
        <ele>23.421875</ele>
        <time>2016-11-22T08:45:45.000Z</time>
      </trkpt>
      <trkpt lat="47.24334" lon="-1.56534">
        <ele>23.6015625</ele>
        <time>2016-11-22T08:45:48.000Z</time>
      </trkpt>
      <trkpt lat="47.24334" lon="-1.56538">
        <ele>23.75</ele>
        <time>2016-11-22T08:45:50.000Z</time>
      </trkpt>
      <trkpt lat="47.24334" lon="-1.56543">
        <ele>23.84375</ele>
        <time>2016-11-22T08:45:53.000Z</time>
      </trkpt>
      <trkpt lat="47.24336" lon="-1.56547">
        <ele>23.875</ele>
        <time>2016-11-22T08:45:56.000Z</time>
      </trkpt>
      <trkpt lat="47.24337" lon="-1.56549">
        <ele>23.84375</ele>
        <time>2016-11-22T08:45:58.000Z</time>
      </trkpt>
      <trkpt lat="47.24339" lon="-1.56552">
        <ele>23.7578125</ele>
        <time>2016-11-22T08:46:00.000Z</time>
      </trkpt>
      <trkpt lat="47.24339" lon="-1.56554">
        <ele>23.6484375</ele>
        <time>2016-11-22T08:46:02.000Z</time>
      </trkpt>
      <trkpt lat="47.24342" lon="-1.5656">
        <ele>23.5078125</ele>
        <time>2016-11-22T08:46:05.000Z</time>
      </trkpt>
      <trkpt lat="47.24343" lon="-1.56563">
        <ele>23.359375</ele>
        <time>2016-11-22T08:46:07.000Z</time>
      </trkpt>
      <trkpt lat="47.24343" lon="-1.56568">
        <ele>23.234375</ele>
        <time>2016-11-22T08:46:09.000Z</time>
      </trkpt>
      <trkpt lat="47.24342" lon="-1.56575">
        <ele>23.171875</ele>
        <time>2016-11-22T08:46:12.000Z</time>
      </trkpt>
      <trkpt lat="47.24342" lon="-1.56579">
        <ele>23.1171875</ele>
        <time>2016-11-22T08:46:14.000Z</time>
      </trkpt>
      <trkpt lat="47.24342" lon="-1.56584">
        <ele>23.115154266357</ele>
        <time>2016-11-22T08:46:16.000Z</time>
      </trkpt>
      <trkpt lat="47.24342" lon="-1.56591">
        <ele>23.129083633423</ele>
        <time>2016-11-22T08:46:19.000Z</time>
      </trkpt>
      <trkpt lat="47.24342" lon="-1.56597">
        <ele>23.120458602905</ele>
        <time>2016-11-22T08:46:22.000Z</time>
      </trkpt>
      <trkpt lat="47.24343" lon="-1.56603">
        <ele>23.049884796143</ele>
        <time>2016-11-22T08:46:25.000Z</time>
      </trkpt>
      <trkpt lat="47.24344" lon="-1.56606">
        <ele>22.956359863281</ele>
        <time>2016-11-22T08:46:27.000Z</time>
      </trkpt>
      <trkpt lat="47.24344" lon="-1.56609">
        <ele>22.849700927734</ele>
        <time>2016-11-22T08:46:29.000Z</time>
      </trkpt>
      <trkpt lat="47.24344" lon="-1.56615">
        <ele>22.752868652344</ele>
        <time>2016-11-22T08:46:31.000Z</time>
      </trkpt>
      <trkpt lat="47.24345" lon="-1.56622">
        <ele>22.637969970703</ele>
        <time>2016-11-22T08:46:34.000Z</time>
      </trkpt>
      <trkpt lat="47.24346" lon="-1.56631">
        <ele>22.508483886719</ele>
        <time>2016-11-22T08:46:37.000Z</time>
      </trkpt>
      <trkpt lat="47.24345" lon="-1.56639">
        <ele>22.405578613281</ele>
        <time>2016-11-22T08:46:40.000Z</time>
      </trkpt>
      <trkpt lat="47.24345" lon="-1.56644">
        <ele>22.299438476562</ele>
        <time>2016-11-22T08:46:42.000Z</time>
      </trkpt>
      <trkpt lat="47.24347" lon="-1.56649">
        <ele>22.171051025391</ele>
        <time>2016-11-22T08:46:45.000Z</time>
      </trkpt>
      <trkpt lat="47.24347" lon="-1.56651">
        <ele>22.068664550781</ele>
        <time>2016-11-22T08:46:47.000Z</time>
      </trkpt>
      <trkpt lat="47.24348" lon="-1.56658">
        <ele>21.972106933594</ele>
        <time>2016-11-22T08:46:50.000Z</time>
      </trkpt>
      <trkpt lat="47.24348" lon="-1.56664">
        <ele>21.865753173828</ele>
        <time>2016-11-22T08:46:53.000Z</time>
      </trkpt>
      <trkpt lat="47.24347" lon="-1.56669">
        <ele>21.779022216797</ele>
        <time>2016-11-22T08:46:55.000Z</time>
      </trkpt>
      <trkpt lat="47.24346" lon="-1.56676">
        <ele>21.743438720703</ele>
        <time>2016-11-22T08:46:57.000Z</time>
      </trkpt>
      <trkpt lat="47.24346" lon="-1.56684">
        <ele>21.730285644531</ele>
        <time>2016-11-22T08:47:00.000Z</time>
      </trkpt>
      <trkpt lat="47.24346" lon="-1.5669">
        <ele>21.748779296875</ele>
        <time>2016-11-22T08:47:02.000Z</time>
      </trkpt>
      <trkpt lat="47.24347" lon="-1.56697">
        <ele>21.765625</ele>
        <time>2016-11-22T08:47:05.000Z</time>
      </trkpt>
      <trkpt lat="47.24347" lon="-1.56704">
        <ele>21.7734375</ele>
        <time>2016-11-22T08:47:08.000Z</time>
      </trkpt>
      <trkpt lat="47.24347" lon="-1.56709">
        <ele>21.75</ele>
        <time>2016-11-22T08:47:10.000Z</time>
      </trkpt>
      <trkpt lat="47.24348" lon="-1.56715">
        <ele>21.7109375</ele>
        <time>2016-11-22T08:47:13.000Z</time>
      </trkpt>
      <trkpt lat="47.24348" lon="-1.56719">
        <ele>21.65625</ele>
        <time>2016-11-22T08:47:15.000Z</time>
      </trkpt>
      <trkpt lat="47.2435" lon="-1.56723">
        <ele>21.5859375</ele>
        <time>2016-11-22T08:47:18.000Z</time>
      </trkpt>
      <trkpt lat="47.24352" lon="-1.56726">
        <ele>21.484375</ele>
        <time>2016-11-22T08:47:21.000Z</time>
      </trkpt>
      <trkpt lat="47.24353" lon="-1.56731">
        <ele>21.375</ele>
        <time>2016-11-22T08:47:23.000Z</time>
      </trkpt>
      <trkpt lat="47.24354" lon="-1.56734">
        <ele>21.25</ele>
        <time>2016-11-22T08:47:25.000Z</time>
      </trkpt>
      <trkpt lat="47.24355" lon="-1.5674">
        <ele>21.1171875</ele>
        <time>2016-11-22T08:47:28.000Z</time>
      </trkpt>
      <trkpt lat="47.24356" lon="-1.56744">
        <ele>21</ele>
        <time>2016-11-22T08:47:30.000Z</time>
      </trkpt>
      <trkpt lat="47.24356" lon="-1.56752">
        <ele>20.911045074463</ele>
        <time>2016-11-22T08:47:33.000Z</time>
      </trkpt>
      <trkpt lat="47.24356" lon="-1.56757">
        <ele>20.844127655029</ele>
        <time>2016-11-22T08:47:36.000Z</time>
      </trkpt>
      <trkpt lat="47.24356" lon="-1.56762">
        <ele>20.784114837646</ele>
        <time>2016-11-22T08:47:39.000Z</time>
      </trkpt>
      <trkpt lat="47.24358" lon="-1.56768">
        <ele>20.713994979858</ele>
        <time>2016-11-22T08:47:42.000Z</time>
      </trkpt>
      <trkpt lat="47.24357" lon="-1.56775">
        <ele>20.656084060669</ele>
        <time>2016-11-22T08:47:45.000Z</time>
      </trkpt>
      <trkpt lat="47.24358" lon="-1.56781">
        <ele>20.575231552124</ele>
        <time>2016-11-22T08:47:48.000Z</time>
      </trkpt>
      <trkpt lat="47.24358" lon="-1.56785">
        <ele>20.48881149292</ele>
        <time>2016-11-22T08:47:51.000Z</time>
      </trkpt>
      <trkpt lat="47.24359" lon="-1.56792">
        <ele>20.39319229126</ele>
        <time>2016-11-22T08:47:54.000Z</time>
      </trkpt>
      <trkpt lat="47.24358" lon="-1.56798">
        <ele>20.328720092773</ele>
        <time>2016-11-22T08:47:57.000Z</time>
      </trkpt>
      <trkpt lat="47.2436" lon="-1.56803">
        <ele>20.222953796387</ele>
        <time>2016-11-22T08:48:00.000Z</time>
      </trkpt>
      <trkpt lat="47.24363" lon="-1.56808">
        <ele>20.099479675293</ele>
        <time>2016-11-22T08:48:03.000Z</time>
      </trkpt>
      <trkpt lat="47.24364" lon="-1.56815">
        <ele>19.943920135498</ele>
        <time>2016-11-22T08:48:06.000Z</time>
      </trkpt>
      <trkpt lat="47.24365" lon="-1.56818">
        <ele>19.794170379639</ele>
        <time>2016-11-22T08:48:08.000Z</time>
      </trkpt>
      <trkpt lat="47.24367" lon="-1.56826">
        <ele>19.600625991821</ele>
        <time>2016-11-22T08:48:11.000Z</time>
      </trkpt>
      <trkpt lat="47.24368" lon="-1.56832">
        <ele>19.423402786255</ele>
        <time>2016-11-22T08:48:13.000Z</time>
      </trkpt>
      <trkpt lat="47.24369" lon="-1.56839">
        <ele>19.255475997925</ele>
        <time>2016-11-22T08:48:16.000Z</time>
      </trkpt>
      <trkpt lat="47.2437" lon="-1.56844">
        <ele>19.090753555298</ele>
        <time>2016-11-22T08:48:18.000Z</time>
      </trkpt>
      <trkpt lat="47.24371" lon="-1.56848">
        <ele>18.91092300415</ele>
        <time>2016-11-22T08:48:20.000Z</time>
      </trkpt>
      <trkpt lat="47.24373" lon="-1.56855">
        <ele>18.723613739014</ele>
        <time>2016-11-22T08:48:23.000Z</time>
      </trkpt>
      <trkpt lat="47.24373" lon="-1.5686">
        <ele>18.54020690918</ele>
        <time>2016-11-22T08:48:25.000Z</time>
      </trkpt>
      <trkpt lat="47.24373" lon="-1.56866">
        <ele>18.371196746826</ele>
        <time>2016-11-22T08:48:28.000Z</time>
      </trkpt>
      <trkpt lat="47.24372" lon="-1.56873">
        <ele>18.247325897217</ele>
        <time>2016-11-22T08:48:31.000Z</time>
      </trkpt>
      <trkpt lat="47.24371" lon="-1.56879">
        <ele>18.146156311035</ele>
        <time>2016-11-22T08:48:34.000Z</time>
      </trkpt>
      <trkpt lat="47.24371" lon="-1.56882">
        <ele>18.09568977356</ele>
        <time>2016-11-22T08:48:36.000Z</time>
      </trkpt>
      <trkpt lat="47.2437" lon="-1.56886">
        <ele>18.082447052002</ele>
        <time>2016-11-22T08:48:39.000Z</time>
      </trkpt>
      <trkpt lat="47.24368" lon="-1.56891">
        <ele>18.101999282837</ele>
        <time>2016-11-22T08:48:41.000Z</time>
      </trkpt>
      <trkpt lat="47.24367" lon="-1.56895">
        <ele>18.13521194458</ele>
        <time>2016-11-22T08:48:44.000Z</time>
      </trkpt>
      <trkpt lat="47.24365" lon="-1.56899">
        <ele>18.216320037842</ele>
        <time>2016-11-22T08:48:46.000Z</time>
      </trkpt>
      <trkpt lat="47.24362" lon="-1.56905">
        <ele>18.349145889282</ele>
        <time>2016-11-22T08:48:49.000Z</time>
      </trkpt>
      <trkpt lat="47.2436" lon="-1.56909">
        <ele>18.497371673584</ele>
        <time>2016-11-22T08:48:51.000Z</time>
      </trkpt>
      <trkpt lat="47.24359" lon="-1.56913">
        <ele>18.660903930664</ele>
        <time>2016-11-22T08:48:54.000Z</time>
      </trkpt>
      <trkpt lat="47.24358" lon="-1.56916">
        <ele>18.824235916138</ele>
        <time>2016-11-22T08:48:56.000Z</time>
      </trkpt>
      <trkpt lat="47.24356" lon="-1.56919">
        <ele>18.986461639404</ele>
        <time>2016-11-22T08:48:58.000Z</time>
      </trkpt>
      <trkpt lat="47.24355" lon="-1.56922">
        <ele>19.136890411377</ele>
        <time>2016-11-22T08:49:00.000Z</time>
      </trkpt>
      <trkpt lat="47.24353" lon="-1.56925">
        <ele>19.304656982422</ele>
        <time>2016-11-22T08:49:02.000Z</time>
      </trkpt>
      <trkpt lat="47.24352" lon="-1.5693">
        <ele>19.484457015991</ele>
        <time>2016-11-22T08:49:05.000Z</time>
      </trkpt>
      <trkpt lat="47.24351" lon="-1.56934">
        <ele>19.690216064453</ele>
        <time>2016-11-22T08:49:08.000Z</time>
      </trkpt>
      <trkpt lat="47.2435" lon="-1.56936">
        <ele>19.876434326172</ele>
        <time>2016-11-22T08:49:10.000Z</time>
      </trkpt>
      <trkpt lat="47.2435" lon="-1.56939">
        <ele>20.043304443359</ele>
        <time>2016-11-22T08:49:12.000Z</time>
      </trkpt>
      <trkpt lat="47.2435" lon="-1.56942">
        <ele>20.162109375</ele>
        <time>2016-11-22T08:49:15.000Z</time>
      </trkpt>
      <trkpt lat="47.2435" lon="-1.56943">
        <ele>20.244049072266</ele>
        <time>2016-11-22T08:49:17.000Z</time>
      </trkpt>
      <trkpt lat="47.2435" lon="-1.56948">
        <ele>20.296997070312</ele>
        <time>2016-11-22T08:49:20.000Z</time>
      </trkpt>
      <trkpt lat="47.24349" lon="-1.56949">
        <ele>20.349273681641</ele>
        <time>2016-11-22T08:49:22.000Z</time>
      </trkpt>
      <trkpt lat="47.24348" lon="-1.56953">
        <ele>20.412445068359</ele>
        <time>2016-11-22T08:49:25.000Z</time>
      </trkpt>
      <trkpt lat="47.24346" lon="-1.56957">
        <ele>20.545562744141</ele>
        <time>2016-11-22T08:49:28.000Z</time>
      </trkpt>
      <trkpt lat="47.24345" lon="-1.5696">
        <ele>20.721954345703</ele>
        <time>2016-11-22T08:49:30.000Z</time>
      </trkpt>
      <trkpt lat="47.24344" lon="-1.56963">
        <ele>20.894866943359</ele>
        <time>2016-11-22T08:49:32.000Z</time>
      </trkpt>
      <trkpt lat="47.24343" lon="-1.56966">
        <ele>21.091735839844</ele>
        <time>2016-11-22T08:49:35.000Z</time>
      </trkpt>
      <trkpt lat="47.24342" lon="-1.56968">
        <ele>21.293792724609</ele>
        <time>2016-11-22T08:49:37.000Z</time>
      </trkpt>
      <trkpt lat="47.24341" lon="-1.5697">
        <ele>21.453521728516</ele>
        <time>2016-11-22T08:49:40.000Z</time>
      </trkpt>
      <trkpt lat="47.2434" lon="-1.56972">
        <ele>21.590393066406</ele>
        <time>2016-11-22T08:49:42.000Z</time>
      </trkpt>
      <trkpt lat="47.2434" lon="-1.56976">
        <ele>21.729064941406</ele>
        <time>2016-11-22T08:49:45.000Z</time>
      </trkpt>
      <trkpt lat="47.24339" lon="-1.56978">
        <ele>21.843872070312</ele>
        <time>2016-11-22T08:49:47.000Z</time>
      </trkpt>
      <trkpt lat="47.24339" lon="-1.56979">
        <ele>21.948211669922</ele>
        <time>2016-11-22T08:49:50.000Z</time>
      </trkpt>
      <trkpt lat="47.24338" lon="-1.56981">
        <ele>22.050628662109</ele>
        <time>2016-11-22T08:49:52.000Z</time>
      </trkpt>
      <trkpt lat="47.24335" lon="-1.56993">
        <ele>22.226776123047</ele>
        <time>2016-11-22T08:50:01.000Z</time>
      </trkpt>
      <trkpt lat="47.24333" lon="-1.56995">
        <ele>22.427675247192</ele>
        <time>2016-11-22T08:50:03.000Z</time>
      </trkpt>
      <trkpt lat="47.2433" lon="-1.56997">
        <ele>22.66844367981</ele>
        <time>2016-11-22T08:50:06.000Z</time>
      </trkpt>
      <trkpt lat="47.24329" lon="-1.56999">
        <ele>22.902523040771</ele>
        <time>2016-11-22T08:50:08.000Z</time>
      </trkpt>
      <trkpt lat="47.2433" lon="-1.57001">
        <ele>23.120288848877</ele>
        <time>2016-11-22T08:50:11.000Z</time>
      </trkpt>
      <trkpt lat="47.2433" lon="-1.57002">
        <ele>23.259971618652</ele>
        <time>2016-11-22T08:50:13.000Z</time>
      </trkpt>
      <trkpt lat="47.24331" lon="-1.57002">
        <ele>23.338756561279</ele>
        <time>2016-11-22T08:50:17.000Z</time>
      </trkpt>
      <trkpt lat="47.24334" lon="-1.56996">
        <ele>23.268487930298</ele>
        <time>2016-11-22T08:51:25.000Z</time>
      </trkpt>
      <trkpt lat="47.24332" lon="-1.57003">
        <ele>23.278078079224</ele>
        <time>2016-11-22T08:53:28.000Z</time>
      </trkpt>
      <trkpt lat="47.24333" lon="-1.57002">
        <ele>23.247924804688</ele>
        <time>2016-11-22T08:53:30.000Z</time>
      </trkpt>
      <trkpt lat="47.24335" lon="-1.57005">
        <ele>23.200450897217</ele>
        <time>2016-11-22T08:53:35.000Z</time>
      </trkpt>
      <trkpt lat="47.24335" lon="-1.57007">
        <ele>23.183238983154</ele>
        <time>2016-11-22T08:53:38.000Z</time>
      </trkpt>
      <trkpt lat="47.24336" lon="-1.57009">
        <ele>23.259439468384</ele>
        <time>2016-11-22T08:53:41.000Z</time>
      </trkpt>
      <trkpt lat="47.24336" lon="-1.57011">
        <ele>23.266578674316</ele>
        <time>2016-11-22T08:53:44.000Z</time>
      </trkpt>
      <trkpt lat="47.24335" lon="-1.57013">
        <ele>23.365079879761</ele>
        <time>2016-11-22T08:53:47.000Z</time>
      </trkpt>
      <trkpt lat="47.24335" lon="-1.57015">
        <ele>23.494787216187</ele>
        <time>2016-11-22T08:53:49.000Z</time>
      </trkpt>
      <trkpt lat="47.24335" lon="-1.57017">
        <ele>23.63480758667</ele>
        <time>2016-11-22T08:53:51.000Z</time>
      </trkpt>
      <trkpt lat="47.24335" lon="-1.57019">
        <ele>23.821830749512</ele>
        <time>2016-11-22T08:53:53.000Z</time>
      </trkpt>
      <trkpt lat="47.24334" lon="-1.57021">
        <ele>24.020538330078</ele>
        <time>2016-11-22T08:53:55.000Z</time>
      </trkpt>
      <trkpt lat="47.24335" lon="-1.57024">
        <ele>24.188823699951</ele>
        <time>2016-11-22T08:53:58.000Z</time>
      </trkpt>
      <trkpt lat="47.24335" lon="-1.57026">
        <ele>24.347503662109</ele>
        <time>2016-11-22T08:54:00.000Z</time>
      </trkpt>
      <trkpt lat="47.24335" lon="-1.57029">
        <ele>24.520309448242</ele>
        <time>2016-11-22T08:54:02.000Z</time>
      </trkpt>
      <trkpt lat="47.24337" lon="-1.57032">
        <ele>24.649988174438</ele>
        <time>2016-11-22T08:54:05.000Z</time>
      </trkpt>
      <trkpt lat="47.24337" lon="-1.57035">
        <ele>24.754920959473</ele>
        <time>2016-11-22T08:54:07.000Z</time>
      </trkpt>
      <trkpt lat="47.24339" lon="-1.57039">
        <ele>24.866544723511</ele>
        <time>2016-11-22T08:54:10.000Z</time>
      </trkpt>
      <trkpt lat="47.24339" lon="-1.57042">
        <ele>24.982995986938</ele>
        <time>2016-11-22T08:54:13.000Z</time>
      </trkpt>
      <trkpt lat="47.24339" lon="-1.57046">
        <ele>25.14040184021</ele>
        <time>2016-11-22T08:54:16.000Z</time>
      </trkpt>
      <trkpt lat="47.24337" lon="-1.57051">
        <ele>25.390354156494</ele>
        <time>2016-11-22T08:54:19.000Z</time>
      </trkpt>
      <trkpt lat="47.24337" lon="-1.57053">
        <ele>25.659490585327</ele>
        <time>2016-11-22T08:54:21.000Z</time>
      </trkpt>
      <trkpt lat="47.24337" lon="-1.57055">
        <ele>25.910873413086</ele>
        <time>2016-11-22T08:54:23.000Z</time>
      </trkpt>
      <trkpt lat="47.24336" lon="-1.57059">
        <ele>26.237903594971</ele>
        <time>2016-11-22T08:54:26.000Z</time>
      </trkpt>
      <trkpt lat="47.24334" lon="-1.57064">
        <ele>26.602457046509</ele>
        <time>2016-11-22T08:54:29.000Z</time>
      </trkpt>
      <trkpt lat="47.24333" lon="-1.57067">
        <ele>26.944723129272</ele>
        <time>2016-11-22T08:54:31.000Z</time>
      </trkpt>
      <trkpt lat="47.24332" lon="-1.5707">
        <ele>27.310375213623</ele>
        <time>2016-11-22T08:54:33.000Z</time>
      </trkpt>
      <trkpt lat="47.2433" lon="-1.57074">
        <ele>27.740299224854</ele>
        <time>2016-11-22T08:54:36.000Z</time>
      </trkpt>
      <trkpt lat="47.2433" lon="-1.57076">
        <ele>28.090423583984</ele>
        <time>2016-11-22T08:54:38.000Z</time>
      </trkpt>
      <trkpt lat="47.24329" lon="-1.57078">
        <ele>28.374319076538</ele>
        <time>2016-11-22T08:54:41.000Z</time>
      </trkpt>
      <trkpt lat="47.24327" lon="-1.57081">
        <ele>28.642797470093</ele>
        <time>2016-11-22T08:54:43.000Z</time>
      </trkpt>
      <trkpt lat="47.24327" lon="-1.57086">
        <ele>28.92297744751</ele>
        <time>2016-11-22T08:54:46.000Z</time>
      </trkpt>
      <trkpt lat="47.24327" lon="-1.57091">
        <ele>29.17981338501</ele>
        <time>2016-11-22T08:54:49.000Z</time>
      </trkpt>
      <trkpt lat="47.24327" lon="-1.57095">
        <ele>29.454711914062</ele>
        <time>2016-11-22T08:54:52.000Z</time>
      </trkpt>
      <trkpt lat="47.24327" lon="-1.57097">
        <ele>29.71276473999</ele>
        <time>2016-11-22T08:54:54.000Z</time>
      </trkpt>
      <trkpt lat="47.24326" lon="-1.57101">
        <ele>29.962915420532</ele>
        <time>2016-11-22T08:54:57.000Z</time>
      </trkpt>
      <trkpt lat="47.24324" lon="-1.57102">
        <ele>30.169857025146</ele>
        <time>2016-11-22T08:54:59.000Z</time>
      </trkpt>
      <trkpt lat="47.24324" lon="-1.57104">
        <ele>30.349126815796</ele>
        <time>2016-11-22T08:55:01.000Z</time>
      </trkpt>
      <trkpt lat="47.24322" lon="-1.57105">
        <ele>30.512996673584</ele>
        <time>2016-11-22T08:55:03.000Z</time>
      </trkpt>
      <trkpt lat="47.24319" lon="-1.57106">
        <ele>30.686206817627</ele>
        <time>2016-11-22T08:55:06.000Z</time>
      </trkpt>
      <trkpt lat="47.24315" lon="-1.57111">
        <ele>30.905553817749</ele>
        <time>2016-11-22T08:55:10.000Z</time>
      </trkpt>
      <trkpt lat="47.24313" lon="-1.57114">
        <ele>31.148067474365</ele>
        <time>2016-11-22T08:55:12.000Z</time>
      </trkpt>
      <trkpt lat="47.2431" lon="-1.57117">
        <ele>31.420425415039</ele>
        <time>2016-11-22T08:55:15.000Z</time>
      </trkpt>
      <trkpt lat="47.24308" lon="-1.57118">
        <ele>31.686386108398</ele>
        <time>2016-11-22T08:55:17.000Z</time>
      </trkpt>
      <trkpt lat="47.24305" lon="-1.57119">
        <ele>31.952905654907</ele>
        <time>2016-11-22T08:55:20.000Z</time>
      </trkpt>
      <trkpt lat="47.24303" lon="-1.57121">
        <ele>32.156051635742</ele>
        <time>2016-11-22T08:55:23.000Z</time>
      </trkpt>
      <trkpt lat="47.24301" lon="-1.57123">
        <ele>32.362621307373</ele>
        <time>2016-11-22T08:55:26.000Z</time>
      </trkpt>
      <trkpt lat="47.24299" lon="-1.57125">
        <ele>32.544776916504</ele>
        <time>2016-11-22T08:55:29.000Z</time>
      </trkpt>
      <trkpt lat="47.24298" lon="-1.57127">
        <ele>32.730842590332</ele>
        <time>2016-11-22T08:55:32.000Z</time>
      </trkpt>
      <trkpt lat="47.24297" lon="-1.57128">
        <ele>32.906547546387</ele>
        <time>2016-11-22T08:55:35.000Z</time>
      </trkpt>
      <trkpt lat="47.24296" lon="-1.5713">
        <ele>33.079898834229</ele>
        <time>2016-11-22T08:55:38.000Z</time>
      </trkpt>
      <trkpt lat="47.24295" lon="-1.57132">
        <ele>33.224506378174</ele>
        <time>2016-11-22T08:55:41.000Z</time>
      </trkpt>
      <trkpt lat="47.24294" lon="-1.57134">
        <ele>33.361888885498</ele>
        <time>2016-11-22T08:55:43.000Z</time>
      </trkpt>
      <trkpt lat="47.24291" lon="-1.57134">
        <ele>33.493858337402</ele>
        <time>2016-11-22T08:55:45.000Z</time>
      </trkpt>
      <trkpt lat="47.24286" lon="-1.57134">
        <ele>33.63952255249</ele>
        <time>2016-11-22T08:55:48.000Z</time>
      </trkpt>
      <trkpt lat="47.24282" lon="-1.57136">
        <ele>33.807579040527</ele>
        <time>2016-11-22T08:55:51.000Z</time>
      </trkpt>
      <trkpt lat="47.24278" lon="-1.57139">
        <ele>34.0153465271</ele>
        <time>2016-11-22T08:55:54.000Z</time>
      </trkpt>
      <trkpt lat="47.24275" lon="-1.5714">
        <ele>34.233562469482</ele>
        <time>2016-11-22T08:55:56.000Z</time>
      </trkpt>
      <trkpt lat="47.24272" lon="-1.57142">
        <ele>34.476402282715</ele>
        <time>2016-11-22T08:55:59.000Z</time>
      </trkpt>
      <trkpt lat="47.2427" lon="-1.57142">
        <ele>34.690940856934</ele>
        <time>2016-11-22T08:56:01.000Z</time>
      </trkpt>
      <trkpt lat="47.24267" lon="-1.57143">
        <ele>34.888622283936</ele>
        <time>2016-11-22T08:56:04.000Z</time>
      </trkpt>
      <trkpt lat="47.24265" lon="-1.57143">
        <ele>35.037551879883</ele>
        <time>2016-11-22T08:56:06.000Z</time>
      </trkpt>
      <trkpt lat="47.2426" lon="-1.57141">
        <ele>35.165809631348</ele>
        <time>2016-11-22T08:56:09.000Z</time>
      </trkpt>
      <trkpt lat="47.24257" lon="-1.5714">
        <ele>35.262859344482</ele>
        <time>2016-11-22T08:56:12.000Z</time>
      </trkpt>
      <trkpt lat="47.24255" lon="-1.57138">
        <ele>35.347236633301</ele>
        <time>2016-11-22T08:56:14.000Z</time>
      </trkpt>
      <trkpt lat="47.24251" lon="-1.57137">
        <ele>35.412818908691</ele>
        <time>2016-11-22T08:56:17.000Z</time>
      </trkpt>
      <trkpt lat="47.24249" lon="-1.57137">
        <ele>35.470943450928</ele>
        <time>2016-11-22T08:56:19.000Z</time>
      </trkpt>
      <trkpt lat="47.24248" lon="-1.57136">
        <ele>35.50414276123</ele>
        <time>2016-11-22T08:56:21.000Z</time>
      </trkpt>
      <trkpt lat="47.24246" lon="-1.57136">
        <ele>35.519752502441</ele>
        <time>2016-11-22T08:56:24.000Z</time>
      </trkpt>
      <trkpt lat="47.24245" lon="-1.57136">
        <ele>35.532127380371</ele>
        <time>2016-11-22T08:56:26.000Z</time>
      </trkpt>
      <trkpt lat="47.24244" lon="-1.57136">
        <ele>35.52624130249</ele>
        <time>2016-11-22T08:56:29.000Z</time>
      </trkpt>
      <trkpt lat="47.24243" lon="-1.57135">
        <ele>35.504615783691</ele>
        <time>2016-11-22T08:56:31.000Z</time>
      </trkpt>
      <trkpt lat="47.24242" lon="-1.57134">
        <ele>35.479999542236</ele>
        <time>2016-11-22T08:56:33.000Z</time>
      </trkpt>
      <trkpt lat="47.24239" lon="-1.57137">
        <ele>35.486553192139</ele>
        <time>2016-11-22T08:56:36.000Z</time>
      </trkpt>
      <trkpt lat="47.24239" lon="-1.5714">
        <ele>35.517467498779</ele>
        <time>2016-11-22T08:56:38.000Z</time>
      </trkpt>
      <trkpt lat="47.24239" lon="-1.57142">
        <ele>35.564548492432</ele>
        <time>2016-11-22T08:56:40.000Z</time>
      </trkpt>
      <trkpt lat="47.2424" lon="-1.57146">
        <ele>35.661643981934</ele>
        <time>2016-11-22T08:56:43.000Z</time>
      </trkpt>
      <trkpt lat="47.2424" lon="-1.57152">
        <ele>35.825675964355</ele>
        <time>2016-11-22T08:56:46.000Z</time>
      </trkpt>
      <trkpt lat="47.2424" lon="-1.57156">
        <ele>35.998779296875</ele>
        <time>2016-11-22T08:56:49.000Z</time>
      </trkpt>
      <trkpt lat="47.24239" lon="-1.57159">
        <ele>36.1672706604</ele>
        <time>2016-11-22T08:56:52.000Z</time>
      </trkpt>
      <trkpt lat="47.24238" lon="-1.57161">
        <ele>36.336616516113</ele>
        <time>2016-11-22T08:56:55.000Z</time>
      </trkpt>
      <trkpt lat="47.24235" lon="-1.57162">
        <ele>36.46870803833</ele>
        <time>2016-11-22T08:56:58.000Z</time>
      </trkpt>
      <trkpt lat="47.24231" lon="-1.57162">
        <ele>36.539875030518</ele>
        <time>2016-11-22T08:57:01.000Z</time>
      </trkpt>
      <trkpt lat="47.24228" lon="-1.57163">
        <ele>36.572601318359</ele>
        <time>2016-11-22T08:57:04.000Z</time>
      </trkpt>
      <trkpt lat="47.24224" lon="-1.57162">
        <ele>36.571117401123</ele>
        <time>2016-11-22T08:57:07.000Z</time>
      </trkpt>
      <trkpt lat="47.2422" lon="-1.57161">
        <ele>36.54029083252</ele>
        <time>2016-11-22T08:57:10.000Z</time>
      </trkpt>
      <trkpt lat="47.24216" lon="-1.57162">
        <ele>36.496994018555</ele>
        <time>2016-11-22T08:57:13.000Z</time>
      </trkpt>
      <trkpt lat="47.24211" lon="-1.57163">
        <ele>36.456176757812</ele>
        <time>2016-11-22T08:57:16.000Z</time>
      </trkpt>
      <trkpt lat="47.24208" lon="-1.57167">
        <ele>36.441711425781</ele>
        <time>2016-11-22T08:57:19.000Z</time>
      </trkpt>
      <trkpt lat="47.24207" lon="-1.57169">
        <ele>36.438625335693</ele>
        <time>2016-11-22T08:57:21.000Z</time>
      </trkpt>
      <trkpt lat="47.24206" lon="-1.57174">
        <ele>36.445686340332</ele>
        <time>2016-11-22T08:57:24.000Z</time>
      </trkpt>
      <trkpt lat="47.24204" lon="-1.57179">
        <ele>36.45662689209</ele>
        <time>2016-11-22T08:57:27.000Z</time>
      </trkpt>
      <trkpt lat="47.24203" lon="-1.57181">
        <ele>36.466896057129</ele>
        <time>2016-11-22T08:57:29.000Z</time>
      </trkpt>
      <trkpt lat="47.24202" lon="-1.57185">
        <ele>36.451171875</ele>
        <time>2016-11-22T08:57:32.000Z</time>
      </trkpt>
      <trkpt lat="47.24201" lon="-1.57189">
        <ele>36.435546875</ele>
        <time>2016-11-22T08:57:35.000Z</time>
      </trkpt>
      <trkpt lat="47.242" lon="-1.57194">
        <ele>36.4208984375</ele>
        <time>2016-11-22T08:57:37.000Z</time>
      </trkpt>
      <trkpt lat="47.24199" lon="-1.57198">
        <ele>36.4091796875</ele>
        <time>2016-11-22T08:57:39.000Z</time>
      </trkpt>
      <trkpt lat="47.24197" lon="-1.57203">
        <ele>36.3955078125</ele>
        <time>2016-11-22T08:57:42.000Z</time>
      </trkpt>
      <trkpt lat="47.24194" lon="-1.57206">
        <ele>36.3779296875</ele>
        <time>2016-11-22T08:57:44.000Z</time>
      </trkpt>
      <trkpt lat="47.24191" lon="-1.57211">
        <ele>36.353515625</ele>
        <time>2016-11-22T08:57:47.000Z</time>
      </trkpt>
      <trkpt lat="47.24188" lon="-1.57216">
        <ele>36.3251953125</ele>
        <time>2016-11-22T08:57:50.000Z</time>
      </trkpt>
      <trkpt lat="47.24186" lon="-1.57218">
        <ele>36.294921875</ele>
        <time>2016-11-22T08:57:52.000Z</time>
      </trkpt>
      <trkpt lat="47.24185" lon="-1.57219">
        <ele>36.265625</ele>
        <time>2016-11-22T08:57:55.000Z</time>
      </trkpt>
      <trkpt lat="47.24182" lon="-1.57219">
        <ele>36.2353515625</ele>
        <time>2016-11-22T08:57:58.000Z</time>
      </trkpt>
      <trkpt lat="47.24179" lon="-1.57223">
        <ele>36.20703125</ele>
        <time>2016-11-22T08:58:01.000Z</time>
      </trkpt>
      <trkpt lat="47.24178" lon="-1.57227">
        <ele>36.1826171875</ele>
        <time>2016-11-22T08:58:04.000Z</time>
      </trkpt>
      <trkpt lat="47.24176" lon="-1.57231">
        <ele>36.1591796875</ele>
        <time>2016-11-22T08:58:07.000Z</time>
      </trkpt>
      <trkpt lat="47.24175" lon="-1.57234">
        <ele>36.1357421875</ele>
        <time>2016-11-22T08:58:10.000Z</time>
      </trkpt>
      <trkpt lat="47.24174" lon="-1.57238">
        <ele>36.1162109375</ele>
        <time>2016-11-22T08:58:13.000Z</time>
      </trkpt>
      <trkpt lat="47.24174" lon="-1.57242">
        <ele>36.103515625</ele>
        <time>2016-11-22T08:58:16.000Z</time>
      </trkpt>
      <trkpt lat="47.24173" lon="-1.57246">
        <ele>36.0927734375</ele>
        <time>2016-11-22T08:58:18.000Z</time>
      </trkpt>
      <trkpt lat="47.24172" lon="-1.5725">
        <ele>36.08219909668</ele>
        <time>2016-11-22T08:58:21.000Z</time>
      </trkpt>
      <trkpt lat="47.24171" lon="-1.57256">
        <ele>36.057712554932</ele>
        <time>2016-11-22T08:58:24.000Z</time>
      </trkpt>
      <trkpt lat="47.2417" lon="-1.5726">
        <ele>36.024993896484</ele>
        <time>2016-11-22T08:58:26.000Z</time>
      </trkpt>
      <trkpt lat="47.2417" lon="-1.57264">
        <ele>35.981494903564</ele>
        <time>2016-11-22T08:58:28.000Z</time>
      </trkpt>
      <trkpt lat="47.24169" lon="-1.5727">
        <ele>35.921241760254</ele>
        <time>2016-11-22T08:58:31.000Z</time>
      </trkpt>
      <trkpt lat="47.24168" lon="-1.57277">
        <ele>35.846069335938</ele>
        <time>2016-11-22T08:58:34.000Z</time>
      </trkpt>
      <trkpt lat="47.24167" lon="-1.57281">
        <ele>35.776664733887</ele>
        <time>2016-11-22T08:58:36.000Z</time>
      </trkpt>
      <trkpt lat="47.24166" lon="-1.57285">
        <ele>35.70777130127</ele>
        <time>2016-11-22T08:58:39.000Z</time>
      </trkpt>
      <trkpt lat="47.24164" lon="-1.57289">
        <ele>35.641651153564</ele>
        <time>2016-11-22T08:58:41.000Z</time>
      </trkpt>
      <trkpt lat="47.24162" lon="-1.57293">
        <ele>35.583335876465</ele>
        <time>2016-11-22T08:58:44.000Z</time>
      </trkpt>
      <trkpt lat="47.24162" lon="-1.57301">
        <ele>35.526329040527</ele>
        <time>2016-11-22T08:58:47.000Z</time>
      </trkpt>
      <trkpt lat="47.24162" lon="-1.57305">
        <ele>35.470481872559</ele>
        <time>2016-11-22T08:58:49.000Z</time>
      </trkpt>
      <trkpt lat="47.24162" lon="-1.57312">
        <ele>35.41174697876</ele>
        <time>2016-11-22T08:58:52.000Z</time>
      </trkpt>
      <trkpt lat="47.2416" lon="-1.57326">
        <ele>35.336074829102</ele>
        <time>2016-11-22T08:59:08.000Z</time>
      </trkpt>
      <trkpt lat="47.24158" lon="-1.57327">
        <ele>35.271186828613</ele>
        <time>2016-11-22T08:59:10.000Z</time>
      </trkpt>
      <trkpt lat="47.24159" lon="-1.5733">
        <ele>35.214916229248</ele>
        <time>2016-11-22T08:59:13.000Z</time>
      </trkpt>
      <trkpt lat="47.2416" lon="-1.57333">
        <ele>35.160591125488</ele>
        <time>2016-11-22T08:59:16.000Z</time>
      </trkpt>
      <trkpt lat="47.24162" lon="-1.57337">
        <ele>35.132709503174</ele>
        <time>2016-11-22T08:59:18.000Z</time>
      </trkpt>
      <trkpt lat="47.24162" lon="-1.57343">
        <ele>35.15408706665</ele>
        <time>2016-11-22T08:59:21.000Z</time>
      </trkpt>
      <trkpt lat="47.24162" lon="-1.57345">
        <ele>35.186450958252</ele>
        <time>2016-11-22T08:59:23.000Z</time>
      </trkpt>
      <trkpt lat="47.2416" lon="-1.5735">
        <ele>35.249435424805</ele>
        <time>2016-11-22T08:59:26.000Z</time>
      </trkpt>
      <trkpt lat="47.24158" lon="-1.57354">
        <ele>35.341533660889</ele>
        <time>2016-11-22T08:59:29.000Z</time>
      </trkpt>
      <trkpt lat="47.24157" lon="-1.57357">
        <ele>35.437847137451</ele>
        <time>2016-11-22T08:59:31.000Z</time>
      </trkpt>
      <trkpt lat="47.24156" lon="-1.5736">
        <ele>35.52445602417</ele>
        <time>2016-11-22T08:59:33.000Z</time>
      </trkpt>
      <trkpt lat="47.24157" lon="-1.57364">
        <ele>35.612682342529</ele>
        <time>2016-11-22T08:59:36.000Z</time>
      </trkpt>
      <trkpt lat="47.24158" lon="-1.57367">
        <ele>35.690002441406</ele>
        <time>2016-11-22T08:59:38.000Z</time>
      </trkpt>
      <trkpt lat="47.24158" lon="-1.57369">
        <ele>35.756008148193</ele>
        <time>2016-11-22T08:59:40.000Z</time>
      </trkpt>
      <trkpt lat="47.24158" lon="-1.57373">
        <ele>35.820777893066</ele>
        <time>2016-11-22T08:59:43.000Z</time>
      </trkpt>
      <trkpt lat="47.24158" lon="-1.57375">
        <ele>35.883529663086</ele>
        <time>2016-11-22T08:59:45.000Z</time>
      </trkpt>
      <trkpt lat="47.24158" lon="-1.57379">
        <ele>35.946403503418</ele>
        <time>2016-11-22T08:59:47.000Z</time>
      </trkpt>
      <trkpt lat="47.24158" lon="-1.57384">
        <ele>36.019512176514</ele>
        <time>2016-11-22T08:59:50.000Z</time>
      </trkpt>
      <trkpt lat="47.24157" lon="-1.57388">
        <ele>36.100463867188</ele>
        <time>2016-11-22T08:59:53.000Z</time>
      </trkpt>
      <trkpt lat="47.24157" lon="-1.57394">
        <ele>36.190769195557</ele>
        <time>2016-11-22T08:59:56.000Z</time>
      </trkpt>
      <trkpt lat="47.24156" lon="-1.574">
        <ele>36.29190826416</ele>
        <time>2016-11-22T08:59:59.000Z</time>
      </trkpt>
      <trkpt lat="47.24157" lon="-1.57402">
        <ele>36.390640258789</ele>
        <time>2016-11-22T09:00:02.000Z</time>
      </trkpt>
      <trkpt lat="47.24157" lon="-1.57406">
        <ele>36.481384277344</ele>
        <time>2016-11-22T09:00:04.000Z</time>
      </trkpt>
      <trkpt lat="47.24157" lon="-1.57409">
        <ele>36.569297790527</ele>
        <time>2016-11-22T09:00:06.000Z</time>
      </trkpt>
      <trkpt lat="47.24157" lon="-1.57413">
        <ele>36.650581359863</ele>
        <time>2016-11-22T09:00:08.000Z</time>
      </trkpt>
      <trkpt lat="47.24157" lon="-1.57417">
        <ele>36.728660583496</ele>
        <time>2016-11-22T09:00:10.000Z</time>
      </trkpt>
      <trkpt lat="47.24157" lon="-1.57423">
        <ele>36.834980010986</ele>
        <time>2016-11-22T09:00:13.000Z</time>
      </trkpt>
      <trkpt lat="47.24157" lon="-1.57427">
        <ele>36.954853057861</ele>
        <time>2016-11-22T09:00:15.000Z</time>
      </trkpt>
      <trkpt lat="47.24156" lon="-1.57432">
        <ele>37.093070983887</ele>
        <time>2016-11-22T09:00:18.000Z</time>
      </trkpt>
      <trkpt lat="47.24157" lon="-1.57436">
        <ele>37.242130279541</ele>
        <time>2016-11-22T09:00:20.000Z</time>
      </trkpt>
      <trkpt lat="47.24157" lon="-1.57439">
        <ele>37.393547058105</ele>
        <time>2016-11-22T09:00:22.000Z</time>
      </trkpt>
      <trkpt lat="47.24158" lon="-1.57443">
        <ele>37.537506103516</ele>
        <time>2016-11-22T09:00:25.000Z</time>
      </trkpt>
      <trkpt lat="47.24158" lon="-1.57448">
        <ele>37.687168121338</ele>
        <time>2016-11-22T09:00:28.000Z</time>
      </trkpt>
      <trkpt lat="47.24158" lon="-1.57451">
        <ele>37.828479766846</ele>
        <time>2016-11-22T09:00:30.000Z</time>
      </trkpt>
      <trkpt lat="47.2416" lon="-1.57456">
        <ele>37.977077484131</ele>
        <time>2016-11-22T09:00:33.000Z</time>
      </trkpt>
      <trkpt lat="47.24159" lon="-1.57459">
        <ele>38.125217437744</ele>
        <time>2016-11-22T09:00:36.000Z</time>
      </trkpt>
      <trkpt lat="47.24159" lon="-1.57461">
        <ele>38.254356384277</ele>
        <time>2016-11-22T09:00:38.000Z</time>
      </trkpt>
      <trkpt lat="47.24159" lon="-1.57467">
        <ele>38.386421203613</ele>
        <time>2016-11-22T09:00:41.000Z</time>
      </trkpt>
      <trkpt lat="47.2416" lon="-1.57471">
        <ele>38.52811050415</ele>
        <time>2016-11-22T09:00:44.000Z</time>
      </trkpt>
      <trkpt lat="47.2416" lon="-1.57475">
        <ele>38.663261413574</ele>
        <time>2016-11-22T09:00:47.000Z</time>
      </trkpt>
      <trkpt lat="47.2416" lon="-1.57478">
        <ele>38.793640136719</ele>
        <time>2016-11-22T09:00:49.000Z</time>
      </trkpt>
      <trkpt lat="47.2416" lon="-1.57481">
        <ele>38.93627166748</ele>
        <time>2016-11-22T09:00:51.000Z</time>
      </trkpt>
      <trkpt lat="47.24159" lon="-1.57488">
        <ele>39.084117889404</ele>
        <time>2016-11-22T09:00:54.000Z</time>
      </trkpt>
      <trkpt lat="47.24158" lon="-1.57491">
        <ele>39.220722198486</ele>
        <time>2016-11-22T09:00:56.000Z</time>
      </trkpt>
      <trkpt lat="47.24157" lon="-1.57498">
        <ele>39.366355895996</ele>
        <time>2016-11-22T09:00:59.000Z</time>
      </trkpt>
      <trkpt lat="47.24156" lon="-1.57502">
        <ele>39.496234893799</ele>
        <time>2016-11-22T09:01:01.000Z</time>
      </trkpt>
      <trkpt lat="47.24155" lon="-1.57507">
        <ele>39.579265594482</ele>
        <time>2016-11-22T09:01:04.000Z</time>
      </trkpt>
      <trkpt lat="47.24155" lon="-1.57512">
        <ele>39.600719451904</ele>
        <time>2016-11-22T09:01:07.000Z</time>
      </trkpt>
      <trkpt lat="47.24155" lon="-1.57514">
        <ele>39.590843200684</ele>
        <time>2016-11-22T09:01:09.000Z</time>
      </trkpt>
      <trkpt lat="47.24156" lon="-1.57516">
        <ele>39.53657913208</ele>
        <time>2016-11-22T09:01:11.000Z</time>
      </trkpt>
      <trkpt lat="47.24157" lon="-1.57523">
        <ele>39.456642150879</ele>
        <time>2016-11-22T09:01:14.000Z</time>
      </trkpt>
      <trkpt lat="47.24156" lon="-1.57526">
        <ele>39.384468078613</ele>
        <time>2016-11-22T09:01:16.000Z</time>
      </trkpt>
      <trkpt lat="47.24156" lon="-1.57532">
        <ele>39.310192108154</ele>
        <time>2016-11-22T09:01:19.000Z</time>
      </trkpt>
      <trkpt lat="47.24156" lon="-1.57534">
        <ele>39.237503051758</ele>
        <time>2016-11-22T09:01:21.000Z</time>
      </trkpt>
      <trkpt lat="47.24157" lon="-1.57539">
        <ele>39.151527404785</ele>
        <time>2016-11-22T09:01:24.000Z</time>
      </trkpt>
      <trkpt lat="47.24157" lon="-1.57544">
        <ele>39.071022033691</ele>
        <time>2016-11-22T09:01:27.000Z</time>
      </trkpt>
      <trkpt lat="47.24157" lon="-1.57549">
        <ele>38.982608795166</ele>
        <time>2016-11-22T09:01:30.000Z</time>
      </trkpt>
      <trkpt lat="47.24158" lon="-1.57555">
        <ele>38.892967224121</ele>
        <time>2016-11-22T09:01:33.000Z</time>
      </trkpt>
      <trkpt lat="47.24157" lon="-1.57562">
        <ele>38.783679962158</ele>
        <time>2016-11-22T09:01:36.000Z</time>
      </trkpt>
      <trkpt lat="47.24156" lon="-1.5757">
        <ele>38.663513183594</ele>
        <time>2016-11-22T09:01:39.000Z</time>
      </trkpt>
      <trkpt lat="47.24156" lon="-1.57577">
        <ele>38.532051086426</ele>
        <time>2016-11-22T09:01:42.000Z</time>
      </trkpt>
      <trkpt lat="47.24157" lon="-1.57585">
        <ele>38.398010253906</ele>
        <time>2016-11-22T09:01:45.000Z</time>
      </trkpt>
      <trkpt lat="47.24157" lon="-1.57589">
        <ele>38.286457061768</ele>
        <time>2016-11-22T09:01:47.000Z</time>
      </trkpt>
      <trkpt lat="47.24157" lon="-1.57593">
        <ele>38.204246520996</ele>
        <time>2016-11-22T09:01:49.000Z</time>
      </trkpt>
      <trkpt lat="47.24156" lon="-1.57599">
        <ele>38.155452728271</ele>
        <time>2016-11-22T09:01:52.000Z</time>
      </trkpt>
      <trkpt lat="47.24155" lon="-1.57603">
        <ele>38.140159606934</ele>
        <time>2016-11-22T09:01:54.000Z</time>
      </trkpt>
      <trkpt lat="47.24155" lon="-1.57608">
        <ele>38.152042388916</ele>
        <time>2016-11-22T09:01:57.000Z</time>
      </trkpt>
      <trkpt lat="47.24155" lon="-1.57614">
        <ele>38.166851043701</ele>
        <time>2016-11-22T09:02:00.000Z</time>
      </trkpt>
      <trkpt lat="47.24154" lon="-1.57621">
        <ele>38.182250976562</ele>
        <time>2016-11-22T09:02:03.000Z</time>
      </trkpt>
      <trkpt lat="47.24154" lon="-1.57628">
        <ele>38.199962615967</ele>
        <time>2016-11-22T09:02:06.000Z</time>
      </trkpt>
      <trkpt lat="47.24153" lon="-1.57633">
        <ele>38.217414855957</ele>
        <time>2016-11-22T09:02:08.000Z</time>
      </trkpt>
      <trkpt lat="47.24152" lon="-1.5764">
        <ele>38.238151550293</ele>
        <time>2016-11-22T09:02:11.000Z</time>
      </trkpt>
      <trkpt lat="47.24151" lon="-1.57644">
        <ele>38.263416290283</ele>
        <time>2016-11-22T09:02:13.000Z</time>
      </trkpt>
      <trkpt lat="47.2415" lon="-1.57648">
        <ele>38.291984558105</ele>
        <time>2016-11-22T09:02:16.000Z</time>
      </trkpt>
      <trkpt lat="47.2415" lon="-1.57653">
        <ele>38.319499969482</ele>
        <time>2016-11-22T09:02:19.000Z</time>
      </trkpt>
      <trkpt lat="47.24149" lon="-1.57658">
        <ele>38.347637176514</ele>
        <time>2016-11-22T09:02:21.000Z</time>
      </trkpt>
      <trkpt lat="47.24148" lon="-1.57664">
        <ele>38.376579284668</ele>
        <time>2016-11-22T09:02:24.000Z</time>
      </trkpt>
      <trkpt lat="47.24147" lon="-1.57668">
        <ele>38.409374237061</ele>
        <time>2016-11-22T09:02:27.000Z</time>
      </trkpt>
      <trkpt lat="47.24147" lon="-1.57672">
        <ele>38.444053649902</ele>
        <time>2016-11-22T09:02:29.000Z</time>
      </trkpt>
      <trkpt lat="47.24147" lon="-1.57679">
        <ele>38.486061096191</ele>
        <time>2016-11-22T09:02:32.000Z</time>
      </trkpt>
      <trkpt lat="47.24147" lon="-1.57682">
        <ele>38.528701782227</ele>
        <time>2016-11-22T09:02:34.000Z</time>
      </trkpt>
      <trkpt lat="47.24148" lon="-1.57687">
        <ele>38.570098876953</ele>
        <time>2016-11-22T09:02:37.000Z</time>
      </trkpt>
      <trkpt lat="47.24149" lon="-1.57691">
        <ele>38.605857849121</ele>
        <time>2016-11-22T09:02:40.000Z</time>
      </trkpt>
      <trkpt lat="47.24146" lon="-1.57698">
        <ele>38.656066894531</ele>
        <time>2016-11-22T09:02:43.000Z</time>
      </trkpt>
      <trkpt lat="47.24142" lon="-1.57705">
        <ele>38.721473693848</ele>
        <time>2016-11-22T09:02:46.000Z</time>
      </trkpt>
      <trkpt lat="47.24139" lon="-1.57712">
        <ele>38.805534362793</ele>
        <time>2016-11-22T09:02:49.000Z</time>
      </trkpt>
      <trkpt lat="47.24136" lon="-1.57718">
        <ele>38.902076721191</ele>
        <time>2016-11-22T09:02:52.000Z</time>
      </trkpt>
      <trkpt lat="47.24134" lon="-1.57721">
        <ele>39.005226135254</ele>
        <time>2016-11-22T09:02:54.000Z</time>
      </trkpt>
      <trkpt lat="47.24131" lon="-1.57725">
        <ele>39.100242614746</ele>
        <time>2016-11-22T09:02:57.000Z</time>
      </trkpt>
      <trkpt lat="47.24128" lon="-1.57729">
        <ele>39.183586120605</ele>
        <time>2016-11-22T09:03:00.000Z</time>
      </trkpt>
      <trkpt lat="47.24126" lon="-1.57732">
        <ele>39.252388000488</ele>
        <time>2016-11-22T09:03:02.000Z</time>
      </trkpt>
      <trkpt lat="47.24125" lon="-1.57738">
        <ele>39.313316345215</ele>
        <time>2016-11-22T09:03:05.000Z</time>
      </trkpt>
      <trkpt lat="47.24125" lon="-1.57742">
        <ele>39.368476867676</ele>
        <time>2016-11-22T09:03:07.000Z</time>
      </trkpt>
      <trkpt lat="47.24124" lon="-1.57747">
        <ele>39.416999816895</ele>
        <time>2016-11-22T09:03:10.000Z</time>
      </trkpt>
      <trkpt lat="47.24123" lon="-1.57754">
        <ele>39.451805114746</ele>
        <time>2016-11-22T09:03:13.000Z</time>
      </trkpt>
      <trkpt lat="47.24121" lon="-1.57758">
        <ele>39.476661682129</ele>
        <time>2016-11-22T09:03:15.000Z</time>
      </trkpt>
      <trkpt lat="47.24121" lon="-1.57762">
        <ele>39.489086151123</ele>
        <time>2016-11-22T09:03:17.000Z</time>
      </trkpt>
      <trkpt lat="47.24119" lon="-1.57768">
        <ele>39.494346618652</ele>
        <time>2016-11-22T09:03:20.000Z</time>
      </trkpt>
      <trkpt lat="47.24118" lon="-1.57773">
        <ele>39.488773345947</ele>
        <time>2016-11-22T09:03:23.000Z</time>
      </trkpt>
      <trkpt lat="47.24117" lon="-1.57777">
        <ele>39.481834411621</ele>
        <time>2016-11-22T09:03:25.000Z</time>
      </trkpt>
      <trkpt lat="47.24115" lon="-1.57782">
        <ele>39.475212097168</ele>
        <time>2016-11-22T09:03:28.000Z</time>
      </trkpt>
      <trkpt lat="47.24115" lon="-1.57788">
        <ele>39.468555450439</ele>
        <time>2016-11-22T09:03:31.000Z</time>
      </trkpt>
      <trkpt lat="47.24113" lon="-1.57791">
        <ele>39.466011047363</ele>
        <time>2016-11-22T09:03:33.000Z</time>
      </trkpt>
      <trkpt lat="47.24111" lon="-1.57797">
        <ele>39.467315673828</ele>
        <time>2016-11-22T09:03:36.000Z</time>
      </trkpt>
      <trkpt lat="47.24111" lon="-1.57799">
        <ele>39.467842102051</ele>
        <time>2016-11-22T09:03:38.000Z</time>
      </trkpt>
      <trkpt lat="47.24112" lon="-1.57804">
        <ele>39.460674285889</ele>
        <time>2016-11-22T09:03:41.000Z</time>
      </trkpt>
      <trkpt lat="47.24113" lon="-1.57806">
        <ele>39.449062347412</ele>
        <time>2016-11-22T09:03:43.000Z</time>
      </trkpt>
      <trkpt lat="47.24117" lon="-1.57809">
        <ele>39.417774200439</ele>
        <time>2016-11-22T09:03:46.000Z</time>
      </trkpt>
      <trkpt lat="47.24119" lon="-1.5781">
        <ele>39.375335693359</ele>
        <time>2016-11-22T09:03:48.000Z</time>
      </trkpt>
      <trkpt lat="47.24123" lon="-1.57811">
        <ele>39.317123413086</ele>
        <time>2016-11-22T09:03:51.000Z</time>
      </trkpt>
      <trkpt lat="47.24126" lon="-1.57813">
        <ele>39.250160217285</ele>
        <time>2016-11-22T09:03:54.000Z</time>
      </trkpt>
      <trkpt lat="47.2413" lon="-1.57814">
        <ele>39.172504425049</ele>
        <time>2016-11-22T09:03:57.000Z</time>
      </trkpt>
      <trkpt lat="47.24132" lon="-1.57815">
        <ele>39.10425567627</ele>
        <time>2016-11-22T09:03:59.000Z</time>
      </trkpt>
      <trkpt lat="47.24136" lon="-1.57816">
        <ele>39.026599884033</ele>
        <time>2016-11-22T09:04:02.000Z</time>
      </trkpt>
      <trkpt lat="47.24139" lon="-1.57816">
        <ele>38.95027923584</ele>
        <time>2016-11-22T09:04:05.000Z</time>
      </trkpt>
      <trkpt lat="47.24142" lon="-1.57816">
        <ele>38.87769317627</ele>
        <time>2016-11-22T09:04:08.000Z</time>
      </trkpt>
      <trkpt lat="47.24146" lon="-1.57815">
        <ele>38.806053161621</ele>
        <time>2016-11-22T09:04:11.000Z</time>
      </trkpt>
      <trkpt lat="47.24149" lon="-1.57815">
        <ele>38.732189178467</ele>
        <time>2016-11-22T09:04:13.000Z</time>
      </trkpt>
      <trkpt lat="47.24151" lon="-1.57815">
        <ele>38.667633056641</ele>
        <time>2016-11-22T09:04:15.000Z</time>
      </trkpt>
      <trkpt lat="47.24154" lon="-1.57814">
        <ele>38.609169006348</ele>
        <time>2016-11-22T09:04:17.000Z</time>
      </trkpt>
      <trkpt lat="47.24158" lon="-1.57812">
        <ele>38.55057144165</ele>
        <time>2016-11-22T09:04:20.000Z</time>
      </trkpt>
      <trkpt lat="47.24162" lon="-1.5781">
        <ele>38.498146057129</ele>
        <time>2016-11-22T09:04:23.000Z</time>
      </trkpt>
      <trkpt lat="47.24164" lon="-1.57809">
        <ele>38.448783874512</ele>
        <time>2016-11-22T09:04:25.000Z</time>
      </trkpt>
      <trkpt lat="47.24167" lon="-1.57807">
        <ele>38.401538848877</ele>
        <time>2016-11-22T09:04:28.000Z</time>
      </trkpt>
      <trkpt lat="47.2417" lon="-1.57807">
        <ele>38.369121551514</ele>
        <time>2016-11-22T09:04:30.000Z</time>
      </trkpt>
      <trkpt lat="47.24174" lon="-1.57808">
        <ele>38.360397338867</ele>
        <time>2016-11-22T09:04:33.000Z</time>
      </trkpt>
      <trkpt lat="47.24177" lon="-1.57808">
        <ele>38.367450714111</ele>
        <time>2016-11-22T09:04:35.000Z</time>
      </trkpt>
      <trkpt lat="47.24182" lon="-1.57809">
        <ele>38.391357421875</ele>
        <time>2016-11-22T09:04:38.000Z</time>
      </trkpt>
      <trkpt lat="47.24186" lon="-1.57809">
        <ele>38.432830810547</ele>
        <time>2016-11-22T09:04:41.000Z</time>
      </trkpt>
      <trkpt lat="47.24189" lon="-1.5781">
        <ele>38.473358154297</ele>
        <time>2016-11-22T09:04:43.000Z</time>
      </trkpt>
      <trkpt lat="47.24191" lon="-1.5781">
        <ele>38.508880615234</ele>
        <time>2016-11-22T09:04:45.000Z</time>
      </trkpt>
      <trkpt lat="47.24195" lon="-1.57811">
        <ele>38.546142578125</ele>
        <time>2016-11-22T09:04:48.000Z</time>
      </trkpt>
      <trkpt lat="47.24198" lon="-1.57811">
        <ele>38.58056640625</ele>
        <time>2016-11-22T09:04:51.000Z</time>
      </trkpt>
      <trkpt lat="47.24201" lon="-1.5781">
        <ele>38.614318847656</ele>
        <time>2016-11-22T09:04:53.000Z</time>
      </trkpt>
      <trkpt lat="47.24205" lon="-1.57809">
        <ele>38.655029296875</ele>
        <time>2016-11-22T09:04:56.000Z</time>
      </trkpt>
      <trkpt lat="47.24208" lon="-1.57807">
        <ele>38.703125</ele>
        <time>2016-11-22T09:04:58.000Z</time>
      </trkpt>
      <trkpt lat="47.24211" lon="-1.57805">
        <ele>38.753967285156</ele>
        <time>2016-11-22T09:05:00.000Z</time>
      </trkpt>
      <trkpt lat="47.24215" lon="-1.57802">
        <ele>38.816070556641</ele>
        <time>2016-11-22T09:05:03.000Z</time>
      </trkpt>
      <trkpt lat="47.24218" lon="-1.57798">
        <ele>38.8857421875</ele>
        <time>2016-11-22T09:05:06.000Z</time>
      </trkpt>
      <trkpt lat="47.24222" lon="-1.57796">
        <ele>38.95849609375</ele>
        <time>2016-11-22T09:05:09.000Z</time>
      </trkpt>
      <trkpt lat="47.24226" lon="-1.57794">
        <ele>39.032958984375</ele>
        <time>2016-11-22T09:05:12.000Z</time>
      </trkpt>
      <trkpt lat="47.24229" lon="-1.57793">
        <ele>39.104583740234</ele>
        <time>2016-11-22T09:05:14.000Z</time>
      </trkpt>
      <trkpt lat="47.24233" lon="-1.57792">
        <ele>39.172607421875</ele>
        <time>2016-11-22T09:05:17.000Z</time>
      </trkpt>
      <trkpt lat="47.24236" lon="-1.57792">
        <ele>39.23046875</ele>
        <time>2016-11-22T09:05:19.000Z</time>
      </trkpt>
      <trkpt lat="47.24239" lon="-1.57792">
        <ele>39.280426025391</ele>
        <time>2016-11-22T09:05:21.000Z</time>
      </trkpt>
      <trkpt lat="47.24242" lon="-1.57791">
        <ele>39.326629638672</ele>
        <time>2016-11-22T09:05:24.000Z</time>
      </trkpt>
      <trkpt lat="47.24246" lon="-1.57793">
        <ele>39.370147705078</ele>
        <time>2016-11-22T09:05:27.000Z</time>
      </trkpt>
      <trkpt lat="47.24249" lon="-1.57794">
        <ele>39.401763916016</ele>
        <time>2016-11-22T09:05:29.000Z</time>
      </trkpt>
      <trkpt lat="47.24252" lon="-1.57795">
        <ele>39.412517547607</ele>
        <time>2016-11-22T09:05:32.000Z</time>
      </trkpt>
      <trkpt lat="47.24256" lon="-1.57795">
        <ele>39.390190124512</ele>
        <time>2016-11-22T09:05:35.000Z</time>
      </trkpt>
      <trkpt lat="47.24258" lon="-1.57795">
        <ele>39.336219787598</ele>
        <time>2016-11-22T09:05:37.000Z</time>
      </trkpt>
      <trkpt lat="47.24263" lon="-1.57796">
        <ele>39.246509552002</ele>
        <time>2016-11-22T09:05:40.000Z</time>
      </trkpt>
      <trkpt lat="47.24267" lon="-1.57796">
        <ele>39.122375488281</ele>
        <time>2016-11-22T09:05:43.000Z</time>
      </trkpt>
      <trkpt lat="47.24269" lon="-1.57796">
        <ele>38.994659423828</ele>
        <time>2016-11-22T09:05:45.000Z</time>
      </trkpt>
      <trkpt lat="47.24272" lon="-1.57796">
        <ele>38.874938964844</ele>
        <time>2016-11-22T09:05:47.000Z</time>
      </trkpt>
      <trkpt lat="47.24276" lon="-1.57796">
        <ele>38.749938964844</ele>
        <time>2016-11-22T09:05:50.000Z</time>
      </trkpt>
      <trkpt lat="47.2428" lon="-1.57795">
        <ele>38.625518798828</ele>
        <time>2016-11-22T09:05:53.000Z</time>
      </trkpt>
      <trkpt lat="47.24283" lon="-1.57795">
        <ele>38.511962890625</ele>
        <time>2016-11-22T09:05:55.000Z</time>
      </trkpt>
      <trkpt lat="47.24286" lon="-1.57795">
        <ele>38.400024414062</ele>
        <time>2016-11-22T09:05:57.000Z</time>
      </trkpt>
      <trkpt lat="47.24289" lon="-1.57795">
        <ele>38.28271484375</ele>
        <time>2016-11-22T09:06:00.000Z</time>
      </trkpt>
      <trkpt lat="47.24291" lon="-1.57794">
        <ele>38.176025390625</ele>
        <time>2016-11-22T09:06:02.000Z</time>
      </trkpt>
      <trkpt lat="47.24294" lon="-1.57793">
        <ele>38.081268310547</ele>
        <time>2016-11-22T09:06:05.000Z</time>
      </trkpt>
      <trkpt lat="47.24296" lon="-1.57795">
        <ele>37.988647460938</ele>
        <time>2016-11-22T09:06:07.000Z</time>
      </trkpt>
      <trkpt lat="47.24302" lon="-1.57798">
        <ele>37.865325927734</ele>
        <time>2016-11-22T09:06:10.000Z</time>
      </trkpt>
      <trkpt lat="47.24306" lon="-1.578">
        <ele>37.727416992188</ele>
        <time>2016-11-22T09:06:13.000Z</time>
      </trkpt>
      <trkpt lat="47.24308" lon="-1.578">
        <ele>37.588989257812</ele>
        <time>2016-11-22T09:06:15.000Z</time>
      </trkpt>
      <trkpt lat="47.24312" lon="-1.57802">
        <ele>37.435882568359</ele>
        <time>2016-11-22T09:06:18.000Z</time>
      </trkpt>
      <trkpt lat="47.24316" lon="-1.57805">
        <ele>37.268127441406</ele>
        <time>2016-11-22T09:06:21.000Z</time>
      </trkpt>
      <trkpt lat="47.24319" lon="-1.57809">
        <ele>37.114288330078</ele>
        <time>2016-11-22T09:06:24.000Z</time>
      </trkpt>
      <trkpt lat="47.24322" lon="-1.57814">
        <ele>36.969573974609</ele>
        <time>2016-11-22T09:06:27.000Z</time>
      </trkpt>
      <trkpt lat="47.24324" lon="-1.5782">
        <ele>36.808837890625</ele>
        <time>2016-11-22T09:06:30.000Z</time>
      </trkpt>
      <trkpt lat="47.24325" lon="-1.57824">
        <ele>36.665802001953</ele>
        <time>2016-11-22T09:06:32.000Z</time>
      </trkpt>
      <trkpt lat="47.24326" lon="-1.57829">
        <ele>36.536712646484</ele>
        <time>2016-11-22T09:06:35.000Z</time>
      </trkpt>
      <trkpt lat="47.24327" lon="-1.57834">
        <ele>36.425117492676</ele>
        <time>2016-11-22T09:06:38.000Z</time>
      </trkpt>
      <trkpt lat="47.24328" lon="-1.5784">
        <ele>36.33268737793</ele>
        <time>2016-11-22T09:06:41.000Z</time>
      </trkpt>
      <trkpt lat="47.24329" lon="-1.57843">
        <ele>36.266708374023</ele>
        <time>2016-11-22T09:06:43.000Z</time>
      </trkpt>
      <trkpt lat="47.24329" lon="-1.57846">
        <ele>36.210411071777</ele>
        <time>2016-11-22T09:06:45.000Z</time>
      </trkpt>
      <trkpt lat="47.2433" lon="-1.57852">
        <ele>36.167205810547</ele>
        <time>2016-11-22T09:06:48.000Z</time>
      </trkpt>
      <trkpt lat="47.2433" lon="-1.57858">
        <ele>36.138813018799</ele>
        <time>2016-11-22T09:06:51.000Z</time>
      </trkpt>
      <trkpt lat="47.24331" lon="-1.57864">
        <ele>36.117012023926</ele>
        <time>2016-11-22T09:06:54.000Z</time>
      </trkpt>
      <trkpt lat="47.24331" lon="-1.57868">
        <ele>36.09850692749</ele>
        <time>2016-11-22T09:06:56.000Z</time>
      </trkpt>
      <trkpt lat="47.24331" lon="-1.57875">
        <ele>36.085552215576</ele>
        <time>2016-11-22T09:06:59.000Z</time>
      </trkpt>
      <trkpt lat="47.24331" lon="-1.57878">
        <ele>36.0784034729</ele>
        <time>2016-11-22T09:07:01.000Z</time>
      </trkpt>
      <trkpt lat="47.24331" lon="-1.57883">
        <ele>36.071479797363</ele>
        <time>2016-11-22T09:07:04.000Z</time>
      </trkpt>
      <trkpt lat="47.24331" lon="-1.57887">
        <ele>36.067378997803</ele>
        <time>2016-11-22T09:07:07.000Z</time>
      </trkpt>
      <trkpt lat="47.24331" lon="-1.57893">
        <ele>36.067974090576</ele>
        <time>2016-11-22T09:07:10.000Z</time>
      </trkpt>
      <trkpt lat="47.2433" lon="-1.57898">
        <ele>36.070823669434</ele>
        <time>2016-11-22T09:07:12.000Z</time>
      </trkpt>
      <trkpt lat="47.2433" lon="-1.57903">
        <ele>36.075485229492</ele>
        <time>2016-11-22T09:07:15.000Z</time>
      </trkpt>
      <trkpt lat="47.24329" lon="-1.57911">
        <ele>36.081745147705</ele>
        <time>2016-11-22T09:07:18.000Z</time>
      </trkpt>
      <trkpt lat="47.24329" lon="-1.57914">
        <ele>36.087863922119</ele>
        <time>2016-11-22T09:07:20.000Z</time>
      </trkpt>
      <trkpt lat="47.24329" lon="-1.57918">
        <ele>36.088573455811</ele>
        <time>2016-11-22T09:07:22.000Z</time>
      </trkpt>
      <trkpt lat="47.2433" lon="-1.57925">
        <ele>36.071300506592</ele>
        <time>2016-11-22T09:07:25.000Z</time>
      </trkpt>
      <trkpt lat="47.2433" lon="-1.57928">
        <ele>36.042198181152</ele>
        <time>2016-11-22T09:07:27.000Z</time>
      </trkpt>
      <trkpt lat="47.24331" lon="-1.57934">
        <ele>35.994228363037</ele>
        <time>2016-11-22T09:07:30.000Z</time>
      </trkpt>
      <trkpt lat="47.24332" lon="-1.57939">
        <ele>35.928607940674</ele>
        <time>2016-11-22T09:07:33.000Z</time>
      </trkpt>
      <trkpt lat="47.24334" lon="-1.57942">
        <ele>35.854850769043</ele>
        <time>2016-11-22T09:07:35.000Z</time>
      </trkpt>
      <trkpt lat="47.24337" lon="-1.57946">
        <ele>35.793354034424</ele>
        <time>2016-11-22T09:07:38.000Z</time>
      </trkpt>
      <trkpt lat="47.2434" lon="-1.57951">
        <ele>35.737007141113</ele>
        <time>2016-11-22T09:07:41.000Z</time>
      </trkpt>
      <trkpt lat="47.24343" lon="-1.57954">
        <ele>35.69896697998</ele>
        <time>2016-11-22T09:07:44.000Z</time>
      </trkpt>
      <trkpt lat="47.24345" lon="-1.57955">
        <ele>35.681488037109</ele>
        <time>2016-11-22T09:07:46.000Z</time>
      </trkpt>
      <trkpt lat="47.24348" lon="-1.57958">
        <ele>35.676544189453</ele>
        <time>2016-11-22T09:07:49.000Z</time>
      </trkpt>
      <trkpt lat="47.2435" lon="-1.57959">
        <ele>35.677337646484</ele>
        <time>2016-11-22T09:07:51.000Z</time>
      </trkpt>
      <trkpt lat="47.24354" lon="-1.57961">
        <ele>35.687713623047</ele>
        <time>2016-11-22T09:07:54.000Z</time>
      </trkpt>
      <trkpt lat="47.24357" lon="-1.57964">
        <ele>35.696685791016</ele>
        <time>2016-11-22T09:07:57.000Z</time>
      </trkpt>
      <trkpt lat="47.2436" lon="-1.57968">
        <ele>35.703582763672</ele>
        <time>2016-11-22T09:08:00.000Z</time>
      </trkpt>
      <trkpt lat="47.24364" lon="-1.57971">
        <ele>35.709777832031</ele>
        <time>2016-11-22T09:08:03.000Z</time>
      </trkpt>
      <trkpt lat="47.24366" lon="-1.57973">
        <ele>35.712677001953</ele>
        <time>2016-11-22T09:08:05.000Z</time>
      </trkpt>
      <trkpt lat="47.24369" lon="-1.57976">
        <ele>35.712890625</ele>
        <time>2016-11-22T09:08:08.000Z</time>
      </trkpt>
      <trkpt lat="47.24371" lon="-1.57977">
        <ele>35.716491699219</ele>
        <time>2016-11-22T09:08:10.000Z</time>
      </trkpt>
      <trkpt lat="47.24374" lon="-1.57978">
        <ele>35.723785400391</ele>
        <time>2016-11-22T09:08:12.000Z</time>
      </trkpt>
      <trkpt lat="47.24377" lon="-1.57981">
        <ele>35.73095703125</ele>
        <time>2016-11-22T09:08:15.000Z</time>
      </trkpt>
      <trkpt lat="47.2438" lon="-1.57984">
        <ele>35.739166259766</ele>
        <time>2016-11-22T09:08:18.000Z</time>
      </trkpt>
      <trkpt lat="47.2438" lon="-1.57985">
        <ele>35.7451171875</ele>
        <time>2016-11-22T09:08:20.000Z</time>
      </trkpt>
      <trkpt lat="47.24381" lon="-1.57987">
        <ele>35.745056152344</ele>
        <time>2016-11-22T09:08:22.000Z</time>
      </trkpt>
      <trkpt lat="47.24381" lon="-1.5799">
        <ele>35.732452392578</ele>
        <time>2016-11-22T09:08:25.000Z</time>
      </trkpt>
      <trkpt lat="47.24386" lon="-1.5799">
        <ele>35.731719970703</ele>
        <time>2016-11-22T09:08:46.000Z</time>
      </trkpt>
      <trkpt lat="47.24389" lon="-1.57991">
        <ele>35.735290527344</ele>
        <time>2016-11-22T09:08:49.000Z</time>
      </trkpt>
      <trkpt lat="47.2439" lon="-1.57987">
        <ele>35.751251220703</ele>
        <time>2016-11-22T09:08:52.000Z</time>
      </trkpt>
      <trkpt lat="47.24392" lon="-1.57998">
        <ele>35.752471923828</ele>
        <time>2016-11-22T09:08:58.000Z</time>
      </trkpt>
      <trkpt lat="47.24394" lon="-1.58001">
        <ele>35.76611328125</ele>
        <time>2016-11-22T09:09:00.000Z</time>
      </trkpt>
      <trkpt lat="47.24397" lon="-1.58007">
        <ele>35.803127288818</ele>
        <time>2016-11-22T09:09:03.000Z</time>
      </trkpt>
      <trkpt lat="47.24399" lon="-1.5801">
        <ele>35.851676940918</ele>
        <time>2016-11-22T09:09:06.000Z</time>
      </trkpt>
      <trkpt lat="47.244" lon="-1.58012">
        <ele>35.897426605225</ele>
        <time>2016-11-22T09:09:08.000Z</time>
      </trkpt>
      <trkpt lat="47.24404" lon="-1.58016">
        <ele>35.982238769531</ele>
        <time>2016-11-22T09:09:11.000Z</time>
      </trkpt>
      <trkpt lat="47.24405" lon="-1.58019">
        <ele>36.07612991333</ele>
        <time>2016-11-22T09:09:13.000Z</time>
      </trkpt>
      <trkpt lat="47.24407" lon="-1.58025">
        <ele>36.155620574951</ele>
        <time>2016-11-22T09:09:16.000Z</time>
      </trkpt>
      <trkpt lat="47.24408" lon="-1.5803">
        <ele>36.236206054688</ele>
        <time>2016-11-22T09:09:18.000Z</time>
      </trkpt>
      <trkpt lat="47.24408" lon="-1.58036">
        <ele>36.326789855957</ele>
        <time>2016-11-22T09:09:21.000Z</time>
      </trkpt>
      <trkpt lat="47.24409" lon="-1.58041">
        <ele>36.409030914307</ele>
        <time>2016-11-22T09:09:23.000Z</time>
      </trkpt>
      <trkpt lat="47.24409" lon="-1.58045">
        <ele>36.49116897583</ele>
        <time>2016-11-22T09:09:25.000Z</time>
      </trkpt>
      <trkpt lat="47.2441" lon="-1.58051">
        <ele>36.570457458496</ele>
        <time>2016-11-22T09:09:28.000Z</time>
      </trkpt>
      <trkpt lat="47.24411" lon="-1.58056">
        <ele>36.646625518799</ele>
        <time>2016-11-22T09:09:30.000Z</time>
      </trkpt>
      <trkpt lat="47.24411" lon="-1.58064">
        <ele>36.727348327637</ele>
        <time>2016-11-22T09:09:33.000Z</time>
      </trkpt>
      <trkpt lat="47.24411" lon="-1.58071">
        <ele>36.817344665527</ele>
        <time>2016-11-22T09:09:36.000Z</time>
      </trkpt>
      <trkpt lat="47.24411" lon="-1.58077">
        <ele>36.913948059082</ele>
        <time>2016-11-22T09:09:39.000Z</time>
      </trkpt>
      <trkpt lat="47.2441" lon="-1.58081">
        <ele>37.005088806152</ele>
        <time>2016-11-22T09:09:41.000Z</time>
      </trkpt>
      <trkpt lat="47.24409" lon="-1.58086">
        <ele>37.081615447998</ele>
        <time>2016-11-22T09:09:44.000Z</time>
      </trkpt>
      <trkpt lat="47.24408" lon="-1.58093">
        <ele>37.08939743042</ele>
        <time>2016-11-22T09:09:47.000Z</time>
      </trkpt>
      <trkpt lat="47.24407" lon="-1.58097">
        <ele>37.051948547363</ele>
        <time>2016-11-22T09:09:49.000Z</time>
      </trkpt>
      <trkpt lat="47.24405" lon="-1.58103">
        <ele>36.969867706299</ele>
        <time>2016-11-22T09:09:52.000Z</time>
      </trkpt>
      <trkpt lat="47.24404" lon="-1.58109">
        <ele>36.838043212891</ele>
        <time>2016-11-22T09:09:55.000Z</time>
      </trkpt>
      <trkpt lat="47.24404" lon="-1.58113">
        <ele>36.678649902344</ele>
        <time>2016-11-22T09:09:57.000Z</time>
      </trkpt>
      <trkpt lat="47.24402" lon="-1.58119">
        <ele>36.5341796875</ele>
        <time>2016-11-22T09:10:00.000Z</time>
      </trkpt>
      <trkpt lat="47.244" lon="-1.58126">
        <ele>36.381103515625</ele>
        <time>2016-11-22T09:10:03.000Z</time>
      </trkpt>
      <trkpt lat="47.24399" lon="-1.5813">
        <ele>36.233520507812</ele>
        <time>2016-11-22T09:10:05.000Z</time>
      </trkpt>
      <trkpt lat="47.24398" lon="-1.58133">
        <ele>36.108367919922</ele>
        <time>2016-11-22T09:10:07.000Z</time>
      </trkpt>
      <trkpt lat="47.24396" lon="-1.58136">
        <ele>35.998321533203</ele>
        <time>2016-11-22T09:10:09.000Z</time>
      </trkpt>
      <trkpt lat="47.24395" lon="-1.58142">
        <ele>35.890930175781</ele>
        <time>2016-11-22T09:10:12.000Z</time>
      </trkpt>
      <trkpt lat="47.24393" lon="-1.58148">
        <ele>35.781066894531</ele>
        <time>2016-11-22T09:10:15.000Z</time>
      </trkpt>
      <trkpt lat="47.24392" lon="-1.58152">
        <ele>35.671295166016</ele>
        <time>2016-11-22T09:10:17.000Z</time>
      </trkpt>
      <trkpt lat="47.2439" lon="-1.58157">
        <ele>35.555389404297</ele>
        <time>2016-11-22T09:10:20.000Z</time>
      </trkpt>
      <trkpt lat="47.24388" lon="-1.5816">
        <ele>35.443695068359</ele>
        <time>2016-11-22T09:10:22.000Z</time>
      </trkpt>
      <trkpt lat="47.24385" lon="-1.58165">
        <ele>35.338500976562</ele>
        <time>2016-11-22T09:10:25.000Z</time>
      </trkpt>
      <trkpt lat="47.24382" lon="-1.5817">
        <ele>35.264106750488</ele>
        <time>2016-11-22T09:10:28.000Z</time>
      </trkpt>
      <trkpt lat="47.24381" lon="-1.58174">
        <ele>35.199932098389</ele>
        <time>2016-11-22T09:10:30.000Z</time>
      </trkpt>
      <trkpt lat="47.24379" lon="-1.58179">
        <ele>35.14888381958</ele>
        <time>2016-11-22T09:10:33.000Z</time>
      </trkpt>
      <trkpt lat="47.24378" lon="-1.5818">
        <ele>35.105583190918</ele>
        <time>2016-11-22T09:10:35.000Z</time>
      </trkpt>
      <trkpt lat="47.24377" lon="-1.58183">
        <ele>35.079650878906</ele>
        <time>2016-11-22T09:10:37.000Z</time>
      </trkpt>
      <trkpt lat="47.24375" lon="-1.58187">
        <ele>35.054626464844</ele>
        <time>2016-11-22T09:10:40.000Z</time>
      </trkpt>
      <trkpt lat="47.24373" lon="-1.58193">
        <ele>35.023193359375</ele>
        <time>2016-11-22T09:10:43.000Z</time>
      </trkpt>
      <trkpt lat="47.24371" lon="-1.582">
        <ele>34.982055664062</ele>
        <time>2016-11-22T09:10:46.000Z</time>
      </trkpt>
      <trkpt lat="47.2437" lon="-1.58204">
        <ele>34.928405761719</ele>
        <time>2016-11-22T09:10:48.000Z</time>
      </trkpt>
      <trkpt lat="47.24369" lon="-1.58208">
        <ele>34.866394042969</ele>
        <time>2016-11-22T09:10:50.000Z</time>
      </trkpt>
      <trkpt lat="47.24369" lon="-1.58213">
        <ele>34.782165527344</ele>
        <time>2016-11-22T09:10:53.000Z</time>
      </trkpt>
      <trkpt lat="47.24371" lon="-1.58218">
        <ele>34.680419921875</ele>
        <time>2016-11-22T09:10:56.000Z</time>
      </trkpt>
      <trkpt lat="47.24373" lon="-1.58221">
        <ele>34.560852050781</ele>
        <time>2016-11-22T09:10:59.000Z</time>
      </trkpt>
      <trkpt lat="47.24374" lon="-1.58223">
        <ele>34.437805175781</ele>
        <time>2016-11-22T09:11:01.000Z</time>
      </trkpt>
      <trkpt lat="47.24378" lon="-1.58225">
        <ele>34.290466308594</ele>
        <time>2016-11-22T09:11:04.000Z</time>
      </trkpt>
      <trkpt lat="47.24381" lon="-1.58225">
        <ele>34.148315429688</ele>
        <time>2016-11-22T09:11:06.000Z</time>
      </trkpt>
      <trkpt lat="47.24386" lon="-1.58224">
        <ele>34.002502441406</ele>
        <time>2016-11-22T09:11:09.000Z</time>
      </trkpt>
      <trkpt lat="47.24388" lon="-1.58225">
        <ele>33.879028320312</ele>
        <time>2016-11-22T09:11:11.000Z</time>
      </trkpt>
      <trkpt lat="47.2439" lon="-1.58225">
        <ele>33.754333496094</ele>
        <time>2016-11-22T09:11:13.000Z</time>
      </trkpt>
      <trkpt lat="47.24395" lon="-1.58225">
        <ele>33.636657714844</ele>
        <time>2016-11-22T09:11:16.000Z</time>
      </trkpt>
      <trkpt lat="47.24398" lon="-1.58224">
        <ele>33.514343261719</ele>
        <time>2016-11-22T09:11:18.000Z</time>
      </trkpt>
      <trkpt lat="47.24401" lon="-1.58224">
        <ele>33.411560058594</ele>
        <time>2016-11-22T09:11:20.000Z</time>
      </trkpt>
      <trkpt lat="47.24406" lon="-1.58222">
        <ele>33.298278808594</ele>
        <time>2016-11-22T09:11:23.000Z</time>
      </trkpt>
      <trkpt lat="47.24409" lon="-1.58219">
        <ele>33.188171386719</ele>
        <time>2016-11-22T09:11:26.000Z</time>
      </trkpt>
      <trkpt lat="47.24412" lon="-1.58216">
        <ele>33.105407714844</ele>
        <time>2016-11-22T09:11:28.000Z</time>
      </trkpt>
      <trkpt lat="47.24415" lon="-1.58213">
        <ele>33.039916992188</ele>
        <time>2016-11-22T09:11:31.000Z</time>
      </trkpt>
      <trkpt lat="47.24418" lon="-1.58211">
        <ele>32.98747253418</ele>
        <time>2016-11-22T09:11:33.000Z</time>
      </trkpt>
      <trkpt lat="47.24422" lon="-1.58208">
        <ele>32.974857330322</ele>
        <time>2016-11-22T09:11:36.000Z</time>
      </trkpt>
      <trkpt lat="47.24424" lon="-1.58204">
        <ele>32.993721008301</ele>
        <time>2016-11-22T09:11:39.000Z</time>
      </trkpt>
      <trkpt lat="47.24426" lon="-1.58202">
        <ele>33.025066375732</ele>
        <time>2016-11-22T09:11:41.000Z</time>
      </trkpt>
      <trkpt lat="47.24428" lon="-1.582">
        <ele>33.069786071777</ele>
        <time>2016-11-22T09:11:43.000Z</time>
      </trkpt>
      <trkpt lat="47.24431" lon="-1.58196">
        <ele>33.131359100342</ele>
        <time>2016-11-22T09:11:46.000Z</time>
      </trkpt>
      <trkpt lat="47.24434" lon="-1.58195">
        <ele>33.181396484375</ele>
        <time>2016-11-22T09:11:48.000Z</time>
      </trkpt>
      <trkpt lat="47.24436" lon="-1.58193">
        <ele>33.219860076904</ele>
        <time>2016-11-22T09:11:50.000Z</time>
      </trkpt>
      <trkpt lat="47.24439" lon="-1.58189">
        <ele>33.258262634277</ele>
        <time>2016-11-22T09:11:53.000Z</time>
      </trkpt>
      <trkpt lat="47.24441" lon="-1.58184">
        <ele>33.305744171143</ele>
        <time>2016-11-22T09:11:56.000Z</time>
      </trkpt>
      <trkpt lat="47.24444" lon="-1.58179">
        <ele>33.352344512939</ele>
        <time>2016-11-22T09:11:59.000Z</time>
      </trkpt>
      <trkpt lat="47.24446" lon="-1.58176">
        <ele>33.399448394775</ele>
        <time>2016-11-22T09:12:01.000Z</time>
      </trkpt>
      <trkpt lat="47.24448" lon="-1.58173">
        <ele>33.447925567627</ele>
        <time>2016-11-22T09:12:03.000Z</time>
      </trkpt>
      <trkpt lat="47.24451" lon="-1.58171">
        <ele>33.48819732666</ele>
        <time>2016-11-22T09:12:05.000Z</time>
      </trkpt>
      <trkpt lat="47.24453" lon="-1.58167">
        <ele>33.517139434814</ele>
        <time>2016-11-22T09:12:08.000Z</time>
      </trkpt>
      <trkpt lat="47.24454" lon="-1.58164">
        <ele>33.545249938965</ele>
        <time>2016-11-22T09:12:10.000Z</time>
      </trkpt>
      <trkpt lat="47.24458" lon="-1.5816">
        <ele>33.577617645264</ele>
        <time>2016-11-22T09:12:13.000Z</time>
      </trkpt>
      <trkpt lat="47.24461" lon="-1.58158">
        <ele>33.608459472656</ele>
        <time>2016-11-22T09:12:16.000Z</time>
      </trkpt>
      <trkpt lat="47.24463" lon="-1.58156">
        <ele>33.637561798096</ele>
        <time>2016-11-22T09:12:18.000Z</time>
      </trkpt>
      <trkpt lat="47.24466" lon="-1.58153">
        <ele>33.665073394775</ele>
        <time>2016-11-22T09:12:21.000Z</time>
      </trkpt>
      <trkpt lat="47.24469" lon="-1.58151">
        <ele>33.682598114014</ele>
        <time>2016-11-22T09:12:24.000Z</time>
      </trkpt>
      <trkpt lat="47.24471" lon="-1.58149">
        <ele>33.691837310791</ele>
        <time>2016-11-22T09:12:26.000Z</time>
      </trkpt>
      <trkpt lat="47.24474" lon="-1.58148">
        <ele>33.694244384766</ele>
        <time>2016-11-22T09:12:28.000Z</time>
      </trkpt>
      <trkpt lat="47.24477" lon="-1.58146">
        <ele>33.689277648926</ele>
        <time>2016-11-22T09:12:31.000Z</time>
      </trkpt>
      <trkpt lat="47.2448" lon="-1.58143">
        <ele>33.679821014404</ele>
        <time>2016-11-22T09:12:34.000Z</time>
      </trkpt>
      <trkpt lat="47.24483" lon="-1.5814">
        <ele>33.671646118164</ele>
        <time>2016-11-22T09:12:37.000Z</time>
      </trkpt>
      <trkpt lat="47.24485" lon="-1.58138">
        <ele>33.662948608398</ele>
        <time>2016-11-22T09:12:39.000Z</time>
      </trkpt>
      <trkpt lat="47.24486" lon="-1.58136">
        <ele>33.659229278564</ele>
        <time>2016-11-22T09:12:41.000Z</time>
      </trkpt>
      <trkpt lat="47.24487" lon="-1.58133">
        <ele>33.663963317871</ele>
        <time>2016-11-22T09:12:43.000Z</time>
      </trkpt>
      <trkpt lat="47.2449" lon="-1.5813">
        <ele>33.670185089111</ele>
        <time>2016-11-22T09:12:46.000Z</time>
      </trkpt>
      <trkpt lat="47.24491" lon="-1.58126">
        <ele>33.67945098877</ele>
        <time>2016-11-22T09:12:49.000Z</time>
      </trkpt>
      <trkpt lat="47.24492" lon="-1.58123">
        <ele>33.693473815918</ele>
        <time>2016-11-22T09:12:51.000Z</time>
      </trkpt>
      <trkpt lat="47.24493" lon="-1.58119">
        <ele>33.712413787842</ele>
        <time>2016-11-22T09:12:53.000Z</time>
      </trkpt>
      <trkpt lat="47.24494" lon="-1.58113">
        <ele>33.736644744873</ele>
        <time>2016-11-22T09:12:56.000Z</time>
      </trkpt>
      <trkpt lat="47.24496" lon="-1.58109">
        <ele>33.762432098389</ele>
        <time>2016-11-22T09:12:59.000Z</time>
      </trkpt>
      <trkpt lat="47.245" lon="-1.58105">
        <ele>33.772510528564</ele>
        <time>2016-11-22T09:13:02.000Z</time>
      </trkpt>
      <trkpt lat="47.24501" lon="-1.58102">
        <ele>33.783424377441</ele>
        <time>2016-11-22T09:13:04.000Z</time>
      </trkpt>
      <trkpt lat="47.24503" lon="-1.58099">
        <ele>33.795063018799</ele>
        <time>2016-11-22T09:13:06.000Z</time>
      </trkpt>
      <trkpt lat="47.24505" lon="-1.58094">
        <ele>33.812110900879</ele>
        <time>2016-11-22T09:13:09.000Z</time>
      </trkpt>
      <trkpt lat="47.24509" lon="-1.5809">
        <ele>33.838066101074</ele>
        <time>2016-11-22T09:13:12.000Z</time>
      </trkpt>
      <trkpt lat="47.24512" lon="-1.58085">
        <ele>33.884395599365</ele>
        <time>2016-11-22T09:13:15.000Z</time>
      </trkpt>
      <trkpt lat="47.24514" lon="-1.5808">
        <ele>33.911674499512</ele>
        <time>2016-11-22T09:13:18.000Z</time>
      </trkpt>
      <trkpt lat="47.24517" lon="-1.58077">
        <ele>33.912178039551</ele>
        <time>2016-11-22T09:13:21.000Z</time>
      </trkpt>
      <trkpt lat="47.24519" lon="-1.58074">
        <ele>33.886695861816</ele>
        <time>2016-11-22T09:13:23.000Z</time>
      </trkpt>
      <trkpt lat="47.24523" lon="-1.58071">
        <ele>33.833415985107</ele>
        <time>2016-11-22T09:13:25.000Z</time>
      </trkpt>
      <trkpt lat="47.24526" lon="-1.58068">
        <ele>33.7509765625</ele>
        <time>2016-11-22T09:13:28.000Z</time>
      </trkpt>
      <trkpt lat="47.24528" lon="-1.58067">
        <ele>33.674747467041</ele>
        <time>2016-11-22T09:13:30.000Z</time>
      </trkpt>
      <trkpt lat="47.24529" lon="-1.58066">
        <ele>33.614406585693</ele>
        <time>2016-11-22T09:13:32.000Z</time>
      </trkpt>
      <trkpt lat="47.24532" lon="-1.58063">
        <ele>33.546161651611</ele>
        <time>2016-11-22T09:13:35.000Z</time>
      </trkpt>
      <trkpt lat="47.24535" lon="-1.5806">
        <ele>33.479286193848</ele>
        <time>2016-11-22T09:13:37.000Z</time>
      </trkpt>
      <trkpt lat="47.24537" lon="-1.58058">
        <ele>33.417430877686</ele>
        <time>2016-11-22T09:13:39.000Z</time>
      </trkpt>
      <trkpt lat="47.24541" lon="-1.58055">
        <ele>33.339984893799</ele>
        <time>2016-11-22T09:13:42.000Z</time>
      </trkpt>
      <trkpt lat="47.24545" lon="-1.58051">
        <ele>33.238105773926</ele>
        <time>2016-11-22T09:13:45.000Z</time>
      </trkpt>
      <trkpt lat="47.24547" lon="-1.5805">
        <ele>33.149517059326</ele>
        <time>2016-11-22T09:13:47.000Z</time>
      </trkpt>
      <trkpt lat="47.2455" lon="-1.58051">
        <ele>33.078544616699</ele>
        <time>2016-11-22T09:13:49.000Z</time>
      </trkpt>
      <trkpt lat="47.24552" lon="-1.58051">
        <ele>33.024738311768</ele>
        <time>2016-11-22T09:13:52.000Z</time>
      </trkpt>
      <trkpt lat="47.24554" lon="-1.58051">
        <ele>32.991104125977</ele>
        <time>2016-11-22T09:13:54.000Z</time>
      </trkpt>
      <trkpt lat="47.24555" lon="-1.58052">
        <ele>32.984954833984</ele>
        <time>2016-11-22T09:13:57.000Z</time>
      </trkpt>
      <trkpt lat="47.24561" lon="-1.58056">
        <ele>33.010780334473</ele>
        <time>2016-11-22T09:14:10.000Z</time>
      </trkpt>
      <trkpt lat="47.24564" lon="-1.58059">
        <ele>33.052375793457</ele>
        <time>2016-11-22T09:14:12.000Z</time>
      </trkpt>
      <trkpt lat="47.24569" lon="-1.5806">
        <ele>33.094020843506</ele>
        <time>2016-11-22T09:14:15.000Z</time>
      </trkpt>
      <trkpt lat="47.24572" lon="-1.58059">
        <ele>33.129505157471</ele>
        <time>2016-11-22T09:14:18.000Z</time>
      </trkpt>
      <trkpt lat="47.24573" lon="-1.58057">
        <ele>33.152961730957</ele>
        <time>2016-11-22T09:14:20.000Z</time>
      </trkpt>
      <trkpt lat="47.24575" lon="-1.58055">
        <ele>33.137580871582</ele>
        <time>2016-11-22T09:14:22.000Z</time>
      </trkpt>
      <trkpt lat="47.24576" lon="-1.58052">
        <ele>33.077445983887</ele>
        <time>2016-11-22T09:14:25.000Z</time>
      </trkpt>
      <trkpt lat="47.24578" lon="-1.58048">
        <ele>32.985893249512</ele>
        <time>2016-11-22T09:14:28.000Z</time>
      </trkpt>
      <trkpt lat="47.2458" lon="-1.58044">
        <ele>32.871719360352</ele>
        <time>2016-11-22T09:14:31.000Z</time>
      </trkpt>
      <trkpt lat="47.24582" lon="-1.58041">
        <ele>32.749450683594</ele>
        <time>2016-11-22T09:14:33.000Z</time>
      </trkpt>
      <trkpt lat="47.24584" lon="-1.58037">
        <ele>32.596843719482</ele>
        <time>2016-11-22T09:14:36.000Z</time>
      </trkpt>
      <trkpt lat="47.24587" lon="-1.58033">
        <ele>32.407371520996</ele>
        <time>2016-11-22T09:14:39.000Z</time>
      </trkpt>
      <trkpt lat="47.24589" lon="-1.58031">
        <ele>32.204853057861</ele>
        <time>2016-11-22T09:14:41.000Z</time>
      </trkpt>
      <trkpt lat="47.24591" lon="-1.58029">
        <ele>31.984994888306</ele>
        <time>2016-11-22T09:14:43.000Z</time>
      </trkpt>
      <trkpt lat="47.24593" lon="-1.58026">
        <ele>31.719760894775</ele>
        <time>2016-11-22T09:14:46.000Z</time>
      </trkpt>
      <trkpt lat="47.24596" lon="-1.58024">
        <ele>31.437358856201</ele>
        <time>2016-11-22T09:14:49.000Z</time>
      </trkpt>
      <trkpt lat="47.24598" lon="-1.5802">
        <ele>31.163463592529</ele>
        <time>2016-11-22T09:14:51.000Z</time>
      </trkpt>
      <trkpt lat="47.24599" lon="-1.58016">
        <ele>30.86576461792</ele>
        <time>2016-11-22T09:14:53.000Z</time>
      </trkpt>
      <trkpt lat="47.24601" lon="-1.58012">
        <ele>30.545217514038</ele>
        <time>2016-11-22T09:14:56.000Z</time>
      </trkpt>
      <trkpt lat="47.24603" lon="-1.58008">
        <ele>30.225444793701</ele>
        <time>2016-11-22T09:14:58.000Z</time>
      </trkpt>
      <trkpt lat="47.24603" lon="-1.58003">
        <ele>29.907083511353</ele>
        <time>2016-11-22T09:15:01.000Z</time>
      </trkpt>
      <trkpt lat="47.24606" lon="-1.57999">
        <ele>29.549068450928</ele>
        <time>2016-11-22T09:15:04.000Z</time>
      </trkpt>
      <trkpt lat="47.24607" lon="-1.57996">
        <ele>29.204568862915</ele>
        <time>2016-11-22T09:15:06.000Z</time>
      </trkpt>
      <trkpt lat="47.24609" lon="-1.57995">
        <ele>28.865865707397</ele>
        <time>2016-11-22T09:15:08.000Z</time>
      </trkpt>
      <trkpt lat="47.24612" lon="-1.57996">
        <ele>28.544321060181</ele>
        <time>2016-11-22T09:15:11.000Z</time>
      </trkpt>
      <trkpt lat="47.24615" lon="-1.57997">
        <ele>28.251281738281</ele>
        <time>2016-11-22T09:15:13.000Z</time>
      </trkpt>
      <trkpt lat="47.24617" lon="-1.57999">
        <ele>28.036041259766</ele>
        <time>2016-11-22T09:15:16.000Z</time>
      </trkpt>
      <trkpt lat="47.2462" lon="-1.58">
        <ele>27.835052490234</ele>
        <time>2016-11-22T09:15:19.000Z</time>
      </trkpt>
      <trkpt lat="47.24623" lon="-1.58002">
        <ele>27.666000366211</ele>
        <time>2016-11-22T09:15:22.000Z</time>
      </trkpt>
      <trkpt lat="47.24627" lon="-1.58007">
        <ele>27.546569824219</ele>
        <time>2016-11-22T09:15:25.000Z</time>
      </trkpt>
      <trkpt lat="47.24628" lon="-1.5801">
        <ele>27.463733673096</ele>
        <time>2016-11-22T09:15:27.000Z</time>
      </trkpt>
      <trkpt lat="47.2463" lon="-1.58014">
        <ele>27.409387588501</ele>
        <time>2016-11-22T09:15:30.000Z</time>
      </trkpt>
      <trkpt lat="47.24632" lon="-1.58017">
        <ele>27.413045883179</ele>
        <time>2016-11-22T09:15:32.000Z</time>
      </trkpt>
      <trkpt lat="47.24634" lon="-1.5802">
        <ele>27.456451416016</ele>
        <time>2016-11-22T09:15:35.000Z</time>
      </trkpt>
      <trkpt lat="47.24638" lon="-1.58025">
        <ele>27.511627197266</ele>
        <time>2016-11-22T09:15:38.000Z</time>
      </trkpt>
      <trkpt lat="47.24641" lon="-1.58028">
        <ele>27.562160491943</ele>
        <time>2016-11-22T09:15:41.000Z</time>
      </trkpt>
      <trkpt lat="47.24643" lon="-1.58031">
        <ele>27.624273300171</ele>
        <time>2016-11-22T09:15:44.000Z</time>
      </trkpt>
      <trkpt lat="47.24644" lon="-1.58035">
        <ele>27.708745956421</ele>
        <time>2016-11-22T09:15:47.000Z</time>
      </trkpt>
      <trkpt lat="47.24645" lon="-1.5804">
        <ele>27.853433609009</ele>
        <time>2016-11-22T09:15:50.000Z</time>
      </trkpt>
      <trkpt lat="47.24646" lon="-1.58045">
        <ele>28.054134368896</ele>
        <time>2016-11-22T09:15:53.000Z</time>
      </trkpt>
      <trkpt lat="47.24647" lon="-1.5805">
        <ele>28.328683853149</ele>
        <time>2016-11-22T09:15:56.000Z</time>
      </trkpt>
      <trkpt lat="47.24649" lon="-1.58056">
        <ele>28.652221679688</ele>
        <time>2016-11-22T09:15:59.000Z</time>
      </trkpt>
      <trkpt lat="47.24652" lon="-1.5806">
        <ele>28.978881835938</ele>
        <time>2016-11-22T09:16:02.000Z</time>
      </trkpt>
      <trkpt lat="47.24654" lon="-1.58065">
        <ele>29.289150238037</ele>
        <time>2016-11-22T09:16:05.000Z</time>
      </trkpt>
      <trkpt lat="47.24656" lon="-1.58066">
        <ele>29.537511825562</ele>
        <time>2016-11-22T09:16:07.000Z</time>
      </trkpt>
      <trkpt lat="47.24659" lon="-1.58068">
        <ele>29.722967147827</ele>
        <time>2016-11-22T09:16:09.000Z</time>
      </trkpt>
      <trkpt lat="47.24659" lon="-1.58073">
        <ele>29.927703857422</ele>
        <time>2016-11-22T09:16:12.000Z</time>
      </trkpt>
      <trkpt lat="47.24659" lon="-1.58079">
        <ele>30.184143066406</ele>
        <time>2016-11-22T09:16:15.000Z</time>
      </trkpt>
      <trkpt lat="47.2466" lon="-1.58085">
        <ele>30.474609375</ele>
        <time>2016-11-22T09:16:18.000Z</time>
      </trkpt>
      <trkpt lat="47.24662" lon="-1.58089">
        <ele>30.788864135742</ele>
        <time>2016-11-22T09:16:20.000Z</time>
      </trkpt>
      <trkpt lat="47.24665" lon="-1.58094">
        <ele>31.117412567139</ele>
        <time>2016-11-22T09:16:23.000Z</time>
      </trkpt>
      <trkpt lat="47.24667" lon="-1.58098">
        <ele>31.369989395142</ele>
        <time>2016-11-22T09:16:26.000Z</time>
      </trkpt>
      <trkpt lat="47.24669" lon="-1.58101">
        <ele>31.497537612915</ele>
        <time>2016-11-22T09:16:28.000Z</time>
      </trkpt>
      <trkpt lat="47.24671" lon="-1.58106">
        <ele>31.531066894531</ele>
        <time>2016-11-22T09:16:31.000Z</time>
      </trkpt>
      <trkpt lat="47.24673" lon="-1.58109">
        <ele>31.503448486328</ele>
        <time>2016-11-22T09:16:33.000Z</time>
      </trkpt>
      <trkpt lat="47.24676" lon="-1.58113">
        <ele>31.424737930298</ele>
        <time>2016-11-22T09:16:36.000Z</time>
      </trkpt>
      <trkpt lat="47.24678" lon="-1.58117">
        <ele>31.30068397522</ele>
        <time>2016-11-22T09:16:39.000Z</time>
      </trkpt>
      <trkpt lat="47.2468" lon="-1.5812">
        <ele>31.196437835693</ele>
        <time>2016-11-22T09:16:41.000Z</time>
      </trkpt>
      <trkpt lat="47.24683" lon="-1.58124">
        <ele>31.093372344971</ele>
        <time>2016-11-22T09:16:44.000Z</time>
      </trkpt>
      <trkpt lat="47.24686" lon="-1.58129">
        <ele>30.991565704346</ele>
        <time>2016-11-22T09:16:47.000Z</time>
      </trkpt>
      <trkpt lat="47.24689" lon="-1.58134">
        <ele>30.898067474365</ele>
        <time>2016-11-22T09:16:50.000Z</time>
      </trkpt>
      <trkpt lat="47.24691" lon="-1.58137">
        <ele>30.820297241211</ele>
        <time>2016-11-22T09:16:52.000Z</time>
      </trkpt>
      <trkpt lat="47.24695" lon="-1.5814">
        <ele>30.70224571228</ele>
        <time>2016-11-22T09:16:55.000Z</time>
      </trkpt>
      <trkpt lat="47.24697" lon="-1.58145">
        <ele>30.609094619751</ele>
        <time>2016-11-22T09:16:58.000Z</time>
      </trkpt>
      <trkpt lat="47.24701" lon="-1.58149">
        <ele>30.529699325562</ele>
        <time>2016-11-22T09:17:01.000Z</time>
      </trkpt>
      <trkpt lat="47.24707" lon="-1.58153">
        <ele>30.410289764404</ele>
        <time>2016-11-22T09:17:04.000Z</time>
      </trkpt>
      <trkpt lat="47.24709" lon="-1.58156">
        <ele>30.315631866455</ele>
        <time>2016-11-22T09:17:06.000Z</time>
      </trkpt>
      <trkpt lat="47.2471" lon="-1.58161">
        <ele>30.311935424805</ele>
        <time>2016-11-22T09:17:09.000Z</time>
      </trkpt>
      <trkpt lat="47.24712" lon="-1.58166">
        <ele>30.348339080811</ele>
        <time>2016-11-22T09:17:12.000Z</time>
      </trkpt>
      <trkpt lat="47.24711" lon="-1.58172">
        <ele>30.425012588501</ele>
        <time>2016-11-22T09:17:15.000Z</time>
      </trkpt>
      <trkpt lat="47.24712" lon="-1.58178">
        <ele>30.564197540283</ele>
        <time>2016-11-22T09:17:18.000Z</time>
      </trkpt>
      <trkpt lat="47.2471" lon="-1.58183">
        <ele>30.727991104126</ele>
        <time>2016-11-22T09:17:21.000Z</time>
      </trkpt>
      <trkpt lat="47.2471" lon="-1.58185">
        <ele>30.854507446289</ele>
        <time>2016-11-22T09:17:24.000Z</time>
      </trkpt>
      <trkpt lat="47.24712" lon="-1.58187">
        <ele>30.901315689087</ele>
        <time>2016-11-22T09:17:27.000Z</time>
      </trkpt>
      <trkpt lat="47.24714" lon="-1.58188">
        <ele>30.881423950195</ele>
        <time>2016-11-22T09:17:30.000Z</time>
      </trkpt>
      <trkpt lat="47.24715" lon="-1.58189">
        <ele>30.831760406494</ele>
        <time>2016-11-22T09:17:32.000Z</time>
      </trkpt>
      <trkpt lat="47.24716" lon="-1.58189">
        <ele>30.722284317017</ele>
        <time>2016-11-22T09:17:34.000Z</time>
      </trkpt>
      <trkpt lat="47.24717" lon="-1.5819">
        <ele>30.589935302734</ele>
        <time>2016-11-22T09:17:36.000Z</time>
      </trkpt>
      <trkpt lat="47.24719" lon="-1.5819">
        <ele>30.427276611328</ele>
        <time>2016-11-22T09:17:39.000Z</time>
      </trkpt>
      <trkpt lat="47.24721" lon="-1.5819">
        <ele>30.270568847656</ele>
        <time>2016-11-22T09:17:41.000Z</time>
      </trkpt>
      <trkpt lat="47.24722" lon="-1.58192">
        <ele>30.122812271118</ele>
        <time>2016-11-22T09:17:43.000Z</time>
      </trkpt>
      <trkpt lat="47.24721" lon="-1.58195">
        <ele>30.012958526611</ele>
        <time>2016-11-22T09:17:46.000Z</time>
      </trkpt>
      <trkpt lat="47.24721" lon="-1.58201">
        <ele>29.925457000732</ele>
        <time>2016-11-22T09:17:49.000Z</time>
      </trkpt>
      <trkpt lat="47.24723" lon="-1.58206">
        <ele>29.866466522217</ele>
        <time>2016-11-22T09:17:51.000Z</time>
      </trkpt>
      <trkpt lat="47.24723" lon="-1.5821">
        <ele>29.826208114624</ele>
        <time>2016-11-22T09:17:53.000Z</time>
      </trkpt>
      <trkpt lat="47.24723" lon="-1.58216">
        <ele>29.816955566406</ele>
        <time>2016-11-22T09:17:55.000Z</time>
      </trkpt>
      <trkpt lat="47.24725" lon="-1.58224">
        <ele>29.758922576904</ele>
        <time>2016-11-22T09:17:58.000Z</time>
      </trkpt>
      <trkpt lat="47.24726" lon="-1.58228">
        <ele>29.665521621704</ele>
        <time>2016-11-22T09:18:00.000Z</time>
      </trkpt>
      <trkpt lat="47.24726" lon="-1.58234">
        <ele>29.577671051025</ele>
        <time>2016-11-22T09:18:03.000Z</time>
      </trkpt>
      <trkpt lat="47.24727" lon="-1.58239">
        <ele>29.485040664673</ele>
        <time>2016-11-22T09:18:05.000Z</time>
      </trkpt>
      <trkpt lat="47.24728" lon="-1.58244">
        <ele>29.356250762939</ele>
        <time>2016-11-22T09:18:08.000Z</time>
      </trkpt>
      <trkpt lat="47.24731" lon="-1.58249">
        <ele>29.194524765015</ele>
        <time>2016-11-22T09:18:11.000Z</time>
      </trkpt>
      <trkpt lat="47.24732" lon="-1.58253">
        <ele>29.016855239868</ele>
        <time>2016-11-22T09:18:13.000Z</time>
      </trkpt>
      <trkpt lat="47.24734" lon="-1.58255">
        <ele>28.813503265381</ele>
        <time>2016-11-22T09:18:15.000Z</time>
      </trkpt>
      <trkpt lat="47.24736" lon="-1.58259">
        <ele>28.587860107422</ele>
        <time>2016-11-22T09:18:18.000Z</time>
      </trkpt>
      <trkpt lat="47.24737" lon="-1.58261">
        <ele>28.340911865234</ele>
        <time>2016-11-22T09:18:20.000Z</time>
      </trkpt>
      <trkpt lat="47.24739" lon="-1.58263">
        <ele>28.098983764648</ele>
        <time>2016-11-22T09:18:22.000Z</time>
      </trkpt>
      <trkpt lat="47.24741" lon="-1.58266">
        <ele>27.862279891968</ele>
        <time>2016-11-22T09:18:24.000Z</time>
      </trkpt>
      <trkpt lat="47.24743" lon="-1.58268">
        <ele>27.61859703064</ele>
        <time>2016-11-22T09:18:26.000Z</time>
      </trkpt>
      <trkpt lat="47.24747" lon="-1.58268">
        <ele>27.320190429688</ele>
        <time>2016-11-22T09:18:29.000Z</time>
      </trkpt>
      <trkpt lat="47.24749" lon="-1.58267">
        <ele>27.01877784729</ele>
        <time>2016-11-22T09:18:31.000Z</time>
      </trkpt>
      <trkpt lat="47.24751" lon="-1.58264">
        <ele>26.717723846436</ele>
        <time>2016-11-22T09:18:34.000Z</time>
      </trkpt>
      <trkpt lat="47.24752" lon="-1.58264">
        <ele>26.433969497681</ele>
        <time>2016-11-22T09:18:37.000Z</time>
      </trkpt>
      <trkpt lat="47.24755" lon="-1.58263">
        <ele>26.133266448975</ele>
        <time>2016-11-22T09:18:40.000Z</time>
      </trkpt>
      <trkpt lat="47.24757" lon="-1.58261">
        <ele>25.891254425049</ele>
        <time>2016-11-22T09:18:42.000Z</time>
      </trkpt>
      <trkpt lat="47.24759" lon="-1.58258">
        <ele>25.644510269165</ele>
        <time>2016-11-22T09:18:44.000Z</time>
      </trkpt>
      <trkpt lat="47.24763" lon="-1.58255">
        <ele>25.359035491943</ele>
        <time>2016-11-22T09:18:47.000Z</time>
      </trkpt>
      <trkpt lat="47.24765" lon="-1.58254">
        <ele>25.067924499512</ele>
        <time>2016-11-22T09:18:49.000Z</time>
      </trkpt>
      <trkpt lat="47.24768" lon="-1.58253">
        <ele>24.760158538818</ele>
        <time>2016-11-22T09:18:52.000Z</time>
      </trkpt>
      <trkpt lat="47.24771" lon="-1.5825">
        <ele>24.418762207031</ele>
        <time>2016-11-22T09:18:54.000Z</time>
      </trkpt>
      <trkpt lat="47.24775" lon="-1.58247">
        <ele>24.058589935303</ele>
        <time>2016-11-22T09:18:57.000Z</time>
      </trkpt>
      <trkpt lat="47.24777" lon="-1.58244">
        <ele>23.750377655029</ele>
        <time>2016-11-22T09:18:59.000Z</time>
      </trkpt>
      <trkpt lat="47.2478" lon="-1.5824">
        <ele>23.411499023438</ele>
        <time>2016-11-22T09:19:02.000Z</time>
      </trkpt>
      <trkpt lat="47.24782" lon="-1.58238">
        <ele>23.114534378052</ele>
        <time>2016-11-22T09:19:04.000Z</time>
      </trkpt>
      <trkpt lat="47.24784" lon="-1.58234">
        <ele>22.837724685669</ele>
        <time>2016-11-22T09:19:07.000Z</time>
      </trkpt>
      <trkpt lat="47.24786" lon="-1.58231">
        <ele>22.594848632812</ele>
        <time>2016-11-22T09:19:09.000Z</time>
      </trkpt>
      <trkpt lat="47.24788" lon="-1.58226">
        <ele>22.357814788818</ele>
        <time>2016-11-22T09:19:12.000Z</time>
      </trkpt>
      <trkpt lat="47.24789" lon="-1.58222">
        <ele>22.152976989746</ele>
        <time>2016-11-22T09:19:14.000Z</time>
      </trkpt>
      <trkpt lat="47.24791" lon="-1.58217">
        <ele>21.944728851318</ele>
        <time>2016-11-22T09:19:17.000Z</time>
      </trkpt>
      <trkpt lat="47.24794" lon="-1.58212">
        <ele>21.731359481812</ele>
        <time>2016-11-22T09:19:20.000Z</time>
      </trkpt>
      <trkpt lat="47.24796" lon="-1.58208">
        <ele>21.494649887085</ele>
        <time>2016-11-22T09:19:23.000Z</time>
      </trkpt>
      <trkpt lat="47.248" lon="-1.58206">
        <ele>21.204074859619</ele>
        <time>2016-11-22T09:19:26.000Z</time>
      </trkpt>
      <trkpt lat="47.24803" lon="-1.58204">
        <ele>20.880950927734</ele>
        <time>2016-11-22T09:19:28.000Z</time>
      </trkpt>
      <trkpt lat="47.24806" lon="-1.58201">
        <ele>20.513414382935</ele>
        <time>2016-11-22T09:19:31.000Z</time>
      </trkpt>
      <trkpt lat="47.24808" lon="-1.58198">
        <ele>20.161682128906</ele>
        <time>2016-11-22T09:19:33.000Z</time>
      </trkpt>
      <trkpt lat="47.2481" lon="-1.58195">
        <ele>19.82562828064</ele>
        <time>2016-11-22T09:19:35.000Z</time>
      </trkpt>
      <trkpt lat="47.24812" lon="-1.58192">
        <ele>19.513919830322</ele>
        <time>2016-11-22T09:19:38.000Z</time>
      </trkpt>
      <trkpt lat="47.24814" lon="-1.58189">
        <ele>19.218893051147</ele>
        <time>2016-11-22T09:19:40.000Z</time>
      </trkpt>
      <trkpt lat="47.24817" lon="-1.58185">
        <ele>18.948436737061</ele>
        <time>2016-11-22T09:19:43.000Z</time>
      </trkpt>
      <trkpt lat="47.24819" lon="-1.58183">
        <ele>18.644155502319</ele>
        <time>2016-11-22T09:19:46.000Z</time>
      </trkpt>
      <trkpt lat="47.24821" lon="-1.58181">
        <ele>18.337936401367</ele>
        <time>2016-11-22T09:19:48.000Z</time>
      </trkpt>
      <trkpt lat="47.24823" lon="-1.58175">
        <ele>18.043834686279</ele>
        <time>2016-11-22T09:19:51.000Z</time>
      </trkpt>
      <trkpt lat="47.24826" lon="-1.58169">
        <ele>17.707929611206</ele>
        <time>2016-11-22T09:19:54.000Z</time>
      </trkpt>
      <trkpt lat="47.24826" lon="-1.58167">
        <ele>17.423341751099</ele>
        <time>2016-11-22T09:19:56.000Z</time>
      </trkpt>
      <trkpt lat="47.24829" lon="-1.58163">
        <ele>17.122247695923</ele>
        <time>2016-11-22T09:19:59.000Z</time>
      </trkpt>
      <trkpt lat="47.24831" lon="-1.58158">
        <ele>16.752159118652</ele>
        <time>2016-11-22T09:20:02.000Z</time>
      </trkpt>
      <trkpt lat="47.24832" lon="-1.58154">
        <ele>16.393888473511</ele>
        <time>2016-11-22T09:20:04.000Z</time>
      </trkpt>
      <trkpt lat="47.24834" lon="-1.58146">
        <ele>16.044645309448</ele>
        <time>2016-11-22T09:20:07.000Z</time>
      </trkpt>
      <trkpt lat="47.24836" lon="-1.5814">
        <ele>15.664163589478</ele>
        <time>2016-11-22T09:20:10.000Z</time>
      </trkpt>
      <trkpt lat="47.24837" lon="-1.58136">
        <ele>15.347618103027</ele>
        <time>2016-11-22T09:20:12.000Z</time>
      </trkpt>
      <trkpt lat="47.24838" lon="-1.58133">
        <ele>15.120397567749</ele>
        <time>2016-11-22T09:20:14.000Z</time>
      </trkpt>
      <trkpt lat="47.24841" lon="-1.58129">
        <ele>14.917317390442</ele>
        <time>2016-11-22T09:20:17.000Z</time>
      </trkpt>
      <trkpt lat="47.24844" lon="-1.58125">
        <ele>14.763153076172</ele>
        <time>2016-11-22T09:20:20.000Z</time>
      </trkpt>
      <trkpt lat="47.24845" lon="-1.58122">
        <ele>14.636642456055</ele>
        <time>2016-11-22T09:20:22.000Z</time>
      </trkpt>
      <trkpt lat="47.24848" lon="-1.58117">
        <ele>14.509798049927</ele>
        <time>2016-11-22T09:20:25.000Z</time>
      </trkpt>
      <trkpt lat="47.24849" lon="-1.58112">
        <ele>14.377275466919</ele>
        <time>2016-11-22T09:20:28.000Z</time>
      </trkpt>
      <trkpt lat="47.24851" lon="-1.58108">
        <ele>14.244809150696</ele>
        <time>2016-11-22T09:20:31.000Z</time>
      </trkpt>
      <trkpt lat="47.24854" lon="-1.58105">
        <ele>14.126205444336</ele>
        <time>2016-11-22T09:20:34.000Z</time>
      </trkpt>
      <trkpt lat="47.24857" lon="-1.58102">
        <ele>14.012992858887</ele>
        <time>2016-11-22T09:20:37.000Z</time>
      </trkpt>
      <trkpt lat="47.2486" lon="-1.581">
        <ele>13.920049667358</ele>
        <time>2016-11-22T09:20:40.000Z</time>
      </trkpt>
      <trkpt lat="47.24862" lon="-1.58099">
        <ele>13.856611251831</ele>
        <time>2016-11-22T09:20:42.000Z</time>
      </trkpt>
      <trkpt lat="47.24864" lon="-1.58098">
        <ele>13.817364692688</ele>
        <time>2016-11-22T09:20:44.000Z</time>
      </trkpt>
      <trkpt lat="47.24867" lon="-1.58095">
        <ele>13.781072616577</ele>
        <time>2016-11-22T09:20:47.000Z</time>
      </trkpt>
      <trkpt lat="47.24869" lon="-1.58092">
        <ele>13.746940612793</ele>
        <time>2016-11-22T09:20:49.000Z</time>
      </trkpt>
      <trkpt lat="47.24871" lon="-1.58087">
        <ele>13.699398994446</ele>
        <time>2016-11-22T09:20:52.000Z</time>
      </trkpt>
      <trkpt lat="47.24873" lon="-1.58082">
        <ele>13.632070541382</ele>
        <time>2016-11-22T09:20:55.000Z</time>
      </trkpt>
      <trkpt lat="47.24875" lon="-1.58079">
        <ele>13.553491592407</ele>
        <time>2016-11-22T09:20:57.000Z</time>
      </trkpt>
      <trkpt lat="47.24877" lon="-1.58073">
        <ele>13.463447570801</ele>
        <time>2016-11-22T09:21:00.000Z</time>
      </trkpt>
      <trkpt lat="47.24878" lon="-1.58068">
        <ele>13.367010116577</ele>
        <time>2016-11-22T09:21:02.000Z</time>
      </trkpt>
      <trkpt lat="47.24881" lon="-1.58063">
        <ele>13.273315429688</ele>
        <time>2016-11-22T09:21:05.000Z</time>
      </trkpt>
      <trkpt lat="47.24883" lon="-1.5806">
        <ele>13.188781738281</ele>
        <time>2016-11-22T09:21:07.000Z</time>
      </trkpt>
      <trkpt lat="47.24886" lon="-1.58056">
        <ele>13.105102539062</ele>
        <time>2016-11-22T09:21:10.000Z</time>
      </trkpt>
      <trkpt lat="47.24889" lon="-1.58054">
        <ele>13.044860839844</ele>
        <time>2016-11-22T09:21:12.000Z</time>
      </trkpt>
      <trkpt lat="47.24891" lon="-1.58054">
        <ele>13.004760742188</ele>
        <time>2016-11-22T09:21:14.000Z</time>
      </trkpt>
      <trkpt lat="47.24895" lon="-1.58054">
        <ele>12.995178222656</ele>
        <time>2016-11-22T09:21:17.000Z</time>
      </trkpt>
      <trkpt lat="47.24897" lon="-1.58058">
        <ele>13.019470214844</ele>
        <time>2016-11-22T09:21:20.000Z</time>
      </trkpt>
      <trkpt lat="47.24899" lon="-1.58061">
        <ele>13.078674316406</ele>
        <time>2016-11-22T09:21:23.000Z</time>
      </trkpt>
      <trkpt lat="47.249" lon="-1.58066">
        <ele>13.161804199219</ele>
        <time>2016-11-22T09:21:26.000Z</time>
      </trkpt>
      <trkpt lat="47.249" lon="-1.58071">
        <ele>13.269592285156</ele>
        <time>2016-11-22T09:21:29.000Z</time>
      </trkpt>
      <trkpt lat="47.24901" lon="-1.58077">
        <ele>13.392761230469</ele>
        <time>2016-11-22T09:21:32.000Z</time>
      </trkpt>
      <trkpt lat="47.24902" lon="-1.58081">
        <ele>13.516418457031</ele>
        <time>2016-11-22T09:21:34.000Z</time>
      </trkpt>
      <trkpt lat="47.24902" lon="-1.58085">
        <ele>13.632479667664</ele>
        <time>2016-11-22T09:21:36.000Z</time>
      </trkpt>
      <trkpt lat="47.249" lon="-1.58091">
        <ele>13.741559028625</ele>
        <time>2016-11-22T09:21:39.000Z</time>
      </trkpt>
      <trkpt lat="47.249" lon="-1.58095">
        <ele>13.83504486084</ele>
        <time>2016-11-22T09:21:41.000Z</time>
      </trkpt>
      <trkpt lat="47.24899" lon="-1.58097">
        <ele>13.910670280457</ele>
        <time>2016-11-22T09:21:44.000Z</time>
      </trkpt>
      <trkpt lat="47.24899" lon="-1.58102">
        <ele>13.977536201477</ele>
        <time>2016-11-22T09:21:46.000Z</time>
      </trkpt>
      <trkpt lat="47.24897" lon="-1.58108">
        <ele>14.048851013184</ele>
        <time>2016-11-22T09:21:49.000Z</time>
      </trkpt>
      <trkpt lat="47.24895" lon="-1.58111">
        <ele>14.113499641418</ele>
        <time>2016-11-22T09:21:51.000Z</time>
      </trkpt>
      <trkpt lat="47.24894" lon="-1.58117">
        <ele>14.186563491821</ele>
        <time>2016-11-22T09:21:54.000Z</time>
      </trkpt>
      <trkpt lat="47.24893" lon="-1.58122">
        <ele>14.27036857605</ele>
        <time>2016-11-22T09:21:57.000Z</time>
      </trkpt>
      <trkpt lat="47.24892" lon="-1.58126">
        <ele>14.352584838867</ele>
        <time>2016-11-22T09:21:59.000Z</time>
      </trkpt>
      <trkpt lat="47.24891" lon="-1.58129">
        <ele>14.429425239563</ele>
        <time>2016-11-22T09:22:01.000Z</time>
      </trkpt>
      <trkpt lat="47.24888" lon="-1.58135">
        <ele>14.518348693848</ele>
        <time>2016-11-22T09:22:04.000Z</time>
      </trkpt>
      <trkpt lat="47.24887" lon="-1.58139">
        <ele>14.605195999146</ele>
        <time>2016-11-22T09:22:06.000Z</time>
      </trkpt>
      <trkpt lat="47.24885" lon="-1.58146">
        <ele>14.701797485352</ele>
        <time>2016-11-22T09:22:09.000Z</time>
      </trkpt>
      <trkpt lat="47.24884" lon="-1.5815">
        <ele>14.806814193726</ele>
        <time>2016-11-22T09:22:11.000Z</time>
      </trkpt>
      <trkpt lat="47.24883" lon="-1.58157">
        <ele>14.928495407104</ele>
        <time>2016-11-22T09:22:14.000Z</time>
      </trkpt>
      <trkpt lat="47.24882" lon="-1.5816">
        <ele>15.043022155762</ele>
        <time>2016-11-22T09:22:16.000Z</time>
      </trkpt>
      <trkpt lat="47.2488" lon="-1.58166">
        <ele>15.168935775757</ele>
        <time>2016-11-22T09:22:19.000Z</time>
      </trkpt>
      <trkpt lat="47.24879" lon="-1.58169">
        <ele>15.296246528625</ele>
        <time>2016-11-22T09:22:21.000Z</time>
      </trkpt>
      <trkpt lat="47.24878" lon="-1.58173">
        <ele>15.437347412109</ele>
        <time>2016-11-22T09:22:23.000Z</time>
      </trkpt>
      <trkpt lat="47.24877" lon="-1.58179">
        <ele>15.600156784058</ele>
        <time>2016-11-22T09:22:26.000Z</time>
      </trkpt>
      <trkpt lat="47.24876" lon="-1.58183">
        <ele>15.783517837524</ele>
        <time>2016-11-22T09:22:28.000Z</time>
      </trkpt>
      <trkpt lat="47.24875" lon="-1.58187">
        <ele>15.96698474884</ele>
        <time>2016-11-22T09:22:30.000Z</time>
      </trkpt>
      <trkpt lat="47.24874" lon="-1.58193">
        <ele>16.168996810913</ele>
        <time>2016-11-22T09:22:33.000Z</time>
      </trkpt>
      <trkpt lat="47.24873" lon="-1.58198">
        <ele>16.380641937256</ele>
        <time>2016-11-22T09:22:36.000Z</time>
      </trkpt>
      <trkpt lat="47.24873" lon="-1.58202">
        <ele>16.569387435913</ele>
        <time>2016-11-22T09:22:38.000Z</time>
      </trkpt>
      <trkpt lat="47.24873" lon="-1.58207">
        <ele>16.762521743774</ele>
        <time>2016-11-22T09:22:41.000Z</time>
      </trkpt>
      <trkpt lat="47.24873" lon="-1.58211">
        <ele>16.959928512573</ele>
        <time>2016-11-22T09:22:43.000Z</time>
      </trkpt>
      <trkpt lat="47.24871" lon="-1.58218">
        <ele>17.158405303955</ele>
        <time>2016-11-22T09:22:46.000Z</time>
      </trkpt>
      <trkpt lat="47.2487" lon="-1.58224">
        <ele>17.351083755493</ele>
        <time>2016-11-22T09:22:49.000Z</time>
      </trkpt>
      <trkpt lat="47.24869" lon="-1.5823">
        <ele>17.55339050293</ele>
        <time>2016-11-22T09:22:52.000Z</time>
      </trkpt>
      <trkpt lat="47.24868" lon="-1.58234">
        <ele>17.736154556274</ele>
        <time>2016-11-22T09:22:54.000Z</time>
      </trkpt>
      <trkpt lat="47.24867" lon="-1.5824">
        <ele>17.919925689697</ele>
        <time>2016-11-22T09:22:57.000Z</time>
      </trkpt>
      <trkpt lat="47.24866" lon="-1.58246">
        <ele>18.091135025024</ele>
        <time>2016-11-22T09:23:00.000Z</time>
      </trkpt>
      <trkpt lat="47.24866" lon="-1.5825">
        <ele>18.256332397461</ele>
        <time>2016-11-22T09:23:02.000Z</time>
      </trkpt>
      <trkpt lat="47.24865" lon="-1.58256">
        <ele>18.472383499146</ele>
        <time>2016-11-22T09:23:05.000Z</time>
      </trkpt>
      <trkpt lat="47.24865" lon="-1.5826">
        <ele>18.726451873779</ele>
        <time>2016-11-22T09:23:07.000Z</time>
      </trkpt>
      <trkpt lat="47.24864" lon="-1.58265">
        <ele>19.018985748291</ele>
        <time>2016-11-22T09:23:10.000Z</time>
      </trkpt>
      <trkpt lat="47.24863" lon="-1.58271">
        <ele>19.35302734375</ele>
        <time>2016-11-22T09:23:13.000Z</time>
      </trkpt>
      <trkpt lat="47.24862" lon="-1.58275">
        <ele>19.712184906006</ele>
        <time>2016-11-22T09:23:15.000Z</time>
      </trkpt>
      <trkpt lat="47.24861" lon="-1.58281">
        <ele>20.063098907471</ele>
        <time>2016-11-22T09:23:18.000Z</time>
      </trkpt>
      <trkpt lat="47.2486" lon="-1.58287">
        <ele>20.440975189209</ele>
        <time>2016-11-22T09:23:21.000Z</time>
      </trkpt>
      <trkpt lat="47.2486" lon="-1.58292">
        <ele>20.82061958313</ele>
        <time>2016-11-22T09:23:24.000Z</time>
      </trkpt>
      <trkpt lat="47.24859" lon="-1.58295">
        <ele>21.166164398193</ele>
        <time>2016-11-22T09:23:26.000Z</time>
      </trkpt>
      <trkpt lat="47.24858" lon="-1.58298">
        <ele>21.484348297119</ele>
        <time>2016-11-22T09:23:28.000Z</time>
      </trkpt>
      <trkpt lat="47.2486" lon="-1.58299">
        <ele>21.773036956787</ele>
        <time>2016-11-22T09:23:31.000Z</time>
      </trkpt>
      <trkpt lat="47.24861" lon="-1.58302">
        <ele>22.02571105957</ele>
        <time>2016-11-22T09:23:36.000Z</time>
      </trkpt>
      <trkpt lat="47.24862" lon="-1.58303">
        <ele>22.235107421875</ele>
        <time>2016-11-22T09:23:39.000Z</time>
      </trkpt>
      <trkpt lat="47.24863" lon="-1.58305">
        <ele>22.431612014771</ele>
        <time>2016-11-22T09:23:41.000Z</time>
      </trkpt>
      <trkpt lat="47.24864" lon="-1.58306">
        <ele>22.624624252319</ele>
        <time>2016-11-22T09:23:43.000Z</time>
      </trkpt>
      <trkpt lat="47.24865" lon="-1.58308">
        <ele>22.808689117432</ele>
        <time>2016-11-22T09:23:45.000Z</time>
      </trkpt>
      <trkpt lat="47.24863" lon="-1.5831">
        <ele>22.959987640381</ele>
        <time>2016-11-22T09:23:48.000Z</time>
      </trkpt>
      <trkpt lat="47.24862" lon="-1.58312">
        <ele>23.108865737915</ele>
        <time>2016-11-22T09:23:50.000Z</time>
      </trkpt>
      <trkpt lat="47.24863" lon="-1.58316">
        <ele>23.284204483032</ele>
        <time>2016-11-22T09:23:53.000Z</time>
      </trkpt>
      <trkpt lat="47.24863" lon="-1.58318">
        <ele>23.476654052734</ele>
        <time>2016-11-22T09:23:55.000Z</time>
      </trkpt>
      <trkpt lat="47.24865" lon="-1.5832">
        <ele>23.676181793213</ele>
        <time>2016-11-22T09:23:57.000Z</time>
      </trkpt>
      <trkpt lat="47.24866" lon="-1.58322">
        <ele>23.904079437256</ele>
        <time>2016-11-22T09:23:59.000Z</time>
      </trkpt>
      <trkpt lat="47.24865" lon="-1.58325">
        <ele>24.158882141113</ele>
        <time>2016-11-22T09:24:02.000Z</time>
      </trkpt>
      <trkpt lat="47.24865" lon="-1.58329">
        <ele>24.405017852783</ele>
        <time>2016-11-22T09:24:04.000Z</time>
      </trkpt>
      <trkpt lat="47.24865" lon="-1.58331">
        <ele>24.64086151123</ele>
        <time>2016-11-22T09:24:06.000Z</time>
      </trkpt>
      <trkpt lat="47.24865" lon="-1.58336">
        <ele>24.894725799561</ele>
        <time>2016-11-22T09:24:09.000Z</time>
      </trkpt>
      <trkpt lat="47.24865" lon="-1.58341">
        <ele>25.16482925415</ele>
        <time>2016-11-22T09:24:12.000Z</time>
      </trkpt>
      <trkpt lat="47.24865" lon="-1.58345">
        <ele>25.419046401978</ele>
        <time>2016-11-22T09:24:15.000Z</time>
      </trkpt>
      <trkpt lat="47.24866" lon="-1.58347">
        <ele>25.654735565186</ele>
        <time>2016-11-22T09:24:18.000Z</time>
      </trkpt>
      <trkpt lat="47.24866" lon="-1.58349">
        <ele>25.87389755249</ele>
        <time>2016-11-22T09:24:20.000Z</time>
      </trkpt>
      <trkpt lat="47.24865" lon="-1.58351">
        <ele>26.042016983032</ele>
        <time>2016-11-22T09:24:22.000Z</time>
      </trkpt>
      <trkpt lat="47.24865" lon="-1.58352">
        <ele>26.161056518555</ele>
        <time>2016-11-22T09:24:25.000Z</time>
      </trkpt>
      <trkpt lat="47.24864" lon="-1.58355">
        <ele>26.251190185547</ele>
        <time>2016-11-22T09:24:28.000Z</time>
      </trkpt>
      <trkpt lat="47.24863" lon="-1.5836">
        <ele>26.351373672485</ele>
        <time>2016-11-22T09:24:31.000Z</time>
      </trkpt>
      <trkpt lat="47.24862" lon="-1.58363">
        <ele>26.457096099854</ele>
        <time>2016-11-22T09:24:33.000Z</time>
      </trkpt>
      <trkpt lat="47.2486" lon="-1.58366">
        <ele>26.564126968384</ele>
        <time>2016-11-22T09:24:36.000Z</time>
      </trkpt>
      <trkpt lat="47.2486" lon="-1.58368">
        <ele>26.665563583374</ele>
        <time>2016-11-22T09:24:38.000Z</time>
      </trkpt>
      <trkpt lat="47.2486" lon="-1.58371">
        <ele>26.789911270142</ele>
        <time>2016-11-22T09:24:41.000Z</time>
      </trkpt>
      <trkpt lat="47.2486" lon="-1.58372">
        <ele>26.895559310913</ele>
        <time>2016-11-22T09:24:43.000Z</time>
      </trkpt>
      <trkpt lat="47.24861" lon="-1.58376">
        <ele>27.036005020142</ele>
        <time>2016-11-22T09:24:46.000Z</time>
      </trkpt>
      <trkpt lat="47.24861" lon="-1.58378">
        <ele>27.182912826538</ele>
        <time>2016-11-22T09:24:48.000Z</time>
      </trkpt>
      <trkpt lat="47.24862" lon="-1.58381">
        <ele>27.370386123657</ele>
        <time>2016-11-22T09:24:51.000Z</time>
      </trkpt>
      <trkpt lat="47.24863" lon="-1.58383">
        <ele>27.546407699585</ele>
        <time>2016-11-22T09:24:53.000Z</time>
      </trkpt>
      <trkpt lat="47.24863" lon="-1.58387">
        <ele>27.743173599243</ele>
        <time>2016-11-22T09:24:56.000Z</time>
      </trkpt>
      <trkpt lat="47.24863" lon="-1.5839">
        <ele>27.917285919189</ele>
        <time>2016-11-22T09:24:58.000Z</time>
      </trkpt>
      <trkpt lat="47.24864" lon="-1.58392">
        <ele>28.105880737305</ele>
        <time>2016-11-22T09:25:00.000Z</time>
      </trkpt>
      <trkpt lat="47.24865" lon="-1.58396">
        <ele>28.290622711182</ele>
        <time>2016-11-22T09:25:03.000Z</time>
      </trkpt>
      <trkpt lat="47.24866" lon="-1.58398">
        <ele>28.506952285767</ele>
        <time>2016-11-22T09:25:06.000Z</time>
      </trkpt>
      <trkpt lat="47.24867" lon="-1.58402">
        <ele>28.735315322876</ele>
        <time>2016-11-22T09:25:09.000Z</time>
      </trkpt>
      <trkpt lat="47.24869" lon="-1.58405">
        <ele>28.977214813232</ele>
        <time>2016-11-22T09:25:12.000Z</time>
      </trkpt>
      <trkpt lat="47.24871" lon="-1.58407">
        <ele>29.235919952393</ele>
        <time>2016-11-22T09:25:15.000Z</time>
      </trkpt>
      <trkpt lat="47.24873" lon="-1.5841">
        <ele>29.498666763306</ele>
        <time>2016-11-22T09:25:17.000Z</time>
      </trkpt>
      <trkpt lat="47.24874" lon="-1.58412">
        <ele>29.749942779541</ele>
        <time>2016-11-22T09:25:19.000Z</time>
      </trkpt>
      <trkpt lat="47.24876" lon="-1.58417">
        <ele>30.012065887451</ele>
        <time>2016-11-22T09:25:22.000Z</time>
      </trkpt>
      <trkpt lat="47.24878" lon="-1.58421">
        <ele>30.259588241577</ele>
        <time>2016-11-22T09:25:25.000Z</time>
      </trkpt>
      <trkpt lat="47.24879" lon="-1.58423">
        <ele>30.483118057251</ele>
        <time>2016-11-22T09:25:27.000Z</time>
      </trkpt>
      <trkpt lat="47.24882" lon="-1.58424">
        <ele>30.69079208374</ele>
        <time>2016-11-22T09:25:30.000Z</time>
      </trkpt>
      <trkpt lat="47.24884" lon="-1.58427">
        <ele>30.888753890991</ele>
        <time>2016-11-22T09:25:33.000Z</time>
      </trkpt>
      <trkpt lat="47.24887" lon="-1.5843">
        <ele>31.063323974609</ele>
        <time>2016-11-22T09:25:36.000Z</time>
      </trkpt>
      <trkpt lat="47.24889" lon="-1.58431">
        <ele>31.225973129272</ele>
        <time>2016-11-22T09:25:38.000Z</time>
      </trkpt>
      <trkpt lat="47.24889" lon="-1.58432">
        <ele>31.368835449219</ele>
        <time>2016-11-22T09:25:41.000Z</time>
      </trkpt>
      <trkpt lat="47.24889" lon="-1.5843">
        <ele>31.468265533447</ele>
        <time>2016-11-22T09:26:00.000Z</time>
      </trkpt>
      <trkpt lat="47.24889" lon="-1.58429">
        <ele>31.526708602905</ele>
        <time>2016-11-22T09:26:03.000Z</time>
      </trkpt>
      <trkpt lat="47.24894" lon="-1.58437">
        <ele>31.632678985596</ele>
        <time>2016-11-22T09:31:44.000Z</time>
      </trkpt>
      <trkpt lat="47.24895" lon="-1.58441">
        <ele>31.744470596313</ele>
        <time>2016-11-22T09:31:47.000Z</time>
      </trkpt>
      <trkpt lat="47.24898" lon="-1.58443">
        <ele>31.877414703369</ele>
        <time>2016-11-22T09:31:49.000Z</time>
      </trkpt>
      <trkpt lat="47.24899" lon="-1.58445">
        <ele>32.038230895996</ele>
        <time>2016-11-22T09:31:52.000Z</time>
      </trkpt>
      <trkpt lat="47.24901" lon="-1.58446">
        <ele>32.229518890381</ele>
        <time>2016-11-22T09:31:54.000Z</time>
      </trkpt>
      <trkpt lat="47.24902" lon="-1.58448">
        <ele>32.353130340576</ele>
        <time>2016-11-22T09:31:56.000Z</time>
      </trkpt>
      <trkpt lat="47.24904" lon="-1.58449">
        <ele>32.475868225098</ele>
        <time>2016-11-22T09:31:58.000Z</time>
      </trkpt>
      <trkpt lat="47.24906" lon="-1.58452">
        <ele>32.589336395264</ele>
        <time>2016-11-22T09:32:01.000Z</time>
      </trkpt>
      <trkpt lat="47.24907" lon="-1.58454">
        <ele>32.701164245605</ele>
        <time>2016-11-22T09:32:03.000Z</time>
      </trkpt>
      <trkpt lat="47.24908" lon="-1.5846">
        <ele>32.817977905273</ele>
        <time>2016-11-22T09:32:06.000Z</time>
      </trkpt>
      <trkpt lat="47.24908" lon="-1.58465">
        <ele>32.930183410645</ele>
        <time>2016-11-22T09:32:09.000Z</time>
      </trkpt>
      <trkpt lat="47.2491" lon="-1.5847">
        <ele>33.041938781738</ele>
        <time>2016-11-22T09:32:12.000Z</time>
      </trkpt>
      <trkpt lat="47.2491" lon="-1.58473">
        <ele>33.138332366943</ele>
        <time>2016-11-22T09:32:14.000Z</time>
      </trkpt>
      <trkpt lat="47.2491" lon="-1.58479">
        <ele>33.238121032715</ele>
        <time>2016-11-22T09:32:17.000Z</time>
      </trkpt>
      <trkpt lat="47.2491" lon="-1.58482">
        <ele>33.322891235352</ele>
        <time>2016-11-22T09:32:19.000Z</time>
      </trkpt>
      <trkpt lat="47.24911" lon="-1.58488">
        <ele>33.411689758301</ele>
        <time>2016-11-22T09:32:22.000Z</time>
      </trkpt>
      <trkpt lat="47.24911" lon="-1.58491">
        <ele>33.482036590576</ele>
        <time>2016-11-22T09:32:24.000Z</time>
      </trkpt>
      <trkpt lat="47.24913" lon="-1.58495">
        <ele>33.570327758789</ele>
        <time>2016-11-22T09:32:27.000Z</time>
      </trkpt>
      <trkpt lat="47.24915" lon="-1.58496">
        <ele>33.665836334229</ele>
        <time>2016-11-22T09:32:29.000Z</time>
      </trkpt>
      <trkpt lat="47.2492" lon="-1.58495">
        <ele>33.735160827637</ele>
        <time>2016-11-22T09:32:32.000Z</time>
      </trkpt>
      <trkpt lat="47.24923" lon="-1.58495">
        <ele>33.758811950684</ele>
        <time>2016-11-22T09:32:34.000Z</time>
      </trkpt>
      <trkpt lat="47.24926" lon="-1.58493">
        <ele>33.742332458496</ele>
        <time>2016-11-22T09:32:37.000Z</time>
      </trkpt>
      <trkpt lat="47.24929" lon="-1.58493">
        <ele>33.678340911865</ele>
        <time>2016-11-22T09:32:39.000Z</time>
      </trkpt>
      <trkpt lat="47.24932" lon="-1.58492">
        <ele>33.558963775635</ele>
        <time>2016-11-22T09:32:42.000Z</time>
      </trkpt>
      <trkpt lat="47.24937" lon="-1.5849">
        <ele>33.409072875977</ele>
        <time>2016-11-22T09:32:45.000Z</time>
      </trkpt>
      <trkpt lat="47.2494" lon="-1.58489">
        <ele>33.249317169189</ele>
        <time>2016-11-22T09:32:48.000Z</time>
      </trkpt>
      <trkpt lat="47.24942" lon="-1.58488">
        <ele>33.100749969482</ele>
        <time>2016-11-22T09:32:50.000Z</time>
      </trkpt>
      <trkpt lat="47.24945" lon="-1.58486">
        <ele>32.945320129395</ele>
        <time>2016-11-22T09:32:53.000Z</time>
      </trkpt>
      <trkpt lat="47.24948" lon="-1.58484">
        <ele>32.779376983643</ele>
        <time>2016-11-22T09:32:56.000Z</time>
      </trkpt>
      <trkpt lat="47.24951" lon="-1.58481">
        <ele>32.616432189941</ele>
        <time>2016-11-22T09:32:59.000Z</time>
      </trkpt>
      <trkpt lat="47.24953" lon="-1.58477">
        <ele>32.445835113525</ele>
        <time>2016-11-22T09:33:02.000Z</time>
      </trkpt>
      <trkpt lat="47.24954" lon="-1.58474">
        <ele>32.265766143799</ele>
        <time>2016-11-22T09:33:04.000Z</time>
      </trkpt>
      <trkpt lat="47.24956" lon="-1.5847">
        <ele>32.077262878418</ele>
        <time>2016-11-22T09:33:06.000Z</time>
      </trkpt>
      <trkpt lat="47.24956" lon="-1.58466">
        <ele>31.901271820068</ele>
        <time>2016-11-22T09:33:09.000Z</time>
      </trkpt>
      <trkpt lat="47.24955" lon="-1.5846">
        <ele>31.743265151978</ele>
        <time>2016-11-22T09:33:12.000Z</time>
      </trkpt>
      <trkpt lat="47.24955" lon="-1.58457">
        <ele>31.616436004639</ele>
        <time>2016-11-22T09:33:14.000Z</time>
      </trkpt>
      <trkpt lat="47.24954" lon="-1.58451">
        <ele>31.492349624634</ele>
        <time>2016-11-22T09:33:17.000Z</time>
      </trkpt>
      <trkpt lat="47.24954" lon="-1.58446">
        <ele>31.374919891357</ele>
        <time>2016-11-22T09:33:20.000Z</time>
      </trkpt>
      <trkpt lat="47.24953" lon="-1.5844">
        <ele>31.255981445312</ele>
        <time>2016-11-22T09:33:23.000Z</time>
      </trkpt>
      <trkpt lat="47.24952" lon="-1.58435">
        <ele>31.148529052734</ele>
        <time>2016-11-22T09:33:26.000Z</time>
      </trkpt>
      <trkpt lat="47.24952" lon="-1.5843">
        <ele>31.031381607056</ele>
        <time>2016-11-22T09:33:29.000Z</time>
      </trkpt>
      <trkpt lat="47.24952" lon="-1.58428">
        <ele>30.931453704834</ele>
        <time>2016-11-22T09:33:32.000Z</time>
      </trkpt>
      <trkpt lat="47.24954" lon="-1.58417">
        <ele>30.767663955688</ele>
        <time>2016-11-22T09:33:39.000Z</time>
      </trkpt>
      <trkpt lat="47.24954" lon="-1.58415">
        <ele>30.623031616211</ele>
        <time>2016-11-22T09:33:41.000Z</time>
      </trkpt>
      <trkpt lat="47.24954" lon="-1.5841">
        <ele>30.458978652954</ele>
        <time>2016-11-22T09:33:44.000Z</time>
      </trkpt>
      <trkpt lat="47.24955" lon="-1.58406">
        <ele>30.281763076782</ele>
        <time>2016-11-22T09:33:46.000Z</time>
      </trkpt>
      <trkpt lat="47.24956" lon="-1.584">
        <ele>30.055908203125</ele>
        <time>2016-11-22T09:33:49.000Z</time>
      </trkpt>
      <trkpt lat="47.24957" lon="-1.58396">
        <ele>29.894542694092</ele>
        <time>2016-11-22T09:33:51.000Z</time>
      </trkpt>
      <trkpt lat="47.24958" lon="-1.58389">
        <ele>29.679113388062</ele>
        <time>2016-11-22T09:33:54.000Z</time>
      </trkpt>
      <trkpt lat="47.2496" lon="-1.58384">
        <ele>29.442642211914</ele>
        <time>2016-11-22T09:33:56.000Z</time>
      </trkpt>
      <trkpt lat="47.24963" lon="-1.58375">
        <ele>29.152477264404</ele>
        <time>2016-11-22T09:33:59.000Z</time>
      </trkpt>
      <trkpt lat="47.24965" lon="-1.58369">
        <ele>28.867137908936</ele>
        <time>2016-11-22T09:34:01.000Z</time>
      </trkpt>
      <trkpt lat="47.24967" lon="-1.58362">
        <ele>28.552127838135</ele>
        <time>2016-11-22T09:34:04.000Z</time>
      </trkpt>
      <trkpt lat="47.24969" lon="-1.58357">
        <ele>28.257104873657</ele>
        <time>2016-11-22T09:34:07.000Z</time>
      </trkpt>
      <trkpt lat="47.24971" lon="-1.58355">
        <ele>27.982086181641</ele>
        <time>2016-11-22T09:34:09.000Z</time>
      </trkpt>
      <trkpt lat="47.24973" lon="-1.58353">
        <ele>27.772323608398</ele>
        <time>2016-11-22T09:34:12.000Z</time>
      </trkpt>
      <trkpt lat="47.24974" lon="-1.58353">
        <ele>27.603313446045</ele>
        <time>2016-11-22T09:34:14.000Z</time>
      </trkpt>
      <trkpt lat="47.24976" lon="-1.58354">
        <ele>27.478771209717</ele>
        <time>2016-11-22T09:34:16.000Z</time>
      </trkpt>
      <trkpt lat="47.24978" lon="-1.58351">
        <ele>27.371212005615</ele>
        <time>2016-11-22T09:34:19.000Z</time>
      </trkpt>
      <trkpt lat="47.24978" lon="-1.58347">
        <ele>27.275573730469</ele>
        <time>2016-11-22T09:34:21.000Z</time>
      </trkpt>
      <trkpt lat="47.24979" lon="-1.58342">
        <ele>27.175678253174</ele>
        <time>2016-11-22T09:34:24.000Z</time>
      </trkpt>
      <trkpt lat="47.24979" lon="-1.58338">
        <ele>27.073101043701</ele>
        <time>2016-11-22T09:34:26.000Z</time>
      </trkpt>
      <trkpt lat="47.24979" lon="-1.58335">
        <ele>26.966482162476</ele>
        <time>2016-11-22T09:34:28.000Z</time>
      </trkpt>
      <trkpt lat="47.2498" lon="-1.5833">
        <ele>26.822427749634</ele>
        <time>2016-11-22T09:34:30.000Z</time>
      </trkpt>
      <trkpt lat="47.2498" lon="-1.58325">
        <ele>26.610412597656</ele>
        <time>2016-11-22T09:34:33.000Z</time>
      </trkpt>
      <trkpt lat="47.2498" lon="-1.58323">
        <ele>26.381265640259</ele>
        <time>2016-11-22T09:34:35.000Z</time>
      </trkpt>
      <trkpt lat="47.2498" lon="-1.58317">
        <ele>26.059986114502</ele>
        <time>2016-11-22T09:34:38.000Z</time>
      </trkpt>
      <trkpt lat="47.2498" lon="-1.58311">
        <ele>25.669708251953</ele>
        <time>2016-11-22T09:34:40.000Z</time>
      </trkpt>
      <trkpt lat="47.24979" lon="-1.58305">
        <ele>25.232307434082</ele>
        <time>2016-11-22T09:34:43.000Z</time>
      </trkpt>
      <trkpt lat="47.24977" lon="-1.58299">
        <ele>24.791519165039</ele>
        <time>2016-11-22T09:34:46.000Z</time>
      </trkpt>
      <trkpt lat="47.24977" lon="-1.58295">
        <ele>24.333751678467</ele>
        <time>2016-11-22T09:34:48.000Z</time>
      </trkpt>
      <trkpt lat="47.24975" lon="-1.5829">
        <ele>23.908201217651</ele>
        <time>2016-11-22T09:34:51.000Z</time>
      </trkpt>
      <trkpt lat="47.24974" lon="-1.58287">
        <ele>23.5129737854</ele>
        <time>2016-11-22T09:34:53.000Z</time>
      </trkpt>
      <trkpt lat="47.24973" lon="-1.58281">
        <ele>23.139694213867</ele>
        <time>2016-11-22T09:34:56.000Z</time>
      </trkpt>
      <trkpt lat="47.24973" lon="-1.58278">
        <ele>22.798114776611</ele>
        <time>2016-11-22T09:34:58.000Z</time>
      </trkpt>
      <trkpt lat="47.24973" lon="-1.58272">
        <ele>22.414646148682</ele>
        <time>2016-11-22T09:35:01.000Z</time>
      </trkpt>
      <trkpt lat="47.24973" lon="-1.58266">
        <ele>22.011638641357</ele>
        <time>2016-11-22T09:35:04.000Z</time>
      </trkpt>
      <trkpt lat="47.24973" lon="-1.58261">
        <ele>21.559942245483</ele>
        <time>2016-11-22T09:35:07.000Z</time>
      </trkpt>
      <trkpt lat="47.24972" lon="-1.58257">
        <ele>21.130498886108</ele>
        <time>2016-11-22T09:35:09.000Z</time>
      </trkpt>
      <trkpt lat="47.24972" lon="-1.58252">
        <ele>20.686876296997</ele>
        <time>2016-11-22T09:35:11.000Z</time>
      </trkpt>
      <trkpt lat="47.24972" lon="-1.58247">
        <ele>20.269226074219</ele>
        <time>2016-11-22T09:35:14.000Z</time>
      </trkpt>
      <trkpt lat="47.24971" lon="-1.58242">
        <ele>19.891759872437</ele>
        <time>2016-11-22T09:35:17.000Z</time>
      </trkpt>
      <trkpt lat="47.24971" lon="-1.58238">
        <ele>19.582061767578</ele>
        <time>2016-11-22T09:35:19.000Z</time>
      </trkpt>
      <trkpt lat="47.2497" lon="-1.58233">
        <ele>19.284008026123</ele>
        <time>2016-11-22T09:35:21.000Z</time>
      </trkpt>
      <trkpt lat="47.24969" lon="-1.58227">
        <ele>18.998085021973</ele>
        <time>2016-11-22T09:35:23.000Z</time>
      </trkpt>
      <trkpt lat="47.24969" lon="-1.58221">
        <ele>18.717782974243</ele>
        <time>2016-11-22T09:35:26.000Z</time>
      </trkpt>
      <trkpt lat="47.24968" lon="-1.58217">
        <ele>18.442417144775</ele>
        <time>2016-11-22T09:35:28.000Z</time>
      </trkpt>
      <trkpt lat="47.24968" lon="-1.58213">
        <ele>18.161632537842</ele>
        <time>2016-11-22T09:35:30.000Z</time>
      </trkpt>
      <trkpt lat="47.24968" lon="-1.58209">
        <ele>17.889629364014</ele>
        <time>2016-11-22T09:35:32.000Z</time>
      </trkpt>
      <trkpt lat="47.24966" lon="-1.58201">
        <ele>17.595674514771</ele>
        <time>2016-11-22T09:35:35.000Z</time>
      </trkpt>
      <trkpt lat="47.24965" lon="-1.58195">
        <ele>17.308805465698</ele>
        <time>2016-11-22T09:35:38.000Z</time>
      </trkpt>
      <trkpt lat="47.24964" lon="-1.58189">
        <ele>17.001659393311</ele>
        <time>2016-11-22T09:35:41.000Z</time>
      </trkpt>
      <trkpt lat="47.24963" lon="-1.58183">
        <ele>16.671016693115</ele>
        <time>2016-11-22T09:35:44.000Z</time>
      </trkpt>
      <trkpt lat="47.24963" lon="-1.58178">
        <ele>16.317897796631</ele>
        <time>2016-11-22T09:35:47.000Z</time>
      </trkpt>
      <trkpt lat="47.24963" lon="-1.58174">
        <ele>16.011220932007</ele>
        <time>2016-11-22T09:35:49.000Z</time>
      </trkpt>
      <trkpt lat="47.24962" lon="-1.58168">
        <ele>15.695547103882</ele>
        <time>2016-11-22T09:35:52.000Z</time>
      </trkpt>
      <trkpt lat="47.24962" lon="-1.58164">
        <ele>15.429300308228</ele>
        <time>2016-11-22T09:35:54.000Z</time>
      </trkpt>
      <trkpt lat="47.24961" lon="-1.58158">
        <ele>15.22324180603</ele>
        <time>2016-11-22T09:35:57.000Z</time>
      </trkpt>
      <trkpt lat="47.24961" lon="-1.58153">
        <ele>15.080505371094</ele>
        <time>2016-11-22T09:36:00.000Z</time>
      </trkpt>
      <trkpt lat="47.2496" lon="-1.58147">
        <ele>14.968042373657</ele>
        <time>2016-11-22T09:36:03.000Z</time>
      </trkpt>
      <trkpt lat="47.2496" lon="-1.58141">
        <ele>14.919393539429</ele>
        <time>2016-11-22T09:36:06.000Z</time>
      </trkpt>
      <trkpt lat="47.2496" lon="-1.58136">
        <ele>14.886675834656</ele>
        <time>2016-11-22T09:36:08.000Z</time>
      </trkpt>
      <trkpt lat="47.24959" lon="-1.58129">
        <ele>14.851819992065</ele>
        <time>2016-11-22T09:36:11.000Z</time>
      </trkpt>
      <trkpt lat="47.24958" lon="-1.58122">
        <ele>14.81337928772</ele>
        <time>2016-11-22T09:36:14.000Z</time>
      </trkpt>
      <trkpt lat="47.24958" lon="-1.58117">
        <ele>14.775291442871</ele>
        <time>2016-11-22T09:36:17.000Z</time>
      </trkpt>
      <trkpt lat="47.24958" lon="-1.58111">
        <ele>14.737910270691</ele>
        <time>2016-11-22T09:36:20.000Z</time>
      </trkpt>
      <trkpt lat="47.24958" lon="-1.58107">
        <ele>14.701461791992</ele>
        <time>2016-11-22T09:36:22.000Z</time>
      </trkpt>
      <trkpt lat="47.24958" lon="-1.58103">
        <ele>14.668533325195</ele>
        <time>2016-11-22T09:36:24.000Z</time>
      </trkpt>
      <trkpt lat="47.24957" lon="-1.581">
        <ele>14.640566825867</ele>
        <time>2016-11-22T09:36:26.000Z</time>
      </trkpt>
      <trkpt lat="47.24957" lon="-1.58098">
        <ele>14.615615844727</ele>
        <time>2016-11-22T09:36:29.000Z</time>
      </trkpt>
      <trkpt lat="47.24959" lon="-1.58093">
        <ele>14.596872329712</ele>
        <time>2016-11-22T09:36:50.000Z</time>
      </trkpt>
      <trkpt lat="47.24962" lon="-1.58089">
        <ele>14.583271980286</ele>
        <time>2016-11-22T09:36:53.000Z</time>
      </trkpt>
      <trkpt lat="47.24963" lon="-1.58084">
        <ele>14.572567939758</ele>
        <time>2016-11-22T09:36:56.000Z</time>
      </trkpt>
      <trkpt lat="47.24963" lon="-1.58079">
        <ele>14.555862426758</ele>
        <time>2016-11-22T09:36:59.000Z</time>
      </trkpt>
      <trkpt lat="47.24961" lon="-1.58075">
        <ele>14.52784538269</ele>
        <time>2016-11-22T09:37:02.000Z</time>
      </trkpt>
      <trkpt lat="47.2496" lon="-1.58071">
        <ele>14.489450454712</ele>
        <time>2016-11-22T09:37:04.000Z</time>
      </trkpt>
      <trkpt lat="47.24958" lon="-1.58066">
        <ele>14.434213638306</ele>
        <time>2016-11-22T09:37:07.000Z</time>
      </trkpt>
      <trkpt lat="47.24957" lon="-1.58063">
        <ele>14.369096755981</ele>
        <time>2016-11-22T09:37:10.000Z</time>
      </trkpt>
      <trkpt lat="47.24956" lon="-1.58058">
        <ele>14.294889450073</ele>
        <time>2016-11-22T09:37:13.000Z</time>
      </trkpt>
      <trkpt lat="47.24955" lon="-1.58055">
        <ele>14.227502822876</ele>
        <time>2016-11-22T09:37:15.000Z</time>
      </trkpt>
      <trkpt lat="47.24955" lon="-1.58052">
        <ele>14.164833068848</ele>
        <time>2016-11-22T09:37:17.000Z</time>
      </trkpt>
      <trkpt lat="47.24955" lon="-1.58047">
        <ele>14.10221862793</ele>
        <time>2016-11-22T09:37:20.000Z</time>
      </trkpt>
      <trkpt lat="47.24953" lon="-1.58042">
        <ele>14.030560493469</ele>
        <time>2016-11-22T09:37:23.000Z</time>
      </trkpt>
      <trkpt lat="47.24951" lon="-1.58037">
        <ele>13.954586982727</ele>
        <time>2016-11-22T09:37:26.000Z</time>
      </trkpt>
      <trkpt lat="47.2495" lon="-1.58034">
        <ele>13.870799064636</ele>
        <time>2016-11-22T09:37:28.000Z</time>
      </trkpt>
      <trkpt lat="47.24949" lon="-1.5803">
        <ele>13.780130386353</ele>
        <time>2016-11-22T09:37:31.000Z</time>
      </trkpt>
      <trkpt lat="47.24949" lon="-1.58027">
        <ele>13.691656112671</ele>
        <time>2016-11-22T09:37:33.000Z</time>
      </trkpt>
      <trkpt lat="47.24945" lon="-1.58022">
        <ele>13.590263366699</ele>
        <time>2016-11-22T09:37:36.000Z</time>
      </trkpt>
      <trkpt lat="47.24942" lon="-1.58019">
        <ele>13.484895706177</ele>
        <time>2016-11-22T09:37:38.000Z</time>
      </trkpt>
      <trkpt lat="47.24939" lon="-1.58014">
        <ele>13.360486030579</ele>
        <time>2016-11-22T09:37:41.000Z</time>
      </trkpt>
      <trkpt lat="47.24938" lon="-1.58008">
        <ele>13.222373962402</ele>
        <time>2016-11-22T09:37:44.000Z</time>
      </trkpt>
      <trkpt lat="47.24937" lon="-1.58004">
        <ele>13.07661151886</ele>
        <time>2016-11-22T09:37:46.000Z</time>
      </trkpt>
      <trkpt lat="47.24935" lon="-1.57999">
        <ele>12.931185722351</ele>
        <time>2016-11-22T09:37:49.000Z</time>
      </trkpt>
      <trkpt lat="47.24933" lon="-1.57995">
        <ele>12.779237747192</ele>
        <time>2016-11-22T09:37:52.000Z</time>
      </trkpt>
      <trkpt lat="47.24931" lon="-1.57991">
        <ele>12.625679969788</ele>
        <time>2016-11-22T09:37:55.000Z</time>
      </trkpt>
      <trkpt lat="47.2493" lon="-1.57987">
        <ele>12.477723121643</ele>
        <time>2016-11-22T09:37:57.000Z</time>
      </trkpt>
      <trkpt lat="47.2493" lon="-1.57984">
        <ele>12.3359375</ele>
        <time>2016-11-22T09:37:59.000Z</time>
      </trkpt>
      <trkpt lat="47.24929" lon="-1.57981">
        <ele>12.202087402344</ele>
        <time>2016-11-22T09:38:01.000Z</time>
      </trkpt>
      <trkpt lat="47.24928" lon="-1.57977">
        <ele>12.082885742188</ele>
        <time>2016-11-22T09:38:03.000Z</time>
      </trkpt>
      <trkpt lat="47.24927" lon="-1.57974">
        <ele>11.971984863281</ele>
        <time>2016-11-22T09:38:05.000Z</time>
      </trkpt>
      <trkpt lat="47.24924" lon="-1.57969">
        <ele>11.834228515625</ele>
        <time>2016-11-22T09:38:08.000Z</time>
      </trkpt>
      <trkpt lat="47.24922" lon="-1.57965">
        <ele>11.68896484375</ele>
        <time>2016-11-22T09:38:10.000Z</time>
      </trkpt>
      <trkpt lat="47.24921" lon="-1.57962">
        <ele>11.540832519531</ele>
        <time>2016-11-22T09:38:12.000Z</time>
      </trkpt>
      <trkpt lat="47.24919" lon="-1.57957">
        <ele>11.372802734375</ele>
        <time>2016-11-22T09:38:15.000Z</time>
      </trkpt>
      <trkpt lat="47.24918" lon="-1.57954">
        <ele>11.212158203125</ele>
        <time>2016-11-22T09:38:17.000Z</time>
      </trkpt>
      <trkpt lat="47.24916" lon="-1.57949">
        <ele>11.069509506226</ele>
        <time>2016-11-22T09:38:20.000Z</time>
      </trkpt>
      <trkpt lat="47.24913" lon="-1.57946">
        <ele>10.934488296509</ele>
        <time>2016-11-22T09:38:22.000Z</time>
      </trkpt>
      <trkpt lat="47.24912" lon="-1.57943">
        <ele>10.81094455719</ele>
        <time>2016-11-22T09:38:24.000Z</time>
      </trkpt>
      <trkpt lat="47.24909" lon="-1.57938">
        <ele>10.70093536377</ele>
        <time>2016-11-22T09:38:27.000Z</time>
      </trkpt>
      <trkpt lat="47.24906" lon="-1.57933">
        <ele>10.587048530579</ele>
        <time>2016-11-22T09:38:30.000Z</time>
      </trkpt>
      <trkpt lat="47.24905" lon="-1.5793">
        <ele>10.490114212036</ele>
        <time>2016-11-22T09:38:32.000Z</time>
      </trkpt>
      <trkpt lat="47.24903" lon="-1.57925">
        <ele>10.388648986816</ele>
        <time>2016-11-22T09:38:35.000Z</time>
      </trkpt>
      <trkpt lat="47.249" lon="-1.57921">
        <ele>10.284232139587</ele>
        <time>2016-11-22T09:38:38.000Z</time>
      </trkpt>
      <trkpt lat="47.24897" lon="-1.57917">
        <ele>10.189764022827</ele>
        <time>2016-11-22T09:38:40.000Z</time>
      </trkpt>
      <trkpt lat="47.24893" lon="-1.57913">
        <ele>10.124367713928</ele>
        <time>2016-11-22T09:38:43.000Z</time>
      </trkpt>
      <trkpt lat="47.24891" lon="-1.57909">
        <ele>10.077730178833</ele>
        <time>2016-11-22T09:38:45.000Z</time>
      </trkpt>
      <trkpt lat="47.24887" lon="-1.57905">
        <ele>10.057609558105</ele>
        <time>2016-11-22T09:38:48.000Z</time>
      </trkpt>
      <trkpt lat="47.24886" lon="-1.57902">
        <ele>10.061460494995</ele>
        <time>2016-11-22T09:38:50.000Z</time>
      </trkpt>
      <trkpt lat="47.24883" lon="-1.57897">
        <ele>10.085939407349</ele>
        <time>2016-11-22T09:38:53.000Z</time>
      </trkpt>
      <trkpt lat="47.24881" lon="-1.57893">
        <ele>10.111584663391</ele>
        <time>2016-11-22T09:38:56.000Z</time>
      </trkpt>
      <trkpt lat="47.24878" lon="-1.57889">
        <ele>10.134943962097</ele>
        <time>2016-11-22T09:38:59.000Z</time>
      </trkpt>
      <trkpt lat="47.24876" lon="-1.57884">
        <ele>10.156637191772</ele>
        <time>2016-11-22T09:39:02.000Z</time>
      </trkpt>
      <trkpt lat="47.24874" lon="-1.57881">
        <ele>10.176330566406</ele>
        <time>2016-11-22T09:39:04.000Z</time>
      </trkpt>
      <trkpt lat="47.24871" lon="-1.57877">
        <ele>10.192338943481</ele>
        <time>2016-11-22T09:39:07.000Z</time>
      </trkpt>
      <trkpt lat="47.24868" lon="-1.57873">
        <ele>10.204847335815</ele>
        <time>2016-11-22T09:39:10.000Z</time>
      </trkpt>
      <trkpt lat="47.24866" lon="-1.57868">
        <ele>10.214921951294</ele>
        <time>2016-11-22T09:39:13.000Z</time>
      </trkpt>
      <trkpt lat="47.24862" lon="-1.57863">
        <ele>10.21852684021</ele>
        <time>2016-11-22T09:39:16.000Z</time>
      </trkpt>
      <trkpt lat="47.24859" lon="-1.57861">
        <ele>10.217837333679</ele>
        <time>2016-11-22T09:39:18.000Z</time>
      </trkpt>
      <trkpt lat="47.24855" lon="-1.57856">
        <ele>10.212513923645</ele>
        <time>2016-11-22T09:39:21.000Z</time>
      </trkpt>
      <trkpt lat="47.24852" lon="-1.57852">
        <ele>10.202419281006</ele>
        <time>2016-11-22T09:39:24.000Z</time>
      </trkpt>
      <trkpt lat="47.24851" lon="-1.57848">
        <ele>10.191122055054</ele>
        <time>2016-11-22T09:39:26.000Z</time>
      </trkpt>
      <trkpt lat="47.24849" lon="-1.57844">
        <ele>10.181461334229</ele>
        <time>2016-11-22T09:39:29.000Z</time>
      </trkpt>
      <trkpt lat="47.24848" lon="-1.57841">
        <ele>10.172511100769</ele>
        <time>2016-11-22T09:39:31.000Z</time>
      </trkpt>
      <trkpt lat="47.24845" lon="-1.57839">
        <ele>10.159677505493</ele>
        <time>2016-11-22T09:39:34.000Z</time>
      </trkpt>
      <trkpt lat="47.24842" lon="-1.57837">
        <ele>10.146054267883</ele>
        <time>2016-11-22T09:39:36.000Z</time>
      </trkpt>
      <trkpt lat="47.2484" lon="-1.57836">
        <ele>10.127767562866</ele>
        <time>2016-11-22T09:39:38.000Z</time>
      </trkpt>
      <trkpt lat="47.24836" lon="-1.57832">
        <ele>10.117939949036</ele>
        <time>2016-11-22T09:39:41.000Z</time>
      </trkpt>
      <trkpt lat="47.24834" lon="-1.57828">
        <ele>10.137422561646</ele>
        <time>2016-11-22T09:39:43.000Z</time>
      </trkpt>
      <trkpt lat="47.24832" lon="-1.57825">
        <ele>10.185419082642</ele>
        <time>2016-11-22T09:39:45.000Z</time>
      </trkpt>
      <trkpt lat="47.24829" lon="-1.57821">
        <ele>10.267413139343</ele>
        <time>2016-11-22T09:39:48.000Z</time>
      </trkpt>
      <trkpt lat="47.24826" lon="-1.57817">
        <ele>10.379067420959</ele>
        <time>2016-11-22T09:39:50.000Z</time>
      </trkpt>
      <trkpt lat="47.24823" lon="-1.57813">
        <ele>10.508771896362</ele>
        <time>2016-11-22T09:39:53.000Z</time>
      </trkpt>
      <trkpt lat="47.24819" lon="-1.57809">
        <ele>10.628877639771</ele>
        <time>2016-11-22T09:39:56.000Z</time>
      </trkpt>
      <trkpt lat="47.24818" lon="-1.57807">
        <ele>10.738018989563</ele>
        <time>2016-11-22T09:39:58.000Z</time>
      </trkpt>
      <trkpt lat="47.24815" lon="-1.57803">
        <ele>10.835199356079</ele>
        <time>2016-11-22T09:40:01.000Z</time>
      </trkpt>
      <trkpt lat="47.24811" lon="-1.57798">
        <ele>10.923330307007</ele>
        <time>2016-11-22T09:40:04.000Z</time>
      </trkpt>
      <trkpt lat="47.2481" lon="-1.57796">
        <ele>10.994374275208</ele>
        <time>2016-11-22T09:40:06.000Z</time>
      </trkpt>
      <trkpt lat="47.24807" lon="-1.57793">
        <ele>11.054178237915</ele>
        <time>2016-11-22T09:40:09.000Z</time>
      </trkpt>
      <trkpt lat="47.24804" lon="-1.57791">
        <ele>11.103399276733</ele>
        <time>2016-11-22T09:40:11.000Z</time>
      </trkpt>
      <trkpt lat="47.24803" lon="-1.57789">
        <ele>11.139989852905</ele>
        <time>2016-11-22T09:40:13.000Z</time>
      </trkpt>
      <trkpt lat="47.24801" lon="-1.57785">
        <ele>11.176977157593</ele>
        <time>2016-11-22T09:40:16.000Z</time>
      </trkpt>
      <trkpt lat="47.24797" lon="-1.57781">
        <ele>11.202896118164</ele>
        <time>2016-11-22T09:40:19.000Z</time>
      </trkpt>
      <trkpt lat="47.24795" lon="-1.57779">
        <ele>11.222546577454</ele>
        <time>2016-11-22T09:40:21.000Z</time>
      </trkpt>
      <trkpt lat="47.24792" lon="-1.57775">
        <ele>11.24656867981</ele>
        <time>2016-11-22T09:40:24.000Z</time>
      </trkpt>
      <trkpt lat="47.2479" lon="-1.57772">
        <ele>11.268129348755</ele>
        <time>2016-11-22T09:40:26.000Z</time>
      </trkpt>
      <trkpt lat="47.24788" lon="-1.57767">
        <ele>11.278707504272</ele>
        <time>2016-11-22T09:40:29.000Z</time>
      </trkpt>
      <trkpt lat="47.24786" lon="-1.57765">
        <ele>11.291879653931</ele>
        <time>2016-11-22T09:40:32.000Z</time>
      </trkpt>
      <trkpt lat="47.24784" lon="-1.57763">
        <ele>11.300450325012</ele>
        <time>2016-11-22T09:40:34.000Z</time>
      </trkpt>
      <trkpt lat="47.24781" lon="-1.57762">
        <ele>11.28472328186</ele>
        <time>2016-11-22T09:40:37.000Z</time>
      </trkpt>
      <trkpt lat="47.2478" lon="-1.57762">
        <ele>11.251259803772</ele>
        <time>2016-11-22T09:40:39.000Z</time>
      </trkpt>
      <trkpt lat="47.24776" lon="-1.57763">
        <ele>11.178624153137</ele>
        <time>2016-11-22T09:40:42.000Z</time>
      </trkpt>
      <trkpt lat="47.24773" lon="-1.57764">
        <ele>11.074610710144</ele>
        <time>2016-11-22T09:40:45.000Z</time>
      </trkpt>
      <trkpt lat="47.24771" lon="-1.57763">
        <ele>10.963276863098</ele>
        <time>2016-11-22T09:40:47.000Z</time>
      </trkpt>
      <trkpt lat="47.24768" lon="-1.57761">
        <ele>10.849096298218</ele>
        <time>2016-11-22T09:40:50.000Z</time>
      </trkpt>
      <trkpt lat="47.24763" lon="-1.57745">
        <ele>10.789561271667</ele>
        <time>2016-11-22T09:41:38.000Z</time>
      </trkpt>
      <trkpt lat="47.24762" lon="-1.5774">
        <ele>10.796038627625</ele>
        <time>2016-11-22T09:41:41.000Z</time>
      </trkpt>
      <trkpt lat="47.24762" lon="-1.57736">
        <ele>10.859569549561</ele>
        <time>2016-11-22T09:41:44.000Z</time>
      </trkpt>
      <trkpt lat="47.24761" lon="-1.57737">
        <ele>10.919431686401</ele>
        <time>2016-11-22T09:41:47.000Z</time>
      </trkpt>
      <trkpt lat="47.24758" lon="-1.57737">
        <ele>10.97137260437</ele>
        <time>2016-11-22T09:41:50.000Z</time>
      </trkpt>
      <trkpt lat="47.24755" lon="-1.57739">
        <ele>10.9420337677</ele>
        <time>2016-11-22T09:41:53.000Z</time>
      </trkpt>
      <trkpt lat="47.24751" lon="-1.57738">
        <ele>10.844705581665</ele>
        <time>2016-11-22T09:41:56.000Z</time>
      </trkpt>
      <trkpt lat="47.24749" lon="-1.57737">
        <ele>10.719554901123</ele>
        <time>2016-11-22T09:41:58.000Z</time>
      </trkpt>
      <trkpt lat="47.24744" lon="-1.57736">
        <ele>10.629589080811</ele>
        <time>2016-11-22T09:42:01.000Z</time>
      </trkpt>
      <trkpt lat="47.2474" lon="-1.57737">
        <ele>10.575848579407</ele>
        <time>2016-11-22T09:42:04.000Z</time>
      </trkpt>
      <trkpt lat="47.24738" lon="-1.57737">
        <ele>10.57130241394</ele>
        <time>2016-11-22T09:42:06.000Z</time>
      </trkpt>
      <trkpt lat="47.24737" lon="-1.57736">
        <ele>10.6117811203</ele>
        <time>2016-11-22T09:42:09.000Z</time>
      </trkpt>
      <trkpt lat="47.24736" lon="-1.57737">
        <ele>10.65435218811</ele>
        <time>2016-11-22T09:42:11.000Z</time>
      </trkpt>
      <trkpt lat="47.24736" lon="-1.57735">
        <ele>10.689462661743</ele>
        <time>2016-11-22T09:42:14.000Z</time>
      </trkpt>
      <trkpt lat="47.24736" lon="-1.57731">
        <ele>10.737718582153</ele>
        <time>2016-11-22T09:42:18.000Z</time>
      </trkpt>
      <trkpt lat="47.24735" lon="-1.57729">
        <ele>10.79395866394</ele>
        <time>2016-11-22T09:42:20.000Z</time>
      </trkpt>
      <trkpt lat="47.24735" lon="-1.57725">
        <ele>10.864810943604</ele>
        <time>2016-11-22T09:42:22.000Z</time>
      </trkpt>
      <trkpt lat="47.24734" lon="-1.57719">
        <ele>10.966474533081</ele>
        <time>2016-11-22T09:42:25.000Z</time>
      </trkpt>
      <trkpt lat="47.24731" lon="-1.57716">
        <ele>11.072130203247</ele>
        <time>2016-11-22T09:42:27.000Z</time>
      </trkpt>
      <trkpt lat="47.24729" lon="-1.57712">
        <ele>11.181210517883</ele>
        <time>2016-11-22T09:42:30.000Z</time>
      </trkpt>
      <trkpt lat="47.24726" lon="-1.57708">
        <ele>11.295125007629</ele>
        <time>2016-11-22T09:42:33.000Z</time>
      </trkpt>
      <trkpt lat="47.24725" lon="-1.57706">
        <ele>11.394918441772</ele>
        <time>2016-11-22T09:42:35.000Z</time>
      </trkpt>
      <trkpt lat="47.24722" lon="-1.57702">
        <ele>11.476790428162</ele>
        <time>2016-11-22T09:42:38.000Z</time>
      </trkpt>
      <trkpt lat="47.2472" lon="-1.577">
        <ele>11.549951553345</ele>
        <time>2016-11-22T09:42:40.000Z</time>
      </trkpt>
      <trkpt lat="47.24719" lon="-1.57697">
        <ele>11.610537528992</ele>
        <time>2016-11-22T09:42:42.000Z</time>
      </trkpt>
      <trkpt lat="47.24717" lon="-1.57693">
        <ele>11.662009239197</ele>
        <time>2016-11-22T09:42:45.000Z</time>
      </trkpt>
      <trkpt lat="47.24716" lon="-1.5769">
        <ele>11.711184501648</ele>
        <time>2016-11-22T09:42:47.000Z</time>
      </trkpt>
      <trkpt lat="47.24714" lon="-1.57687">
        <ele>11.753077507019</ele>
        <time>2016-11-22T09:42:49.000Z</time>
      </trkpt>
      <trkpt lat="47.24713" lon="-1.57684">
        <ele>11.792238235474</ele>
        <time>2016-11-22T09:42:51.000Z</time>
      </trkpt>
      <trkpt lat="47.2471" lon="-1.57679">
        <ele>11.82705783844</ele>
        <time>2016-11-22T09:42:54.000Z</time>
      </trkpt>
      <trkpt lat="47.24708" lon="-1.57675">
        <ele>11.852158546448</ele>
        <time>2016-11-22T09:42:56.000Z</time>
      </trkpt>
      <trkpt lat="47.24704" lon="-1.57667">
        <ele>11.869610786438</ele>
        <time>2016-11-22T09:42:59.000Z</time>
      </trkpt>
      <trkpt lat="47.24702" lon="-1.57664">
        <ele>11.893110275269</ele>
        <time>2016-11-22T09:43:01.000Z</time>
      </trkpt>
      <trkpt lat="47.24699" lon="-1.5766">
        <ele>11.923451423645</ele>
        <time>2016-11-22T09:43:04.000Z</time>
      </trkpt>
      <trkpt lat="47.24697" lon="-1.57657">
        <ele>11.959297180176</ele>
        <time>2016-11-22T09:43:06.000Z</time>
      </trkpt>
      <trkpt lat="47.24695" lon="-1.57652">
        <ele>12.008847236633</ele>
        <time>2016-11-22T09:43:09.000Z</time>
      </trkpt>
      <trkpt lat="47.24693" lon="-1.57649">
        <ele>12.070608139038</ele>
        <time>2016-11-22T09:43:11.000Z</time>
      </trkpt>
      <trkpt lat="47.24691" lon="-1.57644">
        <ele>12.136979103088</ele>
        <time>2016-11-22T09:43:14.000Z</time>
      </trkpt>
      <trkpt lat="47.24689" lon="-1.5764">
        <ele>12.206609725952</ele>
        <time>2016-11-22T09:43:17.000Z</time>
      </trkpt>
      <trkpt lat="47.24688" lon="-1.57638">
        <ele>12.272378921509</ele>
        <time>2016-11-22T09:43:19.000Z</time>
      </trkpt>
      <trkpt lat="47.24686" lon="-1.57635">
        <ele>12.324870109558</ele>
        <time>2016-11-22T09:43:22.000Z</time>
      </trkpt>
      <trkpt lat="47.24684" lon="-1.57631">
        <ele>12.3773021698</ele>
        <time>2016-11-22T09:43:24.000Z</time>
      </trkpt>
      <trkpt lat="47.24682" lon="-1.57628">
        <ele>12.414294242859</ele>
        <time>2016-11-22T09:43:26.000Z</time>
      </trkpt>
      <trkpt lat="47.24679" lon="-1.57623">
        <ele>12.444519042969</ele>
        <time>2016-11-22T09:43:29.000Z</time>
      </trkpt>
      <trkpt lat="47.24677" lon="-1.57618">
        <ele>12.481512069702</ele>
        <time>2016-11-22T09:43:32.000Z</time>
      </trkpt>
      <trkpt lat="47.24676" lon="-1.57613">
        <ele>12.529716491699</ele>
        <time>2016-11-22T09:43:34.000Z</time>
      </trkpt>
      <trkpt lat="47.24674" lon="-1.57609">
        <ele>12.569622039795</ele>
        <time>2016-11-22T09:43:37.000Z</time>
      </trkpt>
      <trkpt lat="47.24672" lon="-1.57606">
        <ele>12.617316246033</ele>
        <time>2016-11-22T09:43:39.000Z</time>
      </trkpt>
      <trkpt lat="47.24671" lon="-1.57601">
        <ele>12.667671203613</ele>
        <time>2016-11-22T09:43:41.000Z</time>
      </trkpt>
      <trkpt lat="47.2467" lon="-1.57597">
        <ele>12.713678359985</ele>
        <time>2016-11-22T09:43:44.000Z</time>
      </trkpt>
      <trkpt lat="47.24668" lon="-1.57593">
        <ele>12.75220489502</ele>
        <time>2016-11-22T09:43:46.000Z</time>
      </trkpt>
      <trkpt lat="47.24667" lon="-1.57587">
        <ele>12.806371688843</ele>
        <time>2016-11-22T09:43:48.000Z</time>
      </trkpt>
      <trkpt lat="47.24665" lon="-1.57582">
        <ele>12.894816398621</ele>
        <time>2016-11-22T09:43:50.000Z</time>
      </trkpt>
      <trkpt lat="47.24664" lon="-1.57578">
        <ele>13.041816711426</ele>
        <time>2016-11-22T09:43:52.000Z</time>
      </trkpt>
      <trkpt lat="47.24663" lon="-1.57574">
        <ele>13.242576599121</ele>
        <time>2016-11-22T09:43:54.000Z</time>
      </trkpt>
      <trkpt lat="47.24661" lon="-1.57566">
        <ele>13.540735244751</ele>
        <time>2016-11-22T09:43:57.000Z</time>
      </trkpt>
      <trkpt lat="47.24658" lon="-1.57561">
        <ele>13.905000686646</ele>
        <time>2016-11-22T09:44:00.000Z</time>
      </trkpt>
      <trkpt lat="47.24656" lon="-1.57558">
        <ele>14.265260696411</ele>
        <time>2016-11-22T09:44:02.000Z</time>
      </trkpt>
      <trkpt lat="47.24654" lon="-1.57555">
        <ele>14.592455863953</ele>
        <time>2016-11-22T09:44:04.000Z</time>
      </trkpt>
      <trkpt lat="47.2465" lon="-1.57553">
        <ele>14.885516166687</ele>
        <time>2016-11-22T09:44:07.000Z</time>
      </trkpt>
      <trkpt lat="47.24649" lon="-1.57552">
        <ele>15.091979980469</ele>
        <time>2016-11-22T09:44:09.000Z</time>
      </trkpt>
      <trkpt lat="47.24646" lon="-1.57551">
        <ele>15.22488117218</ele>
        <time>2016-11-22T09:44:11.000Z</time>
      </trkpt>
      <trkpt lat="47.24643" lon="-1.57548">
        <ele>15.345300674438</ele>
        <time>2016-11-22T09:44:14.000Z</time>
      </trkpt>
      <trkpt lat="47.2464" lon="-1.57547">
        <ele>15.442448616028</ele>
        <time>2016-11-22T09:44:16.000Z</time>
      </trkpt>
      <trkpt lat="47.24638" lon="-1.57544">
        <ele>15.533825874329</ele>
        <time>2016-11-22T09:44:19.000Z</time>
      </trkpt>
      <trkpt lat="47.24634" lon="-1.57542">
        <ele>15.619009017944</ele>
        <time>2016-11-22T09:44:22.000Z</time>
      </trkpt>
      <trkpt lat="47.24632" lon="-1.5754">
        <ele>15.70529460907</ele>
        <time>2016-11-22T09:44:24.000Z</time>
      </trkpt>
      <trkpt lat="47.2463" lon="-1.57538">
        <ele>15.776725769043</ele>
        <time>2016-11-22T09:44:26.000Z</time>
      </trkpt>
      <trkpt lat="47.24628" lon="-1.57536">
        <ele>15.841296195984</ele>
        <time>2016-11-22T09:44:28.000Z</time>
      </trkpt>
      <trkpt lat="47.24625" lon="-1.57534">
        <ele>15.891450881958</ele>
        <time>2016-11-22T09:44:31.000Z</time>
      </trkpt>
      <trkpt lat="47.24623" lon="-1.5753">
        <ele>15.944189071655</ele>
        <time>2016-11-22T09:44:34.000Z</time>
      </trkpt>
      <trkpt lat="47.24621" lon="-1.57528">
        <ele>15.990175247192</ele>
        <time>2016-11-22T09:44:36.000Z</time>
      </trkpt>
      <trkpt lat="47.24619" lon="-1.57526">
        <ele>16.026428222656</ele>
        <time>2016-11-22T09:44:38.000Z</time>
      </trkpt>
      <trkpt lat="47.24616" lon="-1.57522">
        <ele>16.061868667603</ele>
        <time>2016-11-22T09:44:41.000Z</time>
      </trkpt>
      <trkpt lat="47.24614" lon="-1.5752">
        <ele>16.085550308228</ele>
        <time>2016-11-22T09:44:44.000Z</time>
      </trkpt>
      <trkpt lat="47.24613" lon="-1.5752">
        <ele>16.088857650757</ele>
        <time>2016-11-22T09:44:46.000Z</time>
      </trkpt>
      <trkpt lat="47.24609" lon="-1.57517">
        <ele>16.071475982666</ele>
        <time>2016-11-22T09:44:49.000Z</time>
      </trkpt>
      <trkpt lat="47.24606" lon="-1.57515">
        <ele>16.03759765625</ele>
        <time>2016-11-22T09:44:51.000Z</time>
      </trkpt>
      <trkpt lat="47.24602" lon="-1.57512">
        <ele>15.97464466095</ele>
        <time>2016-11-22T09:44:54.000Z</time>
      </trkpt>
      <trkpt lat="47.24599" lon="-1.5751">
        <ele>15.896162033081</ele>
        <time>2016-11-22T09:44:57.000Z</time>
      </trkpt>
      <trkpt lat="47.24596" lon="-1.57507">
        <ele>15.800132751465</ele>
        <time>2016-11-22T09:44:59.000Z</time>
      </trkpt>
      <trkpt lat="47.24592" lon="-1.57504">
        <ele>15.687373161316</ele>
        <time>2016-11-22T09:45:02.000Z</time>
      </trkpt>
      <trkpt lat="47.24589" lon="-1.57502">
        <ele>15.560735702515</ele>
        <time>2016-11-22T09:45:04.000Z</time>
      </trkpt>
      <trkpt lat="47.24585" lon="-1.57497">
        <ele>15.440908432007</ele>
        <time>2016-11-22T09:45:07.000Z</time>
      </trkpt>
      <trkpt lat="47.24582" lon="-1.57493">
        <ele>15.38547039032</ele>
        <time>2016-11-22T09:45:09.000Z</time>
      </trkpt>
      <trkpt lat="47.2458" lon="-1.57488">
        <ele>15.435938835144</ele>
        <time>2016-11-22T09:45:12.000Z</time>
      </trkpt>
      <trkpt lat="47.24578" lon="-1.57483">
        <ele>15.593907356262</ele>
        <time>2016-11-22T09:45:15.000Z</time>
      </trkpt>
      <trkpt lat="47.24577" lon="-1.57481">
        <ele>15.79762840271</ele>
        <time>2016-11-22T09:45:17.000Z</time>
      </trkpt>
      <trkpt lat="47.24575" lon="-1.57476">
        <ele>16.076103210449</ele>
        <time>2016-11-22T09:45:20.000Z</time>
      </trkpt>
      <trkpt lat="47.24574" lon="-1.57469">
        <ele>16.369577407837</ele>
        <time>2016-11-22T09:45:23.000Z</time>
      </trkpt>
      <trkpt lat="47.24574" lon="-1.57466">
        <ele>16.60715675354</ele>
        <time>2016-11-22T09:45:25.000Z</time>
      </trkpt>
      <trkpt lat="47.24573" lon="-1.5746">
        <ele>16.816631317139</ele>
        <time>2016-11-22T09:45:28.000Z</time>
      </trkpt>
      <trkpt lat="47.24571" lon="-1.57455">
        <ele>17.047407150269</ele>
        <time>2016-11-22T09:45:31.000Z</time>
      </trkpt>
      <trkpt lat="47.2457" lon="-1.57451">
        <ele>17.245723724365</ele>
        <time>2016-11-22T09:45:33.000Z</time>
      </trkpt>
      <trkpt lat="47.24568" lon="-1.57447">
        <ele>17.414222717285</ele>
        <time>2016-11-22T09:45:36.000Z</time>
      </trkpt>
      <trkpt lat="47.24567" lon="-1.57444">
        <ele>17.570388793945</ele>
        <time>2016-11-22T09:45:38.000Z</time>
      </trkpt>
      <trkpt lat="47.24565" lon="-1.57441">
        <ele>17.693349838257</ele>
        <time>2016-11-22T09:45:40.000Z</time>
      </trkpt>
      <trkpt lat="47.24564" lon="-1.57437">
        <ele>17.792114257812</ele>
        <time>2016-11-22T09:45:43.000Z</time>
      </trkpt>
      <trkpt lat="47.24564" lon="-1.57434">
        <ele>17.873678207397</ele>
        <time>2016-11-22T09:45:45.000Z</time>
      </trkpt>
      <trkpt lat="47.24561" lon="-1.57429">
        <ele>17.931203842163</ele>
        <time>2016-11-22T09:45:48.000Z</time>
      </trkpt>
      <trkpt lat="47.24559" lon="-1.57424">
        <ele>17.983306884766</ele>
        <time>2016-11-22T09:45:51.000Z</time>
      </trkpt>
      <trkpt lat="47.24559" lon="-1.57418">
        <ele>18.026248931885</ele>
        <time>2016-11-22T09:45:54.000Z</time>
      </trkpt>
      <trkpt lat="47.24559" lon="-1.57414">
        <ele>18.072511672974</ele>
        <time>2016-11-22T09:45:56.000Z</time>
      </trkpt>
      <trkpt lat="47.24557" lon="-1.57409">
        <ele>18.136072158813</ele>
        <time>2016-11-22T09:45:59.000Z</time>
      </trkpt>
      <trkpt lat="47.24554" lon="-1.57404">
        <ele>18.204471588135</ele>
        <time>2016-11-22T09:46:02.000Z</time>
      </trkpt>
      <trkpt lat="47.24553" lon="-1.57399">
        <ele>18.280597686768</ele>
        <time>2016-11-22T09:46:05.000Z</time>
      </trkpt>
      <trkpt lat="47.24553" lon="-1.57394">
        <ele>18.37819480896</ele>
        <time>2016-11-22T09:46:08.000Z</time>
      </trkpt>
      <trkpt lat="47.24552" lon="-1.57388">
        <ele>18.48219871521</ele>
        <time>2016-11-22T09:46:11.000Z</time>
      </trkpt>
      <trkpt lat="47.24551" lon="-1.57384">
        <ele>18.579738616943</ele>
        <time>2016-11-22T09:46:13.000Z</time>
      </trkpt>
      <trkpt lat="47.24549" lon="-1.57377">
        <ele>18.677808761597</ele>
        <time>2016-11-22T09:46:16.000Z</time>
      </trkpt>
      <trkpt lat="47.24547" lon="-1.57371">
        <ele>18.775974273682</ele>
        <time>2016-11-22T09:46:19.000Z</time>
      </trkpt>
      <trkpt lat="47.24545" lon="-1.57364">
        <ele>18.855976104736</ele>
        <time>2016-11-22T09:46:22.000Z</time>
      </trkpt>
      <trkpt lat="47.24544" lon="-1.5736">
        <ele>18.919414520264</ele>
        <time>2016-11-22T09:46:24.000Z</time>
      </trkpt>
      <trkpt lat="47.24543" lon="-1.57356">
        <ele>18.976016998291</ele>
        <time>2016-11-22T09:46:26.000Z</time>
      </trkpt>
      <trkpt lat="47.24543" lon="-1.5735">
        <ele>19.049465179443</ele>
        <time>2016-11-22T09:46:29.000Z</time>
      </trkpt>
      <trkpt lat="47.24545" lon="-1.57343">
        <ele>19.161703109741</ele>
        <time>2016-11-22T09:46:32.000Z</time>
      </trkpt>
      <trkpt lat="47.24544" lon="-1.57336">
        <ele>19.290718078613</ele>
        <time>2016-11-22T09:46:35.000Z</time>
      </trkpt>
      <trkpt lat="47.24542" lon="-1.57331">
        <ele>19.401996612549</ele>
        <time>2016-11-22T09:46:37.000Z</time>
      </trkpt>
      <trkpt lat="47.24541" lon="-1.57326">
        <ele>19.484401702881</ele>
        <time>2016-11-22T09:46:39.000Z</time>
      </trkpt>
      <trkpt lat="47.2454" lon="-1.57322">
        <ele>19.52826499939</ele>
        <time>2016-11-22T09:46:42.000Z</time>
      </trkpt>
      <trkpt lat="47.24538" lon="-1.57317">
        <ele>19.510133743286</ele>
        <time>2016-11-22T09:46:45.000Z</time>
      </trkpt>
      <trkpt lat="47.24538" lon="-1.57311">
        <ele>19.473449707031</ele>
        <time>2016-11-22T09:46:48.000Z</time>
      </trkpt>
      <trkpt lat="47.24537" lon="-1.57306">
        <ele>19.451934814453</ele>
        <time>2016-11-22T09:46:50.000Z</time>
      </trkpt>
      <trkpt lat="47.24538" lon="-1.57299">
        <ele>19.469757080078</ele>
        <time>2016-11-22T09:46:53.000Z</time>
      </trkpt>
      <trkpt lat="47.24538" lon="-1.57295">
        <ele>19.513763427734</ele>
        <time>2016-11-22T09:46:55.000Z</time>
      </trkpt>
      <trkpt lat="47.24537" lon="-1.57288">
        <ele>19.567626953125</ele>
        <time>2016-11-22T09:46:58.000Z</time>
      </trkpt>
      <trkpt lat="47.24537" lon="-1.57284">
        <ele>19.618896484375</ele>
        <time>2016-11-22T09:47:00.000Z</time>
      </trkpt>
      <trkpt lat="47.24537" lon="-1.57277">
        <ele>19.680145263672</ele>
        <time>2016-11-22T09:47:03.000Z</time>
      </trkpt>
      <trkpt lat="47.24537" lon="-1.57273">
        <ele>19.72900390625</ele>
        <time>2016-11-22T09:47:05.000Z</time>
      </trkpt>
      <trkpt lat="47.24537" lon="-1.57268">
        <ele>19.772125244141</ele>
        <time>2016-11-22T09:47:07.000Z</time>
      </trkpt>
      <trkpt lat="47.24537" lon="-1.57262">
        <ele>19.835601806641</ele>
        <time>2016-11-22T09:47:10.000Z</time>
      </trkpt>
      <trkpt lat="47.24537" lon="-1.57256">
        <ele>19.902404785156</ele>
        <time>2016-11-22T09:47:13.000Z</time>
      </trkpt>
      <trkpt lat="47.24537" lon="-1.57253">
        <ele>19.968200683594</ele>
        <time>2016-11-22T09:47:15.000Z</time>
      </trkpt>
      <trkpt lat="47.24538" lon="-1.57248">
        <ele>20.041595458984</ele>
        <time>2016-11-22T09:47:18.000Z</time>
      </trkpt>
      <trkpt lat="47.24539" lon="-1.57245">
        <ele>20.107906341553</ele>
        <time>2016-11-22T09:47:20.000Z</time>
      </trkpt>
      <trkpt lat="47.2454" lon="-1.57241">
        <ele>20.136514663696</ele>
        <time>2016-11-22T09:47:23.000Z</time>
      </trkpt>
      <trkpt lat="47.2454" lon="-1.57237">
        <ele>20.142868041992</ele>
        <time>2016-11-22T09:47:25.000Z</time>
      </trkpt>
      <trkpt lat="47.24539" lon="-1.57233">
        <ele>20.12198638916</ele>
        <time>2016-11-22T09:47:27.000Z</time>
      </trkpt>
      <trkpt lat="47.24539" lon="-1.5723">
        <ele>20.063899993896</ele>
        <time>2016-11-22T09:47:29.000Z</time>
      </trkpt>
      <trkpt lat="47.24538" lon="-1.57224">
        <ele>19.967685699463</ele>
        <time>2016-11-22T09:47:32.000Z</time>
      </trkpt>
      <trkpt lat="47.24538" lon="-1.5722">
        <ele>19.869012832642</ele>
        <time>2016-11-22T09:47:34.000Z</time>
      </trkpt>
      <trkpt lat="47.24539" lon="-1.57216">
        <ele>19.793970108032</ele>
        <time>2016-11-22T09:47:36.000Z</time>
      </trkpt>
      <trkpt lat="47.24541" lon="-1.57211">
        <ele>19.749284744263</ele>
        <time>2016-11-22T09:47:39.000Z</time>
      </trkpt>
      <trkpt lat="47.24542" lon="-1.57207">
        <ele>19.723056793213</ele>
        <time>2016-11-22T09:47:41.000Z</time>
      </trkpt>
      <trkpt lat="47.24542" lon="-1.572">
        <ele>19.706600189209</ele>
        <time>2016-11-22T09:47:44.000Z</time>
      </trkpt>
      <trkpt lat="47.24544" lon="-1.57195">
        <ele>19.71946144104</ele>
        <time>2016-11-22T09:47:47.000Z</time>
      </trkpt>
      <trkpt lat="47.24545" lon="-1.57191">
        <ele>19.725568771362</ele>
        <time>2016-11-22T09:47:49.000Z</time>
      </trkpt>
      <trkpt lat="47.24545" lon="-1.57186">
        <ele>19.704692840576</ele>
        <time>2016-11-22T09:47:52.000Z</time>
      </trkpt>
      <trkpt lat="47.24546" lon="-1.57184">
        <ele>19.682577133179</ele>
        <time>2016-11-22T09:47:54.000Z</time>
      </trkpt>
      <trkpt lat="47.24546" lon="-1.5718">
        <ele>19.686939239502</ele>
        <time>2016-11-22T09:47:56.000Z</time>
      </trkpt>
      <trkpt lat="47.24547" lon="-1.57174">
        <ele>19.666620254517</ele>
        <time>2016-11-22T09:47:59.000Z</time>
      </trkpt>
      <trkpt lat="47.24545" lon="-1.57168">
        <ele>19.5944480896</ele>
        <time>2016-11-22T09:48:02.000Z</time>
      </trkpt>
      <trkpt lat="47.24543" lon="-1.57163">
        <ele>19.494010925293</ele>
        <time>2016-11-22T09:48:05.000Z</time>
      </trkpt>
      <trkpt lat="47.24542" lon="-1.57157">
        <ele>19.36429977417</ele>
        <time>2016-11-22T09:48:08.000Z</time>
      </trkpt>
      <trkpt lat="47.24541" lon="-1.57152">
        <ele>19.217819213867</ele>
        <time>2016-11-22T09:48:10.000Z</time>
      </trkpt>
      <trkpt lat="47.2454" lon="-1.57148">
        <ele>19.070013046265</ele>
        <time>2016-11-22T09:48:13.000Z</time>
      </trkpt>
      <trkpt lat="47.2454" lon="-1.57145">
        <ele>18.957611083984</ele>
        <time>2016-11-22T09:48:15.000Z</time>
      </trkpt>
      <trkpt lat="47.24538" lon="-1.57141">
        <ele>18.854511260986</ele>
        <time>2016-11-22T09:48:18.000Z</time>
      </trkpt>
      <trkpt lat="47.24536" lon="-1.57137">
        <ele>18.747509002686</ele>
        <time>2016-11-22T09:48:21.000Z</time>
      </trkpt>
      <trkpt lat="47.24533" lon="-1.57134">
        <ele>18.614507675171</ele>
        <time>2016-11-22T09:48:23.000Z</time>
      </trkpt>
      <trkpt lat="47.24532" lon="-1.57131">
        <ele>18.476446151733</ele>
        <time>2016-11-22T09:48:25.000Z</time>
      </trkpt>
      <trkpt lat="47.2453" lon="-1.57129">
        <ele>18.326305389404</ele>
        <time>2016-11-22T09:48:27.000Z</time>
      </trkpt>
      <trkpt lat="47.24529" lon="-1.57126">
        <ele>18.178539276123</ele>
        <time>2016-11-22T09:48:30.000Z</time>
      </trkpt>
      <trkpt lat="47.24525" lon="-1.57124">
        <ele>18.012393951416</ele>
        <time>2016-11-22T09:48:33.000Z</time>
      </trkpt>
      <trkpt lat="47.24522" lon="-1.57123">
        <ele>17.827745437622</ele>
        <time>2016-11-22T09:48:36.000Z</time>
      </trkpt>
      <trkpt lat="47.2452" lon="-1.57122">
        <ele>17.636150360107</ele>
        <time>2016-11-22T09:48:38.000Z</time>
      </trkpt>
      <trkpt lat="47.24517" lon="-1.57121">
        <ele>17.418064117432</ele>
        <time>2016-11-22T09:48:40.000Z</time>
      </trkpt>
      <trkpt lat="47.24515" lon="-1.5712">
        <ele>17.193845748901</ele>
        <time>2016-11-22T09:48:42.000Z</time>
      </trkpt>
      <trkpt lat="47.24512" lon="-1.57118">
        <ele>16.973663330078</ele>
        <time>2016-11-22T09:48:45.000Z</time>
      </trkpt>
      <trkpt lat="47.2451" lon="-1.57115">
        <ele>16.784233093262</ele>
        <time>2016-11-22T09:48:47.000Z</time>
      </trkpt>
      <trkpt lat="47.24508" lon="-1.57112">
        <ele>16.595090866089</ele>
        <time>2016-11-22T09:48:50.000Z</time>
      </trkpt>
      <trkpt lat="47.24506" lon="-1.57109">
        <ele>16.438188552856</ele>
        <time>2016-11-22T09:48:52.000Z</time>
      </trkpt>
      <trkpt lat="47.24503" lon="-1.57105">
        <ele>16.271495819092</ele>
        <time>2016-11-22T09:48:55.000Z</time>
      </trkpt>
      <trkpt lat="47.24501" lon="-1.57102">
        <ele>16.134952545166</ele>
        <time>2016-11-22T09:48:57.000Z</time>
      </trkpt>
      <trkpt lat="47.245" lon="-1.57099">
        <ele>16.018812179565</ele>
        <time>2016-11-22T09:48:59.000Z</time>
      </trkpt>
      <trkpt lat="47.24497" lon="-1.57094">
        <ele>15.944723129272</ele>
        <time>2016-11-22T09:49:02.000Z</time>
      </trkpt>
      <trkpt lat="47.24495" lon="-1.5709">
        <ele>15.902058601379</ele>
        <time>2016-11-22T09:49:05.000Z</time>
      </trkpt>
      <trkpt lat="47.24492" lon="-1.57084">
        <ele>15.909255981445</ele>
        <time>2016-11-22T09:49:08.000Z</time>
      </trkpt>
      <trkpt lat="47.24489" lon="-1.57079">
        <ele>15.959899902344</ele>
        <time>2016-11-22T09:49:11.000Z</time>
      </trkpt>
      <trkpt lat="47.24487" lon="-1.57075">
        <ele>16.034799575806</ele>
        <time>2016-11-22T09:49:13.000Z</time>
      </trkpt>
      <trkpt lat="47.24485" lon="-1.57072">
        <ele>16.105472564697</ele>
        <time>2016-11-22T09:49:15.000Z</time>
      </trkpt>
      <trkpt lat="47.24484" lon="-1.5707">
        <ele>16.1741065979</ele>
        <time>2016-11-22T09:49:17.000Z</time>
      </trkpt>
      <trkpt lat="47.24482" lon="-1.57066">
        <ele>16.242647171021</ele>
        <time>2016-11-22T09:49:19.000Z</time>
      </trkpt>
      <trkpt lat="47.24479" lon="-1.57061">
        <ele>16.296672821045</ele>
        <time>2016-11-22T09:49:22.000Z</time>
      </trkpt>
      <trkpt lat="47.24477" lon="-1.57056">
        <ele>16.343955993652</ele>
        <time>2016-11-22T09:49:25.000Z</time>
      </trkpt>
      <trkpt lat="47.24475" lon="-1.57052">
        <ele>16.382690429688</ele>
        <time>2016-11-22T09:49:27.000Z</time>
      </trkpt>
      <trkpt lat="47.24473" lon="-1.57049">
        <ele>16.409769058228</ele>
        <time>2016-11-22T09:49:29.000Z</time>
      </trkpt>
      <trkpt lat="47.24471" lon="-1.57046">
        <ele>16.42603302002</ele>
        <time>2016-11-22T09:49:31.000Z</time>
      </trkpt>
      <trkpt lat="47.24469" lon="-1.57041">
        <ele>16.423254013062</ele>
        <time>2016-11-22T09:49:34.000Z</time>
      </trkpt>
      <trkpt lat="47.24466" lon="-1.57037">
        <ele>16.398183822632</ele>
        <time>2016-11-22T09:49:36.000Z</time>
      </trkpt>
      <trkpt lat="47.24464" lon="-1.57034">
        <ele>16.357339859009</ele>
        <time>2016-11-22T09:49:38.000Z</time>
      </trkpt>
      <trkpt lat="47.24462" lon="-1.5703">
        <ele>16.30082321167</ele>
        <time>2016-11-22T09:49:40.000Z</time>
      </trkpt>
      <trkpt lat="47.24459" lon="-1.57025">
        <ele>16.221538543701</ele>
        <time>2016-11-22T09:49:43.000Z</time>
      </trkpt>
      <trkpt lat="47.24456" lon="-1.57022">
        <ele>16.121370315552</ele>
        <time>2016-11-22T09:49:45.000Z</time>
      </trkpt>
      <trkpt lat="47.24453" lon="-1.57017">
        <ele>15.999341011047</ele>
        <time>2016-11-22T09:49:48.000Z</time>
      </trkpt>
      <trkpt lat="47.24449" lon="-1.57011">
        <ele>15.834226608276</ele>
        <time>2016-11-22T09:49:51.000Z</time>
      </trkpt>
      <trkpt lat="47.24446" lon="-1.57007">
        <ele>15.649838447571</ele>
        <time>2016-11-22T09:49:53.000Z</time>
      </trkpt>
      <trkpt lat="47.24443" lon="-1.57002">
        <ele>15.434435844421</ele>
        <time>2016-11-22T09:49:56.000Z</time>
      </trkpt>
      <trkpt lat="47.24441" lon="-1.56999">
        <ele>15.214279174805</ele>
        <time>2016-11-22T09:49:58.000Z</time>
      </trkpt>
      <trkpt lat="47.24439" lon="-1.56995">
        <ele>14.991688728333</ele>
        <time>2016-11-22T09:50:00.000Z</time>
      </trkpt>
      <trkpt lat="47.24436" lon="-1.56989">
        <ele>14.778411865234</ele>
        <time>2016-11-22T09:50:03.000Z</time>
      </trkpt>
      <trkpt lat="47.24434" lon="-1.56985">
        <ele>14.568514823914</ele>
        <time>2016-11-22T09:50:05.000Z</time>
      </trkpt>
      <trkpt lat="47.24432" lon="-1.56982">
        <ele>14.379655838013</ele>
        <time>2016-11-22T09:50:07.000Z</time>
      </trkpt>
      <trkpt lat="47.24428" lon="-1.56976">
        <ele>14.159502983093</ele>
        <time>2016-11-22T09:50:10.000Z</time>
      </trkpt>
      <trkpt lat="47.24426" lon="-1.56972">
        <ele>13.93025970459</ele>
        <time>2016-11-22T09:50:13.000Z</time>
      </trkpt>
      <trkpt lat="47.24425" lon="-1.5697">
        <ele>13.72269153595</ele>
        <time>2016-11-22T09:50:15.000Z</time>
      </trkpt>
      <trkpt lat="47.24422" lon="-1.56965">
        <ele>13.506772041321</ele>
        <time>2016-11-22T09:50:18.000Z</time>
      </trkpt>
      <trkpt lat="47.2442" lon="-1.56961">
        <ele>13.274070739746</ele>
        <time>2016-11-22T09:50:21.000Z</time>
      </trkpt>
      <trkpt lat="47.24417" lon="-1.56956">
        <ele>13.045478820801</ele>
        <time>2016-11-22T09:50:24.000Z</time>
      </trkpt>
      <trkpt lat="47.24416" lon="-1.56953">
        <ele>12.868403434753</ele>
        <time>2016-11-22T09:50:26.000Z</time>
      </trkpt>
      <trkpt lat="47.24413" lon="-1.5695">
        <ele>12.767057418823</ele>
        <time>2016-11-22T09:50:29.000Z</time>
      </trkpt>
      <trkpt lat="47.24411" lon="-1.56946">
        <ele>12.757634162903</ele>
        <time>2016-11-22T09:50:32.000Z</time>
      </trkpt>
      <trkpt lat="47.24408" lon="-1.56942">
        <ele>12.86018371582</ele>
        <time>2016-11-22T09:50:35.000Z</time>
      </trkpt>
      <trkpt lat="47.24406" lon="-1.56938">
        <ele>13.054443359375</ele>
        <time>2016-11-22T09:50:38.000Z</time>
      </trkpt>
      <trkpt lat="47.24405" lon="-1.56937">
        <ele>13.268890380859</ele>
        <time>2016-11-22T09:50:40.000Z</time>
      </trkpt>
      <trkpt lat="47.24402" lon="-1.56932">
        <ele>13.489471435547</ele>
        <time>2016-11-22T09:50:43.000Z</time>
      </trkpt>
      <trkpt lat="47.24401" lon="-1.56929">
        <ele>13.691802978516</ele>
        <time>2016-11-22T09:50:45.000Z</time>
      </trkpt>
      <trkpt lat="47.24398" lon="-1.56924">
        <ele>13.873046875</ele>
        <time>2016-11-22T09:50:48.000Z</time>
      </trkpt>
      <trkpt lat="47.24396" lon="-1.56919">
        <ele>14.07177734375</ele>
        <time>2016-11-22T09:50:51.000Z</time>
      </trkpt>
      <trkpt lat="47.24395" lon="-1.56916">
        <ele>14.279584884644</ele>
        <time>2016-11-22T09:50:53.000Z</time>
      </trkpt>
      <trkpt lat="47.24393" lon="-1.56913">
        <ele>14.48637676239</ele>
        <time>2016-11-22T09:50:55.000Z</time>
      </trkpt>
      <trkpt lat="47.24391" lon="-1.56908">
        <ele>14.735084533691</ele>
        <time>2016-11-22T09:50:58.000Z</time>
      </trkpt>
      <trkpt lat="47.24388" lon="-1.56902">
        <ele>15.038316726685</ele>
        <time>2016-11-22T09:51:01.000Z</time>
      </trkpt>
      <trkpt lat="47.24385" lon="-1.56897">
        <ele>15.375948905945</ele>
        <time>2016-11-22T09:51:04.000Z</time>
      </trkpt>
      <trkpt lat="47.24384" lon="-1.56892">
        <ele>15.724641799927</ele>
        <time>2016-11-22T09:51:06.000Z</time>
      </trkpt>
      <trkpt lat="47.24383" lon="-1.56889">
        <ele>16.059114456177</ele>
        <time>2016-11-22T09:51:08.000Z</time>
      </trkpt>
      <trkpt lat="47.24382" lon="-1.56885">
        <ele>16.372142791748</ele>
        <time>2016-11-22T09:51:10.000Z</time>
      </trkpt>
      <trkpt lat="47.2438" lon="-1.5688">
        <ele>16.628597259521</ele>
        <time>2016-11-22T09:51:13.000Z</time>
      </trkpt>
      <trkpt lat="47.24379" lon="-1.56875">
        <ele>16.869131088257</ele>
        <time>2016-11-22T09:51:16.000Z</time>
      </trkpt>
      <trkpt lat="47.24377" lon="-1.5687">
        <ele>17.123531341553</ele>
        <time>2016-11-22T09:51:18.000Z</time>
      </trkpt>
      <trkpt lat="47.24374" lon="-1.56863">
        <ele>17.408321380615</ele>
        <time>2016-11-22T09:51:21.000Z</time>
      </trkpt>
      <trkpt lat="47.24372" lon="-1.56856">
        <ele>17.70578956604</ele>
        <time>2016-11-22T09:51:24.000Z</time>
      </trkpt>
      <trkpt lat="47.24371" lon="-1.56851">
        <ele>18.004377365112</ele>
        <time>2016-11-22T09:51:27.000Z</time>
      </trkpt>
      <trkpt lat="47.2437" lon="-1.56847">
        <ele>18.266567230225</ele>
        <time>2016-11-22T09:51:30.000Z</time>
      </trkpt>
      <trkpt lat="47.2437" lon="-1.56842">
        <ele>18.492437362671</ele>
        <time>2016-11-22T09:51:32.000Z</time>
      </trkpt>
      <trkpt lat="47.24369" lon="-1.56837">
        <ele>18.681951522827</ele>
        <time>2016-11-22T09:51:34.000Z</time>
      </trkpt>
      <trkpt lat="47.24368" lon="-1.5683">
        <ele>18.836658477783</ele>
        <time>2016-11-22T09:51:37.000Z</time>
      </trkpt>
      <trkpt lat="47.24368" lon="-1.56827">
        <ele>18.958333969116</ele>
        <time>2016-11-22T09:51:39.000Z</time>
      </trkpt>
      <trkpt lat="47.24366" lon="-1.56823">
        <ele>19.077041625977</ele>
        <time>2016-11-22T09:51:41.000Z</time>
      </trkpt>
      <trkpt lat="47.24366" lon="-1.56819">
        <ele>19.19314956665</ele>
        <time>2016-11-22T09:51:43.000Z</time>
      </trkpt>
      <trkpt lat="47.24366" lon="-1.56813">
        <ele>19.282344818115</ele>
        <time>2016-11-22T09:51:46.000Z</time>
      </trkpt>
      <trkpt lat="47.24367" lon="-1.5681">
        <ele>19.325504302979</ele>
        <time>2016-11-22T09:51:48.000Z</time>
      </trkpt>
      <trkpt lat="47.24368" lon="-1.56808">
        <ele>19.345497131348</ele>
        <time>2016-11-22T09:51:50.000Z</time>
      </trkpt>
      <trkpt lat="47.24371" lon="-1.56805">
        <ele>19.286458969116</ele>
        <time>2016-11-22T09:51:53.000Z</time>
      </trkpt>
      <trkpt lat="47.24375" lon="-1.56801">
        <ele>19.153553009033</ele>
        <time>2016-11-22T09:51:56.000Z</time>
      </trkpt>
      <trkpt lat="47.24378" lon="-1.568">
        <ele>18.948736190796</ele>
        <time>2016-11-22T09:51:59.000Z</time>
      </trkpt>
      <trkpt lat="47.24381" lon="-1.56798">
        <ele>18.711954116821</ele>
        <time>2016-11-22T09:52:01.000Z</time>
      </trkpt>
      <trkpt lat="47.24385" lon="-1.56796">
        <ele>18.423223495483</ele>
        <time>2016-11-22T09:52:04.000Z</time>
      </trkpt>
      <trkpt lat="47.24387" lon="-1.56794">
        <ele>18.159931182861</ele>
        <time>2016-11-22T09:52:06.000Z</time>
      </trkpt>
      <trkpt lat="47.2439" lon="-1.56789">
        <ele>17.888206481934</ele>
        <time>2016-11-22T09:52:09.000Z</time>
      </trkpt>
      <trkpt lat="47.24393" lon="-1.56784">
        <ele>17.638851165771</ele>
        <time>2016-11-22T09:52:12.000Z</time>
      </trkpt>
      <trkpt lat="47.24394" lon="-1.56779">
        <ele>17.427040100098</ele>
        <time>2016-11-22T09:52:15.000Z</time>
      </trkpt>
      <trkpt lat="47.24395" lon="-1.56773">
        <ele>17.274257659912</ele>
        <time>2016-11-22T09:52:18.000Z</time>
      </trkpt>
      <trkpt lat="47.24396" lon="-1.56768">
        <ele>17.121959686279</ele>
        <time>2016-11-22T09:52:21.000Z</time>
      </trkpt>
      <trkpt lat="47.24397" lon="-1.56764">
        <ele>17.010791778564</ele>
        <time>2016-11-22T09:52:23.000Z</time>
      </trkpt>
      <trkpt lat="47.24398" lon="-1.5676">
        <ele>16.934679031372</ele>
        <time>2016-11-22T09:52:25.000Z</time>
      </trkpt>
      <trkpt lat="47.24398" lon="-1.56755">
        <ele>16.873012542725</ele>
        <time>2016-11-22T09:52:28.000Z</time>
      </trkpt>
      <trkpt lat="47.24396" lon="-1.56747">
        <ele>16.856601715088</ele>
        <time>2016-11-22T09:52:31.000Z</time>
      </trkpt>
      <trkpt lat="47.24396" lon="-1.56742">
        <ele>16.866952896118</ele>
        <time>2016-11-22T09:52:33.000Z</time>
      </trkpt>
      <trkpt lat="47.24396" lon="-1.56736">
        <ele>16.898168563843</ele>
        <time>2016-11-22T09:52:36.000Z</time>
      </trkpt>
      <trkpt lat="47.24395" lon="-1.5673">
        <ele>16.950647354126</ele>
        <time>2016-11-22T09:52:39.000Z</time>
      </trkpt>
      <trkpt lat="47.24395" lon="-1.56724">
        <ele>17</ele>
        <time>2016-11-22T09:52:42.000Z</time>
      </trkpt>
      <trkpt lat="47.24395" lon="-1.56718">
        <ele>17.015625</ele>
        <time>2016-11-22T09:52:45.000Z</time>
      </trkpt>
      <trkpt lat="47.24395" lon="-1.56714">
        <ele>17.03125</ele>
        <time>2016-11-22T09:52:47.000Z</time>
      </trkpt>
      <trkpt lat="47.24396" lon="-1.5671">
        <ele>17.0390625</ele>
        <time>2016-11-22T09:52:49.000Z</time>
      </trkpt>
      <trkpt lat="47.24395" lon="-1.56706">
        <ele>17.0390625</ele>
        <time>2016-11-22T09:52:51.000Z</time>
      </trkpt>
      <trkpt lat="47.24395" lon="-1.56699">
        <ele>17.046875</ele>
        <time>2016-11-22T09:52:54.000Z</time>
      </trkpt>
      <trkpt lat="47.24395" lon="-1.56694">
        <ele>17.0625</ele>
        <time>2016-11-22T09:52:56.000Z</time>
      </trkpt>
      <trkpt lat="47.24394" lon="-1.56688">
        <ele>17.0859375</ele>
        <time>2016-11-22T09:52:59.000Z</time>
      </trkpt>
      <trkpt lat="47.24393" lon="-1.56684">
        <ele>17.1328125</ele>
        <time>2016-11-22T09:53:01.000Z</time>
      </trkpt>
      <trkpt lat="47.24392" lon="-1.56677">
        <ele>17.1953125</ele>
        <time>2016-11-22T09:53:04.000Z</time>
      </trkpt>
      <trkpt lat="47.24391" lon="-1.56671">
        <ele>17.2734375</ele>
        <time>2016-11-22T09:53:07.000Z</time>
      </trkpt>
      <trkpt lat="47.2439" lon="-1.56667">
        <ele>17.359771728516</ele>
        <time>2016-11-22T09:53:09.000Z</time>
      </trkpt>
      <trkpt lat="47.2439" lon="-1.56663">
        <ele>17.455352783203</ele>
        <time>2016-11-22T09:53:11.000Z</time>
      </trkpt>
      <trkpt lat="47.2439" lon="-1.56657">
        <ele>17.548706054688</ele>
        <time>2016-11-22T09:53:14.000Z</time>
      </trkpt>
      <trkpt lat="47.24389" lon="-1.56653">
        <ele>17.636444091797</ele>
        <time>2016-11-22T09:53:16.000Z</time>
      </trkpt>
      <trkpt lat="47.24389" lon="-1.56647">
        <ele>17.729949951172</ele>
        <time>2016-11-22T09:53:19.000Z</time>
      </trkpt>
      <trkpt lat="47.24389" lon="-1.56643">
        <ele>17.816925048828</ele>
        <time>2016-11-22T09:53:21.000Z</time>
      </trkpt>
      <trkpt lat="47.24388" lon="-1.56637">
        <ele>17.917053222656</ele>
        <time>2016-11-22T09:53:24.000Z</time>
      </trkpt>
      <trkpt lat="47.24387" lon="-1.56634">
        <ele>18.019927978516</ele>
        <time>2016-11-22T09:53:26.000Z</time>
      </trkpt>
      <trkpt lat="47.24387" lon="-1.5663">
        <ele>18.129241943359</ele>
        <time>2016-11-22T09:53:28.000Z</time>
      </trkpt>
      <trkpt lat="47.24385" lon="-1.56625">
        <ele>18.252624511719</ele>
        <time>2016-11-22T09:53:31.000Z</time>
      </trkpt>
      <trkpt lat="47.24384" lon="-1.56622">
        <ele>18.381164550781</ele>
        <time>2016-11-22T09:53:33.000Z</time>
      </trkpt>
      <trkpt lat="47.24385" lon="-1.56617">
        <ele>18.484161376953</ele>
        <time>2016-11-22T09:53:36.000Z</time>
      </trkpt>
      <trkpt lat="47.24385" lon="-1.56613">
        <ele>18.580383300781</ele>
        <time>2016-11-22T09:53:38.000Z</time>
      </trkpt>
      <trkpt lat="47.24384" lon="-1.56606">
        <ele>18.676452636719</ele>
        <time>2016-11-22T09:53:41.000Z</time>
      </trkpt>
      <trkpt lat="47.24384" lon="-1.56601">
        <ele>18.742126464844</ele>
        <time>2016-11-22T09:53:44.000Z</time>
      </trkpt>
      <trkpt lat="47.24384" lon="-1.56598">
        <ele>18.801391601562</ele>
        <time>2016-11-22T09:53:46.000Z</time>
      </trkpt>
      <trkpt lat="47.24384" lon="-1.56594">
        <ele>18.865356445312</ele>
        <time>2016-11-22T09:53:48.000Z</time>
      </trkpt>
      <trkpt lat="47.24384" lon="-1.5659">
        <ele>18.9375</ele>
        <time>2016-11-22T09:53:50.000Z</time>
      </trkpt>
      <trkpt lat="47.24384" lon="-1.56584">
        <ele>19</ele>
        <time>2016-11-22T09:53:53.000Z</time>
      </trkpt>
      <trkpt lat="47.24383" lon="-1.56578">
        <ele>19.06587600708</ele>
        <time>2016-11-22T09:53:56.000Z</time>
      </trkpt>
      <trkpt lat="47.24382" lon="-1.56573">
        <ele>19.154760360718</ele>
        <time>2016-11-22T09:53:59.000Z</time>
      </trkpt>
      <trkpt lat="47.24381" lon="-1.56569">
        <ele>19.24209022522</ele>
        <time>2016-11-22T09:54:01.000Z</time>
      </trkpt>
      <trkpt lat="47.24381" lon="-1.56566">
        <ele>19.311870574951</ele>
        <time>2016-11-22T09:54:03.000Z</time>
      </trkpt>
      <trkpt lat="47.24381" lon="-1.56562">
        <ele>19.3671875</ele>
        <time>2016-11-22T09:54:05.000Z</time>
      </trkpt>
      <trkpt lat="47.24384" lon="-1.56557">
        <ele>19.359375</ele>
        <time>2016-11-22T09:54:08.000Z</time>
      </trkpt>
      <trkpt lat="47.24385" lon="-1.56553">
        <ele>19.2890625</ele>
        <time>2016-11-22T09:54:10.000Z</time>
      </trkpt>
      <trkpt lat="47.24387" lon="-1.56548">
        <ele>19.1875</ele>
        <time>2016-11-22T09:54:13.000Z</time>
      </trkpt>
      <trkpt lat="47.24388" lon="-1.56544">
        <ele>19.0625</ele>
        <time>2016-11-22T09:54:16.000Z</time>
      </trkpt>
      <trkpt lat="47.24389" lon="-1.56541">
        <ele>18.921875</ele>
        <time>2016-11-22T09:54:18.000Z</time>
      </trkpt>
      <trkpt lat="47.2439" lon="-1.56535">
        <ele>18.796875</ele>
        <time>2016-11-22T09:54:21.000Z</time>
      </trkpt>
      <trkpt lat="47.24391" lon="-1.56531">
        <ele>18.6875</ele>
        <time>2016-11-22T09:54:23.000Z</time>
      </trkpt>
      <trkpt lat="47.24392" lon="-1.56526">
        <ele>18.5859375</ele>
        <time>2016-11-22T09:54:25.000Z</time>
      </trkpt>
      <trkpt lat="47.24393" lon="-1.5652">
        <ele>18.484375</ele>
        <time>2016-11-22T09:54:28.000Z</time>
      </trkpt>
      <trkpt lat="47.24394" lon="-1.56516">
        <ele>18.375</ele>
        <time>2016-11-22T09:54:31.000Z</time>
      </trkpt>
      <trkpt lat="47.24395" lon="-1.56513">
        <ele>18.2734375</ele>
        <time>2016-11-22T09:54:33.000Z</time>
      </trkpt>
      <trkpt lat="47.24397" lon="-1.56508">
        <ele>18.15625</ele>
        <time>2016-11-22T09:54:36.000Z</time>
      </trkpt>
      <trkpt lat="47.24398" lon="-1.56504">
        <ele>18.0234375</ele>
        <time>2016-11-22T09:54:38.000Z</time>
      </trkpt>
      <trkpt lat="47.24401" lon="-1.565">
        <ele>17.859375</ele>
        <time>2016-11-22T09:54:41.000Z</time>
      </trkpt>
      <trkpt lat="47.24404" lon="-1.56496">
        <ele>17.671802520752</ele>
        <time>2016-11-22T09:54:44.000Z</time>
      </trkpt>
      <trkpt lat="47.24407" lon="-1.56492">
        <ele>17.461532592773</ele>
        <time>2016-11-22T09:54:47.000Z</time>
      </trkpt>
      <trkpt lat="47.24409" lon="-1.5649">
        <ele>17.240924835205</ele>
        <time>2016-11-22T09:54:49.000Z</time>
      </trkpt>
      <trkpt lat="47.24413" lon="-1.56488">
        <ele>16.986362457275</ele>
        <time>2016-11-22T09:54:52.000Z</time>
      </trkpt>
      <trkpt lat="47.24417" lon="-1.56487">
        <ele>16.727666854858</ele>
        <time>2016-11-22T09:54:55.000Z</time>
      </trkpt>
      <trkpt lat="47.24421" lon="-1.56487">
        <ele>16.569223403931</ele>
        <time>2016-11-22T09:54:58.000Z</time>
      </trkpt>
      <trkpt lat="47.24426" lon="-1.56487">
        <ele>16.515872955322</ele>
        <time>2016-11-22T09:55:01.000Z</time>
      </trkpt>
      <trkpt lat="47.24426" lon="-1.56487">
        <ele>16.515100479126</ele>
        <time>2016-11-22T09:55:03.000Z</time>
      </trkpt>
      <trkpt lat="47.2443" lon="-1.56487">
        <ele>16.634885787964</ele>
        <time>2016-11-22T09:55:06.000Z</time>
      </trkpt>
      <trkpt lat="47.24434" lon="-1.56488">
        <ele>16.857364654541</ele>
        <time>2016-11-22T09:55:09.000Z</time>
      </trkpt>
      <trkpt lat="47.24438" lon="-1.56489">
        <ele>17.079837799072</ele>
        <time>2016-11-22T09:55:12.000Z</time>
      </trkpt>
      <trkpt lat="47.24441" lon="-1.5649">
        <ele>17.270986557007</ele>
        <time>2016-11-22T09:55:14.000Z</time>
      </trkpt>
      <trkpt lat="47.24445" lon="-1.56491">
        <ele>17.495428085327</ele>
        <time>2016-11-22T09:55:17.000Z</time>
      </trkpt>
      <trkpt lat="47.24447" lon="-1.56493">
        <ele>17.689952850342</ele>
        <time>2016-11-22T09:55:19.000Z</time>
      </trkpt>
      <trkpt lat="47.2445" lon="-1.56495">
        <ele>17.853675842285</ele>
        <time>2016-11-22T09:55:21.000Z</time>
      </trkpt>
      <trkpt lat="47.24453" lon="-1.56497">
        <ele>18.002117156982</ele>
        <time>2016-11-22T09:55:24.000Z</time>
      </trkpt>
      <trkpt lat="47.24455" lon="-1.56499">
        <ele>18.134828567505</ele>
        <time>2016-11-22T09:55:26.000Z</time>
      </trkpt>
      <trkpt lat="47.24459" lon="-1.56503">
        <ele>18.252393722534</ele>
        <time>2016-11-22T09:55:29.000Z</time>
      </trkpt>
      <trkpt lat="47.2446" lon="-1.56505">
        <ele>18.348140716553</ele>
        <time>2016-11-22T09:55:31.000Z</time>
      </trkpt>
      <trkpt lat="47.24462" lon="-1.56507">
        <ele>18.454105377197</ele>
        <time>2016-11-22T09:55:33.000Z</time>
      </trkpt>
      <trkpt lat="47.24464" lon="-1.56508">
        <ele>18.547441482544</ele>
        <time>2016-11-22T09:55:36.000Z</time>
      </trkpt>
      <trkpt lat="47.24466" lon="-1.56508">
        <ele>18.648120880127</ele>
        <time>2016-11-22T09:55:38.000Z</time>
      </trkpt>
      <trkpt lat="47.24466" lon="-1.56506">
        <ele>18.724918365479</ele>
        <time>2016-11-22T09:55:41.000Z</time>
      </trkpt>
      <trkpt lat="47.24466" lon="-1.56504">
        <ele>18.798830032349</ele>
        <time>2016-11-22T09:55:43.000Z</time>
      </trkpt>
      <trkpt lat="47.24464" lon="-1.565">
        <ele>18.84895324707</ele>
        <time>2016-11-22T09:55:46.000Z</time>
      </trkpt>
      <trkpt lat="47.24462" lon="-1.56496">
        <ele>18.865568161011</ele>
        <time>2016-11-22T09:55:49.000Z</time>
      </trkpt>
      <trkpt lat="47.24461" lon="-1.56495">
        <ele>18.863649368286</ele>
        <time>2016-11-22T09:55:51.000Z</time>
      </trkpt>
      <trkpt lat="47.2446" lon="-1.56492">
        <ele>18.851196289062</ele>
        <time>2016-11-22T09:55:53.000Z</time>
      </trkpt>
      <trkpt lat="47.24459" lon="-1.56489">
        <ele>18.844915390015</ele>
        <time>2016-11-22T09:55:55.000Z</time>
      </trkpt>
      <trkpt lat="47.24456" lon="-1.56483">
        <ele>18.842296600342</ele>
        <time>2016-11-22T09:55:58.000Z</time>
      </trkpt>
      <trkpt lat="47.24456" lon="-1.56479">
        <ele>18.860530853271</ele>
        <time>2016-11-22T09:56:01.000Z</time>
      </trkpt>
      <trkpt lat="47.24455" lon="-1.56475">
        <ele>18.894714355469</ele>
        <time>2016-11-22T09:56:04.000Z</time>
      </trkpt>
      <trkpt lat="47.24456" lon="-1.56473">
        <ele>18.955528259277</ele>
        <time>2016-11-22T09:56:06.000Z</time>
      </trkpt>
      <trkpt lat="47.24456" lon="-1.56469">
        <ele>19.041442871094</ele>
        <time>2016-11-22T09:56:08.000Z</time>
      </trkpt>
      <trkpt lat="47.24456" lon="-1.56466">
        <ele>19.143100738525</ele>
        <time>2016-11-22T09:56:10.000Z</time>
      </trkpt>
      <trkpt lat="47.24456" lon="-1.56461">
        <ele>19.254323959351</ele>
        <time>2016-11-22T09:56:13.000Z</time>
      </trkpt>
      <trkpt lat="47.24456" lon="-1.56458">
        <ele>19.366344451904</ele>
        <time>2016-11-22T09:56:15.000Z</time>
      </trkpt>
      <trkpt lat="47.24456" lon="-1.56456">
        <ele>19.465385437012</ele>
        <time>2016-11-22T09:56:17.000Z</time>
      </trkpt>
      <trkpt lat="47.24455" lon="-1.56453">
        <ele>19.542942047119</ele>
        <time>2016-11-22T09:56:19.000Z</time>
      </trkpt>
      <trkpt lat="47.24454" lon="-1.56446">
        <ele>19.623153686523</ele>
        <time>2016-11-22T09:56:22.000Z</time>
      </trkpt>
      <trkpt lat="47.24456" lon="-1.56441">
        <ele>19.729862213135</ele>
        <time>2016-11-22T09:56:25.000Z</time>
      </trkpt>
      <trkpt lat="47.24458" lon="-1.56438">
        <ele>19.888835906982</ele>
        <time>2016-11-22T09:56:28.000Z</time>
      </trkpt>
      <trkpt lat="47.2446" lon="-1.56434">
        <ele>20.083484649658</ele>
        <time>2016-11-22T09:56:31.000Z</time>
      </trkpt>
      <trkpt lat="47.24461" lon="-1.5643">
        <ele>20.306062698364</ele>
        <time>2016-11-22T09:56:33.000Z</time>
      </trkpt>
      <trkpt lat="47.24462" lon="-1.56424">
        <ele>20.574920654297</ele>
        <time>2016-11-22T09:56:36.000Z</time>
      </trkpt>
      <trkpt lat="47.24463" lon="-1.56421">
        <ele>20.820560455322</ele>
        <time>2016-11-22T09:56:38.000Z</time>
      </trkpt>
      <trkpt lat="47.24464" lon="-1.56418">
        <ele>21.038799285889</ele>
        <time>2016-11-22T09:56:40.000Z</time>
      </trkpt>
      <trkpt lat="47.24464" lon="-1.56416">
        <ele>21.239555358887</ele>
        <time>2016-11-22T09:56:42.000Z</time>
      </trkpt>
      <trkpt lat="47.24465" lon="-1.56412">
        <ele>21.413627624512</ele>
        <time>2016-11-22T09:56:45.000Z</time>
      </trkpt>
      <trkpt lat="47.24466" lon="-1.56408">
        <ele>21.531703948975</ele>
        <time>2016-11-22T09:56:48.000Z</time>
      </trkpt>
      <trkpt lat="47.24467" lon="-1.56406">
        <ele>21.629919052124</ele>
        <time>2016-11-22T09:56:50.000Z</time>
      </trkpt>
      <trkpt lat="47.24466" lon="-1.56402">
        <ele>21.673625946045</ele>
        <time>2016-11-22T09:56:53.000Z</time>
      </trkpt>
      <trkpt lat="47.24467" lon="-1.56398">
        <ele>21.702739715576</ele>
        <time>2016-11-22T09:56:56.000Z</time>
      </trkpt>
      <trkpt lat="47.24468" lon="-1.56394">
        <ele>21.741195678711</ele>
        <time>2016-11-22T09:56:59.000Z</time>
      </trkpt>
      <trkpt lat="47.24469" lon="-1.56392">
        <ele>21.77353477478</ele>
        <time>2016-11-22T09:57:01.000Z</time>
      </trkpt>
      <trkpt lat="47.24469" lon="-1.56387">
        <ele>21.811840057373</ele>
        <time>2016-11-22T09:57:04.000Z</time>
      </trkpt>
      <trkpt lat="47.2447" lon="-1.56383">
        <ele>21.875597000122</ele>
        <time>2016-11-22T09:57:06.000Z</time>
      </trkpt>
      <trkpt lat="47.24472" lon="-1.56378">
        <ele>21.964456558228</ele>
        <time>2016-11-22T09:57:09.000Z</time>
      </trkpt>
      <trkpt lat="47.24474" lon="-1.56375">
        <ele>22.071435928345</ele>
        <time>2016-11-22T09:57:11.000Z</time>
      </trkpt>
      <trkpt lat="47.24476" lon="-1.56371">
        <ele>22.211362838745</ele>
        <time>2016-11-22T09:57:14.000Z</time>
      </trkpt>
      <trkpt lat="47.24477" lon="-1.56368">
        <ele>22.362466812134</ele>
        <time>2016-11-22T09:57:16.000Z</time>
      </trkpt>
      <trkpt lat="47.24478" lon="-1.56365">
        <ele>22.5071849823</ele>
        <time>2016-11-22T09:57:18.000Z</time>
      </trkpt>
      <trkpt lat="47.24479" lon="-1.56363">
        <ele>22.630138397217</ele>
        <time>2016-11-22T09:57:20.000Z</time>
      </trkpt>
      <trkpt lat="47.2448" lon="-1.5636">
        <ele>22.737646102905</ele>
        <time>2016-11-22T09:57:23.000Z</time>
      </trkpt>
      <trkpt lat="47.24481" lon="-1.56357">
        <ele>22.821399688721</ele>
        <time>2016-11-22T09:57:26.000Z</time>
      </trkpt>
      <trkpt lat="47.24481" lon="-1.56353">
        <ele>22.880306243896</ele>
        <time>2016-11-22T09:57:28.000Z</time>
      </trkpt>
      <trkpt lat="47.24481" lon="-1.56348">
        <ele>22.938013076782</ele>
        <time>2016-11-22T09:57:31.000Z</time>
      </trkpt>
      <trkpt lat="47.24482" lon="-1.56343">
        <ele>22.995485305786</ele>
        <time>2016-11-22T09:57:34.000Z</time>
      </trkpt>
      <trkpt lat="47.24483" lon="-1.56338">
        <ele>23.06139755249</ele>
        <time>2016-11-22T09:57:37.000Z</time>
      </trkpt>
      <trkpt lat="47.24486" lon="-1.56331">
        <ele>23.162830352783</ele>
        <time>2016-11-22T09:57:40.000Z</time>
      </trkpt>
      <trkpt lat="47.24488" lon="-1.56324">
        <ele>23.318981170654</ele>
        <time>2016-11-22T09:57:43.000Z</time>
      </trkpt>
      <trkpt lat="47.24489" lon="-1.56318">
        <ele>23.478231430054</ele>
        <time>2016-11-22T09:57:46.000Z</time>
      </trkpt>
      <trkpt lat="47.2449" lon="-1.56313">
        <ele>23.639991760254</ele>
        <time>2016-11-22T09:57:48.000Z</time>
      </trkpt>
      <trkpt lat="47.2449" lon="-1.56309">
        <ele>23.787109375</ele>
        <time>2016-11-22T09:57:50.000Z</time>
      </trkpt>
      <trkpt lat="47.24492" lon="-1.56302">
        <ele>23.9013671875</ele>
        <time>2016-11-22T09:57:53.000Z</time>
      </trkpt>
      <trkpt lat="47.24493" lon="-1.56297">
        <ele>23.9892578125</ele>
        <time>2016-11-22T09:57:56.000Z</time>
      </trkpt>
      <trkpt lat="47.24494" lon="-1.56291">
        <ele>24.0947265625</ele>
        <time>2016-11-22T09:57:59.000Z</time>
      </trkpt>
      <trkpt lat="47.24495" lon="-1.56288">
        <ele>24.2177734375</ele>
        <time>2016-11-22T09:58:01.000Z</time>
      </trkpt>
      <trkpt lat="47.24497" lon="-1.56283">
        <ele>24.349609375</ele>
        <time>2016-11-22T09:58:04.000Z</time>
      </trkpt>
      <trkpt lat="47.24498" lon="-1.5628">
        <ele>24.490234375</ele>
        <time>2016-11-22T09:58:06.000Z</time>
      </trkpt>
      <trkpt lat="47.245" lon="-1.56275">
        <ele>24.6396484375</ele>
        <time>2016-11-22T09:58:09.000Z</time>
      </trkpt>
      <trkpt lat="47.245" lon="-1.56271">
        <ele>24.774408340454</ele>
        <time>2016-11-22T09:58:11.000Z</time>
      </trkpt>
      <trkpt lat="47.24501" lon="-1.56268">
        <ele>24.877141952515</ele>
        <time>2016-11-22T09:58:13.000Z</time>
      </trkpt>
      <trkpt lat="47.24503" lon="-1.56264">
        <ele>24.961938858032</ele>
        <time>2016-11-22T09:58:16.000Z</time>
      </trkpt>
      <trkpt lat="47.24503" lon="-1.56261">
        <ele>25.020950317383</ele>
        <time>2016-11-22T09:58:18.000Z</time>
      </trkpt>
      <trkpt lat="47.24502" lon="-1.56255">
        <ele>25.042165756226</ele>
        <time>2016-11-22T09:58:21.000Z</time>
      </trkpt>
      <trkpt lat="47.24502" lon="-1.56251">
        <ele>25.050277709961</ele>
        <time>2016-11-22T09:58:23.000Z</time>
      </trkpt>
      <trkpt lat="47.24501" lon="-1.56247">
        <ele>25.046350479126</ele>
        <time>2016-11-22T09:58:25.000Z</time>
      </trkpt>
      <trkpt lat="47.24501" lon="-1.56243">
        <ele>25.022108078003</ele>
        <time>2016-11-22T09:58:27.000Z</time>
      </trkpt>
      <trkpt lat="47.24501" lon="-1.56237">
        <ele>24.981374740601</ele>
        <time>2016-11-22T09:58:30.000Z</time>
      </trkpt>
      <trkpt lat="47.245" lon="-1.56233">
        <ele>24.929176330566</ele>
        <time>2016-11-22T09:58:32.000Z</time>
      </trkpt>
      <trkpt lat="47.24499" lon="-1.56228">
        <ele>24.846706390381</ele>
        <time>2016-11-22T09:58:35.000Z</time>
      </trkpt>
      <trkpt lat="47.24499" lon="-1.56225">
        <ele>24.756225585938</ele>
        <time>2016-11-22T09:58:37.000Z</time>
      </trkpt>
      <trkpt lat="47.24498" lon="-1.56219">
        <ele>24.63583946228</ele>
        <time>2016-11-22T09:58:40.000Z</time>
      </trkpt>
      <trkpt lat="47.24496" lon="-1.56213">
        <ele>24.48938369751</ele>
        <time>2016-11-22T09:58:43.000Z</time>
      </trkpt>
      <trkpt lat="47.24496" lon="-1.56207">
        <ele>24.33416557312</ele>
        <time>2016-11-22T09:58:46.000Z</time>
      </trkpt>
      <trkpt lat="47.24495" lon="-1.56201">
        <ele>24.165496826172</ele>
        <time>2016-11-22T09:58:49.000Z</time>
      </trkpt>
      <trkpt lat="47.24493" lon="-1.56197">
        <ele>23.975870132446</ele>
        <time>2016-11-22T09:58:51.000Z</time>
      </trkpt>
      <trkpt lat="47.24491" lon="-1.56191">
        <ele>23.755939483643</ele>
        <time>2016-11-22T09:58:54.000Z</time>
      </trkpt>
      <trkpt lat="47.2449" lon="-1.56187">
        <ele>23.557975769043</ele>
        <time>2016-11-22T09:58:56.000Z</time>
      </trkpt>
      <trkpt lat="47.24489" lon="-1.56182">
        <ele>23.329948425293</ele>
        <time>2016-11-22T09:58:59.000Z</time>
      </trkpt>
      <trkpt lat="47.24487" lon="-1.56177">
        <ele>23.095417022705</ele>
        <time>2016-11-22T09:59:02.000Z</time>
      </trkpt>
      <trkpt lat="47.24486" lon="-1.56172">
        <ele>22.845413208008</ele>
        <time>2016-11-22T09:59:05.000Z</time>
      </trkpt>
      <trkpt lat="47.24485" lon="-1.56168">
        <ele>22.648023605347</ele>
        <time>2016-11-22T09:59:07.000Z</time>
      </trkpt>
      <trkpt lat="47.24484" lon="-1.56163">
        <ele>22.460296630859</ele>
        <time>2016-11-22T09:59:10.000Z</time>
      </trkpt>
      <trkpt lat="47.24482" lon="-1.56159">
        <ele>22.307207107544</ele>
        <time>2016-11-22T09:59:13.000Z</time>
      </trkpt>
      <trkpt lat="47.2448" lon="-1.56156">
        <ele>22.191564559937</ele>
        <time>2016-11-22T09:59:15.000Z</time>
      </trkpt>
      <trkpt lat="47.24479" lon="-1.56152">
        <ele>22.116262435913</ele>
        <time>2016-11-22T09:59:17.000Z</time>
      </trkpt>
      <trkpt lat="47.24477" lon="-1.56149">
        <ele>22.049322128296</ele>
        <time>2016-11-22T09:59:19.000Z</time>
      </trkpt>
      <trkpt lat="47.24474" lon="-1.56145">
        <ele>21.962503433228</ele>
        <time>2016-11-22T09:59:22.000Z</time>
      </trkpt>
      <trkpt lat="47.24472" lon="-1.56141">
        <ele>21.874309539795</ele>
        <time>2016-11-22T09:59:25.000Z</time>
      </trkpt>
      <trkpt lat="47.24471" lon="-1.56139">
        <ele>21.803050994873</ele>
        <time>2016-11-22T09:59:27.000Z</time>
      </trkpt>
      <trkpt lat="47.2447" lon="-1.56139">
        <ele>21.718013763428</ele>
        <time>2016-11-22T09:59:30.000Z</time>
      </trkpt>
      <trkpt lat="47.24471" lon="-1.56138">
        <ele>21.671407699585</ele>
        <time>2016-11-22T09:59:36.000Z</time>
      </trkpt>
      <trkpt lat="47.24472" lon="-1.56135">
        <ele>21.697658538818</ele>
        <time>2016-11-22T09:59:38.000Z</time>
      </trkpt>
      <trkpt lat="47.24473" lon="-1.5613">
        <ele>21.809310913086</ele>
        <time>2016-11-22T09:59:41.000Z</time>
      </trkpt>
      <trkpt lat="47.24475" lon="-1.56127">
        <ele>21.971712112427</ele>
        <time>2016-11-22T09:59:43.000Z</time>
      </trkpt>
      <trkpt lat="47.24477" lon="-1.56124">
        <ele>22.24102973938</ele>
        <time>2016-11-22T09:59:46.000Z</time>
      </trkpt>
      <trkpt lat="47.24481" lon="-1.56123">
        <ele>22.559740066528</ele>
        <time>2016-11-22T09:59:49.000Z</time>
      </trkpt>
      <trkpt lat="47.24482" lon="-1.56122">
        <ele>22.862651824951</ele>
        <time>2016-11-22T09:59:52.000Z</time>
      </trkpt>
      <trkpt lat="47.24485" lon="-1.5612">
        <ele>23.160934448242</ele>
        <time>2016-11-22T09:59:55.000Z</time>
      </trkpt>
      <trkpt lat="47.24489" lon="-1.56118">
        <ele>23.490077972412</ele>
        <time>2016-11-22T09:59:58.000Z</time>
      </trkpt>
      <trkpt lat="47.24491" lon="-1.56118">
        <ele>23.772686004639</ele>
        <time>2016-11-22T10:00:00.000Z</time>
      </trkpt>
      <trkpt lat="47.24493" lon="-1.56118">
        <ele>24.024255752563</ele>
        <time>2016-11-22T10:00:02.000Z</time>
      </trkpt>
      <trkpt lat="47.24496" lon="-1.56117">
        <ele>24.301633834839</ele>
        <time>2016-11-22T10:00:04.000Z</time>
      </trkpt>
      <trkpt lat="47.24499" lon="-1.56118">
        <ele>24.56943321228</ele>
        <time>2016-11-22T10:00:06.000Z</time>
      </trkpt>
      <trkpt lat="47.24502" lon="-1.56118">
        <ele>24.766891479492</ele>
        <time>2016-11-22T10:00:08.000Z</time>
      </trkpt>
      <trkpt lat="47.24505" lon="-1.5612">
        <ele>24.914026260376</ele>
        <time>2016-11-22T10:00:10.000Z</time>
      </trkpt>
      <trkpt lat="47.24509" lon="-1.56122">
        <ele>24.995859146118</ele>
        <time>2016-11-22T10:00:13.000Z</time>
      </trkpt>
      <trkpt lat="47.24513" lon="-1.56124">
        <ele>25.008306503296</ele>
        <time>2016-11-22T10:00:16.000Z</time>
      </trkpt>
      <trkpt lat="47.24518" lon="-1.56123">
        <ele>24.958599090576</ele>
        <time>2016-11-22T10:00:19.000Z</time>
      </trkpt>
      <trkpt lat="47.24522" lon="-1.56122">
        <ele>24.887344360352</ele>
        <time>2016-11-22T10:00:22.000Z</time>
      </trkpt>
      <trkpt lat="47.24525" lon="-1.56121">
        <ele>24.826766967773</ele>
        <time>2016-11-22T10:00:24.000Z</time>
      </trkpt>
      <trkpt lat="47.24529" lon="-1.5612">
        <ele>24.776592254639</ele>
        <time>2016-11-22T10:00:27.000Z</time>
      </trkpt>
      <trkpt lat="47.24532" lon="-1.5612">
        <ele>24.732959747314</ele>
        <time>2016-11-22T10:00:30.000Z</time>
      </trkpt>
      <trkpt lat="47.24535" lon="-1.56119">
        <ele>24.690921783447</ele>
        <time>2016-11-22T10:00:33.000Z</time>
      </trkpt>
      <trkpt lat="47.24538" lon="-1.56118">
        <ele>24.647878646851</ele>
        <time>2016-11-22T10:00:35.000Z</time>
      </trkpt>
      <trkpt lat="47.24542" lon="-1.56117">
        <ele>24.59893989563</ele>
        <time>2016-11-22T10:00:38.000Z</time>
      </trkpt>
      <trkpt lat="47.24545" lon="-1.56117">
        <ele>24.54976272583</ele>
        <time>2016-11-22T10:00:40.000Z</time>
      </trkpt>
      <trkpt lat="47.24546" lon="-1.56117">
        <ele>24.507907867432</ele>
        <time>2016-11-22T10:00:42.000Z</time>
      </trkpt>
      <trkpt lat="47.24549" lon="-1.56115">
        <ele>24.461559295654</ele>
        <time>2016-11-22T10:00:45.000Z</time>
      </trkpt>
      <trkpt lat="47.24552" lon="-1.56114">
        <ele>24.413684844971</ele>
        <time>2016-11-22T10:00:47.000Z</time>
      </trkpt>
      <trkpt lat="47.24554" lon="-1.56113">
        <ele>24.367130279541</ele>
        <time>2016-11-22T10:00:49.000Z</time>
      </trkpt>
      <trkpt lat="47.24558" lon="-1.56111">
        <ele>24.31259727478</ele>
        <time>2016-11-22T10:00:52.000Z</time>
      </trkpt>
      <trkpt lat="47.2456" lon="-1.5611">
        <ele>24.25080871582</ele>
        <time>2016-11-22T10:00:54.000Z</time>
      </trkpt>
      <trkpt lat="47.24562" lon="-1.56109">
        <ele>24.188289642334</ele>
        <time>2016-11-22T10:00:56.000Z</time>
      </trkpt>
      <trkpt lat="47.24566" lon="-1.56107">
        <ele>24.114910125732</ele>
        <time>2016-11-22T10:00:59.000Z</time>
      </trkpt>
      <trkpt lat="47.24569" lon="-1.56106">
        <ele>24.034816741943</ele>
        <time>2016-11-22T10:01:02.000Z</time>
      </trkpt>
      <trkpt lat="47.2457" lon="-1.56104">
        <ele>23.961765289307</ele>
        <time>2016-11-22T10:01:05.000Z</time>
      </trkpt>
      <trkpt lat="47.24571" lon="-1.56102">
        <ele>23.888561248779</ele>
        <time>2016-11-22T10:01:07.000Z</time>
      </trkpt>
      <trkpt lat="47.24573" lon="-1.56102">
        <ele>23.82022857666</ele>
        <time>2016-11-22T10:01:10.000Z</time>
      </trkpt>
      <trkpt lat="47.24574" lon="-1.56105">
        <ele>23.780206680298</ele>
        <time>2016-11-22T10:01:12.000Z</time>
      </trkpt>
      <trkpt lat="47.24577" lon="-1.56106">
        <ele>23.749801635742</ele>
        <time>2016-11-22T10:01:15.000Z</time>
      </trkpt>
      <trkpt lat="47.2458" lon="-1.5611">
        <ele>23.725381851196</ele>
        <time>2016-11-22T10:01:18.000Z</time>
      </trkpt>
      <trkpt lat="47.24584" lon="-1.56111">
        <ele>23.699563980103</ele>
        <time>2016-11-22T10:01:21.000Z</time>
      </trkpt>
      <trkpt lat="47.24586" lon="-1.56113">
        <ele>23.666038513184</ele>
        <time>2016-11-22T10:01:23.000Z</time>
      </trkpt>
      <trkpt lat="47.2459" lon="-1.56114">
        <ele>23.595809936523</ele>
        <time>2016-11-22T10:01:26.000Z</time>
      </trkpt>
      <trkpt lat="47.24593" lon="-1.56115">
        <ele>23.509262084961</ele>
        <time>2016-11-22T10:01:29.000Z</time>
      </trkpt>
      <trkpt lat="47.24597" lon="-1.56118">
        <ele>23.41015625</ele>
        <time>2016-11-22T10:01:32.000Z</time>
      </trkpt>
      <trkpt lat="47.24601" lon="-1.56121">
        <ele>23.293701171875</ele>
        <time>2016-11-22T10:01:35.000Z</time>
      </trkpt>
      <trkpt lat="47.24604" lon="-1.56124">
        <ele>23.182678222656</ele>
        <time>2016-11-22T10:01:37.000Z</time>
      </trkpt>
      <trkpt lat="47.24605" lon="-1.56126">
        <ele>23.096984863281</ele>
        <time>2016-11-22T10:01:39.000Z</time>
      </trkpt>
      <trkpt lat="47.24611" lon="-1.56132">
        <ele>23.010559082031</ele>
        <time>2016-11-22T10:01:47.000Z</time>
      </trkpt>
      <trkpt lat="47.24613" lon="-1.56137">
        <ele>22.942626953125</ele>
        <time>2016-11-22T10:01:50.000Z</time>
      </trkpt>
      <trkpt lat="47.24616" lon="-1.56142">
        <ele>22.895874023438</ele>
        <time>2016-11-22T10:01:53.000Z</time>
      </trkpt>
      <trkpt lat="47.2462" lon="-1.56147">
        <ele>22.853515625</ele>
        <time>2016-11-22T10:01:56.000Z</time>
      </trkpt>
      <trkpt lat="47.24622" lon="-1.5615">
        <ele>22.812438964844</ele>
        <time>2016-11-22T10:01:58.000Z</time>
      </trkpt>
      <trkpt lat="47.24625" lon="-1.56154">
        <ele>22.783630371094</ele>
        <time>2016-11-22T10:02:01.000Z</time>
      </trkpt>
      <trkpt lat="47.24628" lon="-1.56158">
        <ele>22.73974609375</ele>
        <time>2016-11-22T10:02:04.000Z</time>
      </trkpt>
      <trkpt lat="47.24632" lon="-1.56162">
        <ele>22.693298339844</ele>
        <time>2016-11-22T10:02:07.000Z</time>
      </trkpt>
      <trkpt lat="47.24634" lon="-1.56165">
        <ele>22.643371582031</ele>
        <time>2016-11-22T10:02:09.000Z</time>
      </trkpt>
      <trkpt lat="47.24637" lon="-1.56168">
        <ele>22.578563690186</ele>
        <time>2016-11-22T10:02:12.000Z</time>
      </trkpt>
      <trkpt lat="47.2464" lon="-1.5617">
        <ele>22.510799407959</ele>
        <time>2016-11-22T10:02:14.000Z</time>
      </trkpt>
      <trkpt lat="47.24641" lon="-1.56173">
        <ele>22.443548202515</ele>
        <time>2016-11-22T10:02:16.000Z</time>
      </trkpt>
      <trkpt lat="47.24645" lon="-1.56176">
        <ele>22.360935211182</ele>
        <time>2016-11-22T10:02:19.000Z</time>
      </trkpt>
      <trkpt lat="47.24648" lon="-1.56178">
        <ele>22.271053314209</ele>
        <time>2016-11-22T10:02:21.000Z</time>
      </trkpt>
      <trkpt lat="47.24651" lon="-1.5618">
        <ele>22.176229476929</ele>
        <time>2016-11-22T10:02:23.000Z</time>
      </trkpt>
      <trkpt lat="47.24654" lon="-1.56182">
        <ele>22.062725067139</ele>
        <time>2016-11-22T10:02:26.000Z</time>
      </trkpt>
      <trkpt lat="47.24658" lon="-1.56186">
        <ele>21.938186645508</ele>
        <time>2016-11-22T10:02:29.000Z</time>
      </trkpt>
      <trkpt lat="47.24662" lon="-1.56189">
        <ele>21.807727813721</ele>
        <time>2016-11-22T10:02:32.000Z</time>
      </trkpt>
      <trkpt lat="47.24667" lon="-1.56192">
        <ele>21.652141571045</ele>
        <time>2016-11-22T10:02:35.000Z</time>
      </trkpt>
      <trkpt lat="47.2467" lon="-1.56194">
        <ele>21.514642715454</ele>
        <time>2016-11-22T10:02:38.000Z</time>
      </trkpt>
      <trkpt lat="47.24673" lon="-1.56196">
        <ele>21.40909576416</ele>
        <time>2016-11-22T10:02:40.000Z</time>
      </trkpt>
      <trkpt lat="47.24678" lon="-1.56199">
        <ele>21.324291229248</ele>
        <time>2016-11-22T10:02:43.000Z</time>
      </trkpt>
      <trkpt lat="47.2468" lon="-1.562">
        <ele>21.269287109375</ele>
        <time>2016-11-22T10:02:45.000Z</time>
      </trkpt>
      <trkpt lat="47.24684" lon="-1.56203">
        <ele>21.253356933594</ele>
        <time>2016-11-22T10:02:48.000Z</time>
      </trkpt>
      <trkpt lat="47.24688" lon="-1.56206">
        <ele>21.240783691406</ele>
        <time>2016-11-22T10:02:51.000Z</time>
      </trkpt>
      <trkpt lat="47.24691" lon="-1.56208">
        <ele>21.227844238281</ele>
        <time>2016-11-22T10:02:53.000Z</time>
      </trkpt>
      <trkpt lat="47.24695" lon="-1.56211">
        <ele>21.215728759766</ele>
        <time>2016-11-22T10:02:56.000Z</time>
      </trkpt>
      <trkpt lat="47.24698" lon="-1.56213">
        <ele>21.203308105469</ele>
        <time>2016-11-22T10:02:58.000Z</time>
      </trkpt>
      <trkpt lat="47.24701" lon="-1.56216">
        <ele>21.193786621094</ele>
        <time>2016-11-22T10:03:01.000Z</time>
      </trkpt>
      <trkpt lat="47.24703" lon="-1.56218">
        <ele>21.184722900391</ele>
        <time>2016-11-22T10:03:03.000Z</time>
      </trkpt>
      <trkpt lat="47.24706" lon="-1.5622">
        <ele>21.178070068359</ele>
        <time>2016-11-22T10:03:05.000Z</time>
      </trkpt>
      <trkpt lat="47.24709" lon="-1.56222">
        <ele>21.169006347656</ele>
        <time>2016-11-22T10:03:08.000Z</time>
      </trkpt>
      <trkpt lat="47.24712" lon="-1.56223">
        <ele>21.159576416016</ele>
        <time>2016-11-22T10:03:10.000Z</time>
      </trkpt>
      <trkpt lat="47.24715" lon="-1.56225">
        <ele>21.148162841797</ele>
        <time>2016-11-22T10:03:13.000Z</time>
      </trkpt>
      <trkpt lat="47.2472" lon="-1.56228">
        <ele>21.13427734375</ele>
        <time>2016-11-22T10:03:16.000Z</time>
      </trkpt>
      <trkpt lat="47.24722" lon="-1.5623">
        <ele>21.118591308594</ele>
        <time>2016-11-22T10:03:18.000Z</time>
      </trkpt>
      <trkpt lat="47.24726" lon="-1.56233">
        <ele>21.105377197266</ele>
        <time>2016-11-22T10:03:21.000Z</time>
      </trkpt>
      <trkpt lat="47.24729" lon="-1.56235">
        <ele>21.093200683594</ele>
        <time>2016-11-22T10:03:23.000Z</time>
      </trkpt>
      <trkpt lat="47.24731" lon="-1.56236">
        <ele>21.081359863281</ele>
        <time>2016-11-22T10:03:25.000Z</time>
      </trkpt>
      <trkpt lat="47.24734" lon="-1.56237">
        <ele>21.067321777344</ele>
        <time>2016-11-22T10:03:27.000Z</time>
      </trkpt>
      <trkpt lat="47.24739" lon="-1.56239">
        <ele>21.048492431641</ele>
        <time>2016-11-22T10:03:30.000Z</time>
      </trkpt>
      <trkpt lat="47.24742" lon="-1.5624">
        <ele>21.029418945312</ele>
        <time>2016-11-22T10:03:32.000Z</time>
      </trkpt>
      <trkpt lat="47.24746" lon="-1.56243">
        <ele>21.006958007812</ele>
        <time>2016-11-22T10:03:35.000Z</time>
      </trkpt>
      <trkpt lat="47.2475" lon="-1.56245">
        <ele>20.983568191528</ele>
        <time>2016-11-22T10:03:38.000Z</time>
      </trkpt>
      <trkpt lat="47.24753" lon="-1.56246">
        <ele>20.968578338623</ele>
        <time>2016-11-22T10:03:40.000Z</time>
      </trkpt>
      <trkpt lat="47.24755" lon="-1.56248">
        <ele>20.963401794434</ele>
        <time>2016-11-22T10:03:42.000Z</time>
      </trkpt>
      <trkpt lat="47.24759" lon="-1.5625">
        <ele>20.965923309326</ele>
        <time>2016-11-22T10:03:45.000Z</time>
      </trkpt>
      <trkpt lat="47.24762" lon="-1.56252">
        <ele>20.973852157593</ele>
        <time>2016-11-22T10:03:47.000Z</time>
      </trkpt>
      <trkpt lat="47.24765" lon="-1.56254">
        <ele>20.985517501831</ele>
        <time>2016-11-22T10:03:49.000Z</time>
      </trkpt>
      <trkpt lat="47.24768" lon="-1.56257">
        <ele>20.994060516357</ele>
        <time>2016-11-22T10:03:52.000Z</time>
      </trkpt>
      <trkpt lat="47.24772" lon="-1.56259">
        <ele>20.999538421631</ele>
        <time>2016-11-22T10:03:55.000Z</time>
      </trkpt>
      <trkpt lat="47.24776" lon="-1.56262">
        <ele>21</ele>
        <time>2016-11-22T10:03:58.000Z</time>
      </trkpt>
      <trkpt lat="47.24779" lon="-1.56264">
        <ele>21</ele>
        <time>2016-11-22T10:04:00.000Z</time>
      </trkpt>
      <trkpt lat="47.24783" lon="-1.56267">
        <ele>21</ele>
        <time>2016-11-22T10:04:03.000Z</time>
      </trkpt>
      <trkpt lat="47.24788" lon="-1.56271">
        <ele>21</ele>
        <time>2016-11-22T10:04:06.000Z</time>
      </trkpt>
      <trkpt lat="47.24791" lon="-1.56274">
        <ele>21</ele>
        <time>2016-11-22T10:04:09.000Z</time>
      </trkpt>
      <trkpt lat="47.24796" lon="-1.56276">
        <ele>21</ele>
        <time>2016-11-22T10:04:12.000Z</time>
      </trkpt>
      <trkpt lat="47.24798" lon="-1.56278">
        <ele>21</ele>
        <time>2016-11-22T10:04:14.000Z</time>
      </trkpt>
      <trkpt lat="47.248" lon="-1.56279">
        <ele>21</ele>
        <time>2016-11-22T10:04:16.000Z</time>
      </trkpt>
      <trkpt lat="47.24804" lon="-1.56281">
        <ele>21</ele>
        <time>2016-11-22T10:04:19.000Z</time>
      </trkpt>
      <trkpt lat="47.24807" lon="-1.56283">
        <ele>21</ele>
        <time>2016-11-22T10:04:21.000Z</time>
      </trkpt>
      <trkpt lat="47.24811" lon="-1.56286">
        <ele>21</ele>
        <time>2016-11-22T10:04:24.000Z</time>
      </trkpt>
      <trkpt lat="47.24814" lon="-1.56288">
        <ele>21</ele>
        <time>2016-11-22T10:04:26.000Z</time>
      </trkpt>
      <trkpt lat="47.24817" lon="-1.5629">
        <ele>21</ele>
        <time>2016-11-22T10:04:28.000Z</time>
      </trkpt>
      <trkpt lat="47.2482" lon="-1.56293">
        <ele>21</ele>
        <time>2016-11-22T10:04:31.000Z</time>
      </trkpt>
      <trkpt lat="47.24823" lon="-1.56295">
        <ele>21</ele>
        <time>2016-11-22T10:04:33.000Z</time>
      </trkpt>
      <trkpt lat="47.24827" lon="-1.56298">
        <ele>21</ele>
        <time>2016-11-22T10:04:36.000Z</time>
      </trkpt>
      <trkpt lat="47.24831" lon="-1.563">
        <ele>21</ele>
        <time>2016-11-22T10:04:39.000Z</time>
      </trkpt>
      <trkpt lat="47.24833" lon="-1.56302">
        <ele>21</ele>
        <time>2016-11-22T10:04:41.000Z</time>
      </trkpt>
      <trkpt lat="47.24836" lon="-1.56303">
        <ele>20.99587059021</ele>
        <time>2016-11-22T10:04:43.000Z</time>
      </trkpt>
      <trkpt lat="47.24839" lon="-1.56305">
        <ele>20.987121582031</ele>
        <time>2016-11-22T10:04:45.000Z</time>
      </trkpt>
      <trkpt lat="47.24843" lon="-1.56308">
        <ele>20.97120475769</ele>
        <time>2016-11-22T10:04:48.000Z</time>
      </trkpt>
      <trkpt lat="47.24847" lon="-1.5631">
        <ele>20.94820022583</ele>
        <time>2016-11-22T10:04:51.000Z</time>
      </trkpt>
      <trkpt lat="47.24849" lon="-1.56312">
        <ele>20.920223236084</ele>
        <time>2016-11-22T10:04:53.000Z</time>
      </trkpt>
      <trkpt lat="47.24853" lon="-1.56315">
        <ele>20.887409210205</ele>
        <time>2016-11-22T10:04:56.000Z</time>
      </trkpt>
      <trkpt lat="47.24855" lon="-1.56317">
        <ele>20.853534698486</ele>
        <time>2016-11-22T10:04:58.000Z</time>
      </trkpt>
      <trkpt lat="47.24859" lon="-1.5632">
        <ele>20.817554473877</ele>
        <time>2016-11-22T10:05:01.000Z</time>
      </trkpt>
      <trkpt lat="47.24863" lon="-1.56322">
        <ele>20.779317855835</ele>
        <time>2016-11-22T10:05:04.000Z</time>
      </trkpt>
      <trkpt lat="47.24865" lon="-1.56323">
        <ele>20.739635467529</ele>
        <time>2016-11-22T10:05:06.000Z</time>
      </trkpt>
      <trkpt lat="47.24869" lon="-1.56326">
        <ele>20.698110580444</ele>
        <time>2016-11-22T10:05:09.000Z</time>
      </trkpt>
      <trkpt lat="47.24871" lon="-1.56328">
        <ele>20.655069351196</ele>
        <time>2016-11-22T10:05:11.000Z</time>
      </trkpt>
      <trkpt lat="47.24876" lon="-1.56331">
        <ele>20.608905792236</ele>
        <time>2016-11-22T10:05:14.000Z</time>
      </trkpt>
      <trkpt lat="47.24878" lon="-1.56332">
        <ele>20.564350128174</ele>
        <time>2016-11-22T10:05:16.000Z</time>
      </trkpt>
      <trkpt lat="47.24881" lon="-1.56334">
        <ele>20.51794052124</ele>
        <time>2016-11-22T10:05:18.000Z</time>
      </trkpt>
      <trkpt lat="47.24885" lon="-1.56336">
        <ele>20.474090576172</ele>
        <time>2016-11-22T10:05:21.000Z</time>
      </trkpt>
      <trkpt lat="47.24889" lon="-1.56338">
        <ele>20.429010391235</ele>
        <time>2016-11-22T10:05:24.000Z</time>
      </trkpt>
      <trkpt lat="47.24893" lon="-1.56341">
        <ele>20.38822555542</ele>
        <time>2016-11-22T10:05:27.000Z</time>
      </trkpt>
      <trkpt lat="47.24896" lon="-1.56343">
        <ele>20.348867416382</ele>
        <time>2016-11-22T10:05:29.000Z</time>
      </trkpt>
      <trkpt lat="47.249" lon="-1.56346">
        <ele>20.309167861938</ele>
        <time>2016-11-22T10:05:32.000Z</time>
      </trkpt>
      <trkpt lat="47.24904" lon="-1.56348">
        <ele>20.267436981201</ele>
        <time>2016-11-22T10:05:35.000Z</time>
      </trkpt>
      <trkpt lat="47.24908" lon="-1.56351">
        <ele>20.222064971924</ele>
        <time>2016-11-22T10:05:38.000Z</time>
      </trkpt>
      <trkpt lat="47.24912" lon="-1.56353">
        <ele>20.175647735596</ele>
        <time>2016-11-22T10:05:41.000Z</time>
      </trkpt>
      <trkpt lat="47.24916" lon="-1.56354">
        <ele>20.123491287231</ele>
        <time>2016-11-22T10:05:44.000Z</time>
      </trkpt>
      <trkpt lat="47.2492" lon="-1.56355">
        <ele>20.102401733398</ele>
        <time>2016-11-22T10:05:47.000Z</time>
      </trkpt>
      <trkpt lat="47.24922" lon="-1.56356">
        <ele>20.114101409912</ele>
        <time>2016-11-22T10:05:49.000Z</time>
      </trkpt>
      <trkpt lat="47.24924" lon="-1.56356">
        <ele>20.160573959351</ele>
        <time>2016-11-22T10:05:52.000Z</time>
      </trkpt>
      <trkpt lat="47.24926" lon="-1.56356">
        <ele>20.231090545654</ele>
        <time>2016-11-22T10:05:54.000Z</time>
      </trkpt>
      <trkpt lat="47.24929" lon="-1.56356">
        <ele>20.339227676392</ele>
        <time>2016-11-22T10:05:57.000Z</time>
      </trkpt>
      <trkpt lat="47.2493" lon="-1.56354">
        <ele>20.434160232544</ele>
        <time>2016-11-22T10:05:59.000Z</time>
      </trkpt>
      <trkpt lat="47.24932" lon="-1.56353">
        <ele>20.519775390625</ele>
        <time>2016-11-22T10:06:01.000Z</time>
      </trkpt>
      <trkpt lat="47.24935" lon="-1.56353">
        <ele>20.612102508545</ele>
        <time>2016-11-22T10:06:03.000Z</time>
      </trkpt>
      <trkpt lat="47.24937" lon="-1.56354">
        <ele>20.713245391846</ele>
        <time>2016-11-22T10:06:05.000Z</time>
      </trkpt>
      <trkpt lat="47.24941" lon="-1.56357">
        <ele>20.830377578735</ele>
        <time>2016-11-22T10:06:08.000Z</time>
      </trkpt>
      <trkpt lat="47.24944" lon="-1.56358">
        <ele>20.960536956787</ele>
        <time>2016-11-22T10:06:10.000Z</time>
      </trkpt>
      <trkpt lat="47.24947" lon="-1.5636">
        <ele>21.117309570312</ele>
        <time>2016-11-22T10:06:13.000Z</time>
      </trkpt>
      <trkpt lat="47.24949" lon="-1.56362">
        <ele>21.264198303223</ele>
        <time>2016-11-22T10:06:15.000Z</time>
      </trkpt>
      <trkpt lat="47.24952" lon="-1.56363">
        <ele>21.419588088989</ele>
        <time>2016-11-22T10:06:17.000Z</time>
      </trkpt>
      <trkpt lat="47.24954" lon="-1.56365">
        <ele>21.562244415283</ele>
        <time>2016-11-22T10:06:19.000Z</time>
      </trkpt>
      <trkpt lat="47.24957" lon="-1.56367">
        <ele>21.714105606079</ele>
        <time>2016-11-22T10:06:21.000Z</time>
      </trkpt>
      <trkpt lat="47.24961" lon="-1.5637">
        <ele>21.878398895264</ele>
        <time>2016-11-22T10:06:24.000Z</time>
      </trkpt>
      <trkpt lat="47.24964" lon="-1.56371">
        <ele>22.064861297607</ele>
        <time>2016-11-22T10:06:26.000Z</time>
      </trkpt>
      <trkpt lat="47.24969" lon="-1.56373">
        <ele>22.273931503296</ele>
        <time>2016-11-22T10:06:29.000Z</time>
      </trkpt>
      <trkpt lat="47.24972" lon="-1.56374">
        <ele>22.496852874756</ele>
        <time>2016-11-22T10:06:31.000Z</time>
      </trkpt>
      <trkpt lat="47.24976" lon="-1.56376">
        <ele>22.74556350708</ele>
        <time>2016-11-22T10:06:34.000Z</time>
      </trkpt>
      <trkpt lat="47.24979" lon="-1.56377">
        <ele>22.97381401062</ele>
        <time>2016-11-22T10:06:36.000Z</time>
      </trkpt>
      <trkpt lat="47.24982" lon="-1.56378">
        <ele>23.202438354492</ele>
        <time>2016-11-22T10:06:38.000Z</time>
      </trkpt>
      <trkpt lat="47.24986" lon="-1.56379">
        <ele>23.42809677124</ele>
        <time>2016-11-22T10:06:41.000Z</time>
      </trkpt>
      <trkpt lat="47.2499" lon="-1.5638">
        <ele>23.668075561523</ele>
        <time>2016-11-22T10:06:44.000Z</time>
      </trkpt>
      <trkpt lat="47.24993" lon="-1.56382">
        <ele>23.88551902771</ele>
        <time>2016-11-22T10:06:46.000Z</time>
      </trkpt>
      <trkpt lat="47.24996" lon="-1.56384">
        <ele>24.122686386108</ele>
        <time>2016-11-22T10:06:49.000Z</time>
      </trkpt>
      <trkpt lat="47.25" lon="-1.56386">
        <ele>24.377098083496</ele>
        <time>2016-11-22T10:06:52.000Z</time>
      </trkpt>
      <trkpt lat="47.25003" lon="-1.56387">
        <ele>24.609127044678</ele>
        <time>2016-11-22T10:06:54.000Z</time>
      </trkpt>
      <trkpt lat="47.25006" lon="-1.56389">
        <ele>24.819953918457</ele>
        <time>2016-11-22T10:06:57.000Z</time>
      </trkpt>
      <trkpt lat="47.25009" lon="-1.56391">
        <ele>25.029193878174</ele>
        <time>2016-11-22T10:06:59.000Z</time>
      </trkpt>
      <trkpt lat="47.25011" lon="-1.56393">
        <ele>25.218139648438</ele>
        <time>2016-11-22T10:07:01.000Z</time>
      </trkpt>
      <trkpt lat="47.25014" lon="-1.56397">
        <ele>25.40234375</ele>
        <time>2016-11-22T10:07:04.000Z</time>
      </trkpt>
      <trkpt lat="47.25019" lon="-1.56402">
        <ele>25.619873046875</ele>
        <time>2016-11-22T10:07:07.000Z</time>
      </trkpt>
      <trkpt lat="47.25021" lon="-1.56404">
        <ele>25.836669921875</ele>
        <time>2016-11-22T10:07:09.000Z</time>
      </trkpt>
      <trkpt lat="47.25025" lon="-1.56407">
        <ele>26.069213867188</ele>
        <time>2016-11-22T10:07:12.000Z</time>
      </trkpt>
      <trkpt lat="47.25028" lon="-1.56409">
        <ele>26.309906005859</ele>
        <time>2016-11-22T10:07:15.000Z</time>
      </trkpt>
      <trkpt lat="47.25031" lon="-1.56411">
        <ele>26.528991699219</ele>
        <time>2016-11-22T10:07:17.000Z</time>
      </trkpt>
      <trkpt lat="47.25033" lon="-1.56413">
        <ele>26.713653564453</ele>
        <time>2016-11-22T10:07:19.000Z</time>
      </trkpt>
      <trkpt lat="47.25035" lon="-1.56415">
        <ele>26.895935058594</ele>
        <time>2016-11-22T10:07:21.000Z</time>
      </trkpt>
      <trkpt lat="47.25039" lon="-1.56418">
        <ele>27.079753875732</ele>
        <time>2016-11-22T10:07:24.000Z</time>
      </trkpt>
      <trkpt lat="47.25042" lon="-1.5642">
        <ele>27.271631240845</ele>
        <time>2016-11-22T10:07:26.000Z</time>
      </trkpt>
      <trkpt lat="47.25043" lon="-1.56421">
        <ele>27.463872909546</ele>
        <time>2016-11-22T10:07:28.000Z</time>
      </trkpt>
      <trkpt lat="47.25046" lon="-1.56422">
        <ele>27.664356231689</ele>
        <time>2016-11-22T10:07:30.000Z</time>
      </trkpt>
      <trkpt lat="47.25048" lon="-1.56424">
        <ele>27.873168945312</ele>
        <time>2016-11-22T10:07:32.000Z</time>
      </trkpt>
      <trkpt lat="47.25051" lon="-1.56427">
        <ele>28.095275878906</ele>
        <time>2016-11-22T10:07:35.000Z</time>
      </trkpt>
      <trkpt lat="47.25054" lon="-1.5643">
        <ele>28.338439941406</ele>
        <time>2016-11-22T10:07:38.000Z</time>
      </trkpt>
      <trkpt lat="47.25058" lon="-1.56434">
        <ele>28.625</ele>
        <time>2016-11-22T10:07:41.000Z</time>
      </trkpt>
      <trkpt lat="47.25061" lon="-1.56437">
        <ele>28.944885253906</ele>
        <time>2016-11-22T10:07:44.000Z</time>
      </trkpt>
      <trkpt lat="47.25064" lon="-1.56439">
        <ele>29.270263671875</ele>
        <time>2016-11-22T10:07:47.000Z</time>
      </trkpt>
      <trkpt lat="47.25067" lon="-1.5644">
        <ele>29.573120117188</ele>
        <time>2016-11-22T10:07:49.000Z</time>
      </trkpt>
      <trkpt lat="47.25071" lon="-1.56443">
        <ele>29.880737304688</ele>
        <time>2016-11-22T10:07:52.000Z</time>
      </trkpt>
      <trkpt lat="47.25074" lon="-1.56446">
        <ele>30.17626953125</ele>
        <time>2016-11-22T10:07:55.000Z</time>
      </trkpt>
      <trkpt lat="47.25078" lon="-1.56448">
        <ele>30.463928222656</ele>
        <time>2016-11-22T10:07:58.000Z</time>
      </trkpt>
      <trkpt lat="47.25082" lon="-1.56451">
        <ele>30.764770507812</ele>
        <time>2016-11-22T10:08:01.000Z</time>
      </trkpt>
      <trkpt lat="47.25084" lon="-1.56452">
        <ele>31.053628921509</ele>
        <time>2016-11-22T10:08:03.000Z</time>
      </trkpt>
      <trkpt lat="47.25087" lon="-1.56455">
        <ele>31.278034210205</ele>
        <time>2016-11-22T10:08:06.000Z</time>
      </trkpt>
      <trkpt lat="47.2509" lon="-1.56455">
        <ele>31.433776855469</ele>
        <time>2016-11-22T10:08:08.000Z</time>
      </trkpt>
      <trkpt lat="47.25093" lon="-1.56456">
        <ele>31.520263671875</ele>
        <time>2016-11-22T10:08:11.000Z</time>
      </trkpt>
      <trkpt lat="47.25096" lon="-1.56458">
        <ele>31.542364120483</ele>
        <time>2016-11-22T10:08:14.000Z</time>
      </trkpt>
      <trkpt lat="47.251" lon="-1.56461">
        <ele>31.55611038208</ele>
        <time>2016-11-22T10:08:17.000Z</time>
      </trkpt>
      <trkpt lat="47.25101" lon="-1.56463">
        <ele>31.576602935791</ele>
        <time>2016-11-22T10:08:19.000Z</time>
      </trkpt>
      <trkpt lat="47.25104" lon="-1.56467">
        <ele>31.625720977783</ele>
        <time>2016-11-22T10:08:22.000Z</time>
      </trkpt>
      <trkpt lat="47.25106" lon="-1.56469">
        <ele>31.690570831299</ele>
        <time>2016-11-22T10:08:24.000Z</time>
      </trkpt>
      <trkpt lat="47.2511" lon="-1.56472">
        <ele>31.777746200562</ele>
        <time>2016-11-22T10:08:27.000Z</time>
      </trkpt>
      <trkpt lat="47.25114" lon="-1.56476">
        <ele>31.859384536743</ele>
        <time>2016-11-22T10:08:30.000Z</time>
      </trkpt>
      <trkpt lat="47.25118" lon="-1.56479">
        <ele>31.928842544556</ele>
        <time>2016-11-22T10:08:33.000Z</time>
      </trkpt>
      <trkpt lat="47.25121" lon="-1.56482">
        <ele>31.985332489014</ele>
        <time>2016-11-22T10:08:35.000Z</time>
      </trkpt>
      <trkpt lat="47.25124" lon="-1.56485">
        <ele>32.037208557129</ele>
        <time>2016-11-22T10:08:37.000Z</time>
      </trkpt>
      <trkpt lat="47.25128" lon="-1.56487">
        <ele>32.070125579834</ele>
        <time>2016-11-22T10:08:40.000Z</time>
      </trkpt>
      <trkpt lat="47.25132" lon="-1.5649">
        <ele>32.087108612061</ele>
        <time>2016-11-22T10:08:43.000Z</time>
      </trkpt>
      <trkpt lat="47.25135" lon="-1.56492">
        <ele>32.09107208252</ele>
        <time>2016-11-22T10:08:45.000Z</time>
      </trkpt>
      <trkpt lat="47.25138" lon="-1.56494">
        <ele>32.084770202637</ele>
        <time>2016-11-22T10:08:48.000Z</time>
      </trkpt>
      <trkpt lat="47.25139" lon="-1.56495">
        <ele>32.071849822998</ele>
        <time>2016-11-22T10:08:50.000Z</time>
      </trkpt>
      <trkpt lat="47.25142" lon="-1.56496">
        <ele>32.049163818359</ele>
        <time>2016-11-22T10:08:52.000Z</time>
      </trkpt>
      <trkpt lat="47.25144" lon="-1.56498">
        <ele>32.021942138672</ele>
        <time>2016-11-22T10:08:54.000Z</time>
      </trkpt>
      <trkpt lat="47.25149" lon="-1.56501">
        <ele>31.984622955322</ele>
        <time>2016-11-22T10:08:57.000Z</time>
      </trkpt>
      <trkpt lat="47.25152" lon="-1.56503">
        <ele>31.926498413086</ele>
        <time>2016-11-22T10:09:00.000Z</time>
      </trkpt>
      <trkpt lat="47.25156" lon="-1.56506">
        <ele>31.84423828125</ele>
        <time>2016-11-22T10:09:03.000Z</time>
      </trkpt>
      <trkpt lat="47.25159" lon="-1.56507">
        <ele>31.754287719727</ele>
        <time>2016-11-22T10:09:05.000Z</time>
      </trkpt>
      <trkpt lat="47.25162" lon="-1.56509">
        <ele>31.648197174072</ele>
        <time>2016-11-22T10:09:08.000Z</time>
      </trkpt>
      <trkpt lat="47.25165" lon="-1.5651">
        <ele>31.542068481445</ele>
        <time>2016-11-22T10:09:11.000Z</time>
      </trkpt>
      <trkpt lat="47.25167" lon="-1.56506">
        <ele>31.417627334595</ele>
        <time>2016-11-22T10:09:14.000Z</time>
      </trkpt>
      <trkpt lat="47.25168" lon="-1.56503">
        <ele>31.297790527344</ele>
        <time>2016-11-22T10:09:16.000Z</time>
      </trkpt>
      <trkpt lat="47.25169" lon="-1.56497">
        <ele>31.150009155273</ele>
        <time>2016-11-22T10:09:19.000Z</time>
      </trkpt>
      <trkpt lat="47.25169" lon="-1.56492">
        <ele>30.970302581787</ele>
        <time>2016-11-22T10:09:22.000Z</time>
      </trkpt>
      <trkpt lat="47.2517" lon="-1.56489">
        <ele>30.780557632446</ele>
        <time>2016-11-22T10:09:24.000Z</time>
      </trkpt>
      <trkpt lat="47.25171" lon="-1.56483">
        <ele>30.567743301392</ele>
        <time>2016-11-22T10:09:27.000Z</time>
      </trkpt>
      <trkpt lat="47.25171" lon="-1.56479">
        <ele>30.337253570557</ele>
        <time>2016-11-22T10:09:29.000Z</time>
      </trkpt>
      <trkpt lat="47.25172" lon="-1.56474">
        <ele>30.094375610352</ele>
        <time>2016-11-22T10:09:32.000Z</time>
      </trkpt>
      <trkpt lat="47.25172" lon="-1.56467">
        <ele>29.844156265259</ele>
        <time>2016-11-22T10:09:35.000Z</time>
      </trkpt>
      <trkpt lat="47.25173" lon="-1.56464">
        <ele>29.584949493408</ele>
        <time>2016-11-22T10:09:37.000Z</time>
      </trkpt>
      <trkpt lat="47.25174" lon="-1.56457">
        <ele>29.323383331299</ele>
        <time>2016-11-22T10:09:40.000Z</time>
      </trkpt>
      <trkpt lat="47.25174" lon="-1.56451">
        <ele>29.04242515564</ele>
        <time>2016-11-22T10:09:43.000Z</time>
      </trkpt>
      <trkpt lat="47.25174" lon="-1.56445">
        <ele>28.768697738647</ele>
        <time>2016-11-22T10:09:46.000Z</time>
      </trkpt>
      <trkpt lat="47.25175" lon="-1.5644">
        <ele>28.508535385132</ele>
        <time>2016-11-22T10:09:48.000Z</time>
      </trkpt>
      <trkpt lat="47.25175" lon="-1.56436">
        <ele>28.24263381958</ele>
        <time>2016-11-22T10:09:50.000Z</time>
      </trkpt>
      <trkpt lat="47.25175" lon="-1.56429">
        <ele>27.980642318726</ele>
        <time>2016-11-22T10:09:53.000Z</time>
      </trkpt>
      <trkpt lat="47.25176" lon="-1.56425">
        <ele>27.736856460571</ele>
        <time>2016-11-22T10:09:55.000Z</time>
      </trkpt>
      <trkpt lat="47.25177" lon="-1.5642">
        <ele>27.502437591553</ele>
        <time>2016-11-22T10:09:58.000Z</time>
      </trkpt>
      <trkpt lat="47.25177" lon="-1.56418">
        <ele>27.294490814209</ele>
        <time>2016-11-22T10:10:00.000Z</time>
      </trkpt>
      <trkpt lat="47.25178" lon="-1.56417">
        <ele>27.116893768311</ele>
        <time>2016-11-22T10:10:02.000Z</time>
      </trkpt>
      <trkpt lat="47.25179" lon="-1.56412">
        <ele>27.003276824951</ele>
        <time>2016-11-22T10:10:11.000Z</time>
      </trkpt>
      <trkpt lat="47.25187" lon="-1.56409">
        <ele>26.916971206665</ele>
        <time>2016-11-22T10:10:27.000Z</time>
      </trkpt>
      <trkpt lat="47.2519" lon="-1.56408">
        <ele>26.867900848389</ele>
        <time>2016-11-22T10:10:30.000Z</time>
      </trkpt>
      <trkpt lat="47.25193" lon="-1.56408">
        <ele>26.829605102539</ele>
        <time>2016-11-22T10:10:33.000Z</time>
      </trkpt>
      <trkpt lat="47.25195" lon="-1.56408">
        <ele>26.80132484436</ele>
        <time>2016-11-22T10:10:35.000Z</time>
      </trkpt>
      <trkpt lat="47.25198" lon="-1.56407">
        <ele>26.761672973633</ele>
        <time>2016-11-22T10:10:38.000Z</time>
      </trkpt>
      <trkpt lat="47.25201" lon="-1.56405">
        <ele>26.731145858765</ele>
        <time>2016-11-22T10:10:41.000Z</time>
      </trkpt>
      <trkpt lat="47.25203" lon="-1.56402">
        <ele>26.701940536499</ele>
        <time>2016-11-22T10:10:44.000Z</time>
      </trkpt>
      <trkpt lat="47.25205" lon="-1.564">
        <ele>26.681909561157</ele>
        <time>2016-11-22T10:10:46.000Z</time>
      </trkpt>
      <trkpt lat="47.25207" lon="-1.56398">
        <ele>26.662271499634</ele>
        <time>2016-11-22T10:10:49.000Z</time>
      </trkpt>
      <trkpt lat="47.25209" lon="-1.56396">
        <ele>26.646530151367</ele>
        <time>2016-11-22T10:10:51.000Z</time>
      </trkpt>
      <trkpt lat="47.2521" lon="-1.56393">
        <ele>26.633941650391</ele>
        <time>2016-11-22T10:10:53.000Z</time>
      </trkpt>
      <trkpt lat="47.25211" lon="-1.56389">
        <ele>26.627420425415</ele>
        <time>2016-11-22T10:10:56.000Z</time>
      </trkpt>
      <trkpt lat="47.25213" lon="-1.56387">
        <ele>26.617244720459</ele>
        <time>2016-11-22T10:10:58.000Z</time>
      </trkpt>
      <trkpt lat="47.25215" lon="-1.56384">
        <ele>26.60640335083</ele>
        <time>2016-11-22T10:11:00.000Z</time>
      </trkpt>
      <trkpt lat="47.25217" lon="-1.56383">
        <ele>26.593286514282</ele>
        <time>2016-11-22T10:11:02.000Z</time>
      </trkpt>
      <trkpt lat="47.25221" lon="-1.56381">
        <ele>26.570276260376</ele>
        <time>2016-11-22T10:11:05.000Z</time>
      </trkpt>
      <trkpt lat="47.25224" lon="-1.5638">
        <ele>26.537494659424</ele>
        <time>2016-11-22T10:11:07.000Z</time>
      </trkpt>
      <trkpt lat="47.25227" lon="-1.56379">
        <ele>26.497034072876</ele>
        <time>2016-11-22T10:11:10.000Z</time>
      </trkpt>
      <trkpt lat="47.25229" lon="-1.56378">
        <ele>26.454614639282</ele>
        <time>2016-11-22T10:11:12.000Z</time>
      </trkpt>
      <trkpt lat="47.25233" lon="-1.56377">
        <ele>26.402154922485</ele>
        <time>2016-11-22T10:11:15.000Z</time>
      </trkpt>
      <trkpt lat="47.25237" lon="-1.56376">
        <ele>26.348302841187</ele>
        <time>2016-11-22T10:11:17.000Z</time>
      </trkpt>
      <trkpt lat="47.25242" lon="-1.56375">
        <ele>26.286539077759</ele>
        <time>2016-11-22T10:11:20.000Z</time>
      </trkpt>
      <trkpt lat="47.25245" lon="-1.56374">
        <ele>26.223690032959</ele>
        <time>2016-11-22T10:11:23.000Z</time>
      </trkpt>
      <trkpt lat="47.25248" lon="-1.56373">
        <ele>26.158456802368</ele>
        <time>2016-11-22T10:11:25.000Z</time>
      </trkpt>
      <trkpt lat="47.25252" lon="-1.56373">
        <ele>26.108554840088</ele>
        <time>2016-11-22T10:11:28.000Z</time>
      </trkpt>
      <trkpt lat="47.25255" lon="-1.56375">
        <ele>26.080148696899</ele>
        <time>2016-11-22T10:11:30.000Z</time>
      </trkpt>
      <trkpt lat="47.25257" lon="-1.56376">
        <ele>26.075876235962</ele>
        <time>2016-11-22T10:11:32.000Z</time>
      </trkpt>
      <trkpt lat="47.2526" lon="-1.56376">
        <ele>26.093191146851</ele>
        <time>2016-11-22T10:11:34.000Z</time>
      </trkpt>
      <trkpt lat="47.25264" lon="-1.56378">
        <ele>26.134607315063</ele>
        <time>2016-11-22T10:11:37.000Z</time>
      </trkpt>
      <trkpt lat="47.25267" lon="-1.56379">
        <ele>26.185384750366</ele>
        <time>2016-11-22T10:11:39.000Z</time>
      </trkpt>
      <trkpt lat="47.25271" lon="-1.56379">
        <ele>26.241474151611</ele>
        <time>2016-11-22T10:11:42.000Z</time>
      </trkpt>
      <trkpt lat="47.25274" lon="-1.56379">
        <ele>26.297718048096</ele>
        <time>2016-11-22T10:11:44.000Z</time>
      </trkpt>
      <trkpt lat="47.25278" lon="-1.5638">
        <ele>26.360340118408</ele>
        <time>2016-11-22T10:11:47.000Z</time>
      </trkpt>
      <trkpt lat="47.25281" lon="-1.56381">
        <ele>26.417659759521</ele>
        <time>2016-11-22T10:11:49.000Z</time>
      </trkpt>
      <trkpt lat="47.25285" lon="-1.56383">
        <ele>26.477325439453</ele>
        <time>2016-11-22T10:11:52.000Z</time>
      </trkpt>
      <trkpt lat="47.25289" lon="-1.56383">
        <ele>26.536594390869</ele>
        <time>2016-11-22T10:11:55.000Z</time>
      </trkpt>
      <trkpt lat="47.25293" lon="-1.56383">
        <ele>26.59917640686</ele>
        <time>2016-11-22T10:11:58.000Z</time>
      </trkpt>
      <trkpt lat="47.25296" lon="-1.56385">
        <ele>26.655233383179</ele>
        <time>2016-11-22T10:12:01.000Z</time>
      </trkpt>
      <trkpt lat="47.25298" lon="-1.56387">
        <ele>26.706081390381</ele>
        <time>2016-11-22T10:12:03.000Z</time>
      </trkpt>
      <trkpt lat="47.25301" lon="-1.56388">
        <ele>26.752735137939</ele>
        <time>2016-11-22T10:12:05.000Z</time>
      </trkpt>
      <trkpt lat="47.25303" lon="-1.56389">
        <ele>26.789520263672</ele>
        <time>2016-11-22T10:12:07.000Z</time>
      </trkpt>
      <trkpt lat="47.25307" lon="-1.56391">
        <ele>26.822895050049</ele>
        <time>2016-11-22T10:12:10.000Z</time>
      </trkpt>
      <trkpt lat="47.25311" lon="-1.56393">
        <ele>26.857696533203</ele>
        <time>2016-11-22T10:12:13.000Z</time>
      </trkpt>
      <trkpt lat="47.25315" lon="-1.56394">
        <ele>26.898731231689</ele>
        <time>2016-11-22T10:12:16.000Z</time>
      </trkpt>
      <trkpt lat="47.25318" lon="-1.56395">
        <ele>26.939270019531</ele>
        <time>2016-11-22T10:12:18.000Z</time>
      </trkpt>
      <trkpt lat="47.25322" lon="-1.56396">
        <ele>26.985677719116</ele>
        <time>2016-11-22T10:12:21.000Z</time>
      </trkpt>
      <trkpt lat="47.25324" lon="-1.56397">
        <ele>27.029315948486</ele>
        <time>2016-11-22T10:12:23.000Z</time>
      </trkpt>
      <trkpt lat="47.25327" lon="-1.56397">
        <ele>27.06826210022</ele>
        <time>2016-11-22T10:12:25.000Z</time>
      </trkpt>
      <trkpt lat="47.25331" lon="-1.56399">
        <ele>27.10585975647</ele>
        <time>2016-11-22T10:12:28.000Z</time>
      </trkpt>
      <trkpt lat="47.25335" lon="-1.564">
        <ele>27.135406494141</ele>
        <time>2016-11-22T10:12:31.000Z</time>
      </trkpt>
      <trkpt lat="47.25338" lon="-1.564">
        <ele>27.14599609375</ele>
        <time>2016-11-22T10:12:33.000Z</time>
      </trkpt>
      <trkpt lat="47.25343" lon="-1.564">
        <ele>27.137023925781</ele>
        <time>2016-11-22T10:12:36.000Z</time>
      </trkpt>
      <trkpt lat="47.25345" lon="-1.56401">
        <ele>27.114145278931</ele>
        <time>2016-11-22T10:12:38.000Z</time>
      </trkpt>
      <trkpt lat="47.25349" lon="-1.56403">
        <ele>27.068338394165</ele>
        <time>2016-11-22T10:12:41.000Z</time>
      </trkpt>
      <trkpt lat="47.25351" lon="-1.56403">
        <ele>27.01541519165</ele>
        <time>2016-11-22T10:12:43.000Z</time>
      </trkpt>
      <trkpt lat="47.25355" lon="-1.56404">
        <ele>26.958408355713</ele>
        <time>2016-11-22T10:12:46.000Z</time>
      </trkpt>
      <trkpt lat="47.25358" lon="-1.56405">
        <ele>26.907155990601</ele>
        <time>2016-11-22T10:12:48.000Z</time>
      </trkpt>
      <trkpt lat="47.25362" lon="-1.56407">
        <ele>26.849828720093</ele>
        <time>2016-11-22T10:12:51.000Z</time>
      </trkpt>
      <trkpt lat="47.25367" lon="-1.56408">
        <ele>26.792041778564</ele>
        <time>2016-11-22T10:12:54.000Z</time>
      </trkpt>
      <trkpt lat="47.25371" lon="-1.56411">
        <ele>26.727575302124</ele>
        <time>2016-11-22T10:12:57.000Z</time>
      </trkpt>
      <trkpt lat="47.25374" lon="-1.56412">
        <ele>26.66552734375</ele>
        <time>2016-11-22T10:13:00.000Z</time>
      </trkpt>
      <trkpt lat="47.25376" lon="-1.5641">
        <ele>26.610605239868</ele>
        <time>2016-11-22T10:13:02.000Z</time>
      </trkpt>
      <trkpt lat="47.25378" lon="-1.56407">
        <ele>26.568410873413</ele>
        <time>2016-11-22T10:13:05.000Z</time>
      </trkpt>
      <trkpt lat="47.25379" lon="-1.56407">
        <ele>26.536083221436</ele>
        <time>2016-11-22T10:13:07.000Z</time>
      </trkpt>
      <trkpt lat="47.25386" lon="-1.56399">
        <ele>26.505962371826</ele>
        <time>2016-11-22T10:13:29.000Z</time>
      </trkpt>
      <trkpt lat="47.2539" lon="-1.56399">
        <ele>26.475957870483</ele>
        <time>2016-11-22T10:13:32.000Z</time>
      </trkpt>
      <trkpt lat="47.25394" lon="-1.56399">
        <ele>26.43590927124</ele>
        <time>2016-11-22T10:13:34.000Z</time>
      </trkpt>
      <trkpt lat="47.25398" lon="-1.56397">
        <ele>26.387409210205</ele>
        <time>2016-11-22T10:13:37.000Z</time>
      </trkpt>
      <trkpt lat="47.25401" lon="-1.56396">
        <ele>26.333480834961</ele>
        <time>2016-11-22T10:13:39.000Z</time>
      </trkpt>
      <trkpt lat="47.25405" lon="-1.56397">
        <ele>26.280521392822</ele>
        <time>2016-11-22T10:13:42.000Z</time>
      </trkpt>
      <trkpt lat="47.25406" lon="-1.56398">
        <ele>26.234325408936</ele>
        <time>2016-11-22T10:13:44.000Z</time>
      </trkpt>
      <trkpt lat="47.25407" lon="-1.56401">
        <ele>26.195995330811</ele>
        <time>2016-11-22T10:13:46.000Z</time>
      </trkpt>
      <trkpt lat="47.25408" lon="-1.56404">
        <ele>26.164897918701</ele>
        <time>2016-11-22T10:13:49.000Z</time>
      </trkpt>
      <trkpt lat="47.2541" lon="-1.56409">
        <ele>26.136606216431</ele>
        <time>2016-11-22T10:13:52.000Z</time>
      </trkpt>
      <trkpt lat="47.2541" lon="-1.56413">
        <ele>26.116907119751</ele>
        <time>2016-11-22T10:13:54.000Z</time>
      </trkpt>
      <trkpt lat="47.25412" lon="-1.56418">
        <ele>26.097925186157</ele>
        <time>2016-11-22T10:13:57.000Z</time>
      </trkpt>
      <trkpt lat="47.25414" lon="-1.5642">
        <ele>26.07611656189</ele>
        <time>2016-11-22T10:13:59.000Z</time>
      </trkpt>
      <trkpt lat="47.25418" lon="-1.56418">
        <ele>26.048559188843</ele>
        <time>2016-11-22T10:14:02.000Z</time>
      </trkpt>
      <trkpt lat="47.25422" lon="-1.56416">
        <ele>26.018712997437</ele>
        <time>2016-11-22T10:14:05.000Z</time>
      </trkpt>
      <trkpt lat="47.25425" lon="-1.56414">
        <ele>25.982885360718</ele>
        <time>2016-11-22T10:14:08.000Z</time>
      </trkpt>
      <trkpt lat="47.25429" lon="-1.56412">
        <ele>25.941638946533</ele>
        <time>2016-11-22T10:14:11.000Z</time>
      </trkpt>
      <trkpt lat="47.25431" lon="-1.5641">
        <ele>25.900390625</ele>
        <time>2016-11-22T10:14:13.000Z</time>
      </trkpt>
      <trkpt lat="47.25435" lon="-1.56408">
        <ele>25.859375</ele>
        <time>2016-11-22T10:14:16.000Z</time>
      </trkpt>
      <trkpt lat="47.25439" lon="-1.56405">
        <ele>25.818359375</ele>
        <time>2016-11-22T10:14:19.000Z</time>
      </trkpt>
      <trkpt lat="47.25441" lon="-1.56404">
        <ele>25.7802734375</ele>
        <time>2016-11-22T10:14:21.000Z</time>
      </trkpt>
      <trkpt lat="47.25445" lon="-1.56402">
        <ele>25.7421875</ele>
        <time>2016-11-22T10:14:24.000Z</time>
      </trkpt>
      <trkpt lat="47.25449" lon="-1.564">
        <ele>25.7001953125</ele>
        <time>2016-11-22T10:14:27.000Z</time>
      </trkpt>
      <trkpt lat="47.25453" lon="-1.56397">
        <ele>25.65625</ele>
        <time>2016-11-22T10:14:30.000Z</time>
      </trkpt>
      <trkpt lat="47.25456" lon="-1.56396">
        <ele>25.615234375</ele>
        <time>2016-11-22T10:14:32.000Z</time>
      </trkpt>
      <trkpt lat="47.25459" lon="-1.56393">
        <ele>25.572265625</ele>
        <time>2016-11-22T10:14:35.000Z</time>
      </trkpt>
      <trkpt lat="47.25462" lon="-1.56391">
        <ele>25.5322265625</ele>
        <time>2016-11-22T10:14:37.000Z</time>
      </trkpt>
      <trkpt lat="47.25465" lon="-1.56388">
        <ele>25.4931640625</ele>
        <time>2016-11-22T10:14:40.000Z</time>
      </trkpt>
      <trkpt lat="47.25467" lon="-1.56387">
        <ele>25.4599609375</ele>
        <time>2016-11-22T10:14:42.000Z</time>
      </trkpt>
      <trkpt lat="47.2547" lon="-1.56384">
        <ele>25.42578125</ele>
        <time>2016-11-22T10:14:44.000Z</time>
      </trkpt>
      <trkpt lat="47.25474" lon="-1.56381">
        <ele>25.3896484375</ele>
        <time>2016-11-22T10:14:47.000Z</time>
      </trkpt>
      <trkpt lat="47.25476" lon="-1.56379">
        <ele>25.353515625</ele>
        <time>2016-11-22T10:14:49.000Z</time>
      </trkpt>
      <trkpt lat="47.2548" lon="-1.56377">
        <ele>25.3193359375</ele>
        <time>2016-11-22T10:14:51.000Z</time>
      </trkpt>
      <trkpt lat="47.25482" lon="-1.56375">
        <ele>25.283203125</ele>
        <time>2016-11-22T10:14:53.000Z</time>
      </trkpt>
      <trkpt lat="47.25485" lon="-1.56374">
        <ele>25.2470703125</ele>
        <time>2016-11-22T10:14:55.000Z</time>
      </trkpt>
      <trkpt lat="47.25489" lon="-1.56371">
        <ele>25.2109375</ele>
        <time>2016-11-22T10:14:58.000Z</time>
      </trkpt>
      <trkpt lat="47.25493" lon="-1.56368">
        <ele>25.1708984375</ele>
        <time>2016-11-22T10:15:01.000Z</time>
      </trkpt>
      <trkpt lat="47.25496" lon="-1.56366">
        <ele>25.1318359375</ele>
        <time>2016-11-22T10:15:03.000Z</time>
      </trkpt>
      <trkpt lat="47.25499" lon="-1.56363">
        <ele>25.091796875</ele>
        <time>2016-11-22T10:15:06.000Z</time>
      </trkpt>
      <trkpt lat="47.25503" lon="-1.5636">
        <ele>25.020702362061</ele>
        <time>2016-11-22T10:15:09.000Z</time>
      </trkpt>
      <trkpt lat="47.25506" lon="-1.56357">
        <ele>24.92519569397</ele>
        <time>2016-11-22T10:15:12.000Z</time>
      </trkpt>
      <trkpt lat="47.25508" lon="-1.56357">
        <ele>24.80527305603</ele>
        <time>2016-11-22T10:15:14.000Z</time>
      </trkpt>
      <trkpt lat="47.25512" lon="-1.56359">
        <ele>24.657032012939</ele>
        <time>2016-11-22T10:15:17.000Z</time>
      </trkpt>
      <trkpt lat="47.25513" lon="-1.56361">
        <ele>24.4970703125</ele>
        <time>2016-11-22T10:15:19.000Z</time>
      </trkpt>
      <trkpt lat="47.25514" lon="-1.56364">
        <ele>24.3603515625</ele>
        <time>2016-11-22T10:15:21.000Z</time>
      </trkpt>
      <trkpt lat="47.25516" lon="-1.56369">
        <ele>24.23828125</ele>
        <time>2016-11-22T10:15:23.000Z</time>
      </trkpt>
      <trkpt lat="47.25517" lon="-1.56375">
        <ele>24.1357421875</ele>
        <time>2016-11-22T10:15:26.000Z</time>
      </trkpt>
      <trkpt lat="47.25519" lon="-1.56382">
        <ele>24.04296875</ele>
        <time>2016-11-22T10:15:29.000Z</time>
      </trkpt>
      <trkpt lat="47.25521" lon="-1.56387">
        <ele>23.9501953125</ele>
        <time>2016-11-22T10:15:32.000Z</time>
      </trkpt>
      <trkpt lat="47.25523" lon="-1.56391">
        <ele>23.84765625</ele>
        <time>2016-11-22T10:15:35.000Z</time>
      </trkpt>
      <trkpt lat="47.25524" lon="-1.56395">
        <ele>23.7548828125</ele>
        <time>2016-11-22T10:15:37.000Z</time>
      </trkpt>
      <trkpt lat="47.25526" lon="-1.56401">
        <ele>23.642578125</ele>
        <time>2016-11-22T10:15:40.000Z</time>
      </trkpt>
      <trkpt lat="47.25529" lon="-1.56403">
        <ele>23.5302734375</ele>
        <time>2016-11-22T10:15:42.000Z</time>
      </trkpt>
      <trkpt lat="47.25532" lon="-1.56407">
        <ele>23.3984375</ele>
        <time>2016-11-22T10:15:45.000Z</time>
      </trkpt>
      <trkpt lat="47.25533" lon="-1.56409">
        <ele>23.271484375</ele>
        <time>2016-11-22T10:15:47.000Z</time>
      </trkpt>
      <trkpt lat="47.25535" lon="-1.56413">
        <ele>23.1396484375</ele>
        <time>2016-11-22T10:15:49.000Z</time>
      </trkpt>
      <trkpt lat="47.25537" lon="-1.56415">
        <ele>23.017578125</ele>
        <time>2016-11-22T10:15:52.000Z</time>
      </trkpt>
      <trkpt lat="47.25538" lon="-1.56418">
        <ele>22.903818130493</ele>
        <time>2016-11-22T10:15:54.000Z</time>
      </trkpt>
      <trkpt lat="47.25539" lon="-1.56423">
        <ele>22.809047698975</ele>
        <time>2016-11-22T10:15:57.000Z</time>
      </trkpt>
      <trkpt lat="47.25539" lon="-1.56427">
        <ele>22.724048614502</ele>
        <time>2016-11-22T10:15:59.000Z</time>
      </trkpt>
      <trkpt lat="47.25539" lon="-1.56431">
        <ele>22.649438858032</ele>
        <time>2016-11-22T10:16:01.000Z</time>
      </trkpt>
      <trkpt lat="47.2554" lon="-1.56437">
        <ele>22.587390899658</ele>
        <time>2016-11-22T10:16:04.000Z</time>
      </trkpt>
      <trkpt lat="47.2554" lon="-1.56441">
        <ele>22.531391143799</ele>
        <time>2016-11-22T10:16:06.000Z</time>
      </trkpt>
      <trkpt lat="47.25542" lon="-1.56448">
        <ele>22.471939086914</ele>
        <time>2016-11-22T10:16:09.000Z</time>
      </trkpt>
      <trkpt lat="47.25544" lon="-1.56454">
        <ele>22.377477645874</ele>
        <time>2016-11-22T10:16:12.000Z</time>
      </trkpt>
      <trkpt lat="47.25547" lon="-1.5646">
        <ele>22.251867294312</ele>
        <time>2016-11-22T10:16:15.000Z</time>
      </trkpt>
      <trkpt lat="47.25548" lon="-1.56465">
        <ele>22.110464096069</ele>
        <time>2016-11-22T10:16:17.000Z</time>
      </trkpt>
      <trkpt lat="47.2555" lon="-1.56471">
        <ele>21.942974090576</ele>
        <time>2016-11-22T10:16:20.000Z</time>
      </trkpt>
      <trkpt lat="47.25553" lon="-1.56476">
        <ele>21.758594512939</ele>
        <time>2016-11-22T10:16:23.000Z</time>
      </trkpt>
      <trkpt lat="47.25555" lon="-1.5648">
        <ele>21.573095321655</ele>
        <time>2016-11-22T10:16:26.000Z</time>
      </trkpt>
      <trkpt lat="47.25559" lon="-1.56483">
        <ele>21.373176574707</ele>
        <time>2016-11-22T10:16:29.000Z</time>
      </trkpt>
      <trkpt lat="47.25562" lon="-1.56484">
        <ele>21.158739089966</ele>
        <time>2016-11-22T10:16:31.000Z</time>
      </trkpt>
      <trkpt lat="47.25565" lon="-1.56487">
        <ele>20.925220489502</ele>
        <time>2016-11-22T10:16:34.000Z</time>
      </trkpt>
      <trkpt lat="47.2557" lon="-1.56488">
        <ele>20.665819168091</ele>
        <time>2016-11-22T10:16:37.000Z</time>
      </trkpt>
      <trkpt lat="47.25572" lon="-1.56489">
        <ele>20.42219543457</ele>
        <time>2016-11-22T10:16:39.000Z</time>
      </trkpt>
      <trkpt lat="47.25576" lon="-1.56491">
        <ele>20.166391372681</ele>
        <time>2016-11-22T10:16:42.000Z</time>
      </trkpt>
      <trkpt lat="47.25578" lon="-1.56493">
        <ele>19.914026260376</ele>
        <time>2016-11-22T10:16:44.000Z</time>
      </trkpt>
      <trkpt lat="47.25581" lon="-1.56494">
        <ele>19.680822372437</ele>
        <time>2016-11-22T10:16:46.000Z</time>
      </trkpt>
      <trkpt lat="47.25583" lon="-1.56492">
        <ele>19.488590240479</ele>
        <time>2016-11-22T10:16:49.000Z</time>
      </trkpt>
      <trkpt lat="47.25584" lon="-1.56488">
        <ele>19.33099937439</ele>
        <time>2016-11-22T10:16:52.000Z</time>
      </trkpt>
      <trkpt lat="47.25587" lon="-1.56484">
        <ele>19.257923126221</ele>
        <time>2016-11-22T10:16:55.000Z</time>
      </trkpt>
      <trkpt lat="47.25589" lon="-1.5648">
        <ele>19.237344741821</ele>
        <time>2016-11-22T10:16:58.000Z</time>
      </trkpt>
      <trkpt lat="47.25589" lon="-1.56476">
        <ele>19.262063980103</ele>
        <time>2016-11-22T10:17:00.000Z</time>
      </trkpt>
      <trkpt lat="47.25589" lon="-1.5647">
        <ele>19.323806762695</ele>
        <time>2016-11-22T10:17:03.000Z</time>
      </trkpt>
      <trkpt lat="47.25588" lon="-1.56467">
        <ele>19.386157989502</ele>
        <time>2016-11-22T10:17:05.000Z</time>
      </trkpt>
      <trkpt lat="47.25588" lon="-1.56462">
        <ele>19.434274673462</ele>
        <time>2016-11-22T10:17:08.000Z</time>
      </trkpt>
      <trkpt lat="47.25587" lon="-1.56458">
        <ele>19.474720001221</ele>
        <time>2016-11-22T10:17:11.000Z</time>
      </trkpt>
      <trkpt lat="47.25587" lon="-1.56456">
        <ele>19.50984954834</ele>
        <time>2016-11-22T10:17:13.000Z</time>
      </trkpt>
      <trkpt lat="47.25588" lon="-1.56454">
        <ele>19.540613174438</ele>
        <time>2016-11-22T10:17:16.000Z</time>
      </trkpt>
      <trkpt lat="47.2559" lon="-1.56452">
        <ele>19.573963165283</ele>
        <time>2016-11-22T10:17:18.000Z</time>
      </trkpt>
      <trkpt lat="47.25591" lon="-1.56449">
        <ele>19.606826782227</ele>
        <time>2016-11-22T10:17:20.000Z</time>
      </trkpt>
      <trkpt lat="47.25593" lon="-1.56445">
        <ele>19.645624160767</ele>
        <time>2016-11-22T10:17:23.000Z</time>
      </trkpt>
      <trkpt lat="47.25595" lon="-1.56442">
        <ele>19.689428329468</ele>
        <time>2016-11-22T10:17:25.000Z</time>
      </trkpt>
      <trkpt lat="47.25597" lon="-1.56435">
        <ele>19.739040374756</ele>
        <time>2016-11-22T10:17:28.000Z</time>
      </trkpt>
      <trkpt lat="47.25599" lon="-1.5643">
        <ele>19.790391921997</ele>
        <time>2016-11-22T10:17:31.000Z</time>
      </trkpt>
      <trkpt lat="47.25601" lon="-1.56428">
        <ele>19.838661193848</ele>
        <time>2016-11-22T10:17:33.000Z</time>
      </trkpt>
      <trkpt lat="47.25603" lon="-1.56424">
        <ele>19.881412506104</ele>
        <time>2016-11-22T10:17:36.000Z</time>
      </trkpt>
      <trkpt lat="47.25605" lon="-1.5642">
        <ele>19.920692443848</ele>
        <time>2016-11-22T10:17:38.000Z</time>
      </trkpt>
      <trkpt lat="47.25607" lon="-1.56416">
        <ele>19.948720932007</ele>
        <time>2016-11-22T10:17:40.000Z</time>
      </trkpt>
      <trkpt lat="47.25608" lon="-1.56413">
        <ele>19.954849243164</ele>
        <time>2016-11-22T10:17:42.000Z</time>
      </trkpt>
      <trkpt lat="47.25609" lon="-1.56406">
        <ele>19.932884216309</ele>
        <time>2016-11-22T10:17:45.000Z</time>
      </trkpt>
      <trkpt lat="47.25611" lon="-1.56401">
        <ele>19.880195617676</ele>
        <time>2016-11-22T10:17:48.000Z</time>
      </trkpt>
      <trkpt lat="47.25614" lon="-1.56396">
        <ele>19.793828964233</ele>
        <time>2016-11-22T10:17:51.000Z</time>
      </trkpt>
      <trkpt lat="47.25617" lon="-1.56392">
        <ele>19.677373886108</ele>
        <time>2016-11-22T10:17:54.000Z</time>
      </trkpt>
      <trkpt lat="47.25619" lon="-1.56387">
        <ele>19.537473678589</ele>
        <time>2016-11-22T10:17:57.000Z</time>
      </trkpt>
      <trkpt lat="47.25621" lon="-1.56384">
        <ele>19.393863677979</ele>
        <time>2016-11-22T10:17:59.000Z</time>
      </trkpt>
      <trkpt lat="47.25624" lon="-1.56378">
        <ele>19.228666305542</ele>
        <time>2016-11-22T10:18:02.000Z</time>
      </trkpt>
      <trkpt lat="47.25625" lon="-1.56375">
        <ele>19.067897796631</ele>
        <time>2016-11-22T10:18:04.000Z</time>
      </trkpt>
      <trkpt lat="47.25626" lon="-1.56371">
        <ele>18.904758453369</ele>
        <time>2016-11-22T10:18:06.000Z</time>
      </trkpt>
      <trkpt lat="47.25628" lon="-1.56364">
        <ele>18.725936889648</ele>
        <time>2016-11-22T10:18:09.000Z</time>
      </trkpt>
      <trkpt lat="47.25629" lon="-1.56358">
        <ele>18.527309417725</ele>
        <time>2016-11-22T10:18:12.000Z</time>
      </trkpt>
      <trkpt lat="47.2563" lon="-1.56354">
        <ele>18.335941314697</ele>
        <time>2016-11-22T10:18:14.000Z</time>
      </trkpt>
      <trkpt lat="47.25632" lon="-1.56348">
        <ele>18.099323272705</ele>
        <time>2016-11-22T10:18:17.000Z</time>
      </trkpt>
      <trkpt lat="47.25634" lon="-1.56341">
        <ele>17.835248947144</ele>
        <time>2016-11-22T10:18:20.000Z</time>
      </trkpt>
      <trkpt lat="47.25634" lon="-1.56337">
        <ele>17.591073989868</ele>
        <time>2016-11-22T10:18:22.000Z</time>
      </trkpt>
      <trkpt lat="47.25635" lon="-1.56333">
        <ele>17.355043411255</ele>
        <time>2016-11-22T10:18:25.000Z</time>
      </trkpt>
      <trkpt lat="47.25637" lon="-1.56332">
        <ele>17.123735427856</ele>
        <time>2016-11-22T10:18:28.000Z</time>
      </trkpt>
      <trkpt lat="47.25639" lon="-1.56328">
        <ele>16.936763763428</ele>
        <time>2016-11-22T10:18:30.000Z</time>
      </trkpt>
      <trkpt lat="47.2564" lon="-1.56323">
        <ele>16.781316757202</ele>
        <time>2016-11-22T10:18:32.000Z</time>
      </trkpt>
      <trkpt lat="47.25643" lon="-1.56317">
        <ele>16.598972320557</ele>
        <time>2016-11-22T10:18:35.000Z</time>
      </trkpt>
      <trkpt lat="47.25644" lon="-1.56313">
        <ele>16.427444458008</ele>
        <time>2016-11-22T10:18:37.000Z</time>
      </trkpt>
      <trkpt lat="47.25647" lon="-1.56307">
        <ele>16.231588363647</ele>
        <time>2016-11-22T10:18:40.000Z</time>
      </trkpt>
      <trkpt lat="47.2565" lon="-1.56301">
        <ele>15.995454788208</ele>
        <time>2016-11-22T10:18:43.000Z</time>
      </trkpt>
      <trkpt lat="47.25653" lon="-1.56296">
        <ele>15.730157852173</ele>
        <time>2016-11-22T10:18:46.000Z</time>
      </trkpt>
      <trkpt lat="47.25654" lon="-1.56292">
        <ele>15.488855361938</ele>
        <time>2016-11-22T10:18:48.000Z</time>
      </trkpt>
      <trkpt lat="47.25655" lon="-1.56287">
        <ele>15.240537643433</ele>
        <time>2016-11-22T10:18:50.000Z</time>
      </trkpt>
      <trkpt lat="47.25657" lon="-1.56282">
        <ele>15.00121307373</ele>
        <time>2016-11-22T10:18:53.000Z</time>
      </trkpt>
      <trkpt lat="47.25658" lon="-1.56277">
        <ele>14.796018600464</ele>
        <time>2016-11-22T10:18:55.000Z</time>
      </trkpt>
      <trkpt lat="47.25658" lon="-1.56273">
        <ele>14.624244689941</ele>
        <time>2016-11-22T10:18:57.000Z</time>
      </trkpt>
      <trkpt lat="47.25659" lon="-1.56267">
        <ele>14.446619987488</ele>
        <time>2016-11-22T10:19:00.000Z</time>
      </trkpt>
      <trkpt lat="47.2566" lon="-1.56261">
        <ele>14.247632026672</ele>
        <time>2016-11-22T10:19:03.000Z</time>
      </trkpt>
      <trkpt lat="47.25661" lon="-1.56255">
        <ele>14.050379753113</ele>
        <time>2016-11-22T10:19:06.000Z</time>
      </trkpt>
      <trkpt lat="47.25663" lon="-1.56248">
        <ele>13.850805282593</ele>
        <time>2016-11-22T10:19:09.000Z</time>
      </trkpt>
      <trkpt lat="47.25665" lon="-1.56241">
        <ele>13.672821044922</ele>
        <time>2016-11-22T10:19:12.000Z</time>
      </trkpt>
      <trkpt lat="47.25666" lon="-1.56237">
        <ele>13.5298204422</ele>
        <time>2016-11-22T10:19:14.000Z</time>
      </trkpt>
      <trkpt lat="47.25666" lon="-1.56234">
        <ele>13.445951461792</ele>
        <time>2016-11-22T10:19:16.000Z</time>
      </trkpt>
      <trkpt lat="47.25668" lon="-1.56229">
        <ele>13.431630134583</ele>
        <time>2016-11-22T10:19:19.000Z</time>
      </trkpt>
      <trkpt lat="47.25669" lon="-1.56222">
        <ele>13.479632377625</ele>
        <time>2016-11-22T10:19:22.000Z</time>
      </trkpt>
      <trkpt lat="47.25671" lon="-1.56219">
        <ele>13.543882369995</ele>
        <time>2016-11-22T10:19:25.000Z</time>
      </trkpt>
      <trkpt lat="47.25671" lon="-1.56215">
        <ele>13.629018783569</ele>
        <time>2016-11-22T10:19:27.000Z</time>
      </trkpt>
      <trkpt lat="47.25673" lon="-1.56209">
        <ele>13.732099533081</ele>
        <time>2016-11-22T10:19:30.000Z</time>
      </trkpt>
      <trkpt lat="47.25674" lon="-1.56203">
        <ele>13.827389717102</ele>
        <time>2016-11-22T10:19:33.000Z</time>
      </trkpt>
      <trkpt lat="47.25676" lon="-1.56198">
        <ele>13.906618118286</ele>
        <time>2016-11-22T10:19:36.000Z</time>
      </trkpt>
      <trkpt lat="47.25677" lon="-1.56195">
        <ele>13.972839355469</ele>
        <time>2016-11-22T10:19:39.000Z</time>
      </trkpt>
      <trkpt lat="47.25679" lon="-1.56192">
        <ele>14.020280838013</ele>
        <time>2016-11-22T10:19:41.000Z</time>
      </trkpt>
      <trkpt lat="47.25682" lon="-1.56188">
        <ele>14.044916152954</ele>
        <time>2016-11-22T10:19:44.000Z</time>
      </trkpt>
      <trkpt lat="47.25683" lon="-1.56185">
        <ele>14.05230140686</ele>
        <time>2016-11-22T10:19:46.000Z</time>
      </trkpt>
      <trkpt lat="47.25683" lon="-1.56182">
        <ele>14.052093505859</ele>
        <time>2016-11-22T10:19:48.000Z</time>
      </trkpt>
      <trkpt lat="47.25685" lon="-1.56178">
        <ele>14.044675827026</ele>
        <time>2016-11-22T10:19:50.000Z</time>
      </trkpt>
      <trkpt lat="47.25687" lon="-1.56172">
        <ele>14.029711723328</ele>
        <time>2016-11-22T10:19:53.000Z</time>
      </trkpt>
      <trkpt lat="47.25689" lon="-1.56169">
        <ele>14.005618095398</ele>
        <time>2016-11-22T10:19:55.000Z</time>
      </trkpt>
      <trkpt lat="47.25693" lon="-1.56165">
        <ele>13.968696594238</ele>
        <time>2016-11-22T10:19:58.000Z</time>
      </trkpt>
      <trkpt lat="47.25695" lon="-1.56161">
        <ele>13.941644668579</ele>
        <time>2016-11-22T10:20:00.000Z</time>
      </trkpt>
      <trkpt lat="47.25696" lon="-1.56158">
        <ele>13.925455093384</ele>
        <time>2016-11-22T10:20:02.000Z</time>
      </trkpt>
      <trkpt lat="47.257" lon="-1.56154">
        <ele>13.918380737305</ele>
        <time>2016-11-22T10:20:05.000Z</time>
      </trkpt>
      <trkpt lat="47.25703" lon="-1.56152">
        <ele>13.910883903503</ele>
        <time>2016-11-22T10:20:07.000Z</time>
      </trkpt>
      <trkpt lat="47.25706" lon="-1.56147">
        <ele>13.934969902039</ele>
        <time>2016-11-22T10:20:10.000Z</time>
      </trkpt>
      <trkpt lat="47.25707" lon="-1.56141">
        <ele>13.977590560913</ele>
        <time>2016-11-22T10:20:13.000Z</time>
      </trkpt>
      <trkpt lat="47.25708" lon="-1.56136">
        <ele>14.052495956421</ele>
        <time>2016-11-22T10:20:15.000Z</time>
      </trkpt>
      <trkpt lat="47.25706" lon="-1.56131">
        <ele>14.188003540039</ele>
        <time>2016-11-22T10:20:18.000Z</time>
      </trkpt>
      <trkpt lat="47.25705" lon="-1.56127">
        <ele>14.381170272827</ele>
        <time>2016-11-22T10:20:20.000Z</time>
      </trkpt>
      <trkpt lat="47.25705" lon="-1.56124">
        <ele>14.583027839661</ele>
        <time>2016-11-22T10:20:22.000Z</time>
      </trkpt>
      <trkpt lat="47.25705" lon="-1.56118">
        <ele>14.804835319519</ele>
        <time>2016-11-22T10:20:25.000Z</time>
      </trkpt>
      <trkpt lat="47.25706" lon="-1.56112">
        <ele>15.017311096191</ele>
        <time>2016-11-22T10:20:28.000Z</time>
      </trkpt>
      <trkpt lat="47.25708" lon="-1.56109">
        <ele>15.175138473511</ele>
        <time>2016-11-22T10:20:30.000Z</time>
      </trkpt>
      <trkpt lat="47.25711" lon="-1.56104">
        <ele>15.299572944641</ele>
        <time>2016-11-22T10:20:33.000Z</time>
      </trkpt>
      <trkpt lat="47.25713" lon="-1.561">
        <ele>15.417225837708</ele>
        <time>2016-11-22T10:20:35.000Z</time>
      </trkpt>
      <trkpt lat="47.25714" lon="-1.56093">
        <ele>15.520176887512</ele>
        <time>2016-11-22T10:20:38.000Z</time>
      </trkpt>
      <trkpt lat="47.25715" lon="-1.56087">
        <ele>15.623934745789</ele>
        <time>2016-11-22T10:20:40.000Z</time>
      </trkpt>
      <trkpt lat="47.25716" lon="-1.56084">
        <ele>15.745638847351</ele>
        <time>2016-11-22T10:20:42.000Z</time>
      </trkpt>
      <trkpt lat="47.25717" lon="-1.5608">
        <ele>15.859466552734</ele>
        <time>2016-11-22T10:20:44.000Z</time>
      </trkpt>
      <trkpt lat="47.25719" lon="-1.56075">
        <ele>15.941874504089</ele>
        <time>2016-11-22T10:20:47.000Z</time>
      </trkpt>
      <trkpt lat="47.25722" lon="-1.5607">
        <ele>15.964334487915</ele>
        <time>2016-11-22T10:20:49.000Z</time>
      </trkpt>
      <trkpt lat="47.25724" lon="-1.56064">
        <ele>15.952234268188</ele>
        <time>2016-11-22T10:20:52.000Z</time>
      </trkpt>
      <trkpt lat="47.25727" lon="-1.56061">
        <ele>15.895915031433</ele>
        <time>2016-11-22T10:20:54.000Z</time>
      </trkpt>
      <trkpt lat="47.2573" lon="-1.56059">
        <ele>15.805070877075</ele>
        <time>2016-11-22T10:20:57.000Z</time>
      </trkpt>
      <trkpt lat="47.25732" lon="-1.56057">
        <ele>15.698245048523</ele>
        <time>2016-11-22T10:20:59.000Z</time>
      </trkpt>
      <trkpt lat="47.25737" lon="-1.56052">
        <ele>15.573575019836</ele>
        <time>2016-11-22T10:21:02.000Z</time>
      </trkpt>
      <trkpt lat="47.2574" lon="-1.5605">
        <ele>15.406804084778</ele>
        <time>2016-11-22T10:21:04.000Z</time>
      </trkpt>
      <trkpt lat="47.25744" lon="-1.56046">
        <ele>15.229110717773</ele>
        <time>2016-11-22T10:21:07.000Z</time>
      </trkpt>
      <trkpt lat="47.25746" lon="-1.56043">
        <ele>15.061709403992</ele>
        <time>2016-11-22T10:21:09.000Z</time>
      </trkpt>
      <trkpt lat="47.25747" lon="-1.56041">
        <ele>14.907697677612</ele>
        <time>2016-11-22T10:21:11.000Z</time>
      </trkpt>
      <trkpt lat="47.2575" lon="-1.56037">
        <ele>14.770770072937</ele>
        <time>2016-11-22T10:21:14.000Z</time>
      </trkpt>
      <trkpt lat="47.25751" lon="-1.56033">
        <ele>14.695489883423</ele>
        <time>2016-11-22T10:21:16.000Z</time>
      </trkpt>
      <trkpt lat="47.25752" lon="-1.56028">
        <ele>14.681709289551</ele>
        <time>2016-11-22T10:21:18.000Z</time>
      </trkpt>
      <trkpt lat="47.25755" lon="-1.56022">
        <ele>14.719909667969</ele>
        <time>2016-11-22T10:21:21.000Z</time>
      </trkpt>
      <trkpt lat="47.25755" lon="-1.56019">
        <ele>14.781408309937</ele>
        <time>2016-11-22T10:21:23.000Z</time>
      </trkpt>
      <trkpt lat="47.25754" lon="-1.56016">
        <ele>14.869445800781</ele>
        <time>2016-11-22T10:21:25.000Z</time>
      </trkpt>
      <trkpt lat="47.25755" lon="-1.56012">
        <ele>14.956207275391</ele>
        <time>2016-11-22T10:21:28.000Z</time>
      </trkpt>
      <trkpt lat="47.25755" lon="-1.56005">
        <ele>15.028991699219</ele>
        <time>2016-11-22T10:21:31.000Z</time>
      </trkpt>
      <trkpt lat="47.25755" lon="-1.56001">
        <ele>15.083343505859</ele>
        <time>2016-11-22T10:21:33.000Z</time>
      </trkpt>
      <trkpt lat="47.25756" lon="-1.55994">
        <ele>15.179433822632</ele>
        <time>2016-11-22T10:21:36.000Z</time>
      </trkpt>
      <trkpt lat="47.25758" lon="-1.5599">
        <ele>15.307397842407</ele>
        <time>2016-11-22T10:21:38.000Z</time>
      </trkpt>
      <trkpt lat="47.25758" lon="-1.55983">
        <ele>15.468592643738</ele>
        <time>2016-11-22T10:21:41.000Z</time>
      </trkpt>
      <trkpt lat="47.2576" lon="-1.55978">
        <ele>15.650175094604</ele>
        <time>2016-11-22T10:21:43.000Z</time>
      </trkpt>
      <trkpt lat="47.25761" lon="-1.55972">
        <ele>15.854067802429</ele>
        <time>2016-11-22T10:21:46.000Z</time>
      </trkpt>
      <trkpt lat="47.25762" lon="-1.55968">
        <ele>16.030517578125</ele>
        <time>2016-11-22T10:21:48.000Z</time>
      </trkpt>
      <trkpt lat="47.25765" lon="-1.55963">
        <ele>16.200380325317</ele>
        <time>2016-11-22T10:21:51.000Z</time>
      </trkpt>
      <trkpt lat="47.25766" lon="-1.55961">
        <ele>16.334115982056</ele>
        <time>2016-11-22T10:21:53.000Z</time>
      </trkpt>
      <trkpt lat="47.25768" lon="-1.55957">
        <ele>16.448631286621</ele>
        <time>2016-11-22T10:21:56.000Z</time>
      </trkpt>
      <trkpt lat="47.25769" lon="-1.55953">
        <ele>16.542629241943</ele>
        <time>2016-11-22T10:21:59.000Z</time>
      </trkpt>
      <trkpt lat="47.25771" lon="-1.55947">
        <ele>16.633741378784</ele>
        <time>2016-11-22T10:22:02.000Z</time>
      </trkpt>
      <trkpt lat="47.25772" lon="-1.55943">
        <ele>16.705362319946</ele>
        <time>2016-11-22T10:22:04.000Z</time>
      </trkpt>
      <trkpt lat="47.25772" lon="-1.55936">
        <ele>16.783115386963</ele>
        <time>2016-11-22T10:22:07.000Z</time>
      </trkpt>
      <trkpt lat="47.25774" lon="-1.55932">
        <ele>16.849254608154</ele>
        <time>2016-11-22T10:22:09.000Z</time>
      </trkpt>
      <trkpt lat="47.25778" lon="-1.5593">
        <ele>16.885854721069</ele>
        <time>2016-11-22T10:22:12.000Z</time>
      </trkpt>
      <trkpt lat="47.25781" lon="-1.55931">
        <ele>16.890466690063</ele>
        <time>2016-11-22T10:22:14.000Z</time>
      </trkpt>
      <trkpt lat="47.25782" lon="-1.55932">
        <ele>16.876663208008</ele>
        <time>2016-11-22T10:22:16.000Z</time>
      </trkpt>
      <trkpt lat="47.25786" lon="-1.55935">
        <ele>16.830820083618</ele>
        <time>2016-11-22T10:22:19.000Z</time>
      </trkpt>
      <trkpt lat="47.2579" lon="-1.55934">
        <ele>16.765888214111</ele>
        <time>2016-11-22T10:22:22.000Z</time>
      </trkpt>
      <trkpt lat="47.25792" lon="-1.55929">
        <ele>16.700963973999</ele>
        <time>2016-11-22T10:22:25.000Z</time>
      </trkpt>
      <trkpt lat="47.25793" lon="-1.55927">
        <ele>16.639482498169</ele>
        <time>2016-11-22T10:22:27.000Z</time>
      </trkpt>
      <trkpt lat="47.25796" lon="-1.55923">
        <ele>16.56286239624</ele>
        <time>2016-11-22T10:22:30.000Z</time>
      </trkpt>
      <trkpt lat="47.25798" lon="-1.5592">
        <ele>16.481304168701</ele>
        <time>2016-11-22T10:22:32.000Z</time>
      </trkpt>
      <trkpt lat="47.25803" lon="-1.55918">
        <ele>16.375499725342</ele>
        <time>2016-11-22T10:22:35.000Z</time>
      </trkpt>
      <trkpt lat="47.25806" lon="-1.55915">
        <ele>16.250329971313</ele>
        <time>2016-11-22T10:22:37.000Z</time>
      </trkpt>
      <trkpt lat="47.25808" lon="-1.55909">
        <ele>16.070308685303</ele>
        <time>2016-11-22T10:22:40.000Z</time>
      </trkpt>
      <trkpt lat="47.2581" lon="-1.55905">
        <ele>15.858065605164</ele>
        <time>2016-11-22T10:22:43.000Z</time>
      </trkpt>
      <trkpt lat="47.25813" lon="-1.55901">
        <ele>15.608499526978</ele>
        <time>2016-11-22T10:22:46.000Z</time>
      </trkpt>
      <trkpt lat="47.25814" lon="-1.55897">
        <ele>15.338200569153</ele>
        <time>2016-11-22T10:22:49.000Z</time>
      </trkpt>
      <trkpt lat="47.25816" lon="-1.55894">
        <ele>15.066482543945</ele>
        <time>2016-11-22T10:22:51.000Z</time>
      </trkpt>
      <trkpt lat="47.25817" lon="-1.55892">
        <ele>14.813725471497</ele>
        <time>2016-11-22T10:22:53.000Z</time>
      </trkpt>
      <trkpt lat="47.2582" lon="-1.55889">
        <ele>14.562799453735</ele>
        <time>2016-11-22T10:22:55.000Z</time>
      </trkpt>
      <trkpt lat="47.25822" lon="-1.55885">
        <ele>14.302264213562</ele>
        <time>2016-11-22T10:22:58.000Z</time>
      </trkpt>
      <trkpt lat="47.25824" lon="-1.55882">
        <ele>14.050491333008</ele>
        <time>2016-11-22T10:23:01.000Z</time>
      </trkpt>
      <trkpt lat="47.25825" lon="-1.55879">
        <ele>13.787693977356</ele>
        <time>2016-11-22T10:23:04.000Z</time>
      </trkpt>
      <trkpt lat="47.25827" lon="-1.55876">
        <ele>13.516759872437</ele>
        <time>2016-11-22T10:23:06.000Z</time>
      </trkpt>
      <trkpt lat="47.25829" lon="-1.55875">
        <ele>13.252820014954</ele>
        <time>2016-11-22T10:23:08.000Z</time>
      </trkpt>
      <trkpt lat="47.25832" lon="-1.5587">
        <ele>12.959045410156</ele>
        <time>2016-11-22T10:23:11.000Z</time>
      </trkpt>
      <trkpt lat="47.25834" lon="-1.55864">
        <ele>12.622670173645</ele>
        <time>2016-11-22T10:23:14.000Z</time>
      </trkpt>
      <trkpt lat="47.25835" lon="-1.55857">
        <ele>12.261964797974</ele>
        <time>2016-11-22T10:23:17.000Z</time>
      </trkpt>
      <trkpt lat="47.25836" lon="-1.55851">
        <ele>11.884713172913</ele>
        <time>2016-11-22T10:23:20.000Z</time>
      </trkpt>
      <trkpt lat="47.25837" lon="-1.55845">
        <ele>11.484121322632</ele>
        <time>2016-11-22T10:23:23.000Z</time>
      </trkpt>
      <trkpt lat="47.25838" lon="-1.55842">
        <ele>11.14767074585</ele>
        <time>2016-11-22T10:23:25.000Z</time>
      </trkpt>
      <trkpt lat="47.25839" lon="-1.55839">
        <ele>10.873495101929</ele>
        <time>2016-11-22T10:23:27.000Z</time>
      </trkpt>
      <trkpt lat="47.25842" lon="-1.55834">
        <ele>10.610508918762</ele>
        <time>2016-11-22T10:23:30.000Z</time>
      </trkpt>
      <trkpt lat="47.25843" lon="-1.55831">
        <ele>10.409874916077</ele>
        <time>2016-11-22T10:23:32.000Z</time>
      </trkpt>
      <trkpt lat="47.25844" lon="-1.55825">
        <ele>10.278965950012</ele>
        <time>2016-11-22T10:23:35.000Z</time>
      </trkpt>
      <trkpt lat="47.25846" lon="-1.55821">
        <ele>10.181303024292</ele>
        <time>2016-11-22T10:23:38.000Z</time>
      </trkpt>
      <trkpt lat="47.25848" lon="-1.55818">
        <ele>10.115383148193</ele>
        <time>2016-11-22T10:23:40.000Z</time>
      </trkpt>
      <trkpt lat="47.2585" lon="-1.55817">
        <ele>10.109796524048</ele>
        <time>2016-11-22T10:23:42.000Z</time>
      </trkpt>
      <trkpt lat="47.25853" lon="-1.55814">
        <ele>10.113634109497</ele>
        <time>2016-11-22T10:23:45.000Z</time>
      </trkpt>
      <trkpt lat="47.25855" lon="-1.55812">
        <ele>10.117655754089</ele>
        <time>2016-11-22T10:23:47.000Z</time>
      </trkpt>
      <trkpt lat="47.25859" lon="-1.55808">
        <ele>10.119070053101</ele>
        <time>2016-11-22T10:23:50.000Z</time>
      </trkpt>
      <trkpt lat="47.25862" lon="-1.55803">
        <ele>10.115985870361</ele>
        <time>2016-11-22T10:23:53.000Z</time>
      </trkpt>
      <trkpt lat="47.25864" lon="-1.558">
        <ele>10.1075258255</ele>
        <time>2016-11-22T10:23:55.000Z</time>
      </trkpt>
      <trkpt lat="47.25867" lon="-1.55796">
        <ele>10.091442108154</ele>
        <time>2016-11-22T10:23:58.000Z</time>
      </trkpt>
      <trkpt lat="47.25869" lon="-1.55793">
        <ele>10.068943977356</ele>
        <time>2016-11-22T10:24:00.000Z</time>
      </trkpt>
      <trkpt lat="47.25873" lon="-1.55789">
        <ele>10.039500236511</ele>
        <time>2016-11-22T10:24:03.000Z</time>
      </trkpt>
      <trkpt lat="47.25874" lon="-1.55786">
        <ele>10.007487297058</ele>
        <time>2016-11-22T10:24:05.000Z</time>
      </trkpt>
      <trkpt lat="47.25875" lon="-1.55782">
        <ele>9.9696655273438</ele>
        <time>2016-11-22T10:24:07.000Z</time>
      </trkpt>
      <trkpt lat="47.25877" lon="-1.55777">
        <ele>9.9242858886719</ele>
        <time>2016-11-22T10:24:10.000Z</time>
      </trkpt>
      <trkpt lat="47.25879" lon="-1.55772">
        <ele>9.8686246871948</ele>
        <time>2016-11-22T10:24:13.000Z</time>
      </trkpt>
      <trkpt lat="47.2588" lon="-1.55768">
        <ele>9.8101224899292</ele>
        <time>2016-11-22T10:24:15.000Z</time>
      </trkpt>
      <trkpt lat="47.25883" lon="-1.55763">
        <ele>9.7418003082275</ele>
        <time>2016-11-22T10:24:18.000Z</time>
      </trkpt>
      <trkpt lat="47.25887" lon="-1.55758">
        <ele>9.6618480682373</ele>
        <time>2016-11-22T10:24:21.000Z</time>
      </trkpt>
      <trkpt lat="47.25888" lon="-1.55755">
        <ele>9.5824508666992</ele>
        <time>2016-11-22T10:24:24.000Z</time>
      </trkpt>
      <trkpt lat="47.25889" lon="-1.55753">
        <ele>9.5113306045532</ele>
        <time>2016-11-22T10:24:26.000Z</time>
      </trkpt>
      <trkpt lat="47.2589" lon="-1.5575">
        <ele>9.4423818588257</ele>
        <time>2016-11-22T10:24:28.000Z</time>
      </trkpt>
      <trkpt lat="47.25892" lon="-1.55749">
        <ele>9.3831796646118</ele>
        <time>2016-11-22T10:24:30.000Z</time>
      </trkpt>
      <trkpt lat="47.25895" lon="-1.55748">
        <ele>9.3382091522217</ele>
        <time>2016-11-22T10:24:33.000Z</time>
      </trkpt>
      <trkpt lat="47.25898" lon="-1.55748">
        <ele>9.2999124526978</ele>
        <time>2016-11-22T10:24:36.000Z</time>
      </trkpt>
      <trkpt lat="47.25902" lon="-1.55748">
        <ele>9.2598829269409</ele>
        <time>2016-11-22T10:24:39.000Z</time>
      </trkpt>
      <trkpt lat="47.25904" lon="-1.55748">
        <ele>9.22265625</ele>
        <time>2016-11-22T10:24:41.000Z</time>
      </trkpt>
      <trkpt lat="47.25907" lon="-1.55748">
        <ele>9.1865234375</ele>
        <time>2016-11-22T10:24:44.000Z</time>
      </trkpt>
      <trkpt lat="47.25909" lon="-1.55748">
        <ele>9.1513671875</ele>
        <time>2016-11-22T10:24:46.000Z</time>
      </trkpt>
      <trkpt lat="47.25913" lon="-1.5575">
        <ele>9.1142578125</ele>
        <time>2016-11-22T10:24:49.000Z</time>
      </trkpt>
      <trkpt lat="47.25916" lon="-1.5575">
        <ele>9.0824146270752</ele>
        <time>2016-11-22T10:24:51.000Z</time>
      </trkpt>
      <trkpt lat="47.25919" lon="-1.55752">
        <ele>9.0888605117798</ele>
        <time>2016-11-22T10:24:54.000Z</time>
      </trkpt>
      <trkpt lat="47.25922" lon="-1.55753">
        <ele>9.1333913803101</ele>
        <time>2016-11-22T10:24:56.000Z</time>
      </trkpt>
      <trkpt lat="47.25925" lon="-1.55755">
        <ele>9.2182064056396</ele>
        <time>2016-11-22T10:24:59.000Z</time>
      </trkpt>
      <trkpt lat="47.25928" lon="-1.55757">
        <ele>9.3473320007324</ele>
        <time>2016-11-22T10:25:01.000Z</time>
      </trkpt>
      <trkpt lat="47.25931" lon="-1.55758">
        <ele>9.518310546875</ele>
        <time>2016-11-22T10:25:04.000Z</time>
      </trkpt>
      <trkpt lat="47.25933" lon="-1.55758">
        <ele>9.6842041015625</ele>
        <time>2016-11-22T10:25:06.000Z</time>
      </trkpt>
      <trkpt lat="47.25935" lon="-1.55758">
        <ele>9.8339233398438</ele>
        <time>2016-11-22T10:25:08.000Z</time>
      </trkpt>
      <trkpt lat="47.25937" lon="-1.55756">
        <ele>9.9581298828125</ele>
        <time>2016-11-22T10:25:10.000Z</time>
      </trkpt>
      <trkpt lat="47.25941" lon="-1.55755">
        <ele>10.082763671875</ele>
        <time>2016-11-22T10:25:13.000Z</time>
      </trkpt>
      <trkpt lat="47.25942" lon="-1.55754">
        <ele>10.172729492188</ele>
        <time>2016-11-22T10:25:15.000Z</time>
      </trkpt>
      <trkpt lat="47.25944" lon="-1.55753">
        <ele>10.243530273438</ele>
        <time>2016-11-22T10:25:18.000Z</time>
      </trkpt>
      <trkpt lat="47.25945" lon="-1.55753">
        <ele>10.313598632812</ele>
        <time>2016-11-22T10:25:21.000Z</time>
      </trkpt>
      <trkpt lat="47.25946" lon="-1.55752">
        <ele>10.382080078125</ele>
        <time>2016-11-22T10:25:24.000Z</time>
      </trkpt>
      <trkpt lat="47.25947" lon="-1.5575">
        <ele>10.414001464844</ele>
        <time>2016-11-22T10:25:26.000Z</time>
      </trkpt>
      <trkpt lat="47.25948" lon="-1.55748">
        <ele>10.443850517273</ele>
        <time>2016-11-22T10:25:28.000Z</time>
      </trkpt>
      <trkpt lat="47.25949" lon="-1.55746">
        <ele>10.473045349121</ele>
        <time>2016-11-22T10:25:31.000Z</time>
      </trkpt>
      <trkpt lat="47.25951" lon="-1.55747">
        <ele>10.508264541626</ele>
        <time>2016-11-22T10:25:33.000Z</time>
      </trkpt>
      <trkpt lat="47.25955" lon="-1.55737">
        <ele>10.541019439697</ele>
        <time>2016-11-22T10:26:04.000Z</time>
      </trkpt>
      <trkpt lat="47.25953" lon="-1.55732">
        <ele>10.538143157959</ele>
        <time>2016-11-22T10:26:06.000Z</time>
      </trkpt>
      <trkpt lat="47.25952" lon="-1.55728">
        <ele>10.514219284058</ele>
        <time>2016-11-22T10:26:09.000Z</time>
      </trkpt>
      <trkpt lat="47.25949" lon="-1.55724">
        <ele>10.451370239258</ele>
        <time>2016-11-22T10:26:12.000Z</time>
      </trkpt>
      <trkpt lat="47.25948" lon="-1.55721">
        <ele>10.350383758545</ele>
        <time>2016-11-22T10:26:14.000Z</time>
      </trkpt>
      <trkpt lat="47.25945" lon="-1.55716">
        <ele>10.210416793823</ele>
        <time>2016-11-22T10:26:17.000Z</time>
      </trkpt>
      <trkpt lat="47.25942" lon="-1.55715">
        <ele>10.087846755981</ele>
        <time>2016-11-22T10:26:19.000Z</time>
      </trkpt>
      <trkpt lat="47.25939" lon="-1.55713">
        <ele>9.9584255218506</ele>
        <time>2016-11-22T10:26:22.000Z</time>
      </trkpt>
      <trkpt lat="47.25938" lon="-1.55708">
        <ele>9.843542098999</ele>
        <time>2016-11-22T10:26:24.000Z</time>
      </trkpt>
      <trkpt lat="47.25939" lon="-1.55701">
        <ele>9.7406845092773</ele>
        <time>2016-11-22T10:26:27.000Z</time>
      </trkpt>
      <trkpt lat="47.2594" lon="-1.55697">
        <ele>9.6691951751709</ele>
        <time>2016-11-22T10:26:30.000Z</time>
      </trkpt>
      <trkpt lat="47.25941" lon="-1.55694">
        <ele>9.6161861419678</ele>
        <time>2016-11-22T10:26:32.000Z</time>
      </trkpt>
      <trkpt lat="47.25941" lon="-1.55691">
        <ele>9.5852165222168</ele>
        <time>2016-11-22T10:26:34.000Z</time>
      </trkpt>
      <trkpt lat="47.2594" lon="-1.55689">
        <ele>9.5623035430908</ele>
        <time>2016-11-22T10:26:36.000Z</time>
      </trkpt>
      <trkpt lat="47.2594" lon="-1.55684">
        <ele>9.5354633331299</ele>
        <time>2016-11-22T10:26:39.000Z</time>
      </trkpt>
      <trkpt lat="47.25942" lon="-1.55681">
        <ele>9.5124759674072</ele>
        <time>2016-11-22T10:26:41.000Z</time>
      </trkpt>
      <trkpt lat="47.25946" lon="-1.55678">
        <ele>9.494330406189</ele>
        <time>2016-11-22T10:26:44.000Z</time>
      </trkpt>
      <trkpt lat="47.25948" lon="-1.55675">
        <ele>9.4806270599365</ele>
        <time>2016-11-22T10:26:47.000Z</time>
      </trkpt>
      <trkpt lat="47.25949" lon="-1.55669">
        <ele>9.463171005249</ele>
        <time>2016-11-22T10:26:50.000Z</time>
      </trkpt>
      <trkpt lat="47.2595" lon="-1.55663">
        <ele>9.4301280975342</ele>
        <time>2016-11-22T10:26:53.000Z</time>
      </trkpt>
      <trkpt lat="47.25951" lon="-1.55658">
        <ele>9.3669490814209</ele>
        <time>2016-11-22T10:26:56.000Z</time>
      </trkpt>
      <trkpt lat="47.25952" lon="-1.55655">
        <ele>9.2829580307007</ele>
        <time>2016-11-22T10:26:58.000Z</time>
      </trkpt>
      <trkpt lat="47.25953" lon="-1.55652">
        <ele>9.1847524642944</ele>
        <time>2016-11-22T10:27:00.000Z</time>
      </trkpt>
      <trkpt lat="47.25955" lon="-1.55647">
        <ele>9.0758762359619</ele>
        <time>2016-11-22T10:27:03.000Z</time>
      </trkpt>
      <trkpt lat="47.25957" lon="-1.55645">
        <ele>8.9821300506592</ele>
        <time>2016-11-22T10:27:05.000Z</time>
      </trkpt>
      <trkpt lat="47.25959" lon="-1.55642">
        <ele>8.9089784622192</ele>
        <time>2016-11-22T10:27:07.000Z</time>
      </trkpt>
      <trkpt lat="47.25961" lon="-1.55639">
        <ele>8.8372917175293</ele>
        <time>2016-11-22T10:27:10.000Z</time>
      </trkpt>
      <trkpt lat="47.25961" lon="-1.55636">
        <ele>8.7603349685669</ele>
        <time>2016-11-22T10:27:13.000Z</time>
      </trkpt>
      <trkpt lat="47.25961" lon="-1.55632">
        <ele>8.6873922348022</ele>
        <time>2016-11-22T10:27:15.000Z</time>
      </trkpt>
      <trkpt lat="47.25963" lon="-1.55628">
        <ele>8.607027053833</ele>
        <time>2016-11-22T10:27:17.000Z</time>
      </trkpt>
      <trkpt lat="47.25966" lon="-1.55625">
        <ele>8.5316562652588</ele>
        <time>2016-11-22T10:27:20.000Z</time>
      </trkpt>
      <trkpt lat="47.2597" lon="-1.55625">
        <ele>8.4835987091064</ele>
        <time>2016-11-22T10:27:23.000Z</time>
      </trkpt>
      <trkpt lat="47.25974" lon="-1.55624">
        <ele>8.4644374847412</ele>
        <time>2016-11-22T10:27:26.000Z</time>
      </trkpt>
      <trkpt lat="47.25977" lon="-1.55623">
        <ele>8.4710083007812</ele>
        <time>2016-11-22T10:27:29.000Z</time>
      </trkpt>
      <trkpt lat="47.2598" lon="-1.55622">
        <ele>8.4957580566406</ele>
        <time>2016-11-22T10:27:32.000Z</time>
      </trkpt>
      <trkpt lat="47.25982" lon="-1.5562">
        <ele>8.522533416748</ele>
        <time>2016-11-22T10:27:34.000Z</time>
      </trkpt>
      <trkpt lat="47.25984" lon="-1.55618">
        <ele>8.533971786499</ele>
        <time>2016-11-22T10:27:36.000Z</time>
      </trkpt>
      <trkpt lat="47.25986" lon="-1.55616">
        <ele>8.5361776351929</ele>
        <time>2016-11-22T10:27:39.000Z</time>
      </trkpt>
      <trkpt lat="47.25989" lon="-1.55615">
        <ele>8.5371704101562</ele>
        <time>2016-11-22T10:27:41.000Z</time>
      </trkpt>
      <trkpt lat="47.25993" lon="-1.55614">
        <ele>8.5498180389404</ele>
        <time>2016-11-22T10:27:44.000Z</time>
      </trkpt>
      <trkpt lat="47.25997" lon="-1.55613">
        <ele>8.5755643844604</ele>
        <time>2016-11-22T10:27:47.000Z</time>
      </trkpt>
      <trkpt lat="47.25999" lon="-1.55612">
        <ele>8.6057529449463</ele>
        <time>2016-11-22T10:27:49.000Z</time>
      </trkpt>
      <trkpt lat="47.26002" lon="-1.5561">
        <ele>8.6209363937378</ele>
        <time>2016-11-22T10:27:52.000Z</time>
      </trkpt>
      <trkpt lat="47.26003" lon="-1.55606">
        <ele>8.6115503311157</ele>
        <time>2016-11-22T10:27:55.000Z</time>
      </trkpt>
      <trkpt lat="47.26003" lon="-1.556">
        <ele>8.5627040863037</ele>
        <time>2016-11-22T10:27:58.000Z</time>
      </trkpt>
      <trkpt lat="47.26003" lon="-1.55595">
        <ele>8.4744863510132</ele>
        <time>2016-11-22T10:28:01.000Z</time>
      </trkpt>
      <trkpt lat="47.26004" lon="-1.55588">
        <ele>8.3536415100098</ele>
        <time>2016-11-22T10:28:04.000Z</time>
      </trkpt>
      <trkpt lat="47.26004" lon="-1.55584">
        <ele>8.2282390594482</ele>
        <time>2016-11-22T10:28:06.000Z</time>
      </trkpt>
      <trkpt lat="47.26006" lon="-1.55579">
        <ele>8.0946664810181</ele>
        <time>2016-11-22T10:28:09.000Z</time>
      </trkpt>
      <trkpt lat="47.26007" lon="-1.55575">
        <ele>7.9672980308533</ele>
        <time>2016-11-22T10:28:11.000Z</time>
      </trkpt>
      <trkpt lat="47.26008" lon="-1.5557">
        <ele>7.8423018455505</ele>
        <time>2016-11-22T10:28:14.000Z</time>
      </trkpt>
      <trkpt lat="47.26009" lon="-1.55565">
        <ele>7.7210416793823</ele>
        <time>2016-11-22T10:28:17.000Z</time>
      </trkpt>
      <trkpt lat="47.26011" lon="-1.55559">
        <ele>7.592625617981</ele>
        <time>2016-11-22T10:28:20.000Z</time>
      </trkpt>
      <trkpt lat="47.26012" lon="-1.55558">
        <ele>7.4841909408569</ele>
        <time>2016-11-22T10:28:22.000Z</time>
      </trkpt>
      <trkpt lat="47.26015" lon="-1.55553">
        <ele>7.3714904785156</ele>
        <time>2016-11-22T10:28:25.000Z</time>
      </trkpt>
      <trkpt lat="47.26015" lon="-1.55549">
        <ele>7.2629051208496</ele>
        <time>2016-11-22T10:28:27.000Z</time>
      </trkpt>
      <trkpt lat="47.26017" lon="-1.55542">
        <ele>7.1530508995056</ele>
        <time>2016-11-22T10:28:30.000Z</time>
      </trkpt>
      <trkpt lat="47.26019" lon="-1.55535">
        <ele>7.0379915237427</ele>
        <time>2016-11-22T10:28:33.000Z</time>
      </trkpt>
      <trkpt lat="47.2602" lon="-1.55529">
        <ele>6.9035940170288</ele>
        <time>2016-11-22T10:28:36.000Z</time>
      </trkpt>
      <trkpt lat="47.26022" lon="-1.55526">
        <ele>6.7802858352661</ele>
        <time>2016-11-22T10:28:38.000Z</time>
      </trkpt>
      <trkpt lat="47.26025" lon="-1.5552">
        <ele>6.6490793228149</ele>
        <time>2016-11-22T10:28:41.000Z</time>
      </trkpt>
      <trkpt lat="47.26027" lon="-1.55513">
        <ele>6.5186796188354</ele>
        <time>2016-11-22T10:28:44.000Z</time>
      </trkpt>
      <trkpt lat="47.26028" lon="-1.55509">
        <ele>6.4021158218384</ele>
        <time>2016-11-22T10:28:46.000Z</time>
      </trkpt>
      <trkpt lat="47.26029" lon="-1.55505">
        <ele>6.2981548309326</ele>
        <time>2016-11-22T10:28:48.000Z</time>
      </trkpt>
      <trkpt lat="47.2603" lon="-1.555">
        <ele>6.1880812644958</ele>
        <time>2016-11-22T10:28:50.000Z</time>
      </trkpt>
      <trkpt lat="47.26032" lon="-1.55494">
        <ele>6.1130495071411</ele>
        <time>2016-11-22T10:28:53.000Z</time>
      </trkpt>
      <trkpt lat="47.26034" lon="-1.55489">
        <ele>6.0705528259277</ele>
        <time>2016-11-22T10:28:56.000Z</time>
      </trkpt>
      <trkpt lat="47.26036" lon="-1.55485">
        <ele>6.0514750480652</ele>
        <time>2016-11-22T10:28:58.000Z</time>
      </trkpt>
      <trkpt lat="47.26038" lon="-1.55479">
        <ele>6.055495262146</ele>
        <time>2016-11-22T10:29:01.000Z</time>
      </trkpt>
      <trkpt lat="47.2604" lon="-1.55475">
        <ele>6.0841574668884</ele>
        <time>2016-11-22T10:29:03.000Z</time>
      </trkpt>
      <trkpt lat="47.26041" lon="-1.55469">
        <ele>6.1153545379639</ele>
        <time>2016-11-22T10:29:06.000Z</time>
      </trkpt>
      <trkpt lat="47.26042" lon="-1.55464">
        <ele>6.1481714248657</ele>
        <time>2016-11-22T10:29:08.000Z</time>
      </trkpt>
      <trkpt lat="47.26043" lon="-1.5546">
        <ele>6.1821298599243</ele>
        <time>2016-11-22T10:29:10.000Z</time>
      </trkpt>
      <trkpt lat="47.26044" lon="-1.55455">
        <ele>6.2153749465942</ele>
        <time>2016-11-22T10:29:12.000Z</time>
      </trkpt>
      <trkpt lat="47.26046" lon="-1.55448">
        <ele>6.2554063796997</ele>
        <time>2016-11-22T10:29:15.000Z</time>
      </trkpt>
      <trkpt lat="47.26047" lon="-1.55443">
        <ele>6.2956881523132</ele>
        <time>2016-11-22T10:29:18.000Z</time>
      </trkpt>
      <trkpt lat="47.26049" lon="-1.55437">
        <ele>6.3423509597778</ele>
        <time>2016-11-22T10:29:21.000Z</time>
      </trkpt>
      <trkpt lat="47.26051" lon="-1.55433">
        <ele>6.391800403595</ele>
        <time>2016-11-22T10:29:23.000Z</time>
      </trkpt>
      <trkpt lat="47.26052" lon="-1.55429">
        <ele>6.4431219100952</ele>
        <time>2016-11-22T10:29:25.000Z</time>
      </trkpt>
      <trkpt lat="47.26054" lon="-1.55423">
        <ele>6.4935240745544</ele>
        <time>2016-11-22T10:29:28.000Z</time>
      </trkpt>
      <trkpt lat="47.26056" lon="-1.55416">
        <ele>6.549693107605</ele>
        <time>2016-11-22T10:29:31.000Z</time>
      </trkpt>
      <trkpt lat="47.26057" lon="-1.55412">
        <ele>6.6026163101196</ele>
        <time>2016-11-22T10:29:33.000Z</time>
      </trkpt>
      <trkpt lat="47.26057" lon="-1.55406">
        <ele>6.6595778465271</ele>
        <time>2016-11-22T10:29:36.000Z</time>
      </trkpt>
      <trkpt lat="47.26059" lon="-1.554">
        <ele>6.7206511497498</ele>
        <time>2016-11-22T10:29:39.000Z</time>
      </trkpt>
      <trkpt lat="47.2606" lon="-1.55397">
        <ele>6.7789306640625</ele>
        <time>2016-11-22T10:29:41.000Z</time>
      </trkpt>
      <trkpt lat="47.26062" lon="-1.55392">
        <ele>6.8372983932495</ele>
        <time>2016-11-22T10:29:44.000Z</time>
      </trkpt>
      <trkpt lat="47.26064" lon="-1.55389">
        <ele>6.8992629051208</ele>
        <time>2016-11-22T10:29:46.000Z</time>
      </trkpt>
      <trkpt lat="47.26066" lon="-1.55383">
        <ele>6.9638910293579</ele>
        <time>2016-11-22T10:29:49.000Z</time>
      </trkpt>
      <trkpt lat="47.26067" lon="-1.5538">
        <ele>7.027777671814</ele>
        <time>2016-11-22T10:29:51.000Z</time>
      </trkpt>
      <trkpt lat="47.26069" lon="-1.55375">
        <ele>7.1009168624878</ele>
        <time>2016-11-22T10:29:54.000Z</time>
      </trkpt>
      <trkpt lat="47.26072" lon="-1.5537">
        <ele>7.1770429611206</ele>
        <time>2016-11-22T10:29:57.000Z</time>
      </trkpt>
      <trkpt lat="47.26074" lon="-1.55364">
        <ele>7.2616653442383</ele>
        <time>2016-11-22T10:30:00.000Z</time>
      </trkpt>
      <trkpt lat="47.26076" lon="-1.55361">
        <ele>7.3455095291138</ele>
        <time>2016-11-22T10:30:02.000Z</time>
      </trkpt>
      <trkpt lat="47.26079" lon="-1.55358">
        <ele>7.4372658729553</ele>
        <time>2016-11-22T10:30:05.000Z</time>
      </trkpt>
      <trkpt lat="47.26081" lon="-1.55354">
        <ele>7.5253839492798</ele>
        <time>2016-11-22T10:30:07.000Z</time>
      </trkpt>
      <trkpt lat="47.26082" lon="-1.55351">
        <ele>7.6111130714417</ele>
        <time>2016-11-22T10:30:09.000Z</time>
      </trkpt>
      <trkpt lat="47.26085" lon="-1.55346">
        <ele>7.6987657546997</ele>
        <time>2016-11-22T10:30:12.000Z</time>
      </trkpt>
      <trkpt lat="47.26086" lon="-1.55342">
        <ele>7.7884292602539</ele>
        <time>2016-11-22T10:30:14.000Z</time>
      </trkpt>
      <trkpt lat="47.26089" lon="-1.55337">
        <ele>7.8823766708374</ele>
        <time>2016-11-22T10:30:17.000Z</time>
      </trkpt>
      <trkpt lat="47.26091" lon="-1.55332">
        <ele>7.9804077148438</ele>
        <time>2016-11-22T10:30:20.000Z</time>
      </trkpt>
      <trkpt lat="47.26093" lon="-1.55328">
        <ele>8.0721035003662</ele>
        <time>2016-11-22T10:30:22.000Z</time>
      </trkpt>
      <trkpt lat="47.26094" lon="-1.55323">
        <ele>8.1498432159424</ele>
        <time>2016-11-22T10:30:25.000Z</time>
      </trkpt>
      <trkpt lat="47.26096" lon="-1.5532">
        <ele>8.2203769683838</ele>
        <time>2016-11-22T10:30:27.000Z</time>
      </trkpt>
      <trkpt lat="47.26098" lon="-1.55315">
        <ele>8.2787799835205</ele>
        <time>2016-11-22T10:30:30.000Z</time>
      </trkpt>
      <trkpt lat="47.26101" lon="-1.55309">
        <ele>8.3394546508789</ele>
        <time>2016-11-22T10:30:33.000Z</time>
      </trkpt>
      <trkpt lat="47.26103" lon="-1.55307">
        <ele>8.4013748168945</ele>
        <time>2016-11-22T10:30:35.000Z</time>
      </trkpt>
      <trkpt lat="47.26107" lon="-1.55305">
        <ele>8.4776620864868</ele>
        <time>2016-11-22T10:30:38.000Z</time>
      </trkpt>
      <trkpt lat="47.2611" lon="-1.55306">
        <ele>8.5623731613159</ele>
        <time>2016-11-22T10:30:40.000Z</time>
      </trkpt>
      <trkpt lat="47.26111" lon="-1.55308">
        <ele>8.6401309967041</ele>
        <time>2016-11-22T10:30:42.000Z</time>
      </trkpt>
      <trkpt lat="47.26114" lon="-1.55312">
        <ele>8.7096309661865</ele>
        <time>2016-11-22T10:30:45.000Z</time>
      </trkpt>
      <trkpt lat="47.26117" lon="-1.55314">
        <ele>8.7804002761841</ele>
        <time>2016-11-22T10:30:47.000Z</time>
      </trkpt>
      <trkpt lat="47.26121" lon="-1.55316">
        <ele>8.8489990234375</ele>
        <time>2016-11-22T10:30:50.000Z</time>
      </trkpt>
      <trkpt lat="47.26125" lon="-1.55319">
        <ele>8.9201221466064</ele>
        <time>2016-11-22T10:30:53.000Z</time>
      </trkpt>
      <trkpt lat="47.26129" lon="-1.55321">
        <ele>9.0011005401611</ele>
        <time>2016-11-22T10:30:56.000Z</time>
      </trkpt>
      <trkpt lat="47.26132" lon="-1.55324">
        <ele>9.0815801620483</ele>
        <time>2016-11-22T10:30:58.000Z</time>
      </trkpt>
      <trkpt lat="47.26135" lon="-1.55326">
        <ele>9.1621036529541</ele>
        <time>2016-11-22T10:31:01.000Z</time>
      </trkpt>
      <trkpt lat="47.26138" lon="-1.55327">
        <ele>9.2332258224487</ele>
        <time>2016-11-22T10:31:03.000Z</time>
      </trkpt>
      <trkpt lat="47.26139" lon="-1.55328">
        <ele>9.2905530929565</ele>
        <time>2016-11-22T10:31:05.000Z</time>
      </trkpt>
      <trkpt lat="47.26142" lon="-1.55329">
        <ele>9.3445711135864</ele>
        <time>2016-11-22T10:31:07.000Z</time>
      </trkpt>
      <trkpt lat="47.26144" lon="-1.55329">
        <ele>9.3965864181519</ele>
        <time>2016-11-22T10:31:10.000Z</time>
      </trkpt>
      <trkpt lat="47.26147" lon="-1.5533">
        <ele>9.4469089508057</ele>
        <time>2016-11-22T10:31:12.000Z</time>
      </trkpt>
      <trkpt lat="47.2615" lon="-1.55334">
        <ele>9.4968194961548</ele>
        <time>2016-11-22T10:31:15.000Z</time>
      </trkpt>
      <trkpt lat="47.26154" lon="-1.55337">
        <ele>9.5478420257568</ele>
        <time>2016-11-22T10:31:18.000Z</time>
      </trkpt>
      <trkpt lat="47.26157" lon="-1.55338">
        <ele>9.5968456268311</ele>
        <time>2016-11-22T10:31:20.000Z</time>
      </trkpt>
      <trkpt lat="47.26161" lon="-1.55341">
        <ele>9.651834487915</ele>
        <time>2016-11-22T10:31:23.000Z</time>
      </trkpt>
      <trkpt lat="47.26164" lon="-1.55342">
        <ele>9.7081298828125</ele>
        <time>2016-11-22T10:31:25.000Z</time>
      </trkpt>
      <trkpt lat="47.26168" lon="-1.55343">
        <ele>9.7723979949951</ele>
        <time>2016-11-22T10:31:28.000Z</time>
      </trkpt>
      <trkpt lat="47.26173" lon="-1.55344">
        <ele>9.8459024429321</ele>
        <time>2016-11-22T10:31:31.000Z</time>
      </trkpt>
      <trkpt lat="47.26177" lon="-1.55346">
        <ele>9.9204435348511</ele>
        <time>2016-11-22T10:31:34.000Z</time>
      </trkpt>
      <trkpt lat="47.26179" lon="-1.55347">
        <ele>9.9886503219604</ele>
        <time>2016-11-22T10:31:36.000Z</time>
      </trkpt>
      <trkpt lat="47.26182" lon="-1.55347">
        <ele>10.056948661804</ele>
        <time>2016-11-22T10:31:38.000Z</time>
      </trkpt>
      <trkpt lat="47.26185" lon="-1.55348">
        <ele>10.115745544434</ele>
        <time>2016-11-22T10:31:40.000Z</time>
      </trkpt>
      <trkpt lat="47.26188" lon="-1.55349">
        <ele>10.165342330933</ele>
        <time>2016-11-22T10:31:42.000Z</time>
      </trkpt>
      <trkpt lat="47.2619" lon="-1.5535">
        <ele>10.211988449097</ele>
        <time>2016-11-22T10:31:44.000Z</time>
      </trkpt>
      <trkpt lat="47.26194" lon="-1.5535">
        <ele>10.266804695129</ele>
        <time>2016-11-22T10:31:47.000Z</time>
      </trkpt>
      <trkpt lat="47.26197" lon="-1.5535">
        <ele>10.323114395142</ele>
        <time>2016-11-22T10:31:49.000Z</time>
      </trkpt>
      <trkpt lat="47.262" lon="-1.55351">
        <ele>10.380401611328</ele>
        <time>2016-11-22T10:31:51.000Z</time>
      </trkpt>
      <trkpt lat="47.26204" lon="-1.55351">
        <ele>10.445501327515</ele>
        <time>2016-11-22T10:31:53.000Z</time>
      </trkpt>
      <trkpt lat="47.26208" lon="-1.5535">
        <ele>10.523361206055</ele>
        <time>2016-11-22T10:31:56.000Z</time>
      </trkpt>
      <trkpt lat="47.2621" lon="-1.55349">
        <ele>10.598635673523</ele>
        <time>2016-11-22T10:31:58.000Z</time>
      </trkpt>
      <trkpt lat="47.26212" lon="-1.55346">
        <ele>10.679470062256</ele>
        <time>2016-11-22T10:32:01.000Z</time>
      </trkpt>
      <trkpt lat="47.26215" lon="-1.55344">
        <ele>10.769848823547</ele>
        <time>2016-11-22T10:32:03.000Z</time>
      </trkpt>
      <trkpt lat="47.26217" lon="-1.55342">
        <ele>10.861822128296</ele>
        <time>2016-11-22T10:32:05.000Z</time>
      </trkpt>
      <trkpt lat="47.26219" lon="-1.55338">
        <ele>10.958718299866</ele>
        <time>2016-11-22T10:32:08.000Z</time>
      </trkpt>
      <trkpt lat="47.26221" lon="-1.55334">
        <ele>11.063672065735</ele>
        <time>2016-11-22T10:32:10.000Z</time>
      </trkpt>
      <trkpt lat="47.26225" lon="-1.5533">
        <ele>11.181803703308</ele>
        <time>2016-11-22T10:32:13.000Z</time>
      </trkpt>
      <trkpt lat="47.26227" lon="-1.55329">
        <ele>11.297987937927</ele>
        <time>2016-11-22T10:32:15.000Z</time>
      </trkpt>
      <trkpt lat="47.2623" lon="-1.55325">
        <ele>11.425888061523</ele>
        <time>2016-11-22T10:32:18.000Z</time>
      </trkpt>
      <trkpt lat="47.26232" lon="-1.55322">
        <ele>11.551038742065</ele>
        <time>2016-11-22T10:32:20.000Z</time>
      </trkpt>
      <trkpt lat="47.26233" lon="-1.55319">
        <ele>11.676424026489</ele>
        <time>2016-11-22T10:32:22.000Z</time>
      </trkpt>
      <trkpt lat="47.26234" lon="-1.55315">
        <ele>11.790958404541</ele>
        <time>2016-11-22T10:32:24.000Z</time>
      </trkpt>
      <trkpt lat="47.26237" lon="-1.55312">
        <ele>11.913667678833</ele>
        <time>2016-11-22T10:32:27.000Z</time>
      </trkpt>
      <trkpt lat="47.26239" lon="-1.55307">
        <ele>12.04185962677</ele>
        <time>2016-11-22T10:32:30.000Z</time>
      </trkpt>
      <trkpt lat="47.26241" lon="-1.55304">
        <ele>12.170202255249</ele>
        <time>2016-11-22T10:32:32.000Z</time>
      </trkpt>
      <trkpt lat="47.26244" lon="-1.553">
        <ele>12.311929702759</ele>
        <time>2016-11-22T10:32:35.000Z</time>
      </trkpt>
      <trkpt lat="47.26247" lon="-1.55295">
        <ele>12.475843429565</ele>
        <time>2016-11-22T10:32:38.000Z</time>
      </trkpt>
      <trkpt lat="47.26251" lon="-1.55292">
        <ele>12.649337768555</ele>
        <time>2016-11-22T10:32:41.000Z</time>
      </trkpt>
      <trkpt lat="47.26253" lon="-1.55289">
        <ele>12.819808959961</ele>
        <time>2016-11-22T10:32:43.000Z</time>
      </trkpt>
      <trkpt lat="47.26256" lon="-1.55286">
        <ele>13.001922607422</ele>
        <time>2016-11-22T10:32:46.000Z</time>
      </trkpt>
      <trkpt lat="47.26258" lon="-1.55283">
        <ele>13.175621032715</ele>
        <time>2016-11-22T10:32:48.000Z</time>
      </trkpt>
      <trkpt lat="47.2626" lon="-1.55278">
        <ele>13.343139648438</ele>
        <time>2016-11-22T10:32:51.000Z</time>
      </trkpt>
      <trkpt lat="47.26263" lon="-1.55274">
        <ele>13.515380859375</ele>
        <time>2016-11-22T10:32:54.000Z</time>
      </trkpt>
      <trkpt lat="47.26265" lon="-1.55271">
        <ele>13.683532714844</ele>
        <time>2016-11-22T10:32:56.000Z</time>
      </trkpt>
      <trkpt lat="47.26266" lon="-1.55268">
        <ele>13.842651367188</ele>
        <time>2016-11-22T10:32:58.000Z</time>
      </trkpt>
      <trkpt lat="47.26268" lon="-1.55266">
        <ele>13.998474121094</ele>
        <time>2016-11-22T10:33:00.000Z</time>
      </trkpt>
      <trkpt lat="47.26272" lon="-1.55262">
        <ele>14.162170410156</ele>
        <time>2016-11-22T10:33:03.000Z</time>
      </trkpt>
      <trkpt lat="47.26274" lon="-1.55259">
        <ele>14.319885253906</ele>
        <time>2016-11-22T10:33:06.000Z</time>
      </trkpt>
      <trkpt lat="47.26277" lon="-1.55254">
        <ele>14.494262695312</ele>
        <time>2016-11-22T10:33:09.000Z</time>
      </trkpt>
      <trkpt lat="47.26279" lon="-1.55251">
        <ele>14.665405273438</ele>
        <time>2016-11-22T10:33:11.000Z</time>
      </trkpt>
      <trkpt lat="47.26281" lon="-1.55249">
        <ele>14.834544181824</ele>
        <time>2016-11-22T10:33:13.000Z</time>
      </trkpt>
      <trkpt lat="47.26283" lon="-1.55247">
        <ele>14.979711532593</ele>
        <time>2016-11-22T10:33:15.000Z</time>
      </trkpt>
      <trkpt lat="47.26286" lon="-1.55243">
        <ele>15.130661010742</ele>
        <time>2016-11-22T10:33:18.000Z</time>
      </trkpt>
      <trkpt lat="47.26289" lon="-1.55238">
        <ele>15.272747993469</ele>
        <time>2016-11-22T10:33:21.000Z</time>
      </trkpt>
      <trkpt lat="47.26291" lon="-1.55235">
        <ele>15.41766166687</ele>
        <time>2016-11-22T10:33:23.000Z</time>
      </trkpt>
      <trkpt lat="47.26293" lon="-1.55233">
        <ele>15.563003540039</ele>
        <time>2016-11-22T10:33:25.000Z</time>
      </trkpt>
      <trkpt lat="47.26296" lon="-1.5523">
        <ele>15.723472595215</ele>
        <time>2016-11-22T10:33:28.000Z</time>
      </trkpt>
      <trkpt lat="47.26299" lon="-1.55228">
        <ele>15.870440483093</ele>
        <time>2016-11-22T10:33:31.000Z</time>
      </trkpt>
      <trkpt lat="47.26302" lon="-1.55226">
        <ele>16.01526260376</ele>
        <time>2016-11-22T10:33:34.000Z</time>
      </trkpt>
      <trkpt lat="47.26304" lon="-1.55224">
        <ele>16.162221908569</ele>
        <time>2016-11-22T10:33:37.000Z</time>
      </trkpt>
      <trkpt lat="47.26307" lon="-1.55223">
        <ele>16.317819595337</ele>
        <time>2016-11-22T10:33:40.000Z</time>
      </trkpt>
      <trkpt lat="47.26309" lon="-1.55222">
        <ele>16.453029632568</ele>
        <time>2016-11-22T10:33:42.000Z</time>
      </trkpt>
      <trkpt lat="47.26311" lon="-1.55221">
        <ele>16.581439971924</ele>
        <time>2016-11-22T10:33:44.000Z</time>
      </trkpt>
      <trkpt lat="47.26313" lon="-1.5522">
        <ele>16.699014663696</ele>
        <time>2016-11-22T10:33:46.000Z</time>
      </trkpt>
      <trkpt lat="47.26316" lon="-1.55217">
        <ele>16.822204589844</ele>
        <time>2016-11-22T10:33:49.000Z</time>
      </trkpt>
      <trkpt lat="47.26318" lon="-1.55215">
        <ele>16.935977935791</ele>
        <time>2016-11-22T10:33:51.000Z</time>
      </trkpt>
      <trkpt lat="47.2632" lon="-1.55212">
        <ele>17.067951202393</ele>
        <time>2016-11-22T10:33:54.000Z</time>
      </trkpt>
      <trkpt lat="47.26323" lon="-1.5521">
        <ele>17.206983566284</ele>
        <time>2016-11-22T10:33:56.000Z</time>
      </trkpt>
      <trkpt lat="47.26326" lon="-1.55207">
        <ele>17.370294570923</ele>
        <time>2016-11-22T10:33:59.000Z</time>
      </trkpt>
      <trkpt lat="47.26328" lon="-1.55204">
        <ele>17.526916503906</ele>
        <time>2016-11-22T10:34:01.000Z</time>
      </trkpt>
      <trkpt lat="47.26331" lon="-1.552">
        <ele>17.706148147583</ele>
        <time>2016-11-22T10:34:04.000Z</time>
      </trkpt>
      <trkpt lat="47.26333" lon="-1.55197">
        <ele>17.888395309448</ele>
        <time>2016-11-22T10:34:06.000Z</time>
      </trkpt>
      <trkpt lat="47.26336" lon="-1.55196">
        <ele>18.06402015686</ele>
        <time>2016-11-22T10:34:09.000Z</time>
      </trkpt>
      <trkpt lat="47.26339" lon="-1.55195">
        <ele>18.214149475098</ele>
        <time>2016-11-22T10:34:12.000Z</time>
      </trkpt>
      <trkpt lat="47.26343" lon="-1.55196">
        <ele>18.356872558594</ele>
        <time>2016-11-22T10:34:15.000Z</time>
      </trkpt>
      <trkpt lat="47.26346" lon="-1.55197">
        <ele>18.465780258179</ele>
        <time>2016-11-22T10:34:17.000Z</time>
      </trkpt>
      <trkpt lat="47.2635" lon="-1.55199">
        <ele>18.554294586182</ele>
        <time>2016-11-22T10:34:20.000Z</time>
      </trkpt>
      <trkpt lat="47.26354" lon="-1.552">
        <ele>18.637498855591</ele>
        <time>2016-11-22T10:34:23.000Z</time>
      </trkpt>
      <trkpt lat="47.26357" lon="-1.55202">
        <ele>18.710256576538</ele>
        <time>2016-11-22T10:34:25.000Z</time>
      </trkpt>
      <trkpt lat="47.2636" lon="-1.55204">
        <ele>18.770153045654</ele>
        <time>2016-11-22T10:34:27.000Z</time>
      </trkpt>
      <trkpt lat="47.26362" lon="-1.55206">
        <ele>18.825561523438</ele>
        <time>2016-11-22T10:34:29.000Z</time>
      </trkpt>
      <trkpt lat="47.26365" lon="-1.55209">
        <ele>18.873344421387</ele>
        <time>2016-11-22T10:34:32.000Z</time>
      </trkpt>
      <trkpt lat="47.26368" lon="-1.5521">
        <ele>18.917762756348</ele>
        <time>2016-11-22T10:34:34.000Z</time>
      </trkpt>
      <trkpt lat="47.26371" lon="-1.55212">
        <ele>18.961126327515</ele>
        <time>2016-11-22T10:34:37.000Z</time>
      </trkpt>
      <trkpt lat="47.26373" lon="-1.55212">
        <ele>19.006143569946</ele>
        <time>2016-11-22T10:34:39.000Z</time>
      </trkpt>
      <trkpt lat="47.26375" lon="-1.55214">
        <ele>19.054847717285</ele>
        <time>2016-11-22T10:34:42.000Z</time>
      </trkpt>
      <trkpt lat="47.26379" lon="-1.55217">
        <ele>19.106784820557</ele>
        <time>2016-11-22T10:34:45.000Z</time>
      </trkpt>
      <trkpt lat="47.26382" lon="-1.55219">
        <ele>19.160938262939</ele>
        <time>2016-11-22T10:34:48.000Z</time>
      </trkpt>
      <trkpt lat="47.26384" lon="-1.55221">
        <ele>19.213928222656</ele>
        <time>2016-11-22T10:34:51.000Z</time>
      </trkpt>
      <trkpt lat="47.26386" lon="-1.55222">
        <ele>19.263942718506</ele>
        <time>2016-11-22T10:34:53.000Z</time>
      </trkpt>
      <trkpt lat="47.26389" lon="-1.55224">
        <ele>19.314365386963</ele>
        <time>2016-11-22T10:34:56.000Z</time>
      </trkpt>
      <trkpt lat="47.26392" lon="-1.55226">
        <ele>19.368270874023</ele>
        <time>2016-11-22T10:34:59.000Z</time>
      </trkpt>
      <trkpt lat="47.26394" lon="-1.55228">
        <ele>19.419563293457</ele>
        <time>2016-11-22T10:35:02.000Z</time>
      </trkpt>
      <trkpt lat="47.26397" lon="-1.55229">
        <ele>19.475406646729</ele>
        <time>2016-11-22T10:35:05.000Z</time>
      </trkpt>
      <trkpt lat="47.26398" lon="-1.5523">
        <ele>19.529190063477</ele>
        <time>2016-11-22T10:35:07.000Z</time>
      </trkpt>
      <trkpt lat="47.264" lon="-1.55231">
        <ele>19.581602096558</ele>
        <time>2016-11-22T10:35:09.000Z</time>
      </trkpt>
      <trkpt lat="47.26403" lon="-1.55233">
        <ele>19.632745742798</ele>
        <time>2016-11-22T10:35:12.000Z</time>
      </trkpt>
      <trkpt lat="47.26405" lon="-1.55235">
        <ele>19.680318832397</ele>
        <time>2016-11-22T10:35:14.000Z</time>
      </trkpt>
      <trkpt lat="47.26407" lon="-1.55237">
        <ele>19.725921630859</ele>
        <time>2016-11-22T10:35:17.000Z</time>
      </trkpt>
      <trkpt lat="47.2641" lon="-1.55239">
        <ele>19.782150268555</ele>
        <time>2016-11-22T10:35:19.000Z</time>
      </trkpt>
      <trkpt lat="47.26414" lon="-1.55242">
        <ele>19.852264404297</ele>
        <time>2016-11-22T10:35:22.000Z</time>
      </trkpt>
      <trkpt lat="47.26418" lon="-1.55245">
        <ele>19.92018699646</ele>
        <time>2016-11-22T10:35:24.000Z</time>
      </trkpt>
      <trkpt lat="47.26421" lon="-1.55249">
        <ele>19.977010726929</ele>
        <time>2016-11-22T10:35:27.000Z</time>
      </trkpt>
      <trkpt lat="47.26425" lon="-1.55252">
        <ele>20.025268554688</ele>
        <time>2016-11-22T10:35:29.000Z</time>
      </trkpt>
      <trkpt lat="47.26428" lon="-1.55257">
        <ele>20.058904647827</ele>
        <time>2016-11-22T10:35:32.000Z</time>
      </trkpt>
      <trkpt lat="47.2643" lon="-1.5526">
        <ele>20.069107055664</ele>
        <time>2016-11-22T10:35:34.000Z</time>
      </trkpt>
      <trkpt lat="47.26433" lon="-1.55263">
        <ele>20.068584442139</ele>
        <time>2016-11-22T10:35:37.000Z</time>
      </trkpt>
      <trkpt lat="47.26436" lon="-1.55266">
        <ele>20.074850082397</ele>
        <time>2016-11-22T10:35:40.000Z</time>
      </trkpt>
      <trkpt lat="47.2644" lon="-1.55268">
        <ele>20.084808349609</ele>
        <time>2016-11-22T10:35:43.000Z</time>
      </trkpt>
      <trkpt lat="47.26445" lon="-1.55271">
        <ele>20.10623550415</ele>
        <time>2016-11-22T10:35:46.000Z</time>
      </trkpt>
      <trkpt lat="47.2645" lon="-1.55274">
        <ele>20.13692855835</ele>
        <time>2016-11-22T10:35:49.000Z</time>
      </trkpt>
      <trkpt lat="47.26452" lon="-1.55275">
        <ele>20.171878814697</ele>
        <time>2016-11-22T10:35:51.000Z</time>
      </trkpt>
      <trkpt lat="47.26454" lon="-1.55278">
        <ele>20.207061767578</ele>
        <time>2016-11-22T10:35:53.000Z</time>
      </trkpt>
      <trkpt lat="47.26457" lon="-1.5528">
        <ele>20.241359710693</ele>
        <time>2016-11-22T10:35:55.000Z</time>
      </trkpt>
      <trkpt lat="47.2646" lon="-1.55283">
        <ele>20.273641586304</ele>
        <time>2016-11-22T10:35:58.000Z</time>
      </trkpt>
      <trkpt lat="47.26463" lon="-1.55285">
        <ele>20.301727294922</ele>
        <time>2016-11-22T10:36:00.000Z</time>
      </trkpt>
      <trkpt lat="47.26465" lon="-1.55287">
        <ele>20.332132339478</ele>
        <time>2016-11-22T10:36:03.000Z</time>
      </trkpt>
      <trkpt lat="47.26469" lon="-1.5529">
        <ele>20.366641998291</ele>
        <time>2016-11-22T10:36:06.000Z</time>
      </trkpt>
      <trkpt lat="47.26472" lon="-1.55293">
        <ele>20.40661239624</ele>
        <time>2016-11-22T10:36:09.000Z</time>
      </trkpt>
      <trkpt lat="47.26474" lon="-1.55296">
        <ele>20.443078994751</ele>
        <time>2016-11-22T10:36:12.000Z</time>
      </trkpt>
      <trkpt lat="47.26476" lon="-1.55298">
        <ele>20.480606079102</ele>
        <time>2016-11-22T10:36:14.000Z</time>
      </trkpt>
      <trkpt lat="47.2648" lon="-1.55302">
        <ele>20.522651672363</ele>
        <time>2016-11-22T10:36:17.000Z</time>
      </trkpt>
      <trkpt lat="47.26482" lon="-1.55304">
        <ele>20.56428527832</ele>
        <time>2016-11-22T10:36:19.000Z</time>
      </trkpt>
      <trkpt lat="47.26486" lon="-1.55306">
        <ele>20.609146118164</ele>
        <time>2016-11-22T10:36:22.000Z</time>
      </trkpt>
      <trkpt lat="47.26489" lon="-1.55309">
        <ele>20.659826278687</ele>
        <time>2016-11-22T10:36:25.000Z</time>
      </trkpt>
      <trkpt lat="47.26492" lon="-1.55311">
        <ele>20.718811035156</ele>
        <time>2016-11-22T10:36:28.000Z</time>
      </trkpt>
      <trkpt lat="47.26495" lon="-1.55314">
        <ele>20.773960113525</ele>
        <time>2016-11-22T10:36:30.000Z</time>
      </trkpt>
      <trkpt lat="47.26498" lon="-1.55317">
        <ele>20.836057662964</ele>
        <time>2016-11-22T10:36:33.000Z</time>
      </trkpt>
      <trkpt lat="47.26502" lon="-1.55321">
        <ele>20.900644302368</ele>
        <time>2016-11-22T10:36:36.000Z</time>
      </trkpt>
      <trkpt lat="47.26505" lon="-1.55324">
        <ele>20.969493865967</ele>
        <time>2016-11-22T10:36:39.000Z</time>
      </trkpt>
      <trkpt lat="47.26508" lon="-1.55326">
        <ele>21.035520553589</ele>
        <time>2016-11-22T10:36:41.000Z</time>
      </trkpt>
      <trkpt lat="47.26509" lon="-1.55328">
        <ele>21.103296279907</ele>
        <time>2016-11-22T10:36:43.000Z</time>
      </trkpt>
      <trkpt lat="47.26512" lon="-1.5533">
        <ele>21.165945053101</ele>
        <time>2016-11-22T10:36:45.000Z</time>
      </trkpt>
      <trkpt lat="47.26516" lon="-1.55333">
        <ele>21.232992172241</ele>
        <time>2016-11-22T10:36:48.000Z</time>
      </trkpt>
      <trkpt lat="47.2652" lon="-1.55333">
        <ele>21.304275512695</ele>
        <time>2016-11-22T10:36:51.000Z</time>
      </trkpt>
      <trkpt lat="47.26522" lon="-1.5533">
        <ele>21.375581741333</ele>
        <time>2016-11-22T10:36:54.000Z</time>
      </trkpt>
      <trkpt lat="47.26524" lon="-1.55326">
        <ele>21.442514419556</ele>
        <time>2016-11-22T10:36:56.000Z</time>
      </trkpt>
      <trkpt lat="47.26527" lon="-1.55321">
        <ele>21.508224487305</ele>
        <time>2016-11-22T10:36:59.000Z</time>
      </trkpt>
      <trkpt lat="47.26529" lon="-1.55318">
        <ele>21.56000328064</ele>
        <time>2016-11-22T10:37:01.000Z</time>
      </trkpt>
      <trkpt lat="47.26531" lon="-1.55313">
        <ele>21.596714019775</ele>
        <time>2016-11-22T10:37:04.000Z</time>
      </trkpt>
      <trkpt lat="47.26533" lon="-1.55309">
        <ele>21.625324249268</ele>
        <time>2016-11-22T10:37:06.000Z</time>
      </trkpt>
      <trkpt lat="47.26536" lon="-1.55304">
        <ele>21.654399871826</ele>
        <time>2016-11-22T10:37:09.000Z</time>
      </trkpt>
      <trkpt lat="47.26538" lon="-1.553">
        <ele>21.678928375244</ele>
        <time>2016-11-22T10:37:11.000Z</time>
      </trkpt>
      <trkpt lat="47.2654" lon="-1.55297">
        <ele>21.700471878052</ele>
        <time>2016-11-22T10:37:13.000Z</time>
      </trkpt>
      <trkpt lat="47.26542" lon="-1.55293">
        <ele>21.71947479248</ele>
        <time>2016-11-22T10:37:15.000Z</time>
      </trkpt>
      <trkpt lat="47.26545" lon="-1.55288">
        <ele>21.742351531982</ele>
        <time>2016-11-22T10:37:18.000Z</time>
      </trkpt>
      <trkpt lat="47.26548" lon="-1.55285">
        <ele>21.763370513916</ele>
        <time>2016-11-22T10:37:21.000Z</time>
      </trkpt>
      <trkpt lat="47.2655" lon="-1.55283">
        <ele>21.78352355957</ele>
        <time>2016-11-22T10:37:23.000Z</time>
      </trkpt>
      <trkpt lat="47.26553" lon="-1.55279">
        <ele>21.804807662964</ele>
        <time>2016-11-22T10:37:26.000Z</time>
      </trkpt>
      <trkpt lat="47.26554" lon="-1.55273">
        <ele>21.821271896362</ele>
        <time>2016-11-22T10:37:29.000Z</time>
      </trkpt>
      <trkpt lat="47.26557" lon="-1.55267">
        <ele>21.827381134033</ele>
        <time>2016-11-22T10:37:32.000Z</time>
      </trkpt>
      <trkpt lat="47.26559" lon="-1.55261">
        <ele>21.825061798096</ele>
        <time>2016-11-22T10:37:35.000Z</time>
      </trkpt>
      <trkpt lat="47.2656" lon="-1.55257">
        <ele>21.815654754639</ele>
        <time>2016-11-22T10:37:37.000Z</time>
      </trkpt>
      <trkpt lat="47.26562" lon="-1.55252">
        <ele>21.79790687561</ele>
        <time>2016-11-22T10:37:40.000Z</time>
      </trkpt>
      <trkpt lat="47.26563" lon="-1.55248">
        <ele>21.776453018188</ele>
        <time>2016-11-22T10:37:42.000Z</time>
      </trkpt>
      <trkpt lat="47.26566" lon="-1.55243">
        <ele>21.741554260254</ele>
        <time>2016-11-22T10:37:45.000Z</time>
      </trkpt>
      <trkpt lat="47.26568" lon="-1.55239">
        <ele>21.698925018311</ele>
        <time>2016-11-22T10:37:48.000Z</time>
      </trkpt>
      <trkpt lat="47.26568" lon="-1.55238">
        <ele>21.653366088867</ele>
        <time>2016-11-22T10:37:50.000Z</time>
      </trkpt>
      <trkpt lat="47.26569" lon="-1.55237">
        <ele>21.607595443726</ele>
        <time>2016-11-22T10:37:52.000Z</time>
      </trkpt>
      <trkpt lat="47.26571" lon="-1.55233">
        <ele>21.557109832764</ele>
        <time>2016-11-22T10:37:55.000Z</time>
      </trkpt>
      <trkpt lat="47.26573" lon="-1.55231">
        <ele>21.516550064087</ele>
        <time>2016-11-22T10:37:57.000Z</time>
      </trkpt>
      <trkpt lat="47.26577" lon="-1.55231">
        <ele>21.496068954468</ele>
        <time>2016-11-22T10:38:00.000Z</time>
      </trkpt>
      <trkpt lat="47.26581" lon="-1.55232">
        <ele>21.495090484619</ele>
        <time>2016-11-22T10:38:02.000Z</time>
      </trkpt>
      <trkpt lat="47.26585" lon="-1.55235">
        <ele>21.519771575928</ele>
        <time>2016-11-22T10:38:05.000Z</time>
      </trkpt>
      <trkpt lat="47.26587" lon="-1.55238">
        <ele>21.568475723267</ele>
        <time>2016-11-22T10:38:07.000Z</time>
      </trkpt>
      <trkpt lat="47.26591" lon="-1.55239">
        <ele>21.632843017578</ele>
        <time>2016-11-22T10:38:10.000Z</time>
      </trkpt>
      <trkpt lat="47.26595" lon="-1.5524">
        <ele>21.697380065918</ele>
        <time>2016-11-22T10:38:13.000Z</time>
      </trkpt>
      <trkpt lat="47.26598" lon="-1.55242">
        <ele>21.755081176758</ele>
        <time>2016-11-22T10:38:16.000Z</time>
      </trkpt>
      <trkpt lat="47.26602" lon="-1.55244">
        <ele>21.800186157227</ele>
        <time>2016-11-22T10:38:19.000Z</time>
      </trkpt>
      <trkpt lat="47.26605" lon="-1.55245">
        <ele>21.840528488159</ele>
        <time>2016-11-22T10:38:21.000Z</time>
      </trkpt>
      <trkpt lat="47.2661" lon="-1.55248">
        <ele>21.880603790283</ele>
        <time>2016-11-22T10:38:24.000Z</time>
      </trkpt>
      <trkpt lat="47.26614" lon="-1.5525">
        <ele>21.919897079468</ele>
        <time>2016-11-22T10:38:27.000Z</time>
      </trkpt>
      <trkpt lat="47.26618" lon="-1.55253">
        <ele>21.953941345215</ele>
        <time>2016-11-22T10:38:30.000Z</time>
      </trkpt>
      <trkpt lat="47.26621" lon="-1.55254">
        <ele>21.978729248047</ele>
        <time>2016-11-22T10:38:32.000Z</time>
      </trkpt>
      <trkpt lat="47.26625" lon="-1.55256">
        <ele>21.995010375977</ele>
        <time>2016-11-22T10:38:35.000Z</time>
      </trkpt>
      <trkpt lat="47.26627" lon="-1.55258">
        <ele>22.001491546631</ele>
        <time>2016-11-22T10:38:37.000Z</time>
      </trkpt>
      <trkpt lat="47.2663" lon="-1.5526">
        <ele>21.99831199646</ele>
        <time>2016-11-22T10:38:40.000Z</time>
      </trkpt>
      <trkpt lat="47.26633" lon="-1.55261">
        <ele>21.992528915405</ele>
        <time>2016-11-22T10:38:42.000Z</time>
      </trkpt>
      <trkpt lat="47.26635" lon="-1.55262">
        <ele>21.984773635864</ele>
        <time>2016-11-22T10:38:44.000Z</time>
      </trkpt>
      <trkpt lat="47.26638" lon="-1.55265">
        <ele>21.973085403442</ele>
        <time>2016-11-22T10:38:47.000Z</time>
      </trkpt>
      <trkpt lat="47.26641" lon="-1.55267">
        <ele>21.958515167236</ele>
        <time>2016-11-22T10:38:49.000Z</time>
      </trkpt>
      <trkpt lat="47.26644" lon="-1.5527">
        <ele>21.939266204834</ele>
        <time>2016-11-22T10:38:52.000Z</time>
      </trkpt>
      <trkpt lat="47.26648" lon="-1.55273">
        <ele>21.912935256958</ele>
        <time>2016-11-22T10:38:55.000Z</time>
      </trkpt>
      <trkpt lat="47.26651" lon="-1.55275">
        <ele>21.882617950439</ele>
        <time>2016-11-22T10:38:57.000Z</time>
      </trkpt>
      <trkpt lat="47.26653" lon="-1.55277">
        <ele>21.850730895996</ele>
        <time>2016-11-22T10:38:59.000Z</time>
      </trkpt>
      <trkpt lat="47.26656" lon="-1.5528">
        <ele>21.81315612793</ele>
        <time>2016-11-22T10:39:02.000Z</time>
      </trkpt>
      <trkpt lat="47.26659" lon="-1.55283">
        <ele>21.771144866943</ele>
        <time>2016-11-22T10:39:05.000Z</time>
      </trkpt>
      <trkpt lat="47.2666" lon="-1.55285">
        <ele>21.730785369873</ele>
        <time>2016-11-22T10:39:07.000Z</time>
      </trkpt>
      <trkpt lat="47.26663" lon="-1.55288">
        <ele>21.685276031494</ele>
        <time>2016-11-22T10:39:09.000Z</time>
      </trkpt>
      <trkpt lat="47.26667" lon="-1.5529">
        <ele>21.633386611938</ele>
        <time>2016-11-22T10:39:12.000Z</time>
      </trkpt>
      <trkpt lat="47.2667" lon="-1.55292">
        <ele>21.602891921997</ele>
        <time>2016-11-22T10:39:15.000Z</time>
      </trkpt>
      <trkpt lat="47.26674" lon="-1.55294">
        <ele>21.596984863281</ele>
        <time>2016-11-22T10:39:18.000Z</time>
      </trkpt>
      <trkpt lat="47.26677" lon="-1.55295">
        <ele>21.610494613647</ele>
        <time>2016-11-22T10:39:21.000Z</time>
      </trkpt>
      <trkpt lat="47.26681" lon="-1.55297">
        <ele>21.650268554688</ele>
        <time>2016-11-22T10:39:24.000Z</time>
      </trkpt>
      <trkpt lat="47.26683" lon="-1.55299">
        <ele>21.707000732422</ele>
        <time>2016-11-22T10:39:26.000Z</time>
      </trkpt>
      <trkpt lat="47.26685" lon="-1.553">
        <ele>21.759216308594</ele>
        <time>2016-11-22T10:39:28.000Z</time>
      </trkpt>
      <trkpt lat="47.26688" lon="-1.55303">
        <ele>21.806182861328</ele>
        <time>2016-11-22T10:39:31.000Z</time>
      </trkpt>
      <trkpt lat="47.26693" lon="-1.55305">
        <ele>21.857452392578</ele>
        <time>2016-11-22T10:39:34.000Z</time>
      </trkpt>
      <trkpt lat="47.26695" lon="-1.55306">
        <ele>21.901000976562</ele>
        <time>2016-11-22T10:39:36.000Z</time>
      </trkpt>
      <trkpt lat="47.26699" lon="-1.55307">
        <ele>21.959899902344</ele>
        <time>2016-11-22T10:39:39.000Z</time>
      </trkpt>
      <trkpt lat="47.26704" lon="-1.55308">
        <ele>22.031219482422</ele>
        <time>2016-11-22T10:39:42.000Z</time>
      </trkpt>
      <trkpt lat="47.26708" lon="-1.55308">
        <ele>22.115386962891</ele>
        <time>2016-11-22T10:39:45.000Z</time>
      </trkpt>
      <trkpt lat="47.26711" lon="-1.55307">
        <ele>22.195587158203</ele>
        <time>2016-11-22T10:39:47.000Z</time>
      </trkpt>
      <trkpt lat="47.26715" lon="-1.55308">
        <ele>22.290405273438</ele>
        <time>2016-11-22T10:39:50.000Z</time>
      </trkpt>
      <trkpt lat="47.2672" lon="-1.55309">
        <ele>22.383483886719</ele>
        <time>2016-11-22T10:39:53.000Z</time>
      </trkpt>
      <trkpt lat="47.26722" lon="-1.5531">
        <ele>22.464141845703</ele>
        <time>2016-11-22T10:39:55.000Z</time>
      </trkpt>
      <trkpt lat="47.26724" lon="-1.55312">
        <ele>22.532379150391</ele>
        <time>2016-11-22T10:39:57.000Z</time>
      </trkpt>
      <trkpt lat="47.26728" lon="-1.55313">
        <ele>22.604034423828</ele>
        <time>2016-11-22T10:40:00.000Z</time>
      </trkpt>
      <trkpt lat="47.26731" lon="-1.55314">
        <ele>22.660858154297</ele>
        <time>2016-11-22T10:40:02.000Z</time>
      </trkpt>
      <trkpt lat="47.26735" lon="-1.55315">
        <ele>22.717010498047</ele>
        <time>2016-11-22T10:40:05.000Z</time>
      </trkpt>
      <trkpt lat="47.26737" lon="-1.55316">
        <ele>22.774566650391</ele>
        <time>2016-11-22T10:40:07.000Z</time>
      </trkpt>
      <trkpt lat="47.26741" lon="-1.55317">
        <ele>22.840789794922</ele>
        <time>2016-11-22T10:40:10.000Z</time>
      </trkpt>
      <trkpt lat="47.26745" lon="-1.55319">
        <ele>22.904754638672</ele>
        <time>2016-11-22T10:40:13.000Z</time>
      </trkpt>
      <trkpt lat="47.26748" lon="-1.5532">
        <ele>22.972320556641</ele>
        <time>2016-11-22T10:40:15.000Z</time>
      </trkpt>
      <trkpt lat="47.26751" lon="-1.55322">
        <ele>23.035766601562</ele>
        <time>2016-11-22T10:40:18.000Z</time>
      </trkpt>
      <trkpt lat="47.26754" lon="-1.55323">
        <ele>23.100402832031</ele>
        <time>2016-11-22T10:40:20.000Z</time>
      </trkpt>
      <trkpt lat="47.26756" lon="-1.55324">
        <ele>23.155700683594</ele>
        <time>2016-11-22T10:40:22.000Z</time>
      </trkpt>
      <trkpt lat="47.26759" lon="-1.55325">
        <ele>23.210723876953</ele>
        <time>2016-11-22T10:40:25.000Z</time>
      </trkpt>
      <trkpt lat="47.26763" lon="-1.55328">
        <ele>23.264923095703</ele>
        <time>2016-11-22T10:40:28.000Z</time>
      </trkpt>
      <trkpt lat="47.26765" lon="-1.5533">
        <ele>23.310974121094</ele>
        <time>2016-11-22T10:40:30.000Z</time>
      </trkpt>
      <trkpt lat="47.26767" lon="-1.55332">
        <ele>23.351715087891</ele>
        <time>2016-11-22T10:40:32.000Z</time>
      </trkpt>
      <trkpt lat="47.2677" lon="-1.55335">
        <ele>23.389797210693</ele>
        <time>2016-11-22T10:40:35.000Z</time>
      </trkpt>
      <trkpt lat="47.26774" lon="-1.55336">
        <ele>23.421880722046</ele>
        <time>2016-11-22T10:40:38.000Z</time>
      </trkpt>
      <trkpt lat="47.26777" lon="-1.55335">
        <ele>23.465465545654</ele>
        <time>2016-11-22T10:40:41.000Z</time>
      </trkpt>
      <trkpt lat="47.2678" lon="-1.55332">
        <ele>23.532665252686</ele>
        <time>2016-11-22T10:40:44.000Z</time>
      </trkpt>
      <trkpt lat="47.26783" lon="-1.55328">
        <ele>23.619335174561</ele>
        <time>2016-11-22T10:40:47.000Z</time>
      </trkpt>
      <trkpt lat="47.26786" lon="-1.55327">
        <ele>23.717206954956</ele>
        <time>2016-11-22T10:40:49.000Z</time>
      </trkpt>
      <trkpt lat="47.26788" lon="-1.55325">
        <ele>23.824069976807</ele>
        <time>2016-11-22T10:40:51.000Z</time>
      </trkpt>
      <trkpt lat="47.26791" lon="-1.5532">
        <ele>23.936126708984</ele>
        <time>2016-11-22T10:40:54.000Z</time>
      </trkpt>
      <trkpt lat="47.26794" lon="-1.55315">
        <ele>24.046203613281</ele>
        <time>2016-11-22T10:40:57.000Z</time>
      </trkpt>
      <trkpt lat="47.26799" lon="-1.55312">
        <ele>24.160461425781</ele>
        <time>2016-11-22T10:41:00.000Z</time>
      </trkpt>
      <trkpt lat="47.26801" lon="-1.5531">
        <ele>24.273254394531</ele>
        <time>2016-11-22T10:41:02.000Z</time>
      </trkpt>
      <trkpt lat="47.26803" lon="-1.55307">
        <ele>24.388427734375</ele>
        <time>2016-11-22T10:41:05.000Z</time>
      </trkpt>
      <trkpt lat="47.26805" lon="-1.55305">
        <ele>24.487945556641</ele>
        <time>2016-11-22T10:41:07.000Z</time>
      </trkpt>
      <trkpt lat="47.26808" lon="-1.55303">
        <ele>24.5830078125</ele>
        <time>2016-11-22T10:41:10.000Z</time>
      </trkpt>
      <trkpt lat="47.26812" lon="-1.55301">
        <ele>24.670989990234</ele>
        <time>2016-11-22T10:41:13.000Z</time>
      </trkpt>
      <trkpt lat="47.26814" lon="-1.553">
        <ele>24.761657714844</ele>
        <time>2016-11-22T10:41:15.000Z</time>
      </trkpt>
      <trkpt lat="47.26817" lon="-1.55298">
        <ele>24.846801757812</ele>
        <time>2016-11-22T10:41:17.000Z</time>
      </trkpt>
      <trkpt lat="47.26819" lon="-1.55297">
        <ele>24.937622070312</ele>
        <time>2016-11-22T10:41:19.000Z</time>
      </trkpt>
      <trkpt lat="47.26822" lon="-1.55295">
        <ele>25.021820068359</ele>
        <time>2016-11-22T10:41:21.000Z</time>
      </trkpt>
      <trkpt lat="47.26824" lon="-1.55294">
        <ele>25.098602294922</ele>
        <time>2016-11-22T10:41:23.000Z</time>
      </trkpt>
      <trkpt lat="47.26827" lon="-1.55291">
        <ele>25.181457519531</ele>
        <time>2016-11-22T10:41:26.000Z</time>
      </trkpt>
      <trkpt lat="47.2683" lon="-1.5529">
        <ele>25.267547607422</ele>
        <time>2016-11-22T10:41:29.000Z</time>
      </trkpt>
      <trkpt lat="47.26834" lon="-1.55288">
        <ele>25.357755661011</ele>
        <time>2016-11-22T10:41:32.000Z</time>
      </trkpt>
      <trkpt lat="47.26837" lon="-1.55286">
        <ele>25.441268920898</ele>
        <time>2016-11-22T10:41:35.000Z</time>
      </trkpt>
      <trkpt lat="47.26841" lon="-1.55284">
        <ele>25.521484375</ele>
        <time>2016-11-22T10:41:38.000Z</time>
      </trkpt>
      <trkpt lat="47.26844" lon="-1.55282">
        <ele>25.587829589844</ele>
        <time>2016-11-22T10:41:40.000Z</time>
      </trkpt>
      <trkpt lat="47.26848" lon="-1.5528">
        <ele>25.648962020874</ele>
        <time>2016-11-22T10:41:43.000Z</time>
      </trkpt>
      <trkpt lat="47.26851" lon="-1.55279">
        <ele>25.697992324829</ele>
        <time>2016-11-22T10:41:45.000Z</time>
      </trkpt>
      <trkpt lat="47.26854" lon="-1.55278">
        <ele>25.744235992432</ele>
        <time>2016-11-22T10:41:47.000Z</time>
      </trkpt>
      <trkpt lat="47.26859" lon="-1.55277">
        <ele>25.791763305664</ele>
        <time>2016-11-22T10:41:50.000Z</time>
      </trkpt>
      <trkpt lat="47.26862" lon="-1.55276">
        <ele>25.837936401367</ele>
        <time>2016-11-22T10:41:53.000Z</time>
      </trkpt>
      <trkpt lat="47.26865" lon="-1.55274">
        <ele>25.881551742554</ele>
        <time>2016-11-22T10:41:56.000Z</time>
      </trkpt>
      <trkpt lat="47.26867" lon="-1.55274">
        <ele>25.922710418701</ele>
        <time>2016-11-22T10:41:58.000Z</time>
      </trkpt>
      <trkpt lat="47.26871" lon="-1.55272">
        <ele>25.970376968384</ele>
        <time>2016-11-22T10:42:01.000Z</time>
      </trkpt>
      <trkpt lat="47.26875" lon="-1.5527">
        <ele>26.021621704102</ele>
        <time>2016-11-22T10:42:04.000Z</time>
      </trkpt>
      <trkpt lat="47.2688" lon="-1.55269">
        <ele>26.077529907227</ele>
        <time>2016-11-22T10:42:07.000Z</time>
      </trkpt>
      <trkpt lat="47.26882" lon="-1.55267">
        <ele>26.134780883789</ele>
        <time>2016-11-22T10:42:09.000Z</time>
      </trkpt>
      <trkpt lat="47.26886" lon="-1.55265">
        <ele>26.199789047241</ele>
        <time>2016-11-22T10:42:12.000Z</time>
      </trkpt>
      <trkpt lat="47.26889" lon="-1.55262">
        <ele>26.27071762085</ele>
        <time>2016-11-22T10:42:15.000Z</time>
      </trkpt>
      <trkpt lat="47.26892" lon="-1.55261">
        <ele>26.338596343994</ele>
        <time>2016-11-22T10:42:17.000Z</time>
      </trkpt>
      <trkpt lat="47.26894" lon="-1.5526">
        <ele>26.402547836304</ele>
        <time>2016-11-22T10:42:19.000Z</time>
      </trkpt>
      <trkpt lat="47.26899" lon="-1.55258">
        <ele>26.473934173584</ele>
        <time>2016-11-22T10:42:22.000Z</time>
      </trkpt>
      <trkpt lat="47.26901" lon="-1.55257">
        <ele>26.542331695557</ele>
        <time>2016-11-22T10:42:24.000Z</time>
      </trkpt>
      <trkpt lat="47.26906" lon="-1.55255">
        <ele>26.61096572876</ele>
        <time>2016-11-22T10:42:27.000Z</time>
      </trkpt>
      <trkpt lat="47.26908" lon="-1.55255">
        <ele>26.672124862671</ele>
        <time>2016-11-22T10:42:29.000Z</time>
      </trkpt>
      <trkpt lat="47.2691" lon="-1.55254">
        <ele>26.734903335571</ele>
        <time>2016-11-22T10:42:31.000Z</time>
      </trkpt>
      <trkpt lat="47.26913" lon="-1.55252">
        <ele>26.795782089233</ele>
        <time>2016-11-22T10:42:34.000Z</time>
      </trkpt>
      <trkpt lat="47.26916" lon="-1.5525">
        <ele>26.859661102295</ele>
        <time>2016-11-22T10:42:37.000Z</time>
      </trkpt>
      <trkpt lat="47.26918" lon="-1.55249">
        <ele>26.919017791748</ele>
        <time>2016-11-22T10:42:39.000Z</time>
      </trkpt>
      <trkpt lat="47.26921" lon="-1.55249">
        <ele>26.986852645874</ele>
        <time>2016-11-22T10:42:41.000Z</time>
      </trkpt>
      <trkpt lat="47.26925" lon="-1.55248">
        <ele>27.077350616455</ele>
        <time>2016-11-22T10:42:44.000Z</time>
      </trkpt>
      <trkpt lat="47.26928" lon="-1.55248">
        <ele>27.169284820557</ele>
        <time>2016-11-22T10:42:46.000Z</time>
      </trkpt>
      <trkpt lat="47.26934" lon="-1.55246">
        <ele>27.282958984375</ele>
        <time>2016-11-22T10:42:49.000Z</time>
      </trkpt>
      <trkpt lat="47.26936" lon="-1.55244">
        <ele>27.399871826172</ele>
        <time>2016-11-22T10:42:51.000Z</time>
      </trkpt>
      <trkpt lat="47.26939" lon="-1.55243">
        <ele>27.519958496094</ele>
        <time>2016-11-22T10:42:53.000Z</time>
      </trkpt>
      <trkpt lat="47.26942" lon="-1.55241">
        <ele>27.623718261719</ele>
        <time>2016-11-22T10:42:55.000Z</time>
      </trkpt>
      <trkpt lat="47.26944" lon="-1.5524">
        <ele>27.722198486328</ele>
        <time>2016-11-22T10:42:57.000Z</time>
      </trkpt>
      <trkpt lat="47.26947" lon="-1.55238">
        <ele>27.802856445312</ele>
        <time>2016-11-22T10:43:00.000Z</time>
      </trkpt>
      <trkpt lat="47.2695" lon="-1.55236">
        <ele>27.88037109375</ele>
        <time>2016-11-22T10:43:02.000Z</time>
      </trkpt>
      <trkpt lat="47.26952" lon="-1.55234">
        <ele>27.954223632812</ele>
        <time>2016-11-22T10:43:05.000Z</time>
      </trkpt>
      <trkpt lat="47.26956" lon="-1.55233">
        <ele>28.034240722656</ele>
        <time>2016-11-22T10:43:07.000Z</time>
      </trkpt>
      <trkpt lat="47.26959" lon="-1.55232">
        <ele>28.123260498047</ele>
        <time>2016-11-22T10:43:09.000Z</time>
      </trkpt>
      <trkpt lat="47.26962" lon="-1.55231">
        <ele>28.212768554688</ele>
        <time>2016-11-22T10:43:11.000Z</time>
      </trkpt>
      <trkpt lat="47.26965" lon="-1.5523">
        <ele>28.303344726562</ele>
        <time>2016-11-22T10:43:13.000Z</time>
      </trkpt>
      <trkpt lat="47.26968" lon="-1.5523">
        <ele>28.403137207031</ele>
        <time>2016-11-22T10:43:16.000Z</time>
      </trkpt>
      <trkpt lat="47.26971" lon="-1.55229">
        <ele>28.499176025391</ele>
        <time>2016-11-22T10:43:19.000Z</time>
      </trkpt>
      <trkpt lat="47.26972" lon="-1.55229">
        <ele>28.585479736328</ele>
        <time>2016-11-22T10:43:21.000Z</time>
      </trkpt>
      <trkpt lat="47.26973" lon="-1.5523">
        <ele>28.663726806641</ele>
        <time>2016-11-22T10:43:23.000Z</time>
      </trkpt>
      <trkpt lat="47.26975" lon="-1.55234">
        <ele>28.746215820312</ele>
        <time>2016-11-22T10:43:26.000Z</time>
      </trkpt>
      <trkpt lat="47.26974" lon="-1.55238">
        <ele>28.813171386719</ele>
        <time>2016-11-22T10:43:28.000Z</time>
      </trkpt>
      <trkpt lat="47.26971" lon="-1.55244">
        <ele>28.855163574219</ele>
        <time>2016-11-22T10:43:31.000Z</time>
      </trkpt>
      <trkpt lat="47.26971" lon="-1.55249">
        <ele>28.8955078125</ele>
        <time>2016-11-22T10:43:34.000Z</time>
      </trkpt>
      <trkpt lat="47.26971" lon="-1.55256">
        <ele>28.874267578125</ele>
        <time>2016-11-22T10:43:37.000Z</time>
      </trkpt>
      <trkpt lat="47.26973" lon="-1.55263">
        <ele>28.775218963623</ele>
        <time>2016-11-22T10:43:40.000Z</time>
      </trkpt>
      <trkpt lat="47.26974" lon="-1.55268">
        <ele>28.625076293945</ele>
        <time>2016-11-22T10:43:43.000Z</time>
      </trkpt>
      <trkpt lat="47.26975" lon="-1.55271">
        <ele>28.460107803345</ele>
        <time>2016-11-22T10:43:46.000Z</time>
      </trkpt>
      <trkpt lat="47.26976" lon="-1.55271">
        <ele>28.287525177002</ele>
        <time>2016-11-22T10:43:49.000Z</time>
      </trkpt>
      <trkpt lat="47.26978" lon="-1.55264">
        <ele>28.248580932617</ele>
        <time>2016-11-22T10:44:37.000Z</time>
      </trkpt>
      <trkpt lat="47.26981" lon="-1.55263">
        <ele>28.297428131104</ele>
        <time>2016-11-22T10:44:39.000Z</time>
      </trkpt>
      <trkpt lat="47.26984" lon="-1.55261">
        <ele>28.424982070923</ele>
        <time>2016-11-22T10:44:41.000Z</time>
      </trkpt>
      <trkpt lat="47.26985" lon="-1.55258">
        <ele>28.617746353149</ele>
        <time>2016-11-22T10:44:43.000Z</time>
      </trkpt>
      <trkpt lat="47.26985" lon="-1.55253">
        <ele>28.856863021851</ele>
        <time>2016-11-22T10:44:45.000Z</time>
      </trkpt>
      <trkpt lat="47.26984" lon="-1.55248">
        <ele>29.040826797485</ele>
        <time>2016-11-22T10:44:47.000Z</time>
      </trkpt>
      <trkpt lat="47.26984" lon="-1.55241">
        <ele>29.172912597656</ele>
        <time>2016-11-22T10:44:50.000Z</time>
      </trkpt>
      <trkpt lat="47.26984" lon="-1.55237">
        <ele>29.261203765869</ele>
        <time>2016-11-22T10:44:52.000Z</time>
      </trkpt>
      <trkpt lat="47.26986" lon="-1.55232">
        <ele>29.310647964478</ele>
        <time>2016-11-22T10:44:55.000Z</time>
      </trkpt>
      <trkpt lat="47.26988" lon="-1.5523">
        <ele>29.320281982422</ele>
        <time>2016-11-22T10:44:58.000Z</time>
      </trkpt>
      <trkpt lat="47.26988" lon="-1.5523">
        <ele>29.320281982422</ele>
        <time>2016-11-22T10:45:11.000Z</time>
      </trkpt>
    </trkseg>
  </trk>
</gpx>